<?xml version="1.0" encoding="UTF-8" standalone="no" ?>
<gpx xmlns="http://www.topografix.com/GPX/1/1" xmlns:xsi="http://www.w3.org/2001/XMLSchema-instance" xsi:schemaLocation="http://www.topografix.com/GPX/1/1 http://www.topografix.com/GPX/1/1/gpx.xsd" version="1.1" creator="VisuGPX - https://www.visugpx.com">
  <metadata>
    <name>PremierTracé</name>
    <desc><![CDATA[Mon premier tracé moins de caractère]]></desc>
  </metadata>
  <trk>
    <name><![CDATA[Saint-Lizier Reco]]></name>
    <trkseg>
      <trkpt lat="43.00103" lon="1.15918">
        <ele>453.4</ele>
        <time>2013-02-12T08:18:37Z</time>
      </trkpt>
      <trkpt lat="43.00103" lon="1.15918">
        <ele>454.84</ele>
        <time>2013-02-12T08:18:46Z</time>
      </trkpt>
      <trkpt lat="43.00103" lon="1.15918">
        <ele>454.36</ele>
        <time>2013-02-12T08:18:51Z</time>
      </trkpt>
      <trkpt lat="43.00105" lon="1.15916">
        <ele>454.36</ele>
        <time>2013-02-12T08:18:57Z</time>
      </trkpt>
      <trkpt lat="43.00105" lon="1.15917">
        <ele>454.36</ele>
        <time>2013-02-12T08:19:07Z</time>
      </trkpt>
      <trkpt lat="43.00105" lon="1.15917">
        <ele>453.88</ele>
        <time>2013-02-12T08:19:18Z</time>
      </trkpt>
      <trkpt lat="43.00105" lon="1.15917">
        <ele>454.84</ele>
        <time>2013-02-12T08:19:20Z</time>
      </trkpt>
      <trkpt lat="43.00106" lon="1.15916">
        <ele>456.28</ele>
        <time>2013-02-12T08:19:26Z</time>
      </trkpt>
      <trkpt lat="43.00107" lon="1.15916">
        <ele>455.8</ele>
        <time>2013-02-12T08:19:35Z</time>
      </trkpt>
      <trkpt lat="43.00107" lon="1.15915">
        <ele>454.84</ele>
        <time>2013-02-12T08:19:42Z</time>
      </trkpt>
      <trkpt lat="43.00106" lon="1.15916">
        <ele>454.84</ele>
        <time>2013-02-12T08:19:53Z</time>
      </trkpt>
      <trkpt lat="43.00105" lon="1.15916">
        <ele>456.28</ele>
        <time>2013-02-12T08:19:56Z</time>
      </trkpt>
      <trkpt lat="43.00106" lon="1.15917">
        <ele>455.8</ele>
        <time>2013-02-12T08:19:58Z</time>
      </trkpt>
      <trkpt lat="43.00113" lon="1.15917">
        <ele>454.84</ele>
        <time>2013-02-12T08:20:06Z</time>
      </trkpt>
      <trkpt lat="43.00116" lon="1.15916">
        <ele>454.84</ele>
        <time>2013-02-12T08:20:09Z</time>
      </trkpt>
      <trkpt lat="43.00122" lon="1.15917">
        <ele>454.36</ele>
        <time>2013-02-12T08:20:16Z</time>
      </trkpt>
      <trkpt lat="43.00124" lon="1.15924">
        <ele>452.92</ele>
        <time>2013-02-12T08:20:23Z</time>
      </trkpt>
      <trkpt lat="43.00124" lon="1.15925">
        <ele>453.88</ele>
        <time>2013-02-12T08:20:24Z</time>
      </trkpt>
      <trkpt lat="43.00126" lon="1.15939">
        <ele>453.88</ele>
        <time>2013-02-12T08:20:33Z</time>
      </trkpt>
      <trkpt lat="43.00128" lon="1.15946">
        <ele>450.03</ele>
        <time>2013-02-12T08:20:38Z</time>
      </trkpt>
      <trkpt lat="43.00129" lon="1.15948">
        <ele>455.32</ele>
        <time>2013-02-12T08:20:39Z</time>
      </trkpt>
      <trkpt lat="43.00129" lon="1.15948">
        <ele>452.92</ele>
        <time>2013-02-12T08:20:40Z</time>
      </trkpt>
      <trkpt lat="43.00134" lon="1.15944">
        <ele>451.96</ele>
        <time>2013-02-12T08:20:47Z</time>
      </trkpt>
      <trkpt lat="43.00147" lon="1.15942">
        <ele>452.44</ele>
        <time>2013-02-12T08:20:56Z</time>
      </trkpt>
      <trkpt lat="43.00156" lon="1.15941">
        <ele>450.03</ele>
        <time>2013-02-12T08:21:05Z</time>
      </trkpt>
      <trkpt lat="43.00164" lon="1.15939">
        <ele>450.52</ele>
        <time>2013-02-12T08:21:13Z</time>
      </trkpt>
      <trkpt lat="43.00175" lon="1.15933">
        <ele>449.07</ele>
        <time>2013-02-12T08:21:22Z</time>
      </trkpt>
      <trkpt lat="43.00178" lon="1.1593">
        <ele>449.55</ele>
        <time>2013-02-12T08:21:26Z</time>
      </trkpt>
      <trkpt lat="43.00188" lon="1.15928">
        <ele>450.03</ele>
        <time>2013-02-12T08:21:33Z</time>
      </trkpt>
      <trkpt lat="43.00198" lon="1.15928">
        <ele>449.55</ele>
        <time>2013-02-12T08:21:42Z</time>
      </trkpt>
      <trkpt lat="43.00199" lon="1.15927">
        <ele>449.55</ele>
        <time>2013-02-12T08:21:43Z</time>
      </trkpt>
      <trkpt lat="43.00202" lon="1.15925">
        <ele>449.55</ele>
        <time>2013-02-12T08:21:46Z</time>
      </trkpt>
      <trkpt lat="43.00212" lon="1.15921">
        <ele>450.03</ele>
        <time>2013-02-12T08:21:53Z</time>
      </trkpt>
      <trkpt lat="43.00221" lon="1.15919">
        <ele>450.03</ele>
        <time>2013-02-12T08:22:00Z</time>
      </trkpt>
      <trkpt lat="43.00229" lon="1.15918">
        <ele>450.03</ele>
        <time>2013-02-12T08:22:07Z</time>
      </trkpt>
      <trkpt lat="43.00236" lon="1.15918">
        <ele>450.03</ele>
        <time>2013-02-12T08:22:12Z</time>
      </trkpt>
      <trkpt lat="43.00245" lon="1.15916">
        <ele>450.52</ele>
        <time>2013-02-12T08:22:19Z</time>
      </trkpt>
      <trkpt lat="43.00249" lon="1.15911">
        <ele>450.52</ele>
        <time>2013-02-12T08:22:24Z</time>
      </trkpt>
      <trkpt lat="43.00259" lon="1.15908">
        <ele>450.03</ele>
        <time>2013-02-12T08:22:34Z</time>
      </trkpt>
      <trkpt lat="43.0027" lon="1.15906">
        <ele>451</ele>
        <time>2013-02-12T08:22:42Z</time>
      </trkpt>
      <trkpt lat="43.00279" lon="1.15904">
        <ele>451.96</ele>
        <time>2013-02-12T08:22:49Z</time>
      </trkpt>
      <trkpt lat="43.00288" lon="1.15902">
        <ele>452.44</ele>
        <time>2013-02-12T08:22:56Z</time>
      </trkpt>
      <trkpt lat="43.00298" lon="1.15901">
        <ele>452.92</ele>
        <time>2013-02-12T08:23:03Z</time>
      </trkpt>
      <trkpt lat="43.00305" lon="1.15899">
        <ele>453.88</ele>
        <time>2013-02-12T08:23:12Z</time>
      </trkpt>
      <trkpt lat="43.00314" lon="1.15895">
        <ele>454.36</ele>
        <time>2013-02-12T08:23:20Z</time>
      </trkpt>
      <trkpt lat="43.00324" lon="1.15892">
        <ele>455.32</ele>
        <time>2013-02-12T08:23:29Z</time>
      </trkpt>
      <trkpt lat="43.00332" lon="1.15892">
        <ele>456.28</ele>
        <time>2013-02-12T08:23:36Z</time>
      </trkpt>
      <trkpt lat="43.00343" lon="1.15889">
        <ele>457.24</ele>
        <time>2013-02-12T08:23:44Z</time>
      </trkpt>
      <trkpt lat="43.00351" lon="1.15887">
        <ele>458.21</ele>
        <time>2013-02-12T08:23:51Z</time>
      </trkpt>
      <trkpt lat="43.00361" lon="1.15884">
        <ele>459.17</ele>
        <time>2013-02-12T08:23:59Z</time>
      </trkpt>
      <trkpt lat="43.00368" lon="1.15884">
        <ele>460.13</ele>
        <time>2013-02-12T08:24:05Z</time>
      </trkpt>
      <trkpt lat="43.00376" lon="1.15883">
        <ele>461.09</ele>
        <time>2013-02-12T08:24:12Z</time>
      </trkpt>
      <trkpt lat="43.00378" lon="1.15883">
        <ele>461.09</ele>
        <time>2013-02-12T08:24:14Z</time>
      </trkpt>
      <trkpt lat="43.00384" lon="1.15882">
        <ele>462.05</ele>
        <time>2013-02-12T08:24:20Z</time>
      </trkpt>
      <trkpt lat="43.00392" lon="1.15883">
        <ele>462.53</ele>
        <time>2013-02-12T08:24:29Z</time>
      </trkpt>
      <trkpt lat="43.00393" lon="1.15883">
        <ele>463.49</ele>
        <time>2013-02-12T08:24:30Z</time>
      </trkpt>
      <trkpt lat="43.00406" lon="1.15884">
        <ele>463.97</ele>
        <time>2013-02-12T08:24:40Z</time>
      </trkpt>
      <trkpt lat="43.00415" lon="1.15887">
        <ele>463.97</ele>
        <time>2013-02-12T08:24:48Z</time>
      </trkpt>
      <trkpt lat="43.00426" lon="1.15883">
        <ele>463.97</ele>
        <time>2013-02-12T08:24:55Z</time>
      </trkpt>
      <trkpt lat="43.00436" lon="1.15879">
        <ele>464.93</ele>
        <time>2013-02-12T08:25:03Z</time>
      </trkpt>
      <trkpt lat="43.00446" lon="1.15876">
        <ele>464.45</ele>
        <time>2013-02-12T08:25:10Z</time>
      </trkpt>
      <trkpt lat="43.00455" lon="1.15874">
        <ele>464.45</ele>
        <time>2013-02-12T08:25:17Z</time>
      </trkpt>
      <trkpt lat="43.00464" lon="1.1587">
        <ele>463.97</ele>
        <time>2013-02-12T08:25:23Z</time>
      </trkpt>
      <trkpt lat="43.00472" lon="1.15868">
        <ele>463.97</ele>
        <time>2013-02-12T08:25:30Z</time>
      </trkpt>
      <trkpt lat="43.00479" lon="1.15867">
        <ele>463.49</ele>
        <time>2013-02-12T08:25:37Z</time>
      </trkpt>
      <trkpt lat="43.00484" lon="1.15865">
        <ele>463.01</ele>
        <time>2013-02-12T08:25:43Z</time>
      </trkpt>
      <trkpt lat="43.00494" lon="1.15859">
        <ele>462.05</ele>
        <time>2013-02-12T08:25:51Z</time>
      </trkpt>
      <trkpt lat="43.00502" lon="1.15855">
        <ele>462.53</ele>
        <time>2013-02-12T08:25:57Z</time>
      </trkpt>
      <trkpt lat="43.0051" lon="1.15851">
        <ele>461.57</ele>
        <time>2013-02-12T08:26:03Z</time>
      </trkpt>
      <trkpt lat="43.00519" lon="1.15846">
        <ele>461.09</ele>
        <time>2013-02-12T08:26:11Z</time>
      </trkpt>
      <trkpt lat="43.00529" lon="1.15838">
        <ele>461.09</ele>
        <time>2013-02-12T08:26:18Z</time>
      </trkpt>
      <trkpt lat="43.00536" lon="1.15831">
        <ele>460.61</ele>
        <time>2013-02-12T08:26:26Z</time>
      </trkpt>
      <trkpt lat="43.00541" lon="1.15827">
        <ele>460.13</ele>
        <time>2013-02-12T08:26:30Z</time>
      </trkpt>
      <trkpt lat="43.00545" lon="1.15822">
        <ele>459.65</ele>
        <time>2013-02-12T08:26:34Z</time>
      </trkpt>
      <trkpt lat="43.00551" lon="1.15816">
        <ele>459.17</ele>
        <time>2013-02-12T08:26:38Z</time>
      </trkpt>
      <trkpt lat="43.00559" lon="1.15812">
        <ele>459.17</ele>
        <time>2013-02-12T08:26:46Z</time>
      </trkpt>
      <trkpt lat="43.00571" lon="1.15808">
        <ele>457.24</ele>
        <time>2013-02-12T08:26:56Z</time>
      </trkpt>
      <trkpt lat="43.00581" lon="1.15802">
        <ele>456.28</ele>
        <time>2013-02-12T08:27:04Z</time>
      </trkpt>
      <trkpt lat="43.0059" lon="1.15796">
        <ele>455.32</ele>
        <time>2013-02-12T08:27:12Z</time>
      </trkpt>
      <trkpt lat="43.00598" lon="1.1579">
        <ele>454.84</ele>
        <time>2013-02-12T08:27:20Z</time>
      </trkpt>
      <trkpt lat="43.00606" lon="1.15784">
        <ele>454.36</ele>
        <time>2013-02-12T08:27:29Z</time>
      </trkpt>
      <trkpt lat="43.00608" lon="1.15784">
        <ele>453.4</ele>
        <time>2013-02-12T08:27:44Z</time>
      </trkpt>
      <trkpt lat="43.00608" lon="1.15783">
        <ele>444.27</ele>
        <time>2013-02-12T08:27:55Z</time>
      </trkpt>
      <trkpt lat="43.00608" lon="1.15783">
        <ele>454.84</ele>
        <time>2013-02-12T08:27:56Z</time>
      </trkpt>
      <trkpt lat="43.00608" lon="1.15783">
        <ele>451.48</ele>
        <time>2013-02-12T08:28:01Z</time>
      </trkpt>
      <trkpt lat="43.00608" lon="1.15783">
        <ele>455.32</ele>
        <time>2013-02-12T08:28:03Z</time>
      </trkpt>
      <trkpt lat="43.00608" lon="1.15783">
        <ele>451</ele>
        <time>2013-02-12T08:28:04Z</time>
      </trkpt>
      <trkpt lat="43.00608" lon="1.15783">
        <ele>456.76</ele>
        <time>2013-02-12T08:28:05Z</time>
      </trkpt>
      <trkpt lat="43.00608" lon="1.15783">
        <ele>453.88</ele>
        <time>2013-02-12T08:28:14Z</time>
      </trkpt>
      <trkpt lat="43.00609" lon="1.15783">
        <ele>454.36</ele>
        <time>2013-02-12T08:28:25Z</time>
      </trkpt>
      <trkpt lat="43.00609" lon="1.15783">
        <ele>451.48</ele>
        <time>2013-02-12T08:28:30Z</time>
      </trkpt>
      <trkpt lat="43.00609" lon="1.15783">
        <ele>457.24</ele>
        <time>2013-02-12T08:28:31Z</time>
      </trkpt>
      <trkpt lat="43.00609" lon="1.15783">
        <ele>452.44</ele>
        <time>2013-02-12T08:28:34Z</time>
      </trkpt>
      <trkpt lat="43.00609" lon="1.15783">
        <ele>455.8</ele>
        <time>2013-02-12T08:28:35Z</time>
      </trkpt>
      <trkpt lat="43.00609" lon="1.15784">
        <ele>455.32</ele>
        <time>2013-02-12T08:28:47Z</time>
      </trkpt>
      <trkpt lat="43.0061" lon="1.15784">
        <ele>454.36</ele>
        <time>2013-02-12T08:29:05Z</time>
      </trkpt>
      <trkpt lat="43.0061" lon="1.15784">
        <ele>454.84</ele>
        <time>2013-02-12T08:29:20Z</time>
      </trkpt>
      <trkpt lat="43.0061" lon="1.15784">
        <ele>454.84</ele>
        <time>2013-02-12T08:29:35Z</time>
      </trkpt>
      <trkpt lat="43.0061" lon="1.15784">
        <ele>454.36</ele>
        <time>2013-02-12T08:29:48Z</time>
      </trkpt>
      <trkpt lat="43.0061" lon="1.15785">
        <ele>454.84</ele>
        <time>2013-02-12T08:30:05Z</time>
      </trkpt>
      <trkpt lat="43.0061" lon="1.15785">
        <ele>451.48</ele>
        <time>2013-02-12T08:30:06Z</time>
      </trkpt>
      <trkpt lat="43.0061" lon="1.15785">
        <ele>456.28</ele>
        <time>2013-02-12T08:30:07Z</time>
      </trkpt>
      <trkpt lat="43.0061" lon="1.15785">
        <ele>457.24</ele>
        <time>2013-02-12T08:30:09Z</time>
      </trkpt>
      <trkpt lat="43.0061" lon="1.15785">
        <ele>454.84</ele>
        <time>2013-02-12T08:30:12Z</time>
      </trkpt>
      <trkpt lat="43.00611" lon="1.15783">
        <ele>451</ele>
        <time>2013-02-12T08:30:16Z</time>
      </trkpt>
      <trkpt lat="43.00612" lon="1.15782">
        <ele>457.24</ele>
        <time>2013-02-12T08:30:17Z</time>
      </trkpt>
      <trkpt lat="43.00618" lon="1.15777">
        <ele>454.36</ele>
        <time>2013-02-12T08:30:22Z</time>
      </trkpt>
      <trkpt lat="43.00625" lon="1.15771">
        <ele>454.36</ele>
        <time>2013-02-12T08:30:28Z</time>
      </trkpt>
      <trkpt lat="43.00634" lon="1.15765">
        <ele>452.92</ele>
        <time>2013-02-12T08:30:37Z</time>
      </trkpt>
      <trkpt lat="43.00644" lon="1.15758">
        <ele>451.96</ele>
        <time>2013-02-12T08:30:47Z</time>
      </trkpt>
      <trkpt lat="43.00654" lon="1.15752">
        <ele>451</ele>
        <time>2013-02-12T08:30:56Z</time>
      </trkpt>
      <trkpt lat="43.00657" lon="1.1575">
        <ele>451.48</ele>
        <time>2013-02-12T08:30:59Z</time>
      </trkpt>
      <trkpt lat="43.00668" lon="1.15746">
        <ele>450.52</ele>
        <time>2013-02-12T08:31:08Z</time>
      </trkpt>
      <trkpt lat="43.00677" lon="1.15738">
        <ele>450.03</ele>
        <time>2013-02-12T08:31:16Z</time>
      </trkpt>
      <trkpt lat="43.00685" lon="1.15731">
        <ele>449.55</ele>
        <time>2013-02-12T08:31:23Z</time>
      </trkpt>
      <trkpt lat="43.00693" lon="1.15722">
        <ele>449.55</ele>
        <time>2013-02-12T08:31:30Z</time>
      </trkpt>
      <trkpt lat="43.007" lon="1.15711">
        <ele>449.07</ele>
        <time>2013-02-12T08:31:39Z</time>
      </trkpt>
      <trkpt lat="43.00705" lon="1.15703">
        <ele>448.11</ele>
        <time>2013-02-12T08:31:45Z</time>
      </trkpt>
      <trkpt lat="43.00717" lon="1.15693">
        <ele>447.63</ele>
        <time>2013-02-12T08:31:55Z</time>
      </trkpt>
      <trkpt lat="43.00719" lon="1.15692">
        <ele>447.63</ele>
        <time>2013-02-12T08:31:57Z</time>
      </trkpt>
      <trkpt lat="43.00731" lon="1.15682">
        <ele>447.63</ele>
        <time>2013-02-12T08:32:08Z</time>
      </trkpt>
      <trkpt lat="43.00742" lon="1.15676">
        <ele>448.11</ele>
        <time>2013-02-12T08:32:16Z</time>
      </trkpt>
      <trkpt lat="43.00754" lon="1.15668">
        <ele>447.63</ele>
        <time>2013-02-12T08:32:25Z</time>
      </trkpt>
      <trkpt lat="43.00765" lon="1.15664">
        <ele>447.63</ele>
        <time>2013-02-12T08:32:33Z</time>
      </trkpt>
      <trkpt lat="43.00777" lon="1.1566">
        <ele>447.15</ele>
        <time>2013-02-12T08:32:42Z</time>
      </trkpt>
      <trkpt lat="43.00785" lon="1.15658">
        <ele>446.67</ele>
        <time>2013-02-12T08:32:49Z</time>
      </trkpt>
      <trkpt lat="43.00796" lon="1.15653">
        <ele>446.19</ele>
        <time>2013-02-12T08:32:57Z</time>
      </trkpt>
      <trkpt lat="43.00809" lon="1.1565">
        <ele>445.23</ele>
        <time>2013-02-12T08:33:06Z</time>
      </trkpt>
      <trkpt lat="43.00822" lon="1.15645">
        <ele>444.75</ele>
        <time>2013-02-12T08:33:17Z</time>
      </trkpt>
      <trkpt lat="43.00834" lon="1.15639">
        <ele>443.31</ele>
        <time>2013-02-12T08:33:27Z</time>
      </trkpt>
      <trkpt lat="43.00847" lon="1.15633">
        <ele>443.31</ele>
        <time>2013-02-12T08:33:38Z</time>
      </trkpt>
      <trkpt lat="43.00856" lon="1.15628">
        <ele>442.34</ele>
        <time>2013-02-12T08:33:45Z</time>
      </trkpt>
      <trkpt lat="43.00864" lon="1.15624">
        <ele>442.34</ele>
        <time>2013-02-12T08:33:53Z</time>
      </trkpt>
      <trkpt lat="43.00871" lon="1.15621">
        <ele>441.86</ele>
        <time>2013-02-12T08:33:59Z</time>
      </trkpt>
      <trkpt lat="43.00881" lon="1.15616">
        <ele>441.86</ele>
        <time>2013-02-12T08:34:08Z</time>
      </trkpt>
      <trkpt lat="43.0089" lon="1.15611">
        <ele>442.34</ele>
        <time>2013-02-12T08:34:16Z</time>
      </trkpt>
      <trkpt lat="43.00899" lon="1.15608">
        <ele>443.31</ele>
        <time>2013-02-12T08:34:24Z</time>
      </trkpt>
      <trkpt lat="43.00907" lon="1.15606">
        <ele>443.31</ele>
        <time>2013-02-12T08:34:32Z</time>
      </trkpt>
      <trkpt lat="43.00915" lon="1.15604">
        <ele>442.34</ele>
        <time>2013-02-12T08:34:38Z</time>
      </trkpt>
      <trkpt lat="43.00922" lon="1.15602">
        <ele>442.82</ele>
        <time>2013-02-12T08:34:43Z</time>
      </trkpt>
      <trkpt lat="43.00935" lon="1.15598">
        <ele>442.34</ele>
        <time>2013-02-12T08:34:53Z</time>
      </trkpt>
      <trkpt lat="43.00944" lon="1.15593">
        <ele>443.31</ele>
        <time>2013-02-12T08:35:00Z</time>
      </trkpt>
      <trkpt lat="43.00957" lon="1.15589">
        <ele>443.31</ele>
        <time>2013-02-12T08:35:09Z</time>
      </trkpt>
      <trkpt lat="43.00965" lon="1.15588">
        <ele>443.79</ele>
        <time>2013-02-12T08:35:16Z</time>
      </trkpt>
      <trkpt lat="43.00973" lon="1.15587">
        <ele>444.75</ele>
        <time>2013-02-12T08:35:24Z</time>
      </trkpt>
      <trkpt lat="43.00974" lon="1.15587">
        <ele>444.27</ele>
        <time>2013-02-12T08:35:35Z</time>
      </trkpt>
      <trkpt lat="43.00976" lon="1.15587">
        <ele>443.79</ele>
        <time>2013-02-12T08:35:52Z</time>
      </trkpt>
      <trkpt lat="43.0099" lon="1.15579">
        <ele>444.27</ele>
        <time>2013-02-12T08:45:13Z</time>
      </trkpt>
      <trkpt lat="43.01002" lon="1.15572">
        <ele>445.71</ele>
        <time>2013-02-12T08:45:23Z</time>
      </trkpt>
      <trkpt lat="43.01013" lon="1.15566">
        <ele>446.19</ele>
        <time>2013-02-12T08:45:32Z</time>
      </trkpt>
      <trkpt lat="43.01024" lon="1.1556">
        <ele>447.63</ele>
        <time>2013-02-12T08:45:41Z</time>
      </trkpt>
      <trkpt lat="43.01032" lon="1.15556">
        <ele>448.11</ele>
        <time>2013-02-12T08:45:49Z</time>
      </trkpt>
      <trkpt lat="43.01036" lon="1.15554">
        <ele>448.59</ele>
        <time>2013-02-12T08:45:52Z</time>
      </trkpt>
      <trkpt lat="43.01046" lon="1.15549">
        <ele>450.03</ele>
        <time>2013-02-12T08:46:00Z</time>
      </trkpt>
      <trkpt lat="43.01056" lon="1.15544">
        <ele>451</ele>
        <time>2013-02-12T08:46:08Z</time>
      </trkpt>
      <trkpt lat="43.01069" lon="1.15539">
        <ele>452.44</ele>
        <time>2013-02-12T08:46:17Z</time>
      </trkpt>
      <trkpt lat="43.01073" lon="1.15538">
        <ele>452.92</ele>
        <time>2013-02-12T08:46:21Z</time>
      </trkpt>
      <trkpt lat="43.01076" lon="1.15537">
        <ele>452.92</ele>
        <time>2013-02-12T08:46:24Z</time>
      </trkpt>
      <trkpt lat="43.01081" lon="1.15535">
        <ele>452.92</ele>
        <time>2013-02-12T08:46:28Z</time>
      </trkpt>
      <trkpt lat="43.01094" lon="1.15528">
        <ele>454.84</ele>
        <time>2013-02-12T08:46:39Z</time>
      </trkpt>
      <trkpt lat="43.01105" lon="1.15524">
        <ele>456.28</ele>
        <time>2013-02-12T08:46:48Z</time>
      </trkpt>
      <trkpt lat="43.01115" lon="1.1552">
        <ele>457.72</ele>
        <time>2013-02-12T08:46:57Z</time>
      </trkpt>
      <trkpt lat="43.01122" lon="1.15517">
        <ele>459.17</ele>
        <time>2013-02-12T08:47:03Z</time>
      </trkpt>
      <trkpt lat="43.01133" lon="1.15509">
        <ele>459.65</ele>
        <time>2013-02-12T08:47:11Z</time>
      </trkpt>
      <trkpt lat="43.01144" lon="1.15502">
        <ele>461.09</ele>
        <time>2013-02-12T08:47:21Z</time>
      </trkpt>
      <trkpt lat="43.01152" lon="1.15499">
        <ele>462.05</ele>
        <time>2013-02-12T08:47:29Z</time>
      </trkpt>
      <trkpt lat="43.01157" lon="1.15498">
        <ele>462.53</ele>
        <time>2013-02-12T08:47:34Z</time>
      </trkpt>
      <trkpt lat="43.0116" lon="1.15497">
        <ele>462.53</ele>
        <time>2013-02-12T08:47:37Z</time>
      </trkpt>
      <trkpt lat="43.01163" lon="1.15495">
        <ele>463.01</ele>
        <time>2013-02-12T08:47:39Z</time>
      </trkpt>
      <trkpt lat="43.01173" lon="1.15491">
        <ele>463.49</ele>
        <time>2013-02-12T08:47:48Z</time>
      </trkpt>
      <trkpt lat="43.01179" lon="1.15486">
        <ele>463.97</ele>
        <time>2013-02-12T08:47:56Z</time>
      </trkpt>
      <trkpt lat="43.01186" lon="1.1548">
        <ele>464.93</ele>
        <time>2013-02-12T08:48:02Z</time>
      </trkpt>
      <trkpt lat="43.01192" lon="1.15474">
        <ele>464.93</ele>
        <time>2013-02-12T08:48:09Z</time>
      </trkpt>
      <trkpt lat="43.01194" lon="1.15473">
        <ele>464.45</ele>
        <time>2013-02-12T08:48:12Z</time>
      </trkpt>
      <trkpt lat="43.01196" lon="1.15471">
        <ele>464.45</ele>
        <time>2013-02-12T08:48:14Z</time>
      </trkpt>
      <trkpt lat="43.01205" lon="1.15467">
        <ele>464.45</ele>
        <time>2013-02-12T08:48:23Z</time>
      </trkpt>
      <trkpt lat="43.01214" lon="1.15463">
        <ele>464.45</ele>
        <time>2013-02-12T08:48:31Z</time>
      </trkpt>
      <trkpt lat="43.01222" lon="1.15461">
        <ele>463.97</ele>
        <time>2013-02-12T08:48:37Z</time>
      </trkpt>
      <trkpt lat="43.01223" lon="1.1546">
        <ele>464.45</ele>
        <time>2013-02-12T08:48:38Z</time>
      </trkpt>
      <trkpt lat="43.01233" lon="1.15459">
        <ele>463.49</ele>
        <time>2013-02-12T08:48:43Z</time>
      </trkpt>
      <trkpt lat="43.01244" lon="1.15458">
        <ele>463.49</ele>
        <time>2013-02-12T08:48:50Z</time>
      </trkpt>
      <trkpt lat="43.01246" lon="1.15457">
        <ele>463.01</ele>
        <time>2013-02-12T08:48:52Z</time>
      </trkpt>
      <trkpt lat="43.01254" lon="1.15458">
        <ele>463.49</ele>
        <time>2013-02-12T08:48:59Z</time>
      </trkpt>
      <trkpt lat="43.01264" lon="1.15462">
        <ele>463.49</ele>
        <time>2013-02-12T08:49:06Z</time>
      </trkpt>
      <trkpt lat="43.01266" lon="1.15467">
        <ele>463.01</ele>
        <time>2013-02-12T08:49:10Z</time>
      </trkpt>
      <trkpt lat="43.01271" lon="1.15469">
        <ele>463.49</ele>
        <time>2013-02-12T08:49:14Z</time>
      </trkpt>
      <trkpt lat="43.0128" lon="1.15474">
        <ele>463.97</ele>
        <time>2013-02-12T08:49:21Z</time>
      </trkpt>
      <trkpt lat="43.01301" lon="1.1547">
        <ele>464.45</ele>
        <time>2013-02-12T08:49:29Z</time>
      </trkpt>
      <trkpt lat="43.01313" lon="1.15472">
        <ele>464.45</ele>
        <time>2013-02-12T08:49:36Z</time>
      </trkpt>
      <trkpt lat="43.01323" lon="1.15472">
        <ele>464.93</ele>
        <time>2013-02-12T08:49:42Z</time>
      </trkpt>
      <trkpt lat="43.0133" lon="1.15473">
        <ele>464.93</ele>
        <time>2013-02-12T08:49:48Z</time>
      </trkpt>
      <trkpt lat="43.01337" lon="1.15476">
        <ele>465.9</ele>
        <time>2013-02-12T08:49:54Z</time>
      </trkpt>
      <trkpt lat="43.0134" lon="1.15478">
        <ele>465.42</ele>
        <time>2013-02-12T08:49:57Z</time>
      </trkpt>
      <trkpt lat="43.01348" lon="1.15478">
        <ele>465.9</ele>
        <time>2013-02-12T08:50:04Z</time>
      </trkpt>
      <trkpt lat="43.01353" lon="1.15483">
        <ele>465.9</ele>
        <time>2013-02-12T08:50:10Z</time>
      </trkpt>
      <trkpt lat="43.01359" lon="1.15484">
        <ele>466.38</ele>
        <time>2013-02-12T08:50:18Z</time>
      </trkpt>
      <trkpt lat="43.01362" lon="1.15483">
        <ele>466.38</ele>
        <time>2013-02-12T08:50:25Z</time>
      </trkpt>
      <trkpt lat="43.01367" lon="1.15481">
        <ele>466.86</ele>
        <time>2013-02-12T08:50:31Z</time>
      </trkpt>
      <trkpt lat="43.01377" lon="1.15486">
        <ele>465.9</ele>
        <time>2013-02-12T08:50:39Z</time>
      </trkpt>
      <trkpt lat="43.01386" lon="1.15493">
        <ele>464.93</ele>
        <time>2013-02-12T08:50:47Z</time>
      </trkpt>
      <trkpt lat="43.01393" lon="1.15497">
        <ele>464.45</ele>
        <time>2013-02-12T08:50:55Z</time>
      </trkpt>
      <trkpt lat="43.01402" lon="1.15501">
        <ele>464.45</ele>
        <time>2013-02-12T08:51:02Z</time>
      </trkpt>
      <trkpt lat="43.01403" lon="1.15503">
        <ele>464.45</ele>
        <time>2013-02-12T08:51:04Z</time>
      </trkpt>
      <trkpt lat="43.01415" lon="1.1551">
        <ele>464.45</ele>
        <time>2013-02-12T08:51:12Z</time>
      </trkpt>
      <trkpt lat="43.01416" lon="1.15514">
        <ele>464.93</ele>
        <time>2013-02-12T08:51:18Z</time>
      </trkpt>
      <trkpt lat="43.01416" lon="1.15519">
        <ele>465.42</ele>
        <time>2013-02-12T08:51:23Z</time>
      </trkpt>
      <trkpt lat="43.01417" lon="1.15527">
        <ele>464.93</ele>
        <time>2013-02-12T08:51:29Z</time>
      </trkpt>
      <trkpt lat="43.01417" lon="1.15532">
        <ele>465.9</ele>
        <time>2013-02-12T08:51:36Z</time>
      </trkpt>
      <trkpt lat="43.01418" lon="1.15536">
        <ele>465.9</ele>
        <time>2013-02-12T08:51:41Z</time>
      </trkpt>
      <trkpt lat="43.01422" lon="1.1554">
        <ele>466.86</ele>
        <time>2013-02-12T08:51:47Z</time>
      </trkpt>
      <trkpt lat="43.01425" lon="1.15542">
        <ele>466.86</ele>
        <time>2013-02-12T08:51:51Z</time>
      </trkpt>
      <trkpt lat="43.01429" lon="1.15548">
        <ele>467.82</ele>
        <time>2013-02-12T08:51:54Z</time>
      </trkpt>
      <trkpt lat="43.01438" lon="1.15557">
        <ele>469.26</ele>
        <time>2013-02-12T08:52:01Z</time>
      </trkpt>
      <trkpt lat="43.01445" lon="1.15562">
        <ele>469.26</ele>
        <time>2013-02-12T08:52:08Z</time>
      </trkpt>
      <trkpt lat="43.01446" lon="1.15561">
        <ele>470.22</ele>
        <time>2013-02-12T08:52:14Z</time>
      </trkpt>
      <trkpt lat="43.01448" lon="1.15562">
        <ele>470.22</ele>
        <time>2013-02-12T08:52:22Z</time>
      </trkpt>
      <trkpt lat="43.01447" lon="1.15562">
        <ele>469.26</ele>
        <time>2013-02-12T08:52:28Z</time>
      </trkpt>
      <trkpt lat="43.01448" lon="1.15562">
        <ele>468.78</ele>
        <time>2013-02-12T08:52:38Z</time>
      </trkpt>
      <trkpt lat="43.01448" lon="1.15562">
        <ele>468.78</ele>
        <time>2013-02-12T08:52:48Z</time>
      </trkpt>
      <trkpt lat="43.0145" lon="1.15562">
        <ele>469.74</ele>
        <time>2013-02-12T08:53:01Z</time>
      </trkpt>
      <trkpt lat="43.01451" lon="1.15562">
        <ele>470.7</ele>
        <time>2013-02-12T08:53:07Z</time>
      </trkpt>
      <trkpt lat="43.0145" lon="1.15562">
        <ele>469.74</ele>
        <time>2013-02-12T08:53:16Z</time>
      </trkpt>
      <trkpt lat="43.0145" lon="1.15561">
        <ele>469.74</ele>
        <time>2013-02-12T08:53:23Z</time>
      </trkpt>
      <trkpt lat="43.01449" lon="1.1556">
        <ele>469.74</ele>
        <time>2013-02-12T08:53:33Z</time>
      </trkpt>
      <trkpt lat="43.01448" lon="1.15558">
        <ele>469.26</ele>
        <time>2013-02-12T08:53:40Z</time>
      </trkpt>
      <trkpt lat="43.01452" lon="1.1556">
        <ele>470.22</ele>
        <time>2013-02-12T08:53:48Z</time>
      </trkpt>
      <trkpt lat="43.01454" lon="1.15561">
        <ele>470.7</ele>
        <time>2013-02-12T08:53:55Z</time>
      </trkpt>
      <trkpt lat="43.01455" lon="1.15563">
        <ele>471.18</ele>
        <time>2013-02-12T08:54:00Z</time>
      </trkpt>
      <trkpt lat="43.01459" lon="1.15565">
        <ele>471.18</ele>
        <time>2013-02-12T08:54:09Z</time>
      </trkpt>
      <trkpt lat="43.01466" lon="1.15574">
        <ele>471.66</ele>
        <time>2013-02-12T08:54:18Z</time>
      </trkpt>
      <trkpt lat="43.01469" lon="1.15576">
        <ele>472.63</ele>
        <time>2013-02-12T08:54:23Z</time>
      </trkpt>
      <trkpt lat="43.01473" lon="1.15575">
        <ele>472.63</ele>
        <time>2013-02-12T08:54:27Z</time>
      </trkpt>
      <trkpt lat="43.01477" lon="1.15576">
        <ele>473.59</ele>
        <time>2013-02-12T08:54:32Z</time>
      </trkpt>
      <trkpt lat="43.01484" lon="1.15577">
        <ele>475.03</ele>
        <time>2013-02-12T08:54:40Z</time>
      </trkpt>
      <trkpt lat="43.01485" lon="1.15578">
        <ele>476.47</ele>
        <time>2013-02-12T08:54:45Z</time>
      </trkpt>
      <trkpt lat="43.01492" lon="1.15582">
        <ele>477.43</ele>
        <time>2013-02-12T08:54:51Z</time>
      </trkpt>
      <trkpt lat="43.01497" lon="1.15582">
        <ele>478.39</ele>
        <time>2013-02-12T08:54:57Z</time>
      </trkpt>
      <trkpt lat="43.015" lon="1.15583">
        <ele>478.39</ele>
        <time>2013-02-12T08:55:00Z</time>
      </trkpt>
      <trkpt lat="43.01504" lon="1.15585">
        <ele>479.35</ele>
        <time>2013-02-12T08:55:05Z</time>
      </trkpt>
      <trkpt lat="43.01509" lon="1.15587">
        <ele>480.8</ele>
        <time>2013-02-12T08:55:12Z</time>
      </trkpt>
      <trkpt lat="43.01513" lon="1.1559">
        <ele>481.28</ele>
        <time>2013-02-12T08:55:20Z</time>
      </trkpt>
      <trkpt lat="43.01516" lon="1.15594">
        <ele>482.72</ele>
        <time>2013-02-12T08:55:27Z</time>
      </trkpt>
      <trkpt lat="43.01518" lon="1.15598">
        <ele>483.2</ele>
        <time>2013-02-12T08:55:34Z</time>
      </trkpt>
      <trkpt lat="43.01527" lon="1.15603">
        <ele>483.68</ele>
        <time>2013-02-12T08:55:41Z</time>
      </trkpt>
      <trkpt lat="43.01531" lon="1.15607">
        <ele>483.68</ele>
        <time>2013-02-12T08:55:46Z</time>
      </trkpt>
      <trkpt lat="43.01536" lon="1.15609">
        <ele>485.12</ele>
        <time>2013-02-12T08:55:52Z</time>
      </trkpt>
      <trkpt lat="43.01541" lon="1.15611">
        <ele>485.6</ele>
        <time>2013-02-12T08:55:58Z</time>
      </trkpt>
      <trkpt lat="43.01546" lon="1.15613">
        <ele>486.56</ele>
        <time>2013-02-12T08:56:04Z</time>
      </trkpt>
      <trkpt lat="43.01552" lon="1.15612">
        <ele>487.05</ele>
        <time>2013-02-12T08:56:09Z</time>
      </trkpt>
      <trkpt lat="43.01557" lon="1.15613">
        <ele>488.01</ele>
        <time>2013-02-12T08:56:15Z</time>
      </trkpt>
      <trkpt lat="43.01559" lon="1.15614">
        <ele>488.97</ele>
        <time>2013-02-12T08:56:21Z</time>
      </trkpt>
      <trkpt lat="43.01563" lon="1.15616">
        <ele>490.41</ele>
        <time>2013-02-12T08:56:30Z</time>
      </trkpt>
      <trkpt lat="43.01567" lon="1.15618">
        <ele>491.85</ele>
        <time>2013-02-12T08:56:36Z</time>
      </trkpt>
      <trkpt lat="43.01571" lon="1.15622">
        <ele>492.33</ele>
        <time>2013-02-12T08:56:42Z</time>
      </trkpt>
      <trkpt lat="43.01574" lon="1.15625">
        <ele>493.29</ele>
        <time>2013-02-12T08:56:48Z</time>
      </trkpt>
      <trkpt lat="43.01577" lon="1.15628">
        <ele>493.77</ele>
        <time>2013-02-12T08:56:54Z</time>
      </trkpt>
      <trkpt lat="43.01581" lon="1.1563">
        <ele>494.74</ele>
        <time>2013-02-12T08:57:00Z</time>
      </trkpt>
      <trkpt lat="43.01582" lon="1.15631">
        <ele>495.22</ele>
        <time>2013-02-12T08:57:02Z</time>
      </trkpt>
      <trkpt lat="43.01586" lon="1.15634">
        <ele>495.22</ele>
        <time>2013-02-12T08:57:06Z</time>
      </trkpt>
      <trkpt lat="43.01592" lon="1.15637">
        <ele>496.66</ele>
        <time>2013-02-12T08:57:13Z</time>
      </trkpt>
      <trkpt lat="43.01598" lon="1.15642">
        <ele>497.14</ele>
        <time>2013-02-12T08:57:22Z</time>
      </trkpt>
      <trkpt lat="43.01598" lon="1.15642">
        <ele>498.58</ele>
        <time>2013-02-12T08:57:29Z</time>
      </trkpt>
      <trkpt lat="43.01602" lon="1.15644">
        <ele>499.54</ele>
        <time>2013-02-12T08:57:35Z</time>
      </trkpt>
      <trkpt lat="43.01609" lon="1.15643">
        <ele>500.02</ele>
        <time>2013-02-12T08:57:42Z</time>
      </trkpt>
      <trkpt lat="43.01613" lon="1.15645">
        <ele>501.46</ele>
        <time>2013-02-12T08:57:48Z</time>
      </trkpt>
      <trkpt lat="43.01618" lon="1.15649">
        <ele>501.95</ele>
        <time>2013-02-12T08:57:54Z</time>
      </trkpt>
      <trkpt lat="43.0162" lon="1.15651">
        <ele>503.39</ele>
        <time>2013-02-12T08:58:00Z</time>
      </trkpt>
      <trkpt lat="43.01624" lon="1.1566">
        <ele>503.87</ele>
        <time>2013-02-12T08:58:07Z</time>
      </trkpt>
      <trkpt lat="43.01629" lon="1.15666">
        <ele>504.83</ele>
        <time>2013-02-12T08:58:14Z</time>
      </trkpt>
      <trkpt lat="43.01633" lon="1.1567">
        <ele>506.27</ele>
        <time>2013-02-12T08:58:21Z</time>
      </trkpt>
      <trkpt lat="43.01635" lon="1.15672">
        <ele>506.75</ele>
        <time>2013-02-12T08:58:27Z</time>
      </trkpt>
      <trkpt lat="43.01638" lon="1.15674">
        <ele>507.71</ele>
        <time>2013-02-12T08:58:32Z</time>
      </trkpt>
      <trkpt lat="43.01638" lon="1.15674">
        <ele>507.71</ele>
        <time>2013-02-12T08:58:33Z</time>
      </trkpt>
      <trkpt lat="43.0164" lon="1.15678">
        <ele>508.67</ele>
        <time>2013-02-12T08:58:41Z</time>
      </trkpt>
      <trkpt lat="43.01642" lon="1.15679">
        <ele>508.67</ele>
        <time>2013-02-12T08:58:46Z</time>
      </trkpt>
      <trkpt lat="43.01644" lon="1.1568">
        <ele>509.64</ele>
        <time>2013-02-12T08:58:52Z</time>
      </trkpt>
      <trkpt lat="43.01648" lon="1.15681">
        <ele>510.6</ele>
        <time>2013-02-12T08:58:59Z</time>
      </trkpt>
      <trkpt lat="43.01651" lon="1.15684">
        <ele>512.04</ele>
        <time>2013-02-12T08:59:06Z</time>
      </trkpt>
      <trkpt lat="43.01656" lon="1.15685">
        <ele>513.48</ele>
        <time>2013-02-12T08:59:13Z</time>
      </trkpt>
      <trkpt lat="43.01658" lon="1.15685">
        <ele>513.96</ele>
        <time>2013-02-12T08:59:19Z</time>
      </trkpt>
      <trkpt lat="43.01661" lon="1.15687">
        <ele>514.44</ele>
        <time>2013-02-12T08:59:26Z</time>
      </trkpt>
      <trkpt lat="43.01665" lon="1.1569">
        <ele>516.37</ele>
        <time>2013-02-12T08:59:33Z</time>
      </trkpt>
      <trkpt lat="43.01667" lon="1.15691">
        <ele>516.37</ele>
        <time>2013-02-12T08:59:38Z</time>
      </trkpt>
      <trkpt lat="43.0167" lon="1.15693">
        <ele>517.33</ele>
        <time>2013-02-12T08:59:45Z</time>
      </trkpt>
      <trkpt lat="43.01673" lon="1.15695">
        <ele>517.81</ele>
        <time>2013-02-12T08:59:51Z</time>
      </trkpt>
      <trkpt lat="43.01675" lon="1.15696">
        <ele>518.77</ele>
        <time>2013-02-12T08:59:55Z</time>
      </trkpt>
      <trkpt lat="43.01675" lon="1.15697">
        <ele>519.25</ele>
        <time>2013-02-12T09:00:01Z</time>
      </trkpt>
      <trkpt lat="43.01678" lon="1.157">
        <ele>520.21</ele>
        <time>2013-02-12T09:00:08Z</time>
      </trkpt>
      <trkpt lat="43.0168" lon="1.15702">
        <ele>521.17</ele>
        <time>2013-02-12T09:00:15Z</time>
      </trkpt>
      <trkpt lat="43.01684" lon="1.15707">
        <ele>521.65</ele>
        <time>2013-02-12T09:00:21Z</time>
      </trkpt>
      <trkpt lat="43.01687" lon="1.15707">
        <ele>523.09</ele>
        <time>2013-02-12T09:00:28Z</time>
      </trkpt>
      <trkpt lat="43.0169" lon="1.15713">
        <ele>524.06</ele>
        <time>2013-02-12T09:00:35Z</time>
      </trkpt>
      <trkpt lat="43.01692" lon="1.15714">
        <ele>525.02</ele>
        <time>2013-02-12T09:00:44Z</time>
      </trkpt>
      <trkpt lat="43.01693" lon="1.15715">
        <ele>525.02</ele>
        <time>2013-02-12T09:00:53Z</time>
      </trkpt>
      <trkpt lat="43.01694" lon="1.15716">
        <ele>525.5</ele>
        <time>2013-02-12T09:01:01Z</time>
      </trkpt>
      <trkpt lat="43.01695" lon="1.15717">
        <ele>526.46</ele>
        <time>2013-02-12T09:01:14Z</time>
      </trkpt>
      <trkpt lat="43.01695" lon="1.15717">
        <ele>525.98</ele>
        <time>2013-02-12T09:01:15Z</time>
      </trkpt>
      <trkpt lat="43.01695" lon="1.15717">
        <ele>524.54</ele>
        <time>2013-02-12T09:01:18Z</time>
      </trkpt>
      <trkpt lat="43.01696" lon="1.15717">
        <ele>524.54</ele>
        <time>2013-02-12T09:01:29Z</time>
      </trkpt>
      <trkpt lat="43.01696" lon="1.15716">
        <ele>525.02</ele>
        <time>2013-02-12T09:01:39Z</time>
      </trkpt>
      <trkpt lat="43.01697" lon="1.15717">
        <ele>524.54</ele>
        <time>2013-02-12T09:01:49Z</time>
      </trkpt>
      <trkpt lat="43.01699" lon="1.15718">
        <ele>524.06</ele>
        <time>2013-02-12T09:02:01Z</time>
      </trkpt>
      <trkpt lat="43.01699" lon="1.15719">
        <ele>524.54</ele>
        <time>2013-02-12T09:02:15Z</time>
      </trkpt>
      <trkpt lat="43.01699" lon="1.15719">
        <ele>524.06</ele>
        <time>2013-02-12T09:02:27Z</time>
      </trkpt>
      <trkpt lat="43.01699" lon="1.15719">
        <ele>525.02</ele>
        <time>2013-02-12T09:02:36Z</time>
      </trkpt>
      <trkpt lat="43.017" lon="1.15719">
        <ele>524.06</ele>
        <time>2013-02-12T09:02:52Z</time>
      </trkpt>
      <trkpt lat="43.01699" lon="1.15719">
        <ele>525.02</ele>
        <time>2013-02-12T09:03:04Z</time>
      </trkpt>
      <trkpt lat="43.01699" lon="1.15719">
        <ele>525.5</ele>
        <time>2013-02-12T09:03:12Z</time>
      </trkpt>
      <trkpt lat="43.01699" lon="1.15719">
        <ele>524.54</ele>
        <time>2013-02-12T09:03:25Z</time>
      </trkpt>
      <trkpt lat="43.01698" lon="1.15719">
        <ele>525.02</ele>
        <time>2013-02-12T09:03:44Z</time>
      </trkpt>
      <trkpt lat="43.01698" lon="1.15718">
        <ele>525.02</ele>
        <time>2013-02-12T09:04:00Z</time>
      </trkpt>
      <trkpt lat="43.01698" lon="1.15718">
        <ele>525.02</ele>
        <time>2013-02-12T09:04:17Z</time>
      </trkpt>
      <trkpt lat="43.01697" lon="1.15718">
        <ele>525.02</ele>
        <time>2013-02-12T09:04:31Z</time>
      </trkpt>
      <trkpt lat="43.01697" lon="1.15718">
        <ele>525.02</ele>
        <time>2013-02-12T09:04:45Z</time>
      </trkpt>
      <trkpt lat="43.01697" lon="1.15718">
        <ele>525.5</ele>
        <time>2013-02-12T09:04:59Z</time>
      </trkpt>
      <trkpt lat="43.01697" lon="1.15718">
        <ele>524.54</ele>
        <time>2013-02-12T09:05:12Z</time>
      </trkpt>
      <trkpt lat="43.01698" lon="1.15718">
        <ele>525.5</ele>
        <time>2013-02-12T09:05:26Z</time>
      </trkpt>
      <trkpt lat="43.01698" lon="1.15719">
        <ele>525.5</ele>
        <time>2013-02-12T09:05:42Z</time>
      </trkpt>
      <trkpt lat="43.017" lon="1.15721">
        <ele>525.02</ele>
        <time>2013-02-12T09:05:48Z</time>
      </trkpt>
      <trkpt lat="43.01704" lon="1.15722">
        <ele>526.46</ele>
        <time>2013-02-12T09:05:55Z</time>
      </trkpt>
      <trkpt lat="43.01712" lon="1.15725">
        <ele>527.9</ele>
        <time>2013-02-12T09:06:03Z</time>
      </trkpt>
      <trkpt lat="43.01719" lon="1.15728">
        <ele>528.86</ele>
        <time>2013-02-12T09:06:11Z</time>
      </trkpt>
      <trkpt lat="43.01724" lon="1.15732">
        <ele>530.3</ele>
        <time>2013-02-12T09:06:20Z</time>
      </trkpt>
      <trkpt lat="43.0173" lon="1.15736">
        <ele>531.27</ele>
        <time>2013-02-12T09:06:29Z</time>
      </trkpt>
      <trkpt lat="43.01735" lon="1.15737">
        <ele>532.23</ele>
        <time>2013-02-12T09:06:37Z</time>
      </trkpt>
      <trkpt lat="43.0174" lon="1.15738">
        <ele>532.71</ele>
        <time>2013-02-12T09:06:43Z</time>
      </trkpt>
      <trkpt lat="43.01744" lon="1.15739">
        <ele>533.19</ele>
        <time>2013-02-12T09:06:49Z</time>
      </trkpt>
      <trkpt lat="43.01749" lon="1.1574">
        <ele>534.15</ele>
        <time>2013-02-12T09:06:54Z</time>
      </trkpt>
      <trkpt lat="43.0176" lon="1.15743">
        <ele>535.11</ele>
        <time>2013-02-12T09:07:02Z</time>
      </trkpt>
      <trkpt lat="43.01765" lon="1.15745">
        <ele>537.03</ele>
        <time>2013-02-12T09:07:10Z</time>
      </trkpt>
      <trkpt lat="43.01767" lon="1.15746">
        <ele>537.03</ele>
        <time>2013-02-12T09:07:16Z</time>
      </trkpt>
      <trkpt lat="43.01774" lon="1.15748">
        <ele>538.48</ele>
        <time>2013-02-12T09:07:24Z</time>
      </trkpt>
      <trkpt lat="43.01779" lon="1.1575">
        <ele>538.48</ele>
        <time>2013-02-12T09:07:28Z</time>
      </trkpt>
      <trkpt lat="43.01786" lon="1.15751">
        <ele>538.96</ele>
        <time>2013-02-12T09:07:36Z</time>
      </trkpt>
      <trkpt lat="43.01792" lon="1.15752">
        <ele>540.88</ele>
        <time>2013-02-12T09:07:44Z</time>
      </trkpt>
      <trkpt lat="43.01797" lon="1.15754">
        <ele>540.4</ele>
        <time>2013-02-12T09:07:51Z</time>
      </trkpt>
      <trkpt lat="43.01802" lon="1.15754">
        <ele>541.84</ele>
        <time>2013-02-12T09:07:58Z</time>
      </trkpt>
      <trkpt lat="43.01809" lon="1.15755">
        <ele>542.32</ele>
        <time>2013-02-12T09:08:05Z</time>
      </trkpt>
      <trkpt lat="43.01816" lon="1.15759">
        <ele>542.8</ele>
        <time>2013-02-12T09:08:12Z</time>
      </trkpt>
      <trkpt lat="43.01823" lon="1.15762">
        <ele>543.28</ele>
        <time>2013-02-12T09:08:20Z</time>
      </trkpt>
      <trkpt lat="43.01826" lon="1.15763">
        <ele>543.76</ele>
        <time>2013-02-12T09:08:26Z</time>
      </trkpt>
      <trkpt lat="43.01828" lon="1.15762">
        <ele>543.76</ele>
        <time>2013-02-12T09:08:28Z</time>
      </trkpt>
      <trkpt lat="43.01835" lon="1.15765">
        <ele>544.72</ele>
        <time>2013-02-12T09:08:35Z</time>
      </trkpt>
      <trkpt lat="43.01838" lon="1.15768">
        <ele>545.69</ele>
        <time>2013-02-12T09:08:42Z</time>
      </trkpt>
      <trkpt lat="43.01843" lon="1.15769">
        <ele>546.65</ele>
        <time>2013-02-12T09:08:49Z</time>
      </trkpt>
      <trkpt lat="43.01847" lon="1.1577">
        <ele>547.61</ele>
        <time>2013-02-12T09:08:57Z</time>
      </trkpt>
      <trkpt lat="43.01847" lon="1.1577">
        <ele>547.61</ele>
        <time>2013-02-12T09:09:10Z</time>
      </trkpt>
      <trkpt lat="43.01845" lon="1.15769">
        <ele>547.13</ele>
        <time>2013-02-12T09:09:26Z</time>
      </trkpt>
      <trkpt lat="43.01845" lon="1.15768">
        <ele>547.13</ele>
        <time>2013-02-12T09:09:40Z</time>
      </trkpt>
      <trkpt lat="43.01846" lon="1.15768">
        <ele>547.13</ele>
        <time>2013-02-12T09:09:55Z</time>
      </trkpt>
      <trkpt lat="43.01852" lon="1.15767">
        <ele>547.13</ele>
        <time>2013-02-12T09:10:01Z</time>
      </trkpt>
      <trkpt lat="43.01858" lon="1.15769">
        <ele>548.09</ele>
        <time>2013-02-12T09:10:08Z</time>
      </trkpt>
      <trkpt lat="43.01859" lon="1.1577">
        <ele>548.09</ele>
        <time>2013-02-12T09:10:09Z</time>
      </trkpt>
      <trkpt lat="43.01866" lon="1.15775">
        <ele>549.05</ele>
        <time>2013-02-12T09:10:19Z</time>
      </trkpt>
      <trkpt lat="43.01871" lon="1.15776">
        <ele>550.01</ele>
        <time>2013-02-12T09:10:25Z</time>
      </trkpt>
      <trkpt lat="43.01874" lon="1.15776">
        <ele>550.01</ele>
        <time>2013-02-12T09:10:28Z</time>
      </trkpt>
      <trkpt lat="43.01885" lon="1.15779">
        <ele>551.93</ele>
        <time>2013-02-12T09:10:37Z</time>
      </trkpt>
      <trkpt lat="43.0189" lon="1.15781">
        <ele>552.9</ele>
        <time>2013-02-12T09:10:43Z</time>
      </trkpt>
      <trkpt lat="43.01897" lon="1.1578">
        <ele>553.38</ele>
        <time>2013-02-12T09:10:50Z</time>
      </trkpt>
      <trkpt lat="43.01902" lon="1.15781">
        <ele>554.34</ele>
        <time>2013-02-12T09:10:57Z</time>
      </trkpt>
      <trkpt lat="43.01906" lon="1.15784">
        <ele>554.82</ele>
        <time>2013-02-12T09:11:04Z</time>
      </trkpt>
      <trkpt lat="43.01911" lon="1.15786">
        <ele>554.82</ele>
        <time>2013-02-12T09:11:10Z</time>
      </trkpt>
      <trkpt lat="43.01917" lon="1.15788">
        <ele>557.22</ele>
        <time>2013-02-12T09:11:16Z</time>
      </trkpt>
      <trkpt lat="43.01922" lon="1.15789">
        <ele>558.18</ele>
        <time>2013-02-12T09:11:21Z</time>
      </trkpt>
      <trkpt lat="43.01926" lon="1.15792">
        <ele>558.66</ele>
        <time>2013-02-12T09:11:27Z</time>
      </trkpt>
      <trkpt lat="43.01931" lon="1.15795">
        <ele>559.14</ele>
        <time>2013-02-12T09:11:32Z</time>
      </trkpt>
      <trkpt lat="43.01937" lon="1.15797">
        <ele>560.11</ele>
        <time>2013-02-12T09:11:40Z</time>
      </trkpt>
      <trkpt lat="43.01942" lon="1.158">
        <ele>561.55</ele>
        <time>2013-02-12T09:11:48Z</time>
      </trkpt>
      <trkpt lat="43.01952" lon="1.15804">
        <ele>562.03</ele>
        <time>2013-02-12T09:11:55Z</time>
      </trkpt>
      <trkpt lat="43.01957" lon="1.15807">
        <ele>562.03</ele>
        <time>2013-02-12T09:12:03Z</time>
      </trkpt>
      <trkpt lat="43.01959" lon="1.15806">
        <ele>562.03</ele>
        <time>2013-02-12T09:12:14Z</time>
      </trkpt>
      <trkpt lat="43.01967" lon="1.15806">
        <ele>559.62</ele>
        <time>2013-02-12T09:12:23Z</time>
      </trkpt>
      <trkpt lat="43.01971" lon="1.15811">
        <ele>559.62</ele>
        <time>2013-02-12T09:12:33Z</time>
      </trkpt>
      <trkpt lat="43.01979" lon="1.1582">
        <ele>561.07</ele>
        <time>2013-02-12T09:12:42Z</time>
      </trkpt>
      <trkpt lat="43.01981" lon="1.15822">
        <ele>562.03</ele>
        <time>2013-02-12T09:12:48Z</time>
      </trkpt>
      <trkpt lat="43.01986" lon="1.15825">
        <ele>562.51</ele>
        <time>2013-02-12T09:12:54Z</time>
      </trkpt>
      <trkpt lat="43.01994" lon="1.15834">
        <ele>562.99</ele>
        <time>2013-02-12T09:13:01Z</time>
      </trkpt>
      <trkpt lat="43.02001" lon="1.15841">
        <ele>563.95</ele>
        <time>2013-02-12T09:13:08Z</time>
      </trkpt>
      <trkpt lat="43.02004" lon="1.15844">
        <ele>565.39</ele>
        <time>2013-02-12T09:13:14Z</time>
      </trkpt>
      <trkpt lat="43.02014" lon="1.15848">
        <ele>566.35</ele>
        <time>2013-02-12T09:13:21Z</time>
      </trkpt>
      <trkpt lat="43.02018" lon="1.15848">
        <ele>566.83</ele>
        <time>2013-02-12T09:13:31Z</time>
      </trkpt>
      <trkpt lat="43.02027" lon="1.15847">
        <ele>567.8</ele>
        <time>2013-02-12T09:13:39Z</time>
      </trkpt>
      <trkpt lat="43.02033" lon="1.15846">
        <ele>567.8</ele>
        <time>2013-02-12T09:13:47Z</time>
      </trkpt>
      <trkpt lat="43.0204" lon="1.15847">
        <ele>567.8</ele>
        <time>2013-02-12T09:13:53Z</time>
      </trkpt>
      <trkpt lat="43.02042" lon="1.15847">
        <ele>568.28</ele>
        <time>2013-02-12T09:14:06Z</time>
      </trkpt>
      <trkpt lat="43.02042" lon="1.15847">
        <ele>568.28</ele>
        <time>2013-02-12T09:14:09Z</time>
      </trkpt>
      <trkpt lat="43.02045" lon="1.1585">
        <ele>568.76</ele>
        <time>2013-02-12T09:14:16Z</time>
      </trkpt>
      <trkpt lat="43.02046" lon="1.1585">
        <ele>568.28</ele>
        <time>2013-02-12T09:14:26Z</time>
      </trkpt>
      <trkpt lat="43.02046" lon="1.15857">
        <ele>568.28</ele>
        <time>2013-02-12T09:14:32Z</time>
      </trkpt>
      <trkpt lat="43.02049" lon="1.15866">
        <ele>567.8</ele>
        <time>2013-02-12T09:14:39Z</time>
      </trkpt>
      <trkpt lat="43.02053" lon="1.15871">
        <ele>567.8</ele>
        <time>2013-02-12T09:14:45Z</time>
      </trkpt>
      <trkpt lat="43.02054" lon="1.15873">
        <ele>567.32</ele>
        <time>2013-02-12T09:14:46Z</time>
      </trkpt>
      <trkpt lat="43.0206" lon="1.15881">
        <ele>566.83</ele>
        <time>2013-02-12T09:14:53Z</time>
      </trkpt>
      <trkpt lat="43.02065" lon="1.1589">
        <ele>564.91</ele>
        <time>2013-02-12T09:15:01Z</time>
      </trkpt>
      <trkpt lat="43.02068" lon="1.15897">
        <ele>564.43</ele>
        <time>2013-02-12T09:15:08Z</time>
      </trkpt>
      <trkpt lat="43.02069" lon="1.15904">
        <ele>562.99</ele>
        <time>2013-02-12T09:15:15Z</time>
      </trkpt>
      <trkpt lat="43.0207" lon="1.15911">
        <ele>561.55</ele>
        <time>2013-02-12T09:15:22Z</time>
      </trkpt>
      <trkpt lat="43.02071" lon="1.15912">
        <ele>561.07</ele>
        <time>2013-02-12T09:15:23Z</time>
      </trkpt>
      <trkpt lat="43.02076" lon="1.15921">
        <ele>559.14</ele>
        <time>2013-02-12T09:15:30Z</time>
      </trkpt>
      <trkpt lat="43.0208" lon="1.15928">
        <ele>558.18</ele>
        <time>2013-02-12T09:15:36Z</time>
      </trkpt>
      <trkpt lat="43.02086" lon="1.15937">
        <ele>556.26</ele>
        <time>2013-02-12T09:15:44Z</time>
      </trkpt>
      <trkpt lat="43.0209" lon="1.15948">
        <ele>555.3</ele>
        <time>2013-02-12T09:15:52Z</time>
      </trkpt>
      <trkpt lat="43.02092" lon="1.1595">
        <ele>555.3</ele>
        <time>2013-02-12T09:15:55Z</time>
      </trkpt>
      <trkpt lat="43.021" lon="1.15961">
        <ele>554.34</ele>
        <time>2013-02-12T09:16:03Z</time>
      </trkpt>
      <trkpt lat="43.02104" lon="1.15967">
        <ele>554.34</ele>
        <time>2013-02-12T09:16:08Z</time>
      </trkpt>
      <trkpt lat="43.02109" lon="1.15974">
        <ele>552.9</ele>
        <time>2013-02-12T09:16:13Z</time>
      </trkpt>
      <trkpt lat="43.02117" lon="1.15979">
        <ele>551.93</ele>
        <time>2013-02-12T09:16:21Z</time>
      </trkpt>
      <trkpt lat="43.02122" lon="1.15983">
        <ele>551.45</ele>
        <time>2013-02-12T09:16:28Z</time>
      </trkpt>
      <trkpt lat="43.02126" lon="1.15985">
        <ele>548.57</ele>
        <time>2013-02-12T09:16:35Z</time>
      </trkpt>
      <trkpt lat="43.02127" lon="1.15986">
        <ele>548.57</ele>
        <time>2013-02-12T09:16:42Z</time>
      </trkpt>
      <trkpt lat="43.02129" lon="1.15985">
        <ele>548.57</ele>
        <time>2013-02-12T09:16:53Z</time>
      </trkpt>
      <trkpt lat="43.0213" lon="1.15985">
        <ele>548.57</ele>
        <time>2013-02-12T09:17:06Z</time>
      </trkpt>
      <trkpt lat="43.02131" lon="1.15984">
        <ele>548.57</ele>
        <time>2013-02-12T09:17:17Z</time>
      </trkpt>
      <trkpt lat="43.02131" lon="1.15984">
        <ele>548.57</ele>
        <time>2013-02-12T09:17:32Z</time>
      </trkpt>
      <trkpt lat="43.02133" lon="1.15984">
        <ele>548.57</ele>
        <time>2013-02-12T09:17:41Z</time>
      </trkpt>
      <trkpt lat="43.02133" lon="1.15985">
        <ele>549.53</ele>
        <time>2013-02-12T09:17:50Z</time>
      </trkpt>
      <trkpt lat="43.02133" lon="1.15985">
        <ele>549.53</ele>
        <time>2013-02-12T09:17:58Z</time>
      </trkpt>
      <trkpt lat="43.02133" lon="1.15985">
        <ele>548.57</ele>
        <time>2013-02-12T09:18:04Z</time>
      </trkpt>
      <trkpt lat="43.02134" lon="1.15985">
        <ele>549.05</ele>
        <time>2013-02-12T09:18:13Z</time>
      </trkpt>
      <trkpt lat="43.02134" lon="1.15986">
        <ele>549.53</ele>
        <time>2013-02-12T09:18:20Z</time>
      </trkpt>
      <trkpt lat="43.02134" lon="1.15987">
        <ele>549.53</ele>
        <time>2013-02-12T09:18:34Z</time>
      </trkpt>
      <trkpt lat="43.02135" lon="1.15986">
        <ele>548.09</ele>
        <time>2013-02-12T09:18:41Z</time>
      </trkpt>
      <trkpt lat="43.02136" lon="1.15984">
        <ele>547.61</ele>
        <time>2013-02-12T09:18:48Z</time>
      </trkpt>
      <trkpt lat="43.02137" lon="1.15982">
        <ele>546.65</ele>
        <time>2013-02-12T09:18:54Z</time>
      </trkpt>
      <trkpt lat="43.02141" lon="1.15979">
        <ele>546.17</ele>
        <time>2013-02-12T09:19:00Z</time>
      </trkpt>
      <trkpt lat="43.02141" lon="1.15977">
        <ele>545.69</ele>
        <time>2013-02-12T09:19:08Z</time>
      </trkpt>
      <trkpt lat="43.02144" lon="1.15974">
        <ele>545.2</ele>
        <time>2013-02-12T09:19:14Z</time>
      </trkpt>
      <trkpt lat="43.02145" lon="1.15971">
        <ele>544.24</ele>
        <time>2013-02-12T09:19:22Z</time>
      </trkpt>
      <trkpt lat="43.02147" lon="1.15968">
        <ele>544.24</ele>
        <time>2013-02-12T09:19:28Z</time>
      </trkpt>
      <trkpt lat="43.02149" lon="1.15959">
        <ele>543.28</ele>
        <time>2013-02-12T09:19:35Z</time>
      </trkpt>
      <trkpt lat="43.02153" lon="1.15956">
        <ele>543.28</ele>
        <time>2013-02-12T09:19:42Z</time>
      </trkpt>
      <trkpt lat="43.02157" lon="1.15952">
        <ele>541.84</ele>
        <time>2013-02-12T09:19:51Z</time>
      </trkpt>
      <trkpt lat="43.02162" lon="1.1595">
        <ele>540.4</ele>
        <time>2013-02-12T09:19:58Z</time>
      </trkpt>
      <trkpt lat="43.02166" lon="1.15948">
        <ele>539.44</ele>
        <time>2013-02-12T09:20:06Z</time>
      </trkpt>
      <trkpt lat="43.02171" lon="1.15947">
        <ele>537.99</ele>
        <time>2013-02-12T09:20:14Z</time>
      </trkpt>
      <trkpt lat="43.02177" lon="1.15943">
        <ele>536.55</ele>
        <time>2013-02-12T09:20:22Z</time>
      </trkpt>
      <trkpt lat="43.02181" lon="1.15938">
        <ele>536.55</ele>
        <time>2013-02-12T09:20:29Z</time>
      </trkpt>
      <trkpt lat="43.02187" lon="1.15934">
        <ele>534.63</ele>
        <time>2013-02-12T09:20:35Z</time>
      </trkpt>
      <trkpt lat="43.02197" lon="1.1593">
        <ele>533.19</ele>
        <time>2013-02-12T09:20:44Z</time>
      </trkpt>
      <trkpt lat="43.02203" lon="1.15928">
        <ele>532.71</ele>
        <time>2013-02-12T09:20:53Z</time>
      </trkpt>
      <trkpt lat="43.02209" lon="1.15924">
        <ele>530.79</ele>
        <time>2013-02-12T09:21:01Z</time>
      </trkpt>
      <trkpt lat="43.02213" lon="1.15922">
        <ele>530.79</ele>
        <time>2013-02-12T09:21:08Z</time>
      </trkpt>
      <trkpt lat="43.02217" lon="1.1592">
        <ele>529.82</ele>
        <time>2013-02-12T09:21:11Z</time>
      </trkpt>
      <trkpt lat="43.02224" lon="1.15917">
        <ele>529.34</ele>
        <time>2013-02-12T09:21:17Z</time>
      </trkpt>
      <trkpt lat="43.02235" lon="1.15914">
        <ele>527.9</ele>
        <time>2013-02-12T09:21:26Z</time>
      </trkpt>
      <trkpt lat="43.02237" lon="1.15912">
        <ele>526.94</ele>
        <time>2013-02-12T09:21:29Z</time>
      </trkpt>
      <trkpt lat="43.02246" lon="1.1591">
        <ele>525.98</ele>
        <time>2013-02-12T09:21:35Z</time>
      </trkpt>
      <trkpt lat="43.02249" lon="1.15908">
        <ele>525.02</ele>
        <time>2013-02-12T09:21:37Z</time>
      </trkpt>
      <trkpt lat="43.02267" lon="1.15902">
        <ele>523.58</ele>
        <time>2013-02-12T09:21:45Z</time>
      </trkpt>
      <trkpt lat="43.02281" lon="1.15897">
        <ele>522.61</ele>
        <time>2013-02-12T09:21:52Z</time>
      </trkpt>
      <trkpt lat="43.02288" lon="1.15896">
        <ele>520.69</ele>
        <time>2013-02-12T09:22:00Z</time>
      </trkpt>
      <trkpt lat="43.02292" lon="1.15895">
        <ele>519.73</ele>
        <time>2013-02-12T09:22:07Z</time>
      </trkpt>
      <trkpt lat="43.02294" lon="1.15896">
        <ele>517.81</ele>
        <time>2013-02-12T09:22:17Z</time>
      </trkpt>
      <trkpt lat="43.02297" lon="1.15893">
        <ele>516.85</ele>
        <time>2013-02-12T09:22:27Z</time>
      </trkpt>
      <trkpt lat="43.02304" lon="1.1589">
        <ele>516.85</ele>
        <time>2013-02-12T09:22:35Z</time>
      </trkpt>
      <trkpt lat="43.02319" lon="1.15888">
        <ele>515.4</ele>
        <time>2013-02-12T09:22:42Z</time>
      </trkpt>
      <trkpt lat="43.02322" lon="1.15884">
        <ele>515.4</ele>
        <time>2013-02-12T09:22:46Z</time>
      </trkpt>
      <trkpt lat="43.02337" lon="1.15883">
        <ele>514.44</ele>
        <time>2013-02-12T09:22:52Z</time>
      </trkpt>
      <trkpt lat="43.02345" lon="1.15882">
        <ele>513</ele>
        <time>2013-02-12T09:22:59Z</time>
      </trkpt>
      <trkpt lat="43.02352" lon="1.15879">
        <ele>512.52</ele>
        <time>2013-02-12T09:23:05Z</time>
      </trkpt>
      <trkpt lat="43.02358" lon="1.15876">
        <ele>510.6</ele>
        <time>2013-02-12T09:23:14Z</time>
      </trkpt>
      <trkpt lat="43.02362" lon="1.15874">
        <ele>509.64</ele>
        <time>2013-02-12T09:23:21Z</time>
      </trkpt>
      <trkpt lat="43.02371" lon="1.15873">
        <ele>508.67</ele>
        <time>2013-02-12T09:23:29Z</time>
      </trkpt>
      <trkpt lat="43.02376" lon="1.15871">
        <ele>507.71</ele>
        <time>2013-02-12T09:23:35Z</time>
      </trkpt>
      <trkpt lat="43.02381" lon="1.1587">
        <ele>507.71</ele>
        <time>2013-02-12T09:23:40Z</time>
      </trkpt>
      <trkpt lat="43.02384" lon="1.15869">
        <ele>506.75</ele>
        <time>2013-02-12T09:23:46Z</time>
      </trkpt>
      <trkpt lat="43.02387" lon="1.15868">
        <ele>505.79</ele>
        <time>2013-02-12T09:23:49Z</time>
      </trkpt>
      <trkpt lat="43.02394" lon="1.15867">
        <ele>505.31</ele>
        <time>2013-02-12T09:23:56Z</time>
      </trkpt>
      <trkpt lat="43.02396" lon="1.15866">
        <ele>504.83</ele>
        <time>2013-02-12T09:24:02Z</time>
      </trkpt>
      <trkpt lat="43.02402" lon="1.15866">
        <ele>503.87</ele>
        <time>2013-02-12T09:24:09Z</time>
      </trkpt>
      <trkpt lat="43.02409" lon="1.15863">
        <ele>503.39</ele>
        <time>2013-02-12T09:24:17Z</time>
      </trkpt>
      <trkpt lat="43.02413" lon="1.15858">
        <ele>502.91</ele>
        <time>2013-02-12T09:24:26Z</time>
      </trkpt>
      <trkpt lat="43.02425" lon="1.15847">
        <ele>502.91</ele>
        <time>2013-02-12T09:24:33Z</time>
      </trkpt>
      <trkpt lat="43.02434" lon="1.15841">
        <ele>502.43</ele>
        <time>2013-02-12T09:24:41Z</time>
      </trkpt>
      <trkpt lat="43.02437" lon="1.15841">
        <ele>501.46</ele>
        <time>2013-02-12T09:24:47Z</time>
      </trkpt>
      <trkpt lat="43.02441" lon="1.15838">
        <ele>501.95</ele>
        <time>2013-02-12T09:24:52Z</time>
      </trkpt>
      <trkpt lat="43.02448" lon="1.15828">
        <ele>500.98</ele>
        <time>2013-02-12T09:25:00Z</time>
      </trkpt>
      <trkpt lat="43.02465" lon="1.15819">
        <ele>500.5</ele>
        <time>2013-02-12T09:25:08Z</time>
      </trkpt>
      <trkpt lat="43.02469" lon="1.15817">
        <ele>500.5</ele>
        <time>2013-02-12T09:25:17Z</time>
      </trkpt>
      <trkpt lat="43.02471" lon="1.15816">
        <ele>499.54</ele>
        <time>2013-02-12T09:25:24Z</time>
      </trkpt>
      <trkpt lat="43.02473" lon="1.15816">
        <ele>498.58</ele>
        <time>2013-02-12T09:25:31Z</time>
      </trkpt>
      <trkpt lat="43.02476" lon="1.15815">
        <ele>499.54</ele>
        <time>2013-02-12T09:25:38Z</time>
      </trkpt>
      <trkpt lat="43.02483" lon="1.15817">
        <ele>499.06</ele>
        <time>2013-02-12T09:25:48Z</time>
      </trkpt>
      <trkpt lat="43.02486" lon="1.15815">
        <ele>498.58</ele>
        <time>2013-02-12T09:25:55Z</time>
      </trkpt>
      <trkpt lat="43.02493" lon="1.15812">
        <ele>498.1</ele>
        <time>2013-02-12T09:26:01Z</time>
      </trkpt>
      <trkpt lat="43.02501" lon="1.15807">
        <ele>497.14</ele>
        <time>2013-02-12T09:26:08Z</time>
      </trkpt>
      <trkpt lat="43.0251" lon="1.15804">
        <ele>496.18</ele>
        <time>2013-02-12T09:26:17Z</time>
      </trkpt>
      <trkpt lat="43.02519" lon="1.15801">
        <ele>495.7</ele>
        <time>2013-02-12T09:26:24Z</time>
      </trkpt>
      <trkpt lat="43.02529" lon="1.158">
        <ele>494.74</ele>
        <time>2013-02-12T09:26:33Z</time>
      </trkpt>
      <trkpt lat="43.02534" lon="1.15798">
        <ele>494.26</ele>
        <time>2013-02-12T09:26:39Z</time>
      </trkpt>
      <trkpt lat="43.02542" lon="1.15798">
        <ele>493.29</ele>
        <time>2013-02-12T09:26:46Z</time>
      </trkpt>
      <trkpt lat="43.02548" lon="1.15796">
        <ele>492.33</ele>
        <time>2013-02-12T09:26:52Z</time>
      </trkpt>
      <trkpt lat="43.0255" lon="1.15795">
        <ele>491.37</ele>
        <time>2013-02-12T09:26:58Z</time>
      </trkpt>
      <trkpt lat="43.02556" lon="1.15793">
        <ele>491.37</ele>
        <time>2013-02-12T09:27:05Z</time>
      </trkpt>
      <trkpt lat="43.0256" lon="1.1579">
        <ele>490.41</ele>
        <time>2013-02-12T09:27:12Z</time>
      </trkpt>
      <trkpt lat="43.02565" lon="1.15787">
        <ele>489.93</ele>
        <time>2013-02-12T09:27:17Z</time>
      </trkpt>
      <trkpt lat="43.02578" lon="1.15785">
        <ele>488.49</ele>
        <time>2013-02-12T09:27:28Z</time>
      </trkpt>
      <trkpt lat="43.02586" lon="1.15784">
        <ele>488.49</ele>
        <time>2013-02-12T09:27:35Z</time>
      </trkpt>
      <trkpt lat="43.02593" lon="1.15784">
        <ele>487.05</ele>
        <time>2013-02-12T09:27:40Z</time>
      </trkpt>
      <trkpt lat="43.026" lon="1.15782">
        <ele>486.08</ele>
        <time>2013-02-12T09:27:48Z</time>
      </trkpt>
      <trkpt lat="43.02608" lon="1.15782">
        <ele>485.12</ele>
        <time>2013-02-12T09:27:55Z</time>
      </trkpt>
      <trkpt lat="43.02615" lon="1.15779">
        <ele>485.12</ele>
        <time>2013-02-12T09:28:02Z</time>
      </trkpt>
      <trkpt lat="43.02622" lon="1.15778">
        <ele>484.16</ele>
        <time>2013-02-12T09:28:10Z</time>
      </trkpt>
      <trkpt lat="43.02623" lon="1.15778">
        <ele>484.16</ele>
        <time>2013-02-12T09:28:11Z</time>
      </trkpt>
      <trkpt lat="43.0263" lon="1.15776">
        <ele>483.68</ele>
        <time>2013-02-12T09:28:20Z</time>
      </trkpt>
      <trkpt lat="43.02637" lon="1.15778">
        <ele>482.72</ele>
        <time>2013-02-12T09:28:28Z</time>
      </trkpt>
      <trkpt lat="43.02644" lon="1.15784">
        <ele>481.76</ele>
        <time>2013-02-12T09:28:36Z</time>
      </trkpt>
      <trkpt lat="43.02649" lon="1.1579">
        <ele>481.76</ele>
        <time>2013-02-12T09:28:43Z</time>
      </trkpt>
      <trkpt lat="43.02656" lon="1.15798">
        <ele>480.32</ele>
        <time>2013-02-12T09:28:52Z</time>
      </trkpt>
      <trkpt lat="43.02663" lon="1.15804">
        <ele>479.35</ele>
        <time>2013-02-12T09:28:59Z</time>
      </trkpt>
      <trkpt lat="43.0267" lon="1.15808">
        <ele>479.35</ele>
        <time>2013-02-12T09:29:06Z</time>
      </trkpt>
      <trkpt lat="43.02677" lon="1.15814">
        <ele>478.39</ele>
        <time>2013-02-12T09:29:13Z</time>
      </trkpt>
      <trkpt lat="43.02682" lon="1.15819">
        <ele>478.39</ele>
        <time>2013-02-12T09:29:19Z</time>
      </trkpt>
      <trkpt lat="43.02685" lon="1.15823">
        <ele>478.39</ele>
        <time>2013-02-12T09:29:24Z</time>
      </trkpt>
      <trkpt lat="43.02692" lon="1.15829">
        <ele>478.87</ele>
        <time>2013-02-12T09:29:32Z</time>
      </trkpt>
      <trkpt lat="43.02699" lon="1.15835">
        <ele>478.87</ele>
        <time>2013-02-12T09:29:39Z</time>
      </trkpt>
      <trkpt lat="43.02701" lon="1.1584">
        <ele>478.39</ele>
        <time>2013-02-12T09:29:45Z</time>
      </trkpt>
      <trkpt lat="43.02706" lon="1.15843">
        <ele>478.87</ele>
        <time>2013-02-12T09:29:51Z</time>
      </trkpt>
      <trkpt lat="43.02707" lon="1.15843">
        <ele>478.39</ele>
        <time>2013-02-12T09:29:58Z</time>
      </trkpt>
      <trkpt lat="43.02707" lon="1.15843">
        <ele>478.39</ele>
        <time>2013-02-12T09:30:03Z</time>
      </trkpt>
      <trkpt lat="43.02706" lon="1.15843">
        <ele>479.35</ele>
        <time>2013-02-12T09:30:10Z</time>
      </trkpt>
      <trkpt lat="43.02706" lon="1.15842">
        <ele>478.87</ele>
        <time>2013-02-12T09:30:16Z</time>
      </trkpt>
      <trkpt lat="43.02706" lon="1.15843">
        <ele>478.87</ele>
        <time>2013-02-12T09:30:28Z</time>
      </trkpt>
      <trkpt lat="43.02706" lon="1.15843">
        <ele>478.87</ele>
        <time>2013-02-12T09:30:46Z</time>
      </trkpt>
      <trkpt lat="43.02706" lon="1.15843">
        <ele>478.39</ele>
        <time>2013-02-12T09:30:55Z</time>
      </trkpt>
      <trkpt lat="43.02708" lon="1.15841">
        <ele>477.91</ele>
        <time>2013-02-12T09:30:58Z</time>
      </trkpt>
      <trkpt lat="43.0271" lon="1.1584">
        <ele>478.87</ele>
        <time>2013-02-12T09:31:00Z</time>
      </trkpt>
      <trkpt lat="43.02715" lon="1.15839">
        <ele>477.91</ele>
        <time>2013-02-12T09:31:06Z</time>
      </trkpt>
      <trkpt lat="43.02719" lon="1.15839">
        <ele>477.91</ele>
        <time>2013-02-12T09:31:11Z</time>
      </trkpt>
      <trkpt lat="43.02721" lon="1.15841">
        <ele>478.39</ele>
        <time>2013-02-12T09:31:13Z</time>
      </trkpt>
      <trkpt lat="43.02725" lon="1.15844">
        <ele>478.87</ele>
        <time>2013-02-12T09:31:16Z</time>
      </trkpt>
      <trkpt lat="43.0273" lon="1.15844">
        <ele>478.87</ele>
        <time>2013-02-12T09:31:21Z</time>
      </trkpt>
      <trkpt lat="43.02732" lon="1.15844">
        <ele>478.87</ele>
        <time>2013-02-12T09:31:23Z</time>
      </trkpt>
      <trkpt lat="43.02735" lon="1.15842">
        <ele>478.87</ele>
        <time>2013-02-12T09:31:26Z</time>
      </trkpt>
      <trkpt lat="43.02745" lon="1.15836">
        <ele>478.87</ele>
        <time>2013-02-12T09:31:33Z</time>
      </trkpt>
      <trkpt lat="43.02755" lon="1.15828">
        <ele>478.87</ele>
        <time>2013-02-12T09:31:42Z</time>
      </trkpt>
      <trkpt lat="43.02765" lon="1.15822">
        <ele>479.35</ele>
        <time>2013-02-12T09:31:50Z</time>
      </trkpt>
      <trkpt lat="43.02775" lon="1.15814">
        <ele>478.87</ele>
        <time>2013-02-12T09:31:59Z</time>
      </trkpt>
      <trkpt lat="43.02782" lon="1.15803">
        <ele>477.91</ele>
        <time>2013-02-12T09:32:08Z</time>
      </trkpt>
      <trkpt lat="43.02787" lon="1.15798">
        <ele>477.91</ele>
        <time>2013-02-12T09:32:13Z</time>
      </trkpt>
      <trkpt lat="43.02797" lon="1.15789">
        <ele>477.43</ele>
        <time>2013-02-12T09:32:22Z</time>
      </trkpt>
      <trkpt lat="43.02806" lon="1.15782">
        <ele>476.95</ele>
        <time>2013-02-12T09:32:30Z</time>
      </trkpt>
      <trkpt lat="43.02807" lon="1.1578">
        <ele>477.43</ele>
        <time>2013-02-12T09:32:36Z</time>
      </trkpt>
      <trkpt lat="43.02806" lon="1.15778">
        <ele>476.95</ele>
        <time>2013-02-12T09:32:48Z</time>
      </trkpt>
      <trkpt lat="43.02807" lon="1.15777">
        <ele>476.95</ele>
        <time>2013-02-12T09:32:51Z</time>
      </trkpt>
      <trkpt lat="43.02809" lon="1.15776">
        <ele>477.43</ele>
        <time>2013-02-12T09:32:53Z</time>
      </trkpt>
      <trkpt lat="43.02816" lon="1.15772">
        <ele>476.47</ele>
        <time>2013-02-12T09:33:00Z</time>
      </trkpt>
      <trkpt lat="43.02823" lon="1.15764">
        <ele>475.99</ele>
        <time>2013-02-12T09:33:07Z</time>
      </trkpt>
      <trkpt lat="43.02827" lon="1.1576">
        <ele>476.47</ele>
        <time>2013-02-12T09:33:11Z</time>
      </trkpt>
      <trkpt lat="43.02831" lon="1.15758">
        <ele>475.99</ele>
        <time>2013-02-12T09:33:14Z</time>
      </trkpt>
      <trkpt lat="43.02836" lon="1.15757">
        <ele>476.95</ele>
        <time>2013-02-12T09:33:20Z</time>
      </trkpt>
      <trkpt lat="43.02846" lon="1.15747">
        <ele>476.95</ele>
        <time>2013-02-12T09:33:30Z</time>
      </trkpt>
      <trkpt lat="43.02852" lon="1.15738">
        <ele>477.91</ele>
        <time>2013-02-12T09:33:37Z</time>
      </trkpt>
      <trkpt lat="43.02854" lon="1.15736">
        <ele>478.39</ele>
        <time>2013-02-12T09:33:39Z</time>
      </trkpt>
      <trkpt lat="43.02857" lon="1.15729">
        <ele>478.87</ele>
        <time>2013-02-12T09:33:44Z</time>
      </trkpt>
      <trkpt lat="43.02859" lon="1.15726">
        <ele>478.87</ele>
        <time>2013-02-12T09:33:46Z</time>
      </trkpt>
      <trkpt lat="43.02865" lon="1.15716">
        <ele>479.35</ele>
        <time>2013-02-12T09:33:53Z</time>
      </trkpt>
      <trkpt lat="43.02871" lon="1.15713">
        <ele>480.32</ele>
        <time>2013-02-12T09:33:59Z</time>
      </trkpt>
      <trkpt lat="43.02873" lon="1.15713">
        <ele>480.32</ele>
        <time>2013-02-12T09:34:01Z</time>
      </trkpt>
      <trkpt lat="43.02881" lon="1.15715">
        <ele>481.28</ele>
        <time>2013-02-12T09:34:07Z</time>
      </trkpt>
      <trkpt lat="43.02886" lon="1.15718">
        <ele>481.76</ele>
        <time>2013-02-12T09:34:12Z</time>
      </trkpt>
      <trkpt lat="43.02892" lon="1.15724">
        <ele>482.72</ele>
        <time>2013-02-12T09:34:19Z</time>
      </trkpt>
      <trkpt lat="43.029" lon="1.15727">
        <ele>484.16</ele>
        <time>2013-02-12T09:34:26Z</time>
      </trkpt>
      <trkpt lat="43.02903" lon="1.15729">
        <ele>484.64</ele>
        <time>2013-02-12T09:34:30Z</time>
      </trkpt>
      <trkpt lat="43.02907" lon="1.15732">
        <ele>485.6</ele>
        <time>2013-02-12T09:34:34Z</time>
      </trkpt>
      <trkpt lat="43.02912" lon="1.15736">
        <ele>487.05</ele>
        <time>2013-02-12T09:34:42Z</time>
      </trkpt>
      <trkpt lat="43.02916" lon="1.1574">
        <ele>488.01</ele>
        <time>2013-02-12T09:34:50Z</time>
      </trkpt>
      <trkpt lat="43.02916" lon="1.15739">
        <ele>487.53</ele>
        <time>2013-02-12T09:35:00Z</time>
      </trkpt>
      <trkpt lat="43.02916" lon="1.15739">
        <ele>488.01</ele>
        <time>2013-02-12T09:35:11Z</time>
      </trkpt>
      <trkpt lat="43.0292" lon="1.15746">
        <ele>489.45</ele>
        <time>2013-02-12T09:35:18Z</time>
      </trkpt>
      <trkpt lat="43.02922" lon="1.15751">
        <ele>489.93</ele>
        <time>2013-02-12T09:35:22Z</time>
      </trkpt>
      <trkpt lat="43.02923" lon="1.15755">
        <ele>490.41</ele>
        <time>2013-02-12T09:35:25Z</time>
      </trkpt>
      <trkpt lat="43.02928" lon="1.1576">
        <ele>491.37</ele>
        <time>2013-02-12T09:35:32Z</time>
      </trkpt>
      <trkpt lat="43.0293" lon="1.15764">
        <ele>491.37</ele>
        <time>2013-02-12T09:35:36Z</time>
      </trkpt>
      <trkpt lat="43.02934" lon="1.15767">
        <ele>491.85</ele>
        <time>2013-02-12T09:35:40Z</time>
      </trkpt>
      <trkpt lat="43.02939" lon="1.15771">
        <ele>492.33</ele>
        <time>2013-02-12T09:35:46Z</time>
      </trkpt>
      <trkpt lat="43.02941" lon="1.15774">
        <ele>492.81</ele>
        <time>2013-02-12T09:35:48Z</time>
      </trkpt>
      <trkpt lat="43.02944" lon="1.15776">
        <ele>492.81</ele>
        <time>2013-02-12T09:35:51Z</time>
      </trkpt>
      <trkpt lat="43.02946" lon="1.15777">
        <ele>493.29</ele>
        <time>2013-02-12T09:35:54Z</time>
      </trkpt>
      <trkpt lat="43.02947" lon="1.15778">
        <ele>493.29</ele>
        <time>2013-02-12T09:35:56Z</time>
      </trkpt>
      <trkpt lat="43.02951" lon="1.15782">
        <ele>494.74</ele>
        <time>2013-02-12T09:36:01Z</time>
      </trkpt>
      <trkpt lat="43.02956" lon="1.15787">
        <ele>494.74</ele>
        <time>2013-02-12T09:36:06Z</time>
      </trkpt>
      <trkpt lat="43.0296" lon="1.15797">
        <ele>496.18</ele>
        <time>2013-02-12T09:36:13Z</time>
      </trkpt>
      <trkpt lat="43.02968" lon="1.15808">
        <ele>496.66</ele>
        <time>2013-02-12T09:36:21Z</time>
      </trkpt>
      <trkpt lat="43.02973" lon="1.1582">
        <ele>497.14</ele>
        <time>2013-02-12T09:36:30Z</time>
      </trkpt>
      <trkpt lat="43.02974" lon="1.15824">
        <ele>497.62</ele>
        <time>2013-02-12T09:36:35Z</time>
      </trkpt>
      <trkpt lat="43.02981" lon="1.15829">
        <ele>498.1</ele>
        <time>2013-02-12T09:36:40Z</time>
      </trkpt>
      <trkpt lat="43.02988" lon="1.15834">
        <ele>499.06</ele>
        <time>2013-02-12T09:36:45Z</time>
      </trkpt>
      <trkpt lat="43.02992" lon="1.15838">
        <ele>500.02</ele>
        <time>2013-02-12T09:36:50Z</time>
      </trkpt>
      <trkpt lat="43.02995" lon="1.15841">
        <ele>500.02</ele>
        <time>2013-02-12T09:36:53Z</time>
      </trkpt>
      <trkpt lat="43.02999" lon="1.15843">
        <ele>500.98</ele>
        <time>2013-02-12T09:36:57Z</time>
      </trkpt>
      <trkpt lat="43.03004" lon="1.15848">
        <ele>502.43</ele>
        <time>2013-02-12T09:37:04Z</time>
      </trkpt>
      <trkpt lat="43.03006" lon="1.15849">
        <ele>502.43</ele>
        <time>2013-02-12T09:37:06Z</time>
      </trkpt>
      <trkpt lat="43.03014" lon="1.15854">
        <ele>503.87</ele>
        <time>2013-02-12T09:37:14Z</time>
      </trkpt>
      <trkpt lat="43.03016" lon="1.15855">
        <ele>503.87</ele>
        <time>2013-02-12T09:37:16Z</time>
      </trkpt>
      <trkpt lat="43.03021" lon="1.15864">
        <ele>504.83</ele>
        <time>2013-02-12T09:37:23Z</time>
      </trkpt>
      <trkpt lat="43.03022" lon="1.15869">
        <ele>505.79</ele>
        <time>2013-02-12T09:37:27Z</time>
      </trkpt>
      <trkpt lat="43.03023" lon="1.15872">
        <ele>505.31</ele>
        <time>2013-02-12T09:37:30Z</time>
      </trkpt>
      <trkpt lat="43.03026" lon="1.15882">
        <ele>507.23</ele>
        <time>2013-02-12T09:37:37Z</time>
      </trkpt>
      <trkpt lat="43.03027" lon="1.15889">
        <ele>507.71</ele>
        <time>2013-02-12T09:37:42Z</time>
      </trkpt>
      <trkpt lat="43.03032" lon="1.159">
        <ele>507.71</ele>
        <time>2013-02-12T09:37:50Z</time>
      </trkpt>
      <trkpt lat="43.03034" lon="1.15909">
        <ele>508.19</ele>
        <time>2013-02-12T09:37:56Z</time>
      </trkpt>
      <trkpt lat="43.03037" lon="1.15914">
        <ele>508.67</ele>
        <time>2013-02-12T09:38:00Z</time>
      </trkpt>
      <trkpt lat="43.03041" lon="1.15923">
        <ele>510.12</ele>
        <time>2013-02-12T09:38:07Z</time>
      </trkpt>
      <trkpt lat="43.03044" lon="1.15927">
        <ele>511.08</ele>
        <time>2013-02-12T09:38:14Z</time>
      </trkpt>
      <trkpt lat="43.03045" lon="1.15932">
        <ele>511.56</ele>
        <time>2013-02-12T09:38:18Z</time>
      </trkpt>
      <trkpt lat="43.03044" lon="1.15937">
        <ele>512.04</ele>
        <time>2013-02-12T09:38:23Z</time>
      </trkpt>
      <trkpt lat="43.03049" lon="1.15944">
        <ele>512.52</ele>
        <time>2013-02-12T09:38:27Z</time>
      </trkpt>
      <trkpt lat="43.03052" lon="1.15953">
        <ele>512.04</ele>
        <time>2013-02-12T09:38:34Z</time>
      </trkpt>
      <trkpt lat="43.0306" lon="1.15968">
        <ele>513</ele>
        <time>2013-02-12T09:38:43Z</time>
      </trkpt>
      <trkpt lat="43.03065" lon="1.15974">
        <ele>513</ele>
        <time>2013-02-12T09:38:49Z</time>
      </trkpt>
      <trkpt lat="43.03073" lon="1.15978">
        <ele>513.96</ele>
        <time>2013-02-12T09:38:57Z</time>
      </trkpt>
      <trkpt lat="43.03075" lon="1.15978">
        <ele>513.96</ele>
        <time>2013-02-12T09:38:59Z</time>
      </trkpt>
      <trkpt lat="43.03084" lon="1.15977">
        <ele>514.92</ele>
        <time>2013-02-12T09:39:05Z</time>
      </trkpt>
      <trkpt lat="43.03091" lon="1.15977">
        <ele>515.4</ele>
        <time>2013-02-12T09:39:09Z</time>
      </trkpt>
      <trkpt lat="43.03096" lon="1.15971">
        <ele>515.88</ele>
        <time>2013-02-12T09:39:17Z</time>
      </trkpt>
      <trkpt lat="43.03097" lon="1.15967">
        <ele>515.88</ele>
        <time>2013-02-12T09:39:20Z</time>
      </trkpt>
      <trkpt lat="43.03095" lon="1.15962">
        <ele>515.88</ele>
        <time>2013-02-12T09:39:25Z</time>
      </trkpt>
      <trkpt lat="43.03095" lon="1.15961">
        <ele>514.92</ele>
        <time>2013-02-12T09:39:26Z</time>
      </trkpt>
      <trkpt lat="43.03093" lon="1.15943">
        <ele>515.4</ele>
        <time>2013-02-12T09:39:36Z</time>
      </trkpt>
      <trkpt lat="43.03094" lon="1.15931">
        <ele>516.37</ele>
        <time>2013-02-12T09:39:44Z</time>
      </trkpt>
      <trkpt lat="43.03094" lon="1.15923">
        <ele>515.4</ele>
        <time>2013-02-12T09:39:48Z</time>
      </trkpt>
      <trkpt lat="43.03099" lon="1.15915">
        <ele>517.33</ele>
        <time>2013-02-12T09:39:57Z</time>
      </trkpt>
      <trkpt lat="43.031" lon="1.15914">
        <ele>517.33</ele>
        <time>2013-02-12T09:39:59Z</time>
      </trkpt>
      <trkpt lat="43.03109" lon="1.15911">
        <ele>518.77</ele>
        <time>2013-02-12T09:40:08Z</time>
      </trkpt>
      <trkpt lat="43.03112" lon="1.15909">
        <ele>519.25</ele>
        <time>2013-02-12T09:40:15Z</time>
      </trkpt>
      <trkpt lat="43.03115" lon="1.15909">
        <ele>519.73</ele>
        <time>2013-02-12T09:40:23Z</time>
      </trkpt>
      <trkpt lat="43.03116" lon="1.15908">
        <ele>519.25</ele>
        <time>2013-02-12T09:40:30Z</time>
      </trkpt>
      <trkpt lat="43.03116" lon="1.15907">
        <ele>519.25</ele>
        <time>2013-02-12T09:40:41Z</time>
      </trkpt>
      <trkpt lat="43.03116" lon="1.15907">
        <ele>519.25</ele>
        <time>2013-02-12T09:40:48Z</time>
      </trkpt>
      <trkpt lat="43.03117" lon="1.15905">
        <ele>519.25</ele>
        <time>2013-02-12T09:40:50Z</time>
      </trkpt>
      <trkpt lat="43.03123" lon="1.15898">
        <ele>519.25</ele>
        <time>2013-02-12T09:40:58Z</time>
      </trkpt>
      <trkpt lat="43.03125" lon="1.15897">
        <ele>520.69</ele>
        <time>2013-02-12T09:41:05Z</time>
      </trkpt>
      <trkpt lat="43.03124" lon="1.15896">
        <ele>519.25</ele>
        <time>2013-02-12T09:41:12Z</time>
      </trkpt>
      <trkpt lat="43.03125" lon="1.15895">
        <ele>519.73</ele>
        <time>2013-02-12T09:41:25Z</time>
      </trkpt>
      <trkpt lat="43.03125" lon="1.15896">
        <ele>519.73</ele>
        <time>2013-02-12T09:41:37Z</time>
      </trkpt>
      <trkpt lat="43.03128" lon="1.15894">
        <ele>519.73</ele>
        <time>2013-02-12T09:41:47Z</time>
      </trkpt>
      <trkpt lat="43.03129" lon="1.15893">
        <ele>520.21</ele>
        <time>2013-02-12T09:41:56Z</time>
      </trkpt>
      <trkpt lat="43.03128" lon="1.15894">
        <ele>519.73</ele>
        <time>2013-02-12T09:42:07Z</time>
      </trkpt>
      <trkpt lat="43.03128" lon="1.15894">
        <ele>519.73</ele>
        <time>2013-02-12T09:42:18Z</time>
      </trkpt>
      <trkpt lat="43.03129" lon="1.15895">
        <ele>519.73</ele>
        <time>2013-02-12T09:42:31Z</time>
      </trkpt>
      <trkpt lat="43.03129" lon="1.15895">
        <ele>520.21</ele>
        <time>2013-02-12T09:42:46Z</time>
      </trkpt>
      <trkpt lat="43.03128" lon="1.15895">
        <ele>520.21</ele>
        <time>2013-02-12T09:43:00Z</time>
      </trkpt>
      <trkpt lat="43.03129" lon="1.15896">
        <ele>519.73</ele>
        <time>2013-02-12T09:43:09Z</time>
      </trkpt>
      <trkpt lat="43.03128" lon="1.15896">
        <ele>519.73</ele>
        <time>2013-02-12T09:43:20Z</time>
      </trkpt>
      <trkpt lat="43.03128" lon="1.15896">
        <ele>519.73</ele>
        <time>2013-02-12T09:43:34Z</time>
      </trkpt>
      <trkpt lat="43.03129" lon="1.15897">
        <ele>519.73</ele>
        <time>2013-02-12T09:43:52Z</time>
      </trkpt>
      <trkpt lat="43.03129" lon="1.15897">
        <ele>519.73</ele>
        <time>2013-02-12T09:44:08Z</time>
      </trkpt>
      <trkpt lat="43.03129" lon="1.15896">
        <ele>520.21</ele>
        <time>2013-02-12T09:44:23Z</time>
      </trkpt>
      <trkpt lat="43.03129" lon="1.15896">
        <ele>520.21</ele>
        <time>2013-02-12T09:44:41Z</time>
      </trkpt>
      <trkpt lat="43.03129" lon="1.15896">
        <ele>519.73</ele>
        <time>2013-02-12T09:44:54Z</time>
      </trkpt>
      <trkpt lat="43.03129" lon="1.15896">
        <ele>520.21</ele>
        <time>2013-02-12T09:45:08Z</time>
      </trkpt>
      <trkpt lat="43.03129" lon="1.15895">
        <ele>520.69</ele>
        <time>2013-02-12T09:45:20Z</time>
      </trkpt>
      <trkpt lat="43.03129" lon="1.15896">
        <ele>520.21</ele>
        <time>2013-02-12T09:45:38Z</time>
      </trkpt>
      <trkpt lat="43.0313" lon="1.15896">
        <ele>520.69</ele>
        <time>2013-02-12T09:45:56Z</time>
      </trkpt>
      <trkpt lat="43.0313" lon="1.15896">
        <ele>520.21</ele>
        <time>2013-02-12T09:46:10Z</time>
      </trkpt>
      <trkpt lat="43.03129" lon="1.15895">
        <ele>520.69</ele>
        <time>2013-02-12T09:46:25Z</time>
      </trkpt>
      <trkpt lat="43.03129" lon="1.15895">
        <ele>520.69</ele>
        <time>2013-02-12T09:46:40Z</time>
      </trkpt>
      <trkpt lat="43.03128" lon="1.15894">
        <ele>519.73</ele>
        <time>2013-02-12T09:46:56Z</time>
      </trkpt>
      <trkpt lat="43.03129" lon="1.15895">
        <ele>520.21</ele>
        <time>2013-02-12T09:47:11Z</time>
      </trkpt>
      <trkpt lat="43.03129" lon="1.15895">
        <ele>520.21</ele>
        <time>2013-02-12T09:47:28Z</time>
      </trkpt>
      <trkpt lat="43.03129" lon="1.15895">
        <ele>519.73</ele>
        <time>2013-02-12T09:47:43Z</time>
      </trkpt>
      <trkpt lat="43.03129" lon="1.15895">
        <ele>520.21</ele>
        <time>2013-02-12T09:47:56Z</time>
      </trkpt>
      <trkpt lat="43.03128" lon="1.15897">
        <ele>518.29</ele>
        <time>2013-02-12T09:48:07Z</time>
      </trkpt>
      <trkpt lat="43.03125" lon="1.15897">
        <ele>521.17</ele>
        <time>2013-02-12T09:48:12Z</time>
      </trkpt>
      <trkpt lat="43.03125" lon="1.15898">
        <ele>520.69</ele>
        <time>2013-02-12T09:48:20Z</time>
      </trkpt>
      <trkpt lat="43.03124" lon="1.15899">
        <ele>520.69</ele>
        <time>2013-02-12T09:48:27Z</time>
      </trkpt>
      <trkpt lat="43.0312" lon="1.15904">
        <ele>521.17</ele>
        <time>2013-02-12T09:48:34Z</time>
      </trkpt>
      <trkpt lat="43.03114" lon="1.15909">
        <ele>520.21</ele>
        <time>2013-02-12T09:48:41Z</time>
      </trkpt>
      <trkpt lat="43.03111" lon="1.15909">
        <ele>520.21</ele>
        <time>2013-02-12T09:48:48Z</time>
      </trkpt>
      <trkpt lat="43.03109" lon="1.15909">
        <ele>519.73</ele>
        <time>2013-02-12T09:48:56Z</time>
      </trkpt>
      <trkpt lat="43.03107" lon="1.1591">
        <ele>519.25</ele>
        <time>2013-02-12T09:49:03Z</time>
      </trkpt>
      <trkpt lat="43.03098" lon="1.15911">
        <ele>518.29</ele>
        <time>2013-02-12T09:49:11Z</time>
      </trkpt>
      <trkpt lat="43.03089" lon="1.15923">
        <ele>517.33</ele>
        <time>2013-02-12T09:49:20Z</time>
      </trkpt>
      <trkpt lat="43.03089" lon="1.15925">
        <ele>517.33</ele>
        <time>2013-02-12T09:49:21Z</time>
      </trkpt>
      <trkpt lat="43.03089" lon="1.1594">
        <ele>516.37</ele>
        <time>2013-02-12T09:49:30Z</time>
      </trkpt>
      <trkpt lat="43.0309" lon="1.15942">
        <ele>516.85</ele>
        <time>2013-02-12T09:49:32Z</time>
      </trkpt>
      <trkpt lat="43.03092" lon="1.15949">
        <ele>516.37</ele>
        <time>2013-02-12T09:49:37Z</time>
      </trkpt>
      <trkpt lat="43.03095" lon="1.15966">
        <ele>517.81</ele>
        <time>2013-02-12T09:49:48Z</time>
      </trkpt>
      <trkpt lat="43.031" lon="1.15979">
        <ele>516.37</ele>
        <time>2013-02-12T09:49:56Z</time>
      </trkpt>
      <trkpt lat="43.031" lon="1.15981">
        <ele>515.88</ele>
        <time>2013-02-12T09:49:57Z</time>
      </trkpt>
      <trkpt lat="43.03102" lon="1.15988">
        <ele>515.88</ele>
        <time>2013-02-12T09:50:01Z</time>
      </trkpt>
      <trkpt lat="43.03106" lon="1.16003">
        <ele>516.85</ele>
        <time>2013-02-12T09:50:10Z</time>
      </trkpt>
      <trkpt lat="43.03109" lon="1.16012">
        <ele>516.85</ele>
        <time>2013-02-12T09:50:15Z</time>
      </trkpt>
      <trkpt lat="43.0311" lon="1.16024">
        <ele>517.33</ele>
        <time>2013-02-12T09:50:22Z</time>
      </trkpt>
      <trkpt lat="43.03115" lon="1.16037">
        <ele>517.33</ele>
        <time>2013-02-12T09:50:30Z</time>
      </trkpt>
      <trkpt lat="43.0312" lon="1.16052">
        <ele>517.33</ele>
        <time>2013-02-12T09:50:39Z</time>
      </trkpt>
      <trkpt lat="43.03124" lon="1.16067">
        <ele>517.81</ele>
        <time>2013-02-12T09:50:48Z</time>
      </trkpt>
      <trkpt lat="43.03125" lon="1.16072">
        <ele>517.33</ele>
        <time>2013-02-12T09:50:51Z</time>
      </trkpt>
      <trkpt lat="43.0313" lon="1.16081">
        <ele>517.33</ele>
        <time>2013-02-12T09:50:56Z</time>
      </trkpt>
      <trkpt lat="43.03131" lon="1.16085">
        <ele>517.33</ele>
        <time>2013-02-12T09:50:59Z</time>
      </trkpt>
      <trkpt lat="43.03134" lon="1.16098">
        <ele>516.37</ele>
        <time>2013-02-12T09:51:07Z</time>
      </trkpt>
      <trkpt lat="43.03138" lon="1.16104">
        <ele>516.85</ele>
        <time>2013-02-12T09:51:12Z</time>
      </trkpt>
      <trkpt lat="43.03143" lon="1.16117">
        <ele>516.37</ele>
        <time>2013-02-12T09:51:19Z</time>
      </trkpt>
      <trkpt lat="43.03146" lon="1.16133">
        <ele>516.85</ele>
        <time>2013-02-12T09:51:29Z</time>
      </trkpt>
      <trkpt lat="43.03146" lon="1.16135">
        <ele>516.37</ele>
        <time>2013-02-12T09:51:30Z</time>
      </trkpt>
      <trkpt lat="43.03147" lon="1.16147">
        <ele>516.37</ele>
        <time>2013-02-12T09:51:39Z</time>
      </trkpt>
      <trkpt lat="43.03149" lon="1.16153">
        <ele>515.88</ele>
        <time>2013-02-12T09:51:43Z</time>
      </trkpt>
      <trkpt lat="43.03151" lon="1.16161">
        <ele>515.88</ele>
        <time>2013-02-12T09:51:47Z</time>
      </trkpt>
      <trkpt lat="43.03153" lon="1.16165">
        <ele>515.88</ele>
        <time>2013-02-12T09:51:50Z</time>
      </trkpt>
      <trkpt lat="43.03154" lon="1.16175">
        <ele>515.88</ele>
        <time>2013-02-12T09:51:57Z</time>
      </trkpt>
      <trkpt lat="43.03155" lon="1.16179">
        <ele>515.88</ele>
        <time>2013-02-12T09:52:00Z</time>
      </trkpt>
      <trkpt lat="43.03157" lon="1.16189">
        <ele>515.4</ele>
        <time>2013-02-12T09:52:06Z</time>
      </trkpt>
      <trkpt lat="43.03159" lon="1.16199">
        <ele>515.4</ele>
        <time>2013-02-12T09:52:12Z</time>
      </trkpt>
      <trkpt lat="43.03162" lon="1.16206">
        <ele>515.4</ele>
        <time>2013-02-12T09:52:17Z</time>
      </trkpt>
      <trkpt lat="43.03163" lon="1.16213">
        <ele>515.4</ele>
        <time>2013-02-12T09:52:25Z</time>
      </trkpt>
      <trkpt lat="43.03163" lon="1.16214">
        <ele>514.92</ele>
        <time>2013-02-12T09:52:35Z</time>
      </trkpt>
      <trkpt lat="43.03162" lon="1.16214">
        <ele>514.92</ele>
        <time>2013-02-12T09:52:51Z</time>
      </trkpt>
      <trkpt lat="43.03162" lon="1.16214">
        <ele>515.4</ele>
        <time>2013-02-12T09:53:04Z</time>
      </trkpt>
      <trkpt lat="43.03162" lon="1.16215">
        <ele>515.4</ele>
        <time>2013-02-12T09:53:11Z</time>
      </trkpt>
      <trkpt lat="43.03162" lon="1.16215">
        <ele>515.4</ele>
        <time>2013-02-12T09:53:27Z</time>
      </trkpt>
      <trkpt lat="43.03162" lon="1.16215">
        <ele>515.88</ele>
        <time>2013-02-12T09:53:40Z</time>
      </trkpt>
      <trkpt lat="43.03163" lon="1.16216">
        <ele>515.88</ele>
        <time>2013-02-12T09:53:51Z</time>
      </trkpt>
      <trkpt lat="43.03163" lon="1.16216">
        <ele>515.4</ele>
        <time>2013-02-12T09:54:04Z</time>
      </trkpt>
      <trkpt lat="43.03163" lon="1.16217">
        <ele>516.37</ele>
        <time>2013-02-12T09:54:10Z</time>
      </trkpt>
      <trkpt lat="43.03165" lon="1.16229">
        <ele>515.88</ele>
        <time>2013-02-12T09:54:18Z</time>
      </trkpt>
      <trkpt lat="43.03168" lon="1.16241">
        <ele>515.88</ele>
        <time>2013-02-12T09:54:25Z</time>
      </trkpt>
      <trkpt lat="43.03168" lon="1.16247">
        <ele>515.88</ele>
        <time>2013-02-12T09:54:28Z</time>
      </trkpt>
      <trkpt lat="43.03172" lon="1.16262">
        <ele>515.88</ele>
        <time>2013-02-12T09:54:37Z</time>
      </trkpt>
      <trkpt lat="43.03173" lon="1.16275">
        <ele>515.4</ele>
        <time>2013-02-12T09:54:45Z</time>
      </trkpt>
      <trkpt lat="43.03174" lon="1.16286">
        <ele>515.4</ele>
        <time>2013-02-12T09:54:52Z</time>
      </trkpt>
      <trkpt lat="43.03173" lon="1.16304">
        <ele>515.88</ele>
        <time>2013-02-12T09:55:01Z</time>
      </trkpt>
      <trkpt lat="43.03173" lon="1.16309">
        <ele>515.4</ele>
        <time>2013-02-12T09:55:04Z</time>
      </trkpt>
      <trkpt lat="43.03173" lon="1.16314">
        <ele>515.88</ele>
        <time>2013-02-12T09:55:07Z</time>
      </trkpt>
      <trkpt lat="43.03173" lon="1.16323">
        <ele>515.88</ele>
        <time>2013-02-12T09:55:12Z</time>
      </trkpt>
      <trkpt lat="43.03168" lon="1.1634">
        <ele>515.4</ele>
        <time>2013-02-12T09:55:22Z</time>
      </trkpt>
      <trkpt lat="43.03163" lon="1.16357">
        <ele>516.37</ele>
        <time>2013-02-12T09:55:31Z</time>
      </trkpt>
      <trkpt lat="43.03162" lon="1.16366">
        <ele>515.88</ele>
        <time>2013-02-12T09:55:37Z</time>
      </trkpt>
      <trkpt lat="43.03157" lon="1.1638">
        <ele>515.88</ele>
        <time>2013-02-12T09:55:46Z</time>
      </trkpt>
      <trkpt lat="43.03157" lon="1.16384">
        <ele>516.37</ele>
        <time>2013-02-12T09:55:48Z</time>
      </trkpt>
      <trkpt lat="43.03154" lon="1.164">
        <ele>516.37</ele>
        <time>2013-02-12T09:55:56Z</time>
      </trkpt>
      <trkpt lat="43.03151" lon="1.16413">
        <ele>516.85</ele>
        <time>2013-02-12T09:56:05Z</time>
      </trkpt>
      <trkpt lat="43.03149" lon="1.16421">
        <ele>517.33</ele>
        <time>2013-02-12T09:56:13Z</time>
      </trkpt>
      <trkpt lat="43.03149" lon="1.16433">
        <ele>517.33</ele>
        <time>2013-02-12T09:56:22Z</time>
      </trkpt>
      <trkpt lat="43.03149" lon="1.16435">
        <ele>517.33</ele>
        <time>2013-02-12T09:56:30Z</time>
      </trkpt>
      <trkpt lat="43.03148" lon="1.16436">
        <ele>516.85</ele>
        <time>2013-02-12T09:56:37Z</time>
      </trkpt>
      <trkpt lat="43.03148" lon="1.16437">
        <ele>517.33</ele>
        <time>2013-02-12T09:56:42Z</time>
      </trkpt>
      <trkpt lat="43.03148" lon="1.16439">
        <ele>518.29</ele>
        <time>2013-02-12T09:56:45Z</time>
      </trkpt>
      <trkpt lat="43.03149" lon="1.16445">
        <ele>517.81</ele>
        <time>2013-02-12T09:56:48Z</time>
      </trkpt>
      <trkpt lat="43.0315" lon="1.16449">
        <ele>518.29</ele>
        <time>2013-02-12T09:56:51Z</time>
      </trkpt>
      <trkpt lat="43.03152" lon="1.16461">
        <ele>516.37</ele>
        <time>2013-02-12T09:57:00Z</time>
      </trkpt>
      <trkpt lat="43.03152" lon="1.16461">
        <ele>517.33</ele>
        <time>2013-02-12T09:57:07Z</time>
      </trkpt>
      <trkpt lat="43.03152" lon="1.16463">
        <ele>516.85</ele>
        <time>2013-02-12T09:57:08Z</time>
      </trkpt>
      <trkpt lat="43.03154" lon="1.16469">
        <ele>516.85</ele>
        <time>2013-02-12T09:57:12Z</time>
      </trkpt>
      <trkpt lat="43.03157" lon="1.16484">
        <ele>516.37</ele>
        <time>2013-02-12T09:57:21Z</time>
      </trkpt>
      <trkpt lat="43.03158" lon="1.16499">
        <ele>516.37</ele>
        <time>2013-02-12T09:57:31Z</time>
      </trkpt>
      <trkpt lat="43.03162" lon="1.16512">
        <ele>515.88</ele>
        <time>2013-02-12T09:57:39Z</time>
      </trkpt>
      <trkpt lat="43.03163" lon="1.16513">
        <ele>515.4</ele>
        <time>2013-02-12T09:57:40Z</time>
      </trkpt>
      <trkpt lat="43.03164" lon="1.16527">
        <ele>515.4</ele>
        <time>2013-02-12T09:57:49Z</time>
      </trkpt>
      <trkpt lat="43.03165" lon="1.16534">
        <ele>514.92</ele>
        <time>2013-02-12T09:57:53Z</time>
      </trkpt>
      <trkpt lat="43.03167" lon="1.1654">
        <ele>515.88</ele>
        <time>2013-02-12T09:57:57Z</time>
      </trkpt>
      <trkpt lat="43.03169" lon="1.16544">
        <ele>515.4</ele>
        <time>2013-02-12T09:58:00Z</time>
      </trkpt>
      <trkpt lat="43.03179" lon="1.1656">
        <ele>515.4</ele>
        <time>2013-02-12T09:58:09Z</time>
      </trkpt>
      <trkpt lat="43.03188" lon="1.16572">
        <ele>514.92</ele>
        <time>2013-02-12T09:58:18Z</time>
      </trkpt>
      <trkpt lat="43.03192" lon="1.16577">
        <ele>514.92</ele>
        <time>2013-02-12T09:58:22Z</time>
      </trkpt>
      <trkpt lat="43.03201" lon="1.16589">
        <ele>513.48</ele>
        <time>2013-02-12T09:58:31Z</time>
      </trkpt>
      <trkpt lat="43.03208" lon="1.16602">
        <ele>513</ele>
        <time>2013-02-12T09:58:40Z</time>
      </trkpt>
      <trkpt lat="43.03214" lon="1.16614">
        <ele>512.04</ele>
        <time>2013-02-12T09:58:48Z</time>
      </trkpt>
      <trkpt lat="43.03216" lon="1.1662">
        <ele>511.56</ele>
        <time>2013-02-12T09:58:53Z</time>
      </trkpt>
      <trkpt lat="43.0322" lon="1.16633">
        <ele>511.08</ele>
        <time>2013-02-12T09:59:01Z</time>
      </trkpt>
      <trkpt lat="43.03221" lon="1.16639">
        <ele>511.08</ele>
        <time>2013-02-12T09:59:06Z</time>
      </trkpt>
      <trkpt lat="43.03224" lon="1.16647">
        <ele>511.08</ele>
        <time>2013-02-12T09:59:12Z</time>
      </trkpt>
      <trkpt lat="43.03226" lon="1.16655">
        <ele>510.6</ele>
        <time>2013-02-12T09:59:16Z</time>
      </trkpt>
      <trkpt lat="43.03227" lon="1.16673">
        <ele>510.6</ele>
        <time>2013-02-12T09:59:25Z</time>
      </trkpt>
      <trkpt lat="43.03229" lon="1.16685">
        <ele>510.12</ele>
        <time>2013-02-12T09:59:32Z</time>
      </trkpt>
      <trkpt lat="43.03229" lon="1.16687">
        <ele>510.12</ele>
        <time>2013-02-12T09:59:33Z</time>
      </trkpt>
      <trkpt lat="43.0323" lon="1.1669">
        <ele>510.12</ele>
        <time>2013-02-12T09:59:35Z</time>
      </trkpt>
      <trkpt lat="43.0323" lon="1.16704">
        <ele>510.12</ele>
        <time>2013-02-12T09:59:43Z</time>
      </trkpt>
      <trkpt lat="43.0323" lon="1.16706">
        <ele>509.64</ele>
        <time>2013-02-12T09:59:44Z</time>
      </trkpt>
      <trkpt lat="43.03233" lon="1.16723">
        <ele>510.12</ele>
        <time>2013-02-12T09:59:52Z</time>
      </trkpt>
      <trkpt lat="43.03234" lon="1.16732">
        <ele>509.16</ele>
        <time>2013-02-12T09:59:58Z</time>
      </trkpt>
      <trkpt lat="43.03234" lon="1.16733">
        <ele>509.16</ele>
        <time>2013-02-12T09:59:59Z</time>
      </trkpt>
      <trkpt lat="43.03236" lon="1.16745">
        <ele>508.67</ele>
        <time>2013-02-12T10:00:07Z</time>
      </trkpt>
      <trkpt lat="43.03237" lon="1.16749">
        <ele>508.67</ele>
        <time>2013-02-12T10:00:10Z</time>
      </trkpt>
      <trkpt lat="43.03239" lon="1.16761">
        <ele>509.16</ele>
        <time>2013-02-12T10:00:17Z</time>
      </trkpt>
      <trkpt lat="43.0324" lon="1.16766">
        <ele>509.16</ele>
        <time>2013-02-12T10:00:20Z</time>
      </trkpt>
      <trkpt lat="43.03241" lon="1.16779">
        <ele>509.16</ele>
        <time>2013-02-12T10:00:28Z</time>
      </trkpt>
      <trkpt lat="43.03243" lon="1.16788">
        <ele>509.16</ele>
        <time>2013-02-12T10:00:35Z</time>
      </trkpt>
      <trkpt lat="43.03247" lon="1.16801">
        <ele>508.67</ele>
        <time>2013-02-12T10:00:42Z</time>
      </trkpt>
      <trkpt lat="43.03248" lon="1.16812">
        <ele>507.71</ele>
        <time>2013-02-12T10:00:51Z</time>
      </trkpt>
      <trkpt lat="43.0325" lon="1.16822">
        <ele>507.71</ele>
        <time>2013-02-12T10:00:58Z</time>
      </trkpt>
      <trkpt lat="43.03256" lon="1.16832">
        <ele>507.23</ele>
        <time>2013-02-12T10:01:06Z</time>
      </trkpt>
      <trkpt lat="43.03261" lon="1.16848">
        <ele>506.27</ele>
        <time>2013-02-12T10:01:16Z</time>
      </trkpt>
      <trkpt lat="43.03261" lon="1.16849">
        <ele>506.27</ele>
        <time>2013-02-12T10:01:17Z</time>
      </trkpt>
      <trkpt lat="43.03262" lon="1.16852">
        <ele>505.79</ele>
        <time>2013-02-12T10:01:19Z</time>
      </trkpt>
      <trkpt lat="43.03263" lon="1.16856">
        <ele>506.27</ele>
        <time>2013-02-12T10:01:21Z</time>
      </trkpt>
      <trkpt lat="43.03268" lon="1.16867">
        <ele>506.75</ele>
        <time>2013-02-12T10:01:29Z</time>
      </trkpt>
      <trkpt lat="43.03273" lon="1.16877">
        <ele>505.79</ele>
        <time>2013-02-12T10:01:37Z</time>
      </trkpt>
      <trkpt lat="43.03274" lon="1.16879">
        <ele>505.79</ele>
        <time>2013-02-12T10:01:39Z</time>
      </trkpt>
      <trkpt lat="43.03281" lon="1.16887">
        <ele>505.31</ele>
        <time>2013-02-12T10:01:48Z</time>
      </trkpt>
      <trkpt lat="43.03284" lon="1.16889">
        <ele>504.83</ele>
        <time>2013-02-12T10:01:51Z</time>
      </trkpt>
      <trkpt lat="43.03292" lon="1.16897">
        <ele>504.83</ele>
        <time>2013-02-12T10:02:00Z</time>
      </trkpt>
      <trkpt lat="43.03301" lon="1.16902">
        <ele>503.39</ele>
        <time>2013-02-12T10:02:08Z</time>
      </trkpt>
      <trkpt lat="43.0331" lon="1.16907">
        <ele>504.35</ele>
        <time>2013-02-12T10:02:15Z</time>
      </trkpt>
      <trkpt lat="43.03318" lon="1.16913">
        <ele>502.91</ele>
        <time>2013-02-12T10:02:23Z</time>
      </trkpt>
      <trkpt lat="43.03326" lon="1.16923">
        <ele>502.91</ele>
        <time>2013-02-12T10:02:32Z</time>
      </trkpt>
      <trkpt lat="43.0333" lon="1.16938">
        <ele>502.43</ele>
        <time>2013-02-12T10:02:42Z</time>
      </trkpt>
      <trkpt lat="43.03333" lon="1.1695">
        <ele>500.98</ele>
        <time>2013-02-12T10:02:50Z</time>
      </trkpt>
      <trkpt lat="43.03334" lon="1.16964">
        <ele>500.5</ele>
        <time>2013-02-12T10:02:59Z</time>
      </trkpt>
      <trkpt lat="43.03335" lon="1.16981">
        <ele>500.02</ele>
        <time>2013-02-12T10:03:07Z</time>
      </trkpt>
      <trkpt lat="43.03336" lon="1.16986">
        <ele>500.02</ele>
        <time>2013-02-12T10:03:10Z</time>
      </trkpt>
      <trkpt lat="43.03341" lon="1.16996">
        <ele>499.54</ele>
        <time>2013-02-12T10:03:18Z</time>
      </trkpt>
      <trkpt lat="43.03343" lon="1.17005">
        <ele>498.58</ele>
        <time>2013-02-12T10:03:24Z</time>
      </trkpt>
      <trkpt lat="43.03347" lon="1.17014">
        <ele>497.14</ele>
        <time>2013-02-12T10:03:32Z</time>
      </trkpt>
      <trkpt lat="43.03351" lon="1.1702">
        <ele>497.14</ele>
        <time>2013-02-12T10:03:39Z</time>
      </trkpt>
      <trkpt lat="43.03353" lon="1.17028">
        <ele>496.18</ele>
        <time>2013-02-12T10:03:47Z</time>
      </trkpt>
      <trkpt lat="43.0336" lon="1.17038">
        <ele>495.22</ele>
        <time>2013-02-12T10:03:56Z</time>
      </trkpt>
      <trkpt lat="43.03361" lon="1.17039">
        <ele>495.22</ele>
        <time>2013-02-12T10:03:57Z</time>
      </trkpt>
      <trkpt lat="43.03367" lon="1.17048">
        <ele>494.26</ele>
        <time>2013-02-12T10:04:05Z</time>
      </trkpt>
      <trkpt lat="43.03373" lon="1.17059">
        <ele>493.29</ele>
        <time>2013-02-12T10:04:13Z</time>
      </trkpt>
      <trkpt lat="43.03378" lon="1.17071">
        <ele>492.33</ele>
        <time>2013-02-12T10:04:21Z</time>
      </trkpt>
      <trkpt lat="43.0338" lon="1.17075">
        <ele>492.33</ele>
        <time>2013-02-12T10:04:24Z</time>
      </trkpt>
      <trkpt lat="43.03381" lon="1.17077">
        <ele>491.85</ele>
        <time>2013-02-12T10:04:26Z</time>
      </trkpt>
      <trkpt lat="43.03387" lon="1.1709">
        <ele>490.89</ele>
        <time>2013-02-12T10:04:36Z</time>
      </trkpt>
      <trkpt lat="43.03388" lon="1.17092">
        <ele>490.89</ele>
        <time>2013-02-12T10:04:38Z</time>
      </trkpt>
      <trkpt lat="43.03393" lon="1.171">
        <ele>490.41</ele>
        <time>2013-02-12T10:04:44Z</time>
      </trkpt>
      <trkpt lat="43.03396" lon="1.17112">
        <ele>489.45</ele>
        <time>2013-02-12T10:04:52Z</time>
      </trkpt>
      <trkpt lat="43.03398" lon="1.17125">
        <ele>489.45</ele>
        <time>2013-02-12T10:05:01Z</time>
      </trkpt>
      <trkpt lat="43.034" lon="1.17134">
        <ele>488.97</ele>
        <time>2013-02-12T10:05:08Z</time>
      </trkpt>
      <trkpt lat="43.03404" lon="1.17145">
        <ele>488.01</ele>
        <time>2013-02-12T10:05:17Z</time>
      </trkpt>
      <trkpt lat="43.03404" lon="1.17148">
        <ele>488.01</ele>
        <time>2013-02-12T10:05:19Z</time>
      </trkpt>
      <trkpt lat="43.03407" lon="1.17158">
        <ele>488.01</ele>
        <time>2013-02-12T10:05:26Z</time>
      </trkpt>
      <trkpt lat="43.03408" lon="1.17163">
        <ele>487.53</ele>
        <time>2013-02-12T10:05:29Z</time>
      </trkpt>
      <trkpt lat="43.0341" lon="1.17176">
        <ele>487.05</ele>
        <time>2013-02-12T10:05:37Z</time>
      </trkpt>
      <trkpt lat="43.03413" lon="1.17187">
        <ele>486.56</ele>
        <time>2013-02-12T10:05:44Z</time>
      </trkpt>
      <trkpt lat="43.03413" lon="1.17191">
        <ele>486.08</ele>
        <time>2013-02-12T10:05:47Z</time>
      </trkpt>
      <trkpt lat="43.03414" lon="1.17203">
        <ele>486.08</ele>
        <time>2013-02-12T10:05:54Z</time>
      </trkpt>
      <trkpt lat="43.03414" lon="1.17204">
        <ele>485.6</ele>
        <time>2013-02-12T10:05:55Z</time>
      </trkpt>
      <trkpt lat="43.03416" lon="1.17212">
        <ele>484.64</ele>
        <time>2013-02-12T10:06:01Z</time>
      </trkpt>
      <trkpt lat="43.03418" lon="1.17228">
        <ele>484.16</ele>
        <time>2013-02-12T10:06:12Z</time>
      </trkpt>
      <trkpt lat="43.03418" lon="1.1723">
        <ele>484.16</ele>
        <time>2013-02-12T10:06:13Z</time>
      </trkpt>
      <trkpt lat="43.03421" lon="1.17241">
        <ele>483.68</ele>
        <time>2013-02-12T10:06:19Z</time>
      </trkpt>
      <trkpt lat="43.03423" lon="1.17256">
        <ele>483.2</ele>
        <time>2013-02-12T10:06:28Z</time>
      </trkpt>
      <trkpt lat="43.03425" lon="1.17274">
        <ele>483.2</ele>
        <time>2013-02-12T10:06:39Z</time>
      </trkpt>
      <trkpt lat="43.03428" lon="1.17285">
        <ele>482.72</ele>
        <time>2013-02-12T10:06:46Z</time>
      </trkpt>
      <trkpt lat="43.03431" lon="1.17294">
        <ele>482.72</ele>
        <time>2013-02-12T10:06:52Z</time>
      </trkpt>
      <trkpt lat="43.03435" lon="1.17307">
        <ele>482.24</ele>
        <time>2013-02-12T10:07:01Z</time>
      </trkpt>
      <trkpt lat="43.03442" lon="1.17318">
        <ele>482.24</ele>
        <time>2013-02-12T10:07:10Z</time>
      </trkpt>
      <trkpt lat="43.03448" lon="1.17331">
        <ele>482.24</ele>
        <time>2013-02-12T10:07:19Z</time>
      </trkpt>
      <trkpt lat="43.03444" lon="1.17348">
        <ele>481.28</ele>
        <time>2013-02-12T10:07:29Z</time>
      </trkpt>
      <trkpt lat="43.03437" lon="1.17361">
        <ele>481.76</ele>
        <time>2013-02-12T10:07:37Z</time>
      </trkpt>
      <trkpt lat="43.03429" lon="1.1738">
        <ele>480.8</ele>
        <time>2013-02-12T10:07:48Z</time>
      </trkpt>
      <trkpt lat="43.03422" lon="1.17394">
        <ele>479.84</ele>
        <time>2013-02-12T10:07:57Z</time>
      </trkpt>
      <trkpt lat="43.03419" lon="1.17404">
        <ele>480.32</ele>
        <time>2013-02-12T10:08:03Z</time>
      </trkpt>
      <trkpt lat="43.03418" lon="1.17406">
        <ele>479.35</ele>
        <time>2013-02-12T10:08:05Z</time>
      </trkpt>
      <trkpt lat="43.03416" lon="1.17419">
        <ele>479.35</ele>
        <time>2013-02-12T10:08:13Z</time>
      </trkpt>
      <trkpt lat="43.03416" lon="1.17431">
        <ele>480.32</ele>
        <time>2013-02-12T10:08:22Z</time>
      </trkpt>
      <trkpt lat="43.03417" lon="1.17445">
        <ele>480.8</ele>
        <time>2013-02-12T10:08:31Z</time>
      </trkpt>
      <trkpt lat="43.03417" lon="1.1745">
        <ele>480.32</ele>
        <time>2013-02-12T10:08:35Z</time>
      </trkpt>
      <trkpt lat="43.03418" lon="1.17456">
        <ele>480.32</ele>
        <time>2013-02-12T10:08:39Z</time>
      </trkpt>
      <trkpt lat="43.03419" lon="1.1747">
        <ele>480.32</ele>
        <time>2013-02-12T10:08:47Z</time>
      </trkpt>
      <trkpt lat="43.03419" lon="1.17476">
        <ele>480.8</ele>
        <time>2013-02-12T10:08:51Z</time>
      </trkpt>
      <trkpt lat="43.0342" lon="1.17491">
        <ele>480.8</ele>
        <time>2013-02-12T10:08:59Z</time>
      </trkpt>
      <trkpt lat="43.0342" lon="1.17505">
        <ele>480.8</ele>
        <time>2013-02-12T10:09:07Z</time>
      </trkpt>
      <trkpt lat="43.0342" lon="1.17509">
        <ele>481.76</ele>
        <time>2013-02-12T10:09:10Z</time>
      </trkpt>
      <trkpt lat="43.03423" lon="1.17528">
        <ele>480.8</ele>
        <time>2013-02-12T10:09:21Z</time>
      </trkpt>
      <trkpt lat="43.03424" lon="1.17537">
        <ele>480.8</ele>
        <time>2013-02-12T10:09:26Z</time>
      </trkpt>
      <trkpt lat="43.03425" lon="1.17549">
        <ele>480.32</ele>
        <time>2013-02-12T10:09:33Z</time>
      </trkpt>
      <trkpt lat="43.03427" lon="1.1756">
        <ele>479.84</ele>
        <time>2013-02-12T10:09:39Z</time>
      </trkpt>
      <trkpt lat="43.03429" lon="1.17568">
        <ele>480.8</ele>
        <time>2013-02-12T10:09:46Z</time>
      </trkpt>
      <trkpt lat="43.03429" lon="1.17569">
        <ele>480.8</ele>
        <time>2013-02-12T10:09:47Z</time>
      </trkpt>
      <trkpt lat="43.03432" lon="1.17576">
        <ele>480.32</ele>
        <time>2013-02-12T10:09:52Z</time>
      </trkpt>
      <trkpt lat="43.03439" lon="1.17595">
        <ele>479.84</ele>
        <time>2013-02-12T10:10:03Z</time>
      </trkpt>
      <trkpt lat="43.03443" lon="1.17612">
        <ele>480.32</ele>
        <time>2013-02-12T10:10:13Z</time>
      </trkpt>
      <trkpt lat="43.03444" lon="1.17617">
        <ele>478.87</ele>
        <time>2013-02-12T10:10:16Z</time>
      </trkpt>
      <trkpt lat="43.03444" lon="1.17623">
        <ele>478.87</ele>
        <time>2013-02-12T10:10:19Z</time>
      </trkpt>
      <trkpt lat="43.03445" lon="1.17639">
        <ele>478.87</ele>
        <time>2013-02-12T10:10:28Z</time>
      </trkpt>
      <trkpt lat="43.03447" lon="1.1765">
        <ele>479.35</ele>
        <time>2013-02-12T10:10:35Z</time>
      </trkpt>
      <trkpt lat="43.03449" lon="1.17654">
        <ele>478.87</ele>
        <time>2013-02-12T10:10:39Z</time>
      </trkpt>
      <trkpt lat="43.03455" lon="1.17668">
        <ele>479.84</ele>
        <time>2013-02-12T10:10:47Z</time>
      </trkpt>
      <trkpt lat="43.0346" lon="1.17682">
        <ele>479.35</ele>
        <time>2013-02-12T10:10:55Z</time>
      </trkpt>
      <trkpt lat="43.03465" lon="1.17693">
        <ele>477.43</ele>
        <time>2013-02-12T10:11:02Z</time>
      </trkpt>
      <trkpt lat="43.03467" lon="1.17697">
        <ele>479.84</ele>
        <time>2013-02-12T10:11:04Z</time>
      </trkpt>
      <trkpt lat="43.03471" lon="1.17706">
        <ele>479.35</ele>
        <time>2013-02-12T10:11:11Z</time>
      </trkpt>
      <trkpt lat="43.03478" lon="1.17719">
        <ele>480.32</ele>
        <time>2013-02-12T10:11:20Z</time>
      </trkpt>
      <trkpt lat="43.03485" lon="1.17733">
        <ele>481.76</ele>
        <time>2013-02-12T10:11:29Z</time>
      </trkpt>
      <trkpt lat="43.0349" lon="1.17745">
        <ele>481.28</ele>
        <time>2013-02-12T10:11:38Z</time>
      </trkpt>
      <trkpt lat="43.03494" lon="1.17756">
        <ele>481.76</ele>
        <time>2013-02-12T10:11:46Z</time>
      </trkpt>
      <trkpt lat="43.03496" lon="1.17766">
        <ele>482.72</ele>
        <time>2013-02-12T10:11:53Z</time>
      </trkpt>
      <trkpt lat="43.03498" lon="1.17774">
        <ele>483.2</ele>
        <time>2013-02-12T10:11:58Z</time>
      </trkpt>
      <trkpt lat="43.03499" lon="1.17783">
        <ele>484.16</ele>
        <time>2013-02-12T10:12:06Z</time>
      </trkpt>
      <trkpt lat="43.03499" lon="1.17783">
        <ele>484.64</ele>
        <time>2013-02-12T10:12:07Z</time>
      </trkpt>
      <trkpt lat="43.03499" lon="1.1779">
        <ele>484.64</ele>
        <time>2013-02-12T10:12:11Z</time>
      </trkpt>
      <trkpt lat="43.03501" lon="1.17795">
        <ele>485.6</ele>
        <time>2013-02-12T10:12:15Z</time>
      </trkpt>
      <trkpt lat="43.03501" lon="1.17805">
        <ele>486.56</ele>
        <time>2013-02-12T10:12:22Z</time>
      </trkpt>
      <trkpt lat="43.03503" lon="1.17813">
        <ele>487.05</ele>
        <time>2013-02-12T10:12:30Z</time>
      </trkpt>
      <trkpt lat="43.03505" lon="1.17821">
        <ele>488.01</ele>
        <time>2013-02-12T10:12:38Z</time>
      </trkpt>
      <trkpt lat="43.03506" lon="1.17822">
        <ele>488.01</ele>
        <time>2013-02-12T10:12:39Z</time>
      </trkpt>
      <trkpt lat="43.03509" lon="1.17829">
        <ele>488.97</ele>
        <time>2013-02-12T10:12:46Z</time>
      </trkpt>
      <trkpt lat="43.03513" lon="1.1784">
        <ele>490.41</ele>
        <time>2013-02-12T10:12:55Z</time>
      </trkpt>
      <trkpt lat="43.03516" lon="1.17847">
        <ele>490.89</ele>
        <time>2013-02-12T10:13:00Z</time>
      </trkpt>
      <trkpt lat="43.03516" lon="1.17849">
        <ele>490.41</ele>
        <time>2013-02-12T10:13:01Z</time>
      </trkpt>
      <trkpt lat="43.03519" lon="1.1786">
        <ele>489.93</ele>
        <time>2013-02-12T10:13:09Z</time>
      </trkpt>
      <trkpt lat="43.0352" lon="1.17871">
        <ele>490.89</ele>
        <time>2013-02-12T10:13:16Z</time>
      </trkpt>
      <trkpt lat="43.0352" lon="1.17873">
        <ele>490.89</ele>
        <time>2013-02-12T10:13:18Z</time>
      </trkpt>
      <trkpt lat="43.03522" lon="1.17885">
        <ele>491.37</ele>
        <time>2013-02-12T10:13:27Z</time>
      </trkpt>
      <trkpt lat="43.03524" lon="1.1789">
        <ele>491.37</ele>
        <time>2013-02-12T10:13:31Z</time>
      </trkpt>
      <trkpt lat="43.03526" lon="1.17896">
        <ele>491.85</ele>
        <time>2013-02-12T10:13:36Z</time>
      </trkpt>
      <trkpt lat="43.03527" lon="1.17908">
        <ele>493.29</ele>
        <time>2013-02-12T10:13:44Z</time>
      </trkpt>
      <trkpt lat="43.03527" lon="1.1791">
        <ele>493.29</ele>
        <time>2013-02-12T10:13:45Z</time>
      </trkpt>
      <trkpt lat="43.03527" lon="1.17913">
        <ele>493.29</ele>
        <time>2013-02-12T10:13:48Z</time>
      </trkpt>
      <trkpt lat="43.03528" lon="1.17921">
        <ele>493.77</ele>
        <time>2013-02-12T10:13:53Z</time>
      </trkpt>
      <trkpt lat="43.03528" lon="1.17923">
        <ele>493.77</ele>
        <time>2013-02-12T10:13:55Z</time>
      </trkpt>
      <trkpt lat="43.03528" lon="1.17927">
        <ele>493.77</ele>
        <time>2013-02-12T10:13:58Z</time>
      </trkpt>
      <trkpt lat="43.03527" lon="1.1794">
        <ele>495.22</ele>
        <time>2013-02-12T10:14:07Z</time>
      </trkpt>
      <trkpt lat="43.03526" lon="1.1795">
        <ele>495.7</ele>
        <time>2013-02-12T10:14:14Z</time>
      </trkpt>
      <trkpt lat="43.03525" lon="1.17957">
        <ele>496.66</ele>
        <time>2013-02-12T10:14:20Z</time>
      </trkpt>
      <trkpt lat="43.03524" lon="1.17968">
        <ele>497.14</ele>
        <time>2013-02-12T10:14:28Z</time>
      </trkpt>
      <trkpt lat="43.03522" lon="1.17979">
        <ele>497.62</ele>
        <time>2013-02-12T10:14:36Z</time>
      </trkpt>
      <trkpt lat="43.0352" lon="1.17989">
        <ele>498.58</ele>
        <time>2013-02-12T10:14:43Z</time>
      </trkpt>
      <trkpt lat="43.03516" lon="1.17998">
        <ele>499.06</ele>
        <time>2013-02-12T10:14:50Z</time>
      </trkpt>
      <trkpt lat="43.03514" lon="1.18006">
        <ele>500.5</ele>
        <time>2013-02-12T10:14:56Z</time>
      </trkpt>
      <trkpt lat="43.03512" lon="1.18011">
        <ele>501.46</ele>
        <time>2013-02-12T10:15:00Z</time>
      </trkpt>
      <trkpt lat="43.0351" lon="1.18013">
        <ele>501.46</ele>
        <time>2013-02-12T10:15:02Z</time>
      </trkpt>
      <trkpt lat="43.03507" lon="1.18022">
        <ele>501.46</ele>
        <time>2013-02-12T10:15:09Z</time>
      </trkpt>
      <trkpt lat="43.03503" lon="1.1803">
        <ele>502.43</ele>
        <time>2013-02-12T10:15:16Z</time>
      </trkpt>
      <trkpt lat="43.035" lon="1.18043">
        <ele>502.43</ele>
        <time>2013-02-12T10:15:25Z</time>
      </trkpt>
      <trkpt lat="43.03499" lon="1.18045">
        <ele>503.39</ele>
        <time>2013-02-12T10:15:27Z</time>
      </trkpt>
      <trkpt lat="43.03497" lon="1.18047">
        <ele>503.87</ele>
        <time>2013-02-12T10:15:29Z</time>
      </trkpt>
      <trkpt lat="43.03495" lon="1.18056">
        <ele>503.87</ele>
        <time>2013-02-12T10:15:35Z</time>
      </trkpt>
      <trkpt lat="43.03493" lon="1.18062">
        <ele>504.35</ele>
        <time>2013-02-12T10:15:40Z</time>
      </trkpt>
      <trkpt lat="43.0349" lon="1.18071">
        <ele>505.31</ele>
        <time>2013-02-12T10:15:47Z</time>
      </trkpt>
      <trkpt lat="43.03486" lon="1.18082">
        <ele>506.27</ele>
        <time>2013-02-12T10:15:55Z</time>
      </trkpt>
      <trkpt lat="43.03483" lon="1.18092">
        <ele>504.83</ele>
        <time>2013-02-12T10:16:02Z</time>
      </trkpt>
      <trkpt lat="43.0348" lon="1.181">
        <ele>505.79</ele>
        <time>2013-02-12T10:16:09Z</time>
      </trkpt>
      <trkpt lat="43.03478" lon="1.18108">
        <ele>505.79</ele>
        <time>2013-02-12T10:16:16Z</time>
      </trkpt>
      <trkpt lat="43.03474" lon="1.18111">
        <ele>506.27</ele>
        <time>2013-02-12T10:16:24Z</time>
      </trkpt>
      <trkpt lat="43.03475" lon="1.18109">
        <ele>506.27</ele>
        <time>2013-02-12T10:16:35Z</time>
      </trkpt>
      <trkpt lat="43.03474" lon="1.1811">
        <ele>505.31</ele>
        <time>2013-02-12T10:16:44Z</time>
      </trkpt>
      <trkpt lat="43.03473" lon="1.18108">
        <ele>506.75</ele>
        <time>2013-02-12T10:16:51Z</time>
      </trkpt>
      <trkpt lat="43.03474" lon="1.18109">
        <ele>506.75</ele>
        <time>2013-02-12T10:17:00Z</time>
      </trkpt>
      <trkpt lat="43.03475" lon="1.18116">
        <ele>506.27</ele>
        <time>2013-02-12T10:17:07Z</time>
      </trkpt>
      <trkpt lat="43.03473" lon="1.1811">
        <ele>505.79</ele>
        <time>2013-02-12T10:17:14Z</time>
      </trkpt>
      <trkpt lat="43.03469" lon="1.18106">
        <ele>507.23</ele>
        <time>2013-02-12T10:17:20Z</time>
      </trkpt>
      <trkpt lat="43.0346" lon="1.18098">
        <ele>505.79</ele>
        <time>2013-02-12T10:17:30Z</time>
      </trkpt>
      <trkpt lat="43.03451" lon="1.1809">
        <ele>505.79</ele>
        <time>2013-02-12T10:17:41Z</time>
      </trkpt>
      <trkpt lat="43.03446" lon="1.18086">
        <ele>504.83</ele>
        <time>2013-02-12T10:17:49Z</time>
      </trkpt>
      <trkpt lat="43.03445" lon="1.18085">
        <ele>505.79</ele>
        <time>2013-02-12T10:18:03Z</time>
      </trkpt>
      <trkpt lat="43.03444" lon="1.18084">
        <ele>504.83</ele>
        <time>2013-02-12T10:18:04Z</time>
      </trkpt>
      <trkpt lat="43.03441" lon="1.18081">
        <ele>504.83</ele>
        <time>2013-02-12T10:18:07Z</time>
      </trkpt>
      <trkpt lat="43.03436" lon="1.18074">
        <ele>503.87</ele>
        <time>2013-02-12T10:18:14Z</time>
      </trkpt>
      <trkpt lat="43.03429" lon="1.18066">
        <ele>502.91</ele>
        <time>2013-02-12T10:18:22Z</time>
      </trkpt>
      <trkpt lat="43.03425" lon="1.18056">
        <ele>500.98</ele>
        <time>2013-02-12T10:18:31Z</time>
      </trkpt>
      <trkpt lat="43.03423" lon="1.18051">
        <ele>501.46</ele>
        <time>2013-02-12T10:18:35Z</time>
      </trkpt>
      <trkpt lat="43.03418" lon="1.18043">
        <ele>500.02</ele>
        <time>2013-02-12T10:18:42Z</time>
      </trkpt>
      <trkpt lat="43.03413" lon="1.1804">
        <ele>499.06</ele>
        <time>2013-02-12T10:18:48Z</time>
      </trkpt>
      <trkpt lat="43.03408" lon="1.18032">
        <ele>498.1</ele>
        <time>2013-02-12T10:18:56Z</time>
      </trkpt>
      <trkpt lat="43.03407" lon="1.18032">
        <ele>498.1</ele>
        <time>2013-02-12T10:18:57Z</time>
      </trkpt>
      <trkpt lat="43.03403" lon="1.18029">
        <ele>497.14</ele>
        <time>2013-02-12T10:19:02Z</time>
      </trkpt>
      <trkpt lat="43.03396" lon="1.18025">
        <ele>495.7</ele>
        <time>2013-02-12T10:19:10Z</time>
      </trkpt>
      <trkpt lat="43.0339" lon="1.18019">
        <ele>495.22</ele>
        <time>2013-02-12T10:19:18Z</time>
      </trkpt>
      <trkpt lat="43.03383" lon="1.18013">
        <ele>494.26</ele>
        <time>2013-02-12T10:19:28Z</time>
      </trkpt>
      <trkpt lat="43.03375" lon="1.18006">
        <ele>493.77</ele>
        <time>2013-02-12T10:19:36Z</time>
      </trkpt>
      <trkpt lat="43.03374" lon="1.18005">
        <ele>494.74</ele>
        <time>2013-02-12T10:19:37Z</time>
      </trkpt>
      <trkpt lat="43.03365" lon="1.17995">
        <ele>494.74</ele>
        <time>2013-02-12T10:19:45Z</time>
      </trkpt>
      <trkpt lat="43.03356" lon="1.17988">
        <ele>494.74</ele>
        <time>2013-02-12T10:19:53Z</time>
      </trkpt>
      <trkpt lat="43.03355" lon="1.17988">
        <ele>494.74</ele>
        <time>2013-02-12T10:19:54Z</time>
      </trkpt>
      <trkpt lat="43.03346" lon="1.17987">
        <ele>494.26</ele>
        <time>2013-02-12T10:20:02Z</time>
      </trkpt>
      <trkpt lat="43.03339" lon="1.17979">
        <ele>496.18</ele>
        <time>2013-02-12T10:20:10Z</time>
      </trkpt>
      <trkpt lat="43.03333" lon="1.17969">
        <ele>496.18</ele>
        <time>2013-02-12T10:20:18Z</time>
      </trkpt>
      <trkpt lat="43.03328" lon="1.17959">
        <ele>498.58</ele>
        <time>2013-02-12T10:20:26Z</time>
      </trkpt>
      <trkpt lat="43.03325" lon="1.17951">
        <ele>498.58</ele>
        <time>2013-02-12T10:20:33Z</time>
      </trkpt>
      <trkpt lat="43.03321" lon="1.17941">
        <ele>500.02</ele>
        <time>2013-02-12T10:20:40Z</time>
      </trkpt>
      <trkpt lat="43.03318" lon="1.17931">
        <ele>500.5</ele>
        <time>2013-02-12T10:20:49Z</time>
      </trkpt>
      <trkpt lat="43.03316" lon="1.1792">
        <ele>500.98</ele>
        <time>2013-02-12T10:20:57Z</time>
      </trkpt>
      <trkpt lat="43.03313" lon="1.17909">
        <ele>501.95</ele>
        <time>2013-02-12T10:21:05Z</time>
      </trkpt>
      <trkpt lat="43.0331" lon="1.17902">
        <ele>501.95</ele>
        <time>2013-02-12T10:21:11Z</time>
      </trkpt>
      <trkpt lat="43.03305" lon="1.17892">
        <ele>503.87</ele>
        <time>2013-02-12T10:21:20Z</time>
      </trkpt>
      <trkpt lat="43.03305" lon="1.17889">
        <ele>502.91</ele>
        <time>2013-02-12T10:21:22Z</time>
      </trkpt>
      <trkpt lat="43.03301" lon="1.17881">
        <ele>503.87</ele>
        <time>2013-02-12T10:21:28Z</time>
      </trkpt>
      <trkpt lat="43.03297" lon="1.17876">
        <ele>504.35</ele>
        <time>2013-02-12T10:21:34Z</time>
      </trkpt>
      <trkpt lat="43.03294" lon="1.17873">
        <ele>505.31</ele>
        <time>2013-02-12T10:21:38Z</time>
      </trkpt>
      <trkpt lat="43.03293" lon="1.17872">
        <ele>504.83</ele>
        <time>2013-02-12T10:21:40Z</time>
      </trkpt>
      <trkpt lat="43.03285" lon="1.17863">
        <ele>506.75</ele>
        <time>2013-02-12T10:21:48Z</time>
      </trkpt>
      <trkpt lat="43.03281" lon="1.17859">
        <ele>507.23</ele>
        <time>2013-02-12T10:21:54Z</time>
      </trkpt>
      <trkpt lat="43.03275" lon="1.17854">
        <ele>508.67</ele>
        <time>2013-02-12T10:22:01Z</time>
      </trkpt>
      <trkpt lat="43.03274" lon="1.17853">
        <ele>508.19</ele>
        <time>2013-02-12T10:22:02Z</time>
      </trkpt>
      <trkpt lat="43.03268" lon="1.17849">
        <ele>509.16</ele>
        <time>2013-02-12T10:22:09Z</time>
      </trkpt>
      <trkpt lat="43.03262" lon="1.17845">
        <ele>510.12</ele>
        <time>2013-02-12T10:22:16Z</time>
      </trkpt>
      <trkpt lat="43.03256" lon="1.17843">
        <ele>510.12</ele>
        <time>2013-02-12T10:22:23Z</time>
      </trkpt>
      <trkpt lat="43.03251" lon="1.1784">
        <ele>511.08</ele>
        <time>2013-02-12T10:22:29Z</time>
      </trkpt>
      <trkpt lat="43.03246" lon="1.17837">
        <ele>513</ele>
        <time>2013-02-12T10:22:37Z</time>
      </trkpt>
      <trkpt lat="43.0324" lon="1.17836">
        <ele>513</ele>
        <time>2013-02-12T10:22:44Z</time>
      </trkpt>
      <trkpt lat="43.03236" lon="1.17836">
        <ele>513.96</ele>
        <time>2013-02-12T10:22:48Z</time>
      </trkpt>
      <trkpt lat="43.03232" lon="1.17836">
        <ele>514.44</ele>
        <time>2013-02-12T10:22:51Z</time>
      </trkpt>
      <trkpt lat="43.03224" lon="1.17835">
        <ele>515.88</ele>
        <time>2013-02-12T10:22:58Z</time>
      </trkpt>
      <trkpt lat="43.03222" lon="1.17834">
        <ele>516.37</ele>
        <time>2013-02-12T10:23:01Z</time>
      </trkpt>
      <trkpt lat="43.03215" lon="1.17831">
        <ele>516.85</ele>
        <time>2013-02-12T10:23:09Z</time>
      </trkpt>
      <trkpt lat="43.03208" lon="1.17833">
        <ele>517.81</ele>
        <time>2013-02-12T10:23:16Z</time>
      </trkpt>
      <trkpt lat="43.03204" lon="1.17834">
        <ele>518.29</ele>
        <time>2013-02-12T10:23:20Z</time>
      </trkpt>
      <trkpt lat="43.032" lon="1.17835">
        <ele>517.81</ele>
        <time>2013-02-12T10:23:24Z</time>
      </trkpt>
      <trkpt lat="43.03191" lon="1.17836">
        <ele>518.77</ele>
        <time>2013-02-12T10:23:31Z</time>
      </trkpt>
      <trkpt lat="43.0318" lon="1.17836">
        <ele>519.25</ele>
        <time>2013-02-12T10:23:41Z</time>
      </trkpt>
      <trkpt lat="43.03176" lon="1.17837">
        <ele>519.25</ele>
        <time>2013-02-12T10:23:46Z</time>
      </trkpt>
      <trkpt lat="43.03168" lon="1.17837">
        <ele>519.73</ele>
        <time>2013-02-12T10:23:54Z</time>
      </trkpt>
      <trkpt lat="43.03164" lon="1.17838">
        <ele>519.73</ele>
        <time>2013-02-12T10:23:58Z</time>
      </trkpt>
      <trkpt lat="43.03157" lon="1.17841">
        <ele>520.21</ele>
        <time>2013-02-12T10:24:06Z</time>
      </trkpt>
      <trkpt lat="43.03149" lon="1.17845">
        <ele>520.69</ele>
        <time>2013-02-12T10:24:13Z</time>
      </trkpt>
      <trkpt lat="43.03148" lon="1.17846">
        <ele>520.69</ele>
        <time>2013-02-12T10:24:16Z</time>
      </trkpt>
      <trkpt lat="43.03142" lon="1.17849">
        <ele>522.61</ele>
        <time>2013-02-12T10:24:24Z</time>
      </trkpt>
      <trkpt lat="43.03139" lon="1.17849">
        <ele>523.09</ele>
        <time>2013-02-12T10:24:28Z</time>
      </trkpt>
      <trkpt lat="43.03131" lon="1.17853">
        <ele>523.09</ele>
        <time>2013-02-12T10:24:37Z</time>
      </trkpt>
      <trkpt lat="43.03126" lon="1.17857">
        <ele>523.09</ele>
        <time>2013-02-12T10:24:42Z</time>
      </trkpt>
      <trkpt lat="43.03121" lon="1.17861">
        <ele>524.54</ele>
        <time>2013-02-12T10:24:49Z</time>
      </trkpt>
      <trkpt lat="43.03118" lon="1.17864">
        <ele>525.5</ele>
        <time>2013-02-12T10:24:52Z</time>
      </trkpt>
      <trkpt lat="43.03116" lon="1.17871">
        <ele>525.5</ele>
        <time>2013-02-12T10:24:58Z</time>
      </trkpt>
      <trkpt lat="43.03114" lon="1.17874">
        <ele>526.46</ele>
        <time>2013-02-12T10:25:02Z</time>
      </trkpt>
      <trkpt lat="43.03111" lon="1.17882">
        <ele>526.94</ele>
        <time>2013-02-12T10:25:07Z</time>
      </trkpt>
      <trkpt lat="43.03107" lon="1.1789">
        <ele>527.9</ele>
        <time>2013-02-12T10:25:14Z</time>
      </trkpt>
      <trkpt lat="43.03103" lon="1.17896">
        <ele>528.86</ele>
        <time>2013-02-12T10:25:19Z</time>
      </trkpt>
      <trkpt lat="43.03096" lon="1.17905">
        <ele>529.34</ele>
        <time>2013-02-12T10:25:27Z</time>
      </trkpt>
      <trkpt lat="43.03091" lon="1.17909">
        <ele>529.82</ele>
        <time>2013-02-12T10:25:33Z</time>
      </trkpt>
      <trkpt lat="43.03083" lon="1.17918">
        <ele>530.79</ele>
        <time>2013-02-12T10:25:42Z</time>
      </trkpt>
      <trkpt lat="43.03075" lon="1.17926">
        <ele>531.75</ele>
        <time>2013-02-12T10:25:51Z</time>
      </trkpt>
      <trkpt lat="43.03071" lon="1.1793">
        <ele>531.75</ele>
        <time>2013-02-12T10:25:56Z</time>
      </trkpt>
      <trkpt lat="43.03065" lon="1.17936">
        <ele>532.23</ele>
        <time>2013-02-12T10:26:03Z</time>
      </trkpt>
      <trkpt lat="43.03064" lon="1.17937">
        <ele>531.75</ele>
        <time>2013-02-12T10:26:04Z</time>
      </trkpt>
      <trkpt lat="43.03062" lon="1.17939">
        <ele>531.75</ele>
        <time>2013-02-12T10:26:06Z</time>
      </trkpt>
      <trkpt lat="43.03049" lon="1.17948">
        <ele>532.71</ele>
        <time>2013-02-12T10:26:17Z</time>
      </trkpt>
      <trkpt lat="43.0304" lon="1.17958">
        <ele>531.75</ele>
        <time>2013-02-12T10:26:27Z</time>
      </trkpt>
      <trkpt lat="43.03033" lon="1.17965">
        <ele>531.75</ele>
        <time>2013-02-12T10:26:34Z</time>
      </trkpt>
      <trkpt lat="43.03029" lon="1.17969">
        <ele>531.75</ele>
        <time>2013-02-12T10:26:38Z</time>
      </trkpt>
      <trkpt lat="43.03019" lon="1.17975">
        <ele>531.27</ele>
        <time>2013-02-12T10:26:47Z</time>
      </trkpt>
      <trkpt lat="43.03009" lon="1.17979">
        <ele>531.27</ele>
        <time>2013-02-12T10:26:56Z</time>
      </trkpt>
      <trkpt lat="43.03002" lon="1.1798">
        <ele>530.79</ele>
        <time>2013-02-12T10:27:03Z</time>
      </trkpt>
      <trkpt lat="43.02995" lon="1.17981">
        <ele>530.3</ele>
        <time>2013-02-12T10:27:10Z</time>
      </trkpt>
      <trkpt lat="43.0299" lon="1.17978">
        <ele>531.27</ele>
        <time>2013-02-12T10:27:15Z</time>
      </trkpt>
      <trkpt lat="43.02985" lon="1.17977">
        <ele>531.27</ele>
        <time>2013-02-12T10:27:18Z</time>
      </trkpt>
      <trkpt lat="43.02982" lon="1.17974">
        <ele>531.27</ele>
        <time>2013-02-12T10:27:22Z</time>
      </trkpt>
      <trkpt lat="43.02975" lon="1.17968">
        <ele>531.75</ele>
        <time>2013-02-12T10:27:29Z</time>
      </trkpt>
      <trkpt lat="43.02971" lon="1.17966">
        <ele>533.19</ele>
        <time>2013-02-12T10:27:33Z</time>
      </trkpt>
      <trkpt lat="43.02964" lon="1.17962">
        <ele>534.15</ele>
        <time>2013-02-12T10:27:41Z</time>
      </trkpt>
      <trkpt lat="43.02961" lon="1.17958">
        <ele>534.15</ele>
        <time>2013-02-12T10:27:46Z</time>
      </trkpt>
      <trkpt lat="43.02957" lon="1.17955">
        <ele>536.55</ele>
        <time>2013-02-12T10:27:53Z</time>
      </trkpt>
      <trkpt lat="43.02956" lon="1.17953">
        <ele>535.59</ele>
        <time>2013-02-12T10:27:59Z</time>
      </trkpt>
      <trkpt lat="43.02954" lon="1.17948">
        <ele>536.07</ele>
        <time>2013-02-12T10:28:05Z</time>
      </trkpt>
      <trkpt lat="43.02953" lon="1.17946">
        <ele>536.07</ele>
        <time>2013-02-12T10:28:12Z</time>
      </trkpt>
      <trkpt lat="43.02953" lon="1.17946">
        <ele>537.03</ele>
        <time>2013-02-12T10:28:22Z</time>
      </trkpt>
      <trkpt lat="43.02953" lon="1.17946">
        <ele>537.03</ele>
        <time>2013-02-12T10:28:30Z</time>
      </trkpt>
      <trkpt lat="43.02952" lon="1.17942">
        <ele>537.51</ele>
        <time>2013-02-12T10:28:33Z</time>
      </trkpt>
      <trkpt lat="43.02952" lon="1.17934">
        <ele>538.48</ele>
        <time>2013-02-12T10:28:38Z</time>
      </trkpt>
      <trkpt lat="43.0295" lon="1.17922">
        <ele>539.44</ele>
        <time>2013-02-12T10:28:46Z</time>
      </trkpt>
      <trkpt lat="43.02949" lon="1.17918">
        <ele>540.4</ele>
        <time>2013-02-12T10:28:49Z</time>
      </trkpt>
      <trkpt lat="43.0295" lon="1.17914">
        <ele>540.88</ele>
        <time>2013-02-12T10:28:52Z</time>
      </trkpt>
      <trkpt lat="43.0295" lon="1.17899">
        <ele>541.84</ele>
        <time>2013-02-12T10:29:01Z</time>
      </trkpt>
      <trkpt lat="43.0295" lon="1.17891">
        <ele>540.88</ele>
        <time>2013-02-12T10:29:06Z</time>
      </trkpt>
      <trkpt lat="43.0295" lon="1.17886">
        <ele>541.84</ele>
        <time>2013-02-12T10:29:09Z</time>
      </trkpt>
      <trkpt lat="43.02951" lon="1.1788">
        <ele>542.8</ele>
        <time>2013-02-12T10:29:13Z</time>
      </trkpt>
      <trkpt lat="43.02952" lon="1.17869">
        <ele>542.8</ele>
        <time>2013-02-12T10:29:22Z</time>
      </trkpt>
      <trkpt lat="43.02954" lon="1.17865">
        <ele>541.84</ele>
        <time>2013-02-12T10:29:26Z</time>
      </trkpt>
      <trkpt lat="43.02954" lon="1.1786">
        <ele>543.28</ele>
        <time>2013-02-12T10:29:32Z</time>
      </trkpt>
      <trkpt lat="43.02955" lon="1.17857">
        <ele>543.28</ele>
        <time>2013-02-12T10:29:34Z</time>
      </trkpt>
      <trkpt lat="43.02957" lon="1.17853">
        <ele>541.84</ele>
        <time>2013-02-12T10:29:37Z</time>
      </trkpt>
      <trkpt lat="43.02958" lon="1.17838">
        <ele>541.36</ele>
        <time>2013-02-12T10:29:47Z</time>
      </trkpt>
      <trkpt lat="43.02963" lon="1.17828">
        <ele>540.88</ele>
        <time>2013-02-12T10:29:55Z</time>
      </trkpt>
      <trkpt lat="43.02965" lon="1.17823">
        <ele>541.36</ele>
        <time>2013-02-12T10:30:01Z</time>
      </trkpt>
      <trkpt lat="43.0297" lon="1.17813">
        <ele>540.88</ele>
        <time>2013-02-12T10:30:09Z</time>
      </trkpt>
      <trkpt lat="43.02973" lon="1.17806">
        <ele>540.88</ele>
        <time>2013-02-12T10:30:14Z</time>
      </trkpt>
      <trkpt lat="43.02976" lon="1.17802">
        <ele>540.4</ele>
        <time>2013-02-12T10:30:18Z</time>
      </trkpt>
      <trkpt lat="43.02979" lon="1.17787">
        <ele>541.36</ele>
        <time>2013-02-12T10:30:27Z</time>
      </trkpt>
      <trkpt lat="43.02981" lon="1.17783">
        <ele>541.36</ele>
        <time>2013-02-12T10:30:30Z</time>
      </trkpt>
      <trkpt lat="43.02985" lon="1.17777">
        <ele>541.36</ele>
        <time>2013-02-12T10:30:37Z</time>
      </trkpt>
      <trkpt lat="43.02987" lon="1.17774">
        <ele>542.32</ele>
        <time>2013-02-12T10:30:46Z</time>
      </trkpt>
      <trkpt lat="43.0299" lon="1.17762">
        <ele>542.32</ele>
        <time>2013-02-12T10:30:54Z</time>
      </trkpt>
      <trkpt lat="43.02992" lon="1.17755">
        <ele>541.36</ele>
        <time>2013-02-12T10:31:01Z</time>
      </trkpt>
      <trkpt lat="43.02992" lon="1.17756">
        <ele>542.8</ele>
        <time>2013-02-12T10:31:06Z</time>
      </trkpt>
      <trkpt lat="43.02997" lon="1.17753">
        <ele>541.36</ele>
        <time>2013-02-12T10:31:10Z</time>
      </trkpt>
      <trkpt lat="43.03004" lon="1.17745">
        <ele>542.32</ele>
        <time>2013-02-12T10:31:19Z</time>
      </trkpt>
      <trkpt lat="43.03011" lon="1.17736">
        <ele>541.84</ele>
        <time>2013-02-12T10:31:28Z</time>
      </trkpt>
      <trkpt lat="43.03013" lon="1.17734">
        <ele>543.28</ele>
        <time>2013-02-12T10:31:30Z</time>
      </trkpt>
      <trkpt lat="43.0302" lon="1.17728">
        <ele>542.8</ele>
        <time>2013-02-12T10:31:38Z</time>
      </trkpt>
      <trkpt lat="43.03023" lon="1.17725">
        <ele>542.8</ele>
        <time>2013-02-12T10:31:44Z</time>
      </trkpt>
      <trkpt lat="43.03033" lon="1.1772">
        <ele>543.28</ele>
        <time>2013-02-12T10:31:52Z</time>
      </trkpt>
      <trkpt lat="43.03041" lon="1.17713">
        <ele>541.84</ele>
        <time>2013-02-12T10:32:00Z</time>
      </trkpt>
      <trkpt lat="43.03049" lon="1.17709">
        <ele>540.88</ele>
        <time>2013-02-12T10:32:08Z</time>
      </trkpt>
      <trkpt lat="43.03059" lon="1.17704">
        <ele>539.92</ele>
        <time>2013-02-12T10:32:17Z</time>
      </trkpt>
      <trkpt lat="43.03061" lon="1.17706">
        <ele>539.44</ele>
        <time>2013-02-12T10:32:24Z</time>
      </trkpt>
      <trkpt lat="43.03061" lon="1.17706">
        <ele>538.48</ele>
        <time>2013-02-12T10:32:35Z</time>
      </trkpt>
      <trkpt lat="43.03061" lon="1.17705">
        <ele>539.92</ele>
        <time>2013-02-12T10:32:45Z</time>
      </trkpt>
      <trkpt lat="43.0306" lon="1.17705">
        <ele>538.48</ele>
        <time>2013-02-12T10:32:46Z</time>
      </trkpt>
      <trkpt lat="43.03056" lon="1.17707">
        <ele>539.44</ele>
        <time>2013-02-12T10:32:50Z</time>
      </trkpt>
      <trkpt lat="43.03051" lon="1.1771">
        <ele>539.92</ele>
        <time>2013-02-12T10:32:56Z</time>
      </trkpt>
      <trkpt lat="43.03046" lon="1.17715">
        <ele>540.88</ele>
        <time>2013-02-12T10:33:02Z</time>
      </trkpt>
      <trkpt lat="43.03044" lon="1.17716">
        <ele>541.36</ele>
        <time>2013-02-12T10:33:04Z</time>
      </trkpt>
      <trkpt lat="43.03035" lon="1.17722">
        <ele>542.32</ele>
        <time>2013-02-12T10:33:13Z</time>
      </trkpt>
      <trkpt lat="43.03035" lon="1.17722">
        <ele>542.32</ele>
        <time>2013-02-12T10:33:15Z</time>
      </trkpt>
      <trkpt lat="43.03034" lon="1.17722">
        <ele>542.32</ele>
        <time>2013-02-12T10:33:17Z</time>
      </trkpt>
      <trkpt lat="43.03031" lon="1.17725">
        <ele>541.84</ele>
        <time>2013-02-12T10:33:20Z</time>
      </trkpt>
      <trkpt lat="43.03028" lon="1.17727">
        <ele>542.32</ele>
        <time>2013-02-12T10:33:23Z</time>
      </trkpt>
      <trkpt lat="43.03019" lon="1.17734">
        <ele>541.84</ele>
        <time>2013-02-12T10:33:32Z</time>
      </trkpt>
      <trkpt lat="43.0301" lon="1.1774">
        <ele>541.36</ele>
        <time>2013-02-12T10:33:40Z</time>
      </trkpt>
      <trkpt lat="43.03009" lon="1.17741">
        <ele>541.84</ele>
        <time>2013-02-12T10:33:41Z</time>
      </trkpt>
      <trkpt lat="43.03007" lon="1.17744">
        <ele>540.88</ele>
        <time>2013-02-12T10:33:44Z</time>
      </trkpt>
      <trkpt lat="43.02999" lon="1.17755">
        <ele>541.84</ele>
        <time>2013-02-12T10:33:53Z</time>
      </trkpt>
      <trkpt lat="43.02997" lon="1.17758">
        <ele>541.84</ele>
        <time>2013-02-12T10:33:55Z</time>
      </trkpt>
      <trkpt lat="43.0299" lon="1.17771">
        <ele>539.92</ele>
        <time>2013-02-12T10:34:03Z</time>
      </trkpt>
      <trkpt lat="43.02987" lon="1.1778">
        <ele>540.4</ele>
        <time>2013-02-12T10:34:09Z</time>
      </trkpt>
      <trkpt lat="43.02982" lon="1.17792">
        <ele>539.92</ele>
        <time>2013-02-12T10:34:16Z</time>
      </trkpt>
      <trkpt lat="43.02974" lon="1.17803">
        <ele>539.92</ele>
        <time>2013-02-12T10:34:24Z</time>
      </trkpt>
      <trkpt lat="43.0297" lon="1.17811">
        <ele>538.96</ele>
        <time>2013-02-12T10:34:30Z</time>
      </trkpt>
      <trkpt lat="43.02967" lon="1.17822">
        <ele>538.96</ele>
        <time>2013-02-12T10:34:37Z</time>
      </trkpt>
      <trkpt lat="43.02963" lon="1.17831">
        <ele>539.44</ele>
        <time>2013-02-12T10:34:43Z</time>
      </trkpt>
      <trkpt lat="43.02958" lon="1.17845">
        <ele>540.4</ele>
        <time>2013-02-12T10:34:51Z</time>
      </trkpt>
      <trkpt lat="43.02958" lon="1.17856">
        <ele>540.4</ele>
        <time>2013-02-12T10:34:57Z</time>
      </trkpt>
      <trkpt lat="43.02954" lon="1.1787">
        <ele>540.88</ele>
        <time>2013-02-12T10:35:06Z</time>
      </trkpt>
      <trkpt lat="43.02952" lon="1.17878">
        <ele>540.4</ele>
        <time>2013-02-12T10:35:13Z</time>
      </trkpt>
      <trkpt lat="43.0295" lon="1.17881">
        <ele>540.88</ele>
        <time>2013-02-12T10:35:15Z</time>
      </trkpt>
      <trkpt lat="43.02949" lon="1.17883">
        <ele>540.88</ele>
        <time>2013-02-12T10:35:17Z</time>
      </trkpt>
      <trkpt lat="43.02948" lon="1.17885">
        <ele>541.36</ele>
        <time>2013-02-12T10:35:19Z</time>
      </trkpt>
      <trkpt lat="43.02945" lon="1.1789">
        <ele>542.32</ele>
        <time>2013-02-12T10:35:26Z</time>
      </trkpt>
      <trkpt lat="43.02943" lon="1.17895">
        <ele>542.32</ele>
        <time>2013-02-12T10:35:34Z</time>
      </trkpt>
      <trkpt lat="43.02941" lon="1.17897">
        <ele>543.28</ele>
        <time>2013-02-12T10:35:36Z</time>
      </trkpt>
      <trkpt lat="43.02936" lon="1.17903">
        <ele>544.24</ele>
        <time>2013-02-12T10:35:43Z</time>
      </trkpt>
      <trkpt lat="43.02932" lon="1.17907">
        <ele>545.2</ele>
        <time>2013-02-12T10:35:50Z</time>
      </trkpt>
      <trkpt lat="43.02928" lon="1.17914">
        <ele>546.17</ele>
        <time>2013-02-12T10:35:57Z</time>
      </trkpt>
      <trkpt lat="43.02924" lon="1.1792">
        <ele>547.13</ele>
        <time>2013-02-12T10:36:04Z</time>
      </trkpt>
      <trkpt lat="43.02921" lon="1.17926">
        <ele>547.61</ele>
        <time>2013-02-12T10:36:10Z</time>
      </trkpt>
      <trkpt lat="43.02919" lon="1.17929">
        <ele>549.05</ele>
        <time>2013-02-12T10:36:14Z</time>
      </trkpt>
      <trkpt lat="43.02914" lon="1.17935">
        <ele>550.01</ele>
        <time>2013-02-12T10:36:21Z</time>
      </trkpt>
      <trkpt lat="43.02913" lon="1.17937">
        <ele>550.49</ele>
        <time>2013-02-12T10:36:23Z</time>
      </trkpt>
      <trkpt lat="43.02909" lon="1.17943">
        <ele>551.93</ele>
        <time>2013-02-12T10:36:30Z</time>
      </trkpt>
      <trkpt lat="43.02905" lon="1.17951">
        <ele>552.41</ele>
        <time>2013-02-12T10:36:38Z</time>
      </trkpt>
      <trkpt lat="43.02902" lon="1.17957">
        <ele>553.38</ele>
        <time>2013-02-12T10:36:44Z</time>
      </trkpt>
      <trkpt lat="43.02897" lon="1.17964">
        <ele>554.34</ele>
        <time>2013-02-12T10:36:53Z</time>
      </trkpt>
      <trkpt lat="43.02895" lon="1.17969">
        <ele>554.34</ele>
        <time>2013-02-12T10:36:59Z</time>
      </trkpt>
      <trkpt lat="43.02891" lon="1.17975">
        <ele>556.26</ele>
        <time>2013-02-12T10:37:05Z</time>
      </trkpt>
      <trkpt lat="43.0289" lon="1.17977">
        <ele>556.26</ele>
        <time>2013-02-12T10:37:08Z</time>
      </trkpt>
      <trkpt lat="43.02887" lon="1.1798">
        <ele>556.74</ele>
        <time>2013-02-12T10:37:11Z</time>
      </trkpt>
      <trkpt lat="43.02883" lon="1.17985">
        <ele>557.7</ele>
        <time>2013-02-12T10:37:17Z</time>
      </trkpt>
      <trkpt lat="43.02878" lon="1.1799">
        <ele>557.7</ele>
        <time>2013-02-12T10:37:25Z</time>
      </trkpt>
      <trkpt lat="43.02871" lon="1.1799">
        <ele>557.7</ele>
        <time>2013-02-12T10:37:33Z</time>
      </trkpt>
      <trkpt lat="43.02866" lon="1.1799">
        <ele>559.14</ele>
        <time>2013-02-12T10:37:39Z</time>
      </trkpt>
      <trkpt lat="43.0286" lon="1.17987">
        <ele>559.62</ele>
        <time>2013-02-12T10:37:45Z</time>
      </trkpt>
      <trkpt lat="43.02855" lon="1.17987">
        <ele>560.59</ele>
        <time>2013-02-12T10:37:51Z</time>
      </trkpt>
      <trkpt lat="43.02851" lon="1.17988">
        <ele>561.55</ele>
        <time>2013-02-12T10:37:58Z</time>
      </trkpt>
      <trkpt lat="43.02846" lon="1.1799">
        <ele>562.03</ele>
        <time>2013-02-12T10:38:06Z</time>
      </trkpt>
      <trkpt lat="43.0284" lon="1.17992">
        <ele>562.99</ele>
        <time>2013-02-12T10:38:15Z</time>
      </trkpt>
      <trkpt lat="43.02838" lon="1.17993">
        <ele>563.95</ele>
        <time>2013-02-12T10:38:24Z</time>
      </trkpt>
      <trkpt lat="43.02832" lon="1.17995">
        <ele>563.95</ele>
        <time>2013-02-12T10:38:31Z</time>
      </trkpt>
      <trkpt lat="43.02826" lon="1.18">
        <ele>564.91</ele>
        <time>2013-02-12T10:38:39Z</time>
      </trkpt>
      <trkpt lat="43.02823" lon="1.18003">
        <ele>565.39</ele>
        <time>2013-02-12T10:38:46Z</time>
      </trkpt>
      <trkpt lat="43.02816" lon="1.18005">
        <ele>564.91</ele>
        <time>2013-02-12T10:38:53Z</time>
      </trkpt>
      <trkpt lat="43.02812" lon="1.18008">
        <ele>566.35</ele>
        <time>2013-02-12T10:38:59Z</time>
      </trkpt>
      <trkpt lat="43.02805" lon="1.18011">
        <ele>567.32</ele>
        <time>2013-02-12T10:39:06Z</time>
      </trkpt>
      <trkpt lat="43.028" lon="1.18011">
        <ele>568.76</ele>
        <time>2013-02-12T10:39:12Z</time>
      </trkpt>
      <trkpt lat="43.02799" lon="1.18011">
        <ele>568.76</ele>
        <time>2013-02-12T10:39:13Z</time>
      </trkpt>
      <trkpt lat="43.02792" lon="1.18009">
        <ele>569.72</ele>
        <time>2013-02-12T10:39:21Z</time>
      </trkpt>
      <trkpt lat="43.02791" lon="1.18009">
        <ele>569.24</ele>
        <time>2013-02-12T10:39:22Z</time>
      </trkpt>
      <trkpt lat="43.02785" lon="1.18006">
        <ele>569.72</ele>
        <time>2013-02-12T10:39:29Z</time>
      </trkpt>
      <trkpt lat="43.02784" lon="1.18006">
        <ele>569.24</ele>
        <time>2013-02-12T10:39:30Z</time>
      </trkpt>
      <trkpt lat="43.02777" lon="1.18006">
        <ele>570.2</ele>
        <time>2013-02-12T10:39:37Z</time>
      </trkpt>
      <trkpt lat="43.02771" lon="1.18005">
        <ele>570.68</ele>
        <time>2013-02-12T10:39:44Z</time>
      </trkpt>
      <trkpt lat="43.02767" lon="1.18005">
        <ele>571.16</ele>
        <time>2013-02-12T10:39:50Z</time>
      </trkpt>
      <trkpt lat="43.02766" lon="1.18006">
        <ele>571.16</ele>
        <time>2013-02-12T10:39:54Z</time>
      </trkpt>
      <trkpt lat="43.02761" lon="1.18006">
        <ele>571.16</ele>
        <time>2013-02-12T10:40:03Z</time>
      </trkpt>
      <trkpt lat="43.02756" lon="1.18006">
        <ele>571.16</ele>
        <time>2013-02-12T10:40:09Z</time>
      </trkpt>
      <trkpt lat="43.02748" lon="1.18004">
        <ele>571.64</ele>
        <time>2013-02-12T10:40:18Z</time>
      </trkpt>
      <trkpt lat="43.02743" lon="1.18002">
        <ele>571.16</ele>
        <time>2013-02-12T10:40:26Z</time>
      </trkpt>
      <trkpt lat="43.02737" lon="1.17997">
        <ele>572.12</ele>
        <time>2013-02-12T10:40:33Z</time>
      </trkpt>
      <trkpt lat="43.0273" lon="1.17992">
        <ele>573.08</ele>
        <time>2013-02-12T10:40:40Z</time>
      </trkpt>
      <trkpt lat="43.02726" lon="1.17988">
        <ele>574.04</ele>
        <time>2013-02-12T10:40:47Z</time>
      </trkpt>
      <trkpt lat="43.0272" lon="1.17985">
        <ele>575.49</ele>
        <time>2013-02-12T10:40:55Z</time>
      </trkpt>
      <trkpt lat="43.02717" lon="1.17981">
        <ele>575.97</ele>
        <time>2013-02-12T10:41:01Z</time>
      </trkpt>
      <trkpt lat="43.02713" lon="1.17976">
        <ele>576.93</ele>
        <time>2013-02-12T10:41:08Z</time>
      </trkpt>
      <trkpt lat="43.02709" lon="1.17973">
        <ele>578.85</ele>
        <time>2013-02-12T10:41:16Z</time>
      </trkpt>
      <trkpt lat="43.02705" lon="1.17974">
        <ele>578.85</ele>
        <time>2013-02-12T10:41:24Z</time>
      </trkpt>
      <trkpt lat="43.027" lon="1.17974">
        <ele>579.81</ele>
        <time>2013-02-12T10:41:31Z</time>
      </trkpt>
      <trkpt lat="43.02696" lon="1.17977">
        <ele>580.77</ele>
        <time>2013-02-12T10:41:36Z</time>
      </trkpt>
      <trkpt lat="43.02689" lon="1.17985">
        <ele>580.77</ele>
        <time>2013-02-12T10:41:44Z</time>
      </trkpt>
      <trkpt lat="43.02685" lon="1.17994">
        <ele>581.25</ele>
        <time>2013-02-12T10:41:52Z</time>
      </trkpt>
      <trkpt lat="43.02683" lon="1.17999">
        <ele>581.73</ele>
        <time>2013-02-12T10:42:00Z</time>
      </trkpt>
      <trkpt lat="43.0268" lon="1.18008">
        <ele>582.7</ele>
        <time>2013-02-12T10:42:07Z</time>
      </trkpt>
      <trkpt lat="43.02677" lon="1.18016">
        <ele>584.14</ele>
        <time>2013-02-12T10:42:16Z</time>
      </trkpt>
      <trkpt lat="43.02676" lon="1.18022">
        <ele>585.58</ele>
        <time>2013-02-12T10:42:22Z</time>
      </trkpt>
      <trkpt lat="43.02675" lon="1.18024">
        <ele>585.1</ele>
        <time>2013-02-12T10:42:31Z</time>
      </trkpt>
      <trkpt lat="43.02674" lon="1.1803">
        <ele>586.54</ele>
        <time>2013-02-12T10:42:40Z</time>
      </trkpt>
      <trkpt lat="43.02674" lon="1.18034">
        <ele>587.02</ele>
        <time>2013-02-12T10:42:47Z</time>
      </trkpt>
      <trkpt lat="43.02672" lon="1.18036">
        <ele>588.46</ele>
        <time>2013-02-12T10:42:54Z</time>
      </trkpt>
      <trkpt lat="43.02669" lon="1.18042">
        <ele>588.46</ele>
        <time>2013-02-12T10:43:01Z</time>
      </trkpt>
      <trkpt lat="43.02669" lon="1.18046">
        <ele>589.91</ele>
        <time>2013-02-12T10:43:09Z</time>
      </trkpt>
      <trkpt lat="43.02667" lon="1.18054">
        <ele>590.87</ele>
        <time>2013-02-12T10:43:17Z</time>
      </trkpt>
      <trkpt lat="43.02666" lon="1.18056">
        <ele>590.87</ele>
        <time>2013-02-12T10:43:25Z</time>
      </trkpt>
      <trkpt lat="43.02664" lon="1.18063">
        <ele>591.83</ele>
        <time>2013-02-12T10:43:35Z</time>
      </trkpt>
      <trkpt lat="43.02661" lon="1.18068">
        <ele>592.79</ele>
        <time>2013-02-12T10:43:42Z</time>
      </trkpt>
      <trkpt lat="43.02658" lon="1.18074">
        <ele>593.75</ele>
        <time>2013-02-12T10:43:50Z</time>
      </trkpt>
      <trkpt lat="43.02657" lon="1.18072">
        <ele>594.71</ele>
        <time>2013-02-12T10:44:02Z</time>
      </trkpt>
      <trkpt lat="43.02655" lon="1.18075">
        <ele>595.19</ele>
        <time>2013-02-12T10:44:11Z</time>
      </trkpt>
      <trkpt lat="43.02652" lon="1.18077">
        <ele>595.67</ele>
        <time>2013-02-12T10:44:18Z</time>
      </trkpt>
      <trkpt lat="43.02649" lon="1.18087">
        <ele>597.12</ele>
        <time>2013-02-12T10:44:26Z</time>
      </trkpt>
      <trkpt lat="43.02647" lon="1.18089">
        <ele>598.08</ele>
        <time>2013-02-12T10:44:30Z</time>
      </trkpt>
      <trkpt lat="43.02644" lon="1.18093">
        <ele>598.08</ele>
        <time>2013-02-12T10:44:36Z</time>
      </trkpt>
      <trkpt lat="43.0264" lon="1.18099">
        <ele>599.52</ele>
        <time>2013-02-12T10:44:41Z</time>
      </trkpt>
      <trkpt lat="43.02639" lon="1.18102">
        <ele>599.52</ele>
        <time>2013-02-12T10:44:44Z</time>
      </trkpt>
      <trkpt lat="43.02637" lon="1.18107">
        <ele>600.48</ele>
        <time>2013-02-12T10:44:49Z</time>
      </trkpt>
      <trkpt lat="43.02632" lon="1.18109">
        <ele>600.48</ele>
        <time>2013-02-12T10:44:56Z</time>
      </trkpt>
      <trkpt lat="43.02629" lon="1.18111">
        <ele>600.48</ele>
        <time>2013-02-12T10:45:04Z</time>
      </trkpt>
      <trkpt lat="43.0263" lon="1.18111">
        <ele>601.92</ele>
        <time>2013-02-12T10:45:15Z</time>
      </trkpt>
      <trkpt lat="43.02628" lon="1.18111">
        <ele>600.48</ele>
        <time>2013-02-12T10:45:28Z</time>
      </trkpt>
      <trkpt lat="43.02626" lon="1.18112">
        <ele>600.48</ele>
        <time>2013-02-12T10:45:30Z</time>
      </trkpt>
      <trkpt lat="43.02618" lon="1.18119">
        <ele>600</ele>
        <time>2013-02-12T10:45:38Z</time>
      </trkpt>
      <trkpt lat="43.02611" lon="1.18125">
        <ele>600.48</ele>
        <time>2013-02-12T10:45:45Z</time>
      </trkpt>
      <trkpt lat="43.02609" lon="1.18128">
        <ele>599.52</ele>
        <time>2013-02-12T10:45:47Z</time>
      </trkpt>
      <trkpt lat="43.02604" lon="1.18135">
        <ele>600</ele>
        <time>2013-02-12T10:45:54Z</time>
      </trkpt>
      <trkpt lat="43.026" lon="1.18146">
        <ele>599.52</ele>
        <time>2013-02-12T10:46:02Z</time>
      </trkpt>
      <trkpt lat="43.026" lon="1.18147">
        <ele>600.48</ele>
        <time>2013-02-12T10:46:03Z</time>
      </trkpt>
      <trkpt lat="43.02596" lon="1.18161">
        <ele>600.48</ele>
        <time>2013-02-12T10:46:10Z</time>
      </trkpt>
      <trkpt lat="43.02592" lon="1.18169">
        <ele>600.48</ele>
        <time>2013-02-12T10:46:17Z</time>
      </trkpt>
      <trkpt lat="43.02584" lon="1.18177">
        <ele>600</ele>
        <time>2013-02-12T10:46:23Z</time>
      </trkpt>
      <trkpt lat="43.02575" lon="1.18187">
        <ele>600.48</ele>
        <time>2013-02-12T10:46:32Z</time>
      </trkpt>
      <trkpt lat="43.02572" lon="1.1819">
        <ele>601.44</ele>
        <time>2013-02-12T10:46:36Z</time>
      </trkpt>
      <trkpt lat="43.02565" lon="1.18194">
        <ele>601.92</ele>
        <time>2013-02-12T10:46:43Z</time>
      </trkpt>
      <trkpt lat="43.02561" lon="1.18195">
        <ele>603.36</ele>
        <time>2013-02-12T10:46:49Z</time>
      </trkpt>
      <trkpt lat="43.02556" lon="1.18196">
        <ele>604.33</ele>
        <time>2013-02-12T10:46:55Z</time>
      </trkpt>
      <trkpt lat="43.02549" lon="1.18199">
        <ele>604.33</ele>
        <time>2013-02-12T10:47:03Z</time>
      </trkpt>
      <trkpt lat="43.02548" lon="1.18199">
        <ele>605.29</ele>
        <time>2013-02-12T10:47:04Z</time>
      </trkpt>
      <trkpt lat="43.02544" lon="1.18198">
        <ele>604.33</ele>
        <time>2013-02-12T10:47:11Z</time>
      </trkpt>
      <trkpt lat="43.02536" lon="1.18196">
        <ele>604.33</ele>
        <time>2013-02-12T10:47:18Z</time>
      </trkpt>
      <trkpt lat="43.02533" lon="1.18194">
        <ele>605.29</ele>
        <time>2013-02-12T10:47:23Z</time>
      </trkpt>
      <trkpt lat="43.02527" lon="1.1819">
        <ele>604.81</ele>
        <time>2013-02-12T10:47:29Z</time>
      </trkpt>
      <trkpt lat="43.0252" lon="1.1819">
        <ele>604.81</ele>
        <time>2013-02-12T10:47:36Z</time>
      </trkpt>
      <trkpt lat="43.02514" lon="1.18189">
        <ele>604.81</ele>
        <time>2013-02-12T10:47:42Z</time>
      </trkpt>
      <trkpt lat="43.02506" lon="1.18191">
        <ele>604.33</ele>
        <time>2013-02-12T10:47:50Z</time>
      </trkpt>
      <trkpt lat="43.02501" lon="1.18191">
        <ele>605.29</ele>
        <time>2013-02-12T10:47:55Z</time>
      </trkpt>
      <trkpt lat="43.02493" lon="1.18198">
        <ele>604.81</ele>
        <time>2013-02-12T10:48:05Z</time>
      </trkpt>
      <trkpt lat="43.02491" lon="1.18203">
        <ele>604.81</ele>
        <time>2013-02-12T10:48:13Z</time>
      </trkpt>
      <trkpt lat="43.02488" lon="1.18206">
        <ele>605.29</ele>
        <time>2013-02-12T10:48:22Z</time>
      </trkpt>
      <trkpt lat="43.02488" lon="1.18207">
        <ele>605.29</ele>
        <time>2013-02-12T10:48:23Z</time>
      </trkpt>
      <trkpt lat="43.02484" lon="1.1821">
        <ele>605.29</ele>
        <time>2013-02-12T10:48:28Z</time>
      </trkpt>
      <trkpt lat="43.02479" lon="1.18218">
        <ele>604.81</ele>
        <time>2013-02-12T10:48:34Z</time>
      </trkpt>
      <trkpt lat="43.02476" lon="1.18222">
        <ele>605.77</ele>
        <time>2013-02-12T10:48:39Z</time>
      </trkpt>
      <trkpt lat="43.02473" lon="1.18229">
        <ele>604.81</ele>
        <time>2013-02-12T10:48:44Z</time>
      </trkpt>
      <trkpt lat="43.02464" lon="1.18239">
        <ele>604.81</ele>
        <time>2013-02-12T10:48:52Z</time>
      </trkpt>
      <trkpt lat="43.02458" lon="1.18245">
        <ele>605.77</ele>
        <time>2013-02-12T10:48:58Z</time>
      </trkpt>
      <trkpt lat="43.02451" lon="1.18248">
        <ele>606.25</ele>
        <time>2013-02-12T10:49:07Z</time>
      </trkpt>
      <trkpt lat="43.02444" lon="1.18252">
        <ele>606.25</ele>
        <time>2013-02-12T10:49:15Z</time>
      </trkpt>
      <trkpt lat="43.02437" lon="1.18254">
        <ele>606.25</ele>
        <time>2013-02-12T10:49:22Z</time>
      </trkpt>
      <trkpt lat="43.02431" lon="1.18257">
        <ele>606.73</ele>
        <time>2013-02-12T10:49:28Z</time>
      </trkpt>
      <trkpt lat="43.02424" lon="1.18257">
        <ele>606.25</ele>
        <time>2013-02-12T10:49:34Z</time>
      </trkpt>
      <trkpt lat="43.02418" lon="1.18258">
        <ele>606.73</ele>
        <time>2013-02-12T10:49:38Z</time>
      </trkpt>
      <trkpt lat="43.02416" lon="1.1826">
        <ele>607.21</ele>
        <time>2013-02-12T10:49:46Z</time>
      </trkpt>
      <trkpt lat="43.02416" lon="1.1826">
        <ele>606.73</ele>
        <time>2013-02-12T10:49:54Z</time>
      </trkpt>
      <trkpt lat="43.02416" lon="1.1826">
        <ele>606.25</ele>
        <time>2013-02-12T10:50:03Z</time>
      </trkpt>
      <trkpt lat="43.02416" lon="1.1826">
        <ele>607.21</ele>
        <time>2013-02-12T10:50:14Z</time>
      </trkpt>
      <trkpt lat="43.02416" lon="1.1826">
        <ele>607.21</ele>
        <time>2013-02-12T10:50:22Z</time>
      </trkpt>
      <trkpt lat="43.02416" lon="1.1826">
        <ele>606.25</ele>
        <time>2013-02-12T10:50:33Z</time>
      </trkpt>
      <trkpt lat="43.02415" lon="1.18261">
        <ele>606.25</ele>
        <time>2013-02-12T10:50:46Z</time>
      </trkpt>
      <trkpt lat="43.02415" lon="1.18261">
        <ele>606.73</ele>
        <time>2013-02-12T10:50:47Z</time>
      </trkpt>
      <trkpt lat="43.02411" lon="1.18263">
        <ele>606.25</ele>
        <time>2013-02-12T10:50:51Z</time>
      </trkpt>
      <trkpt lat="43.02404" lon="1.18271">
        <ele>605.77</ele>
        <time>2013-02-12T10:50:59Z</time>
      </trkpt>
      <trkpt lat="43.02401" lon="1.18273">
        <ele>606.73</ele>
        <time>2013-02-12T10:51:02Z</time>
      </trkpt>
      <trkpt lat="43.02399" lon="1.18275">
        <ele>606.73</ele>
        <time>2013-02-12T10:51:06Z</time>
      </trkpt>
      <trkpt lat="43.02396" lon="1.18276">
        <ele>606.73</ele>
        <time>2013-02-12T10:51:10Z</time>
      </trkpt>
      <trkpt lat="43.02393" lon="1.18277">
        <ele>606.25</ele>
        <time>2013-02-12T10:51:14Z</time>
      </trkpt>
      <trkpt lat="43.02386" lon="1.18285">
        <ele>606.25</ele>
        <time>2013-02-12T10:51:23Z</time>
      </trkpt>
      <trkpt lat="43.02385" lon="1.18285">
        <ele>606.73</ele>
        <time>2013-02-12T10:51:24Z</time>
      </trkpt>
      <trkpt lat="43.02382" lon="1.18288">
        <ele>605.77</ele>
        <time>2013-02-12T10:51:27Z</time>
      </trkpt>
      <trkpt lat="43.02379" lon="1.18294">
        <ele>605.77</ele>
        <time>2013-02-12T10:51:33Z</time>
      </trkpt>
      <trkpt lat="43.02377" lon="1.18302">
        <ele>605.29</ele>
        <time>2013-02-12T10:51:41Z</time>
      </trkpt>
      <trkpt lat="43.02376" lon="1.18303">
        <ele>605.29</ele>
        <time>2013-02-12T10:51:55Z</time>
      </trkpt>
      <trkpt lat="43.02375" lon="1.18309">
        <ele>605.29</ele>
        <time>2013-02-12T10:52:04Z</time>
      </trkpt>
      <trkpt lat="43.02372" lon="1.18316">
        <ele>605.29</ele>
        <time>2013-02-12T10:52:11Z</time>
      </trkpt>
      <trkpt lat="43.0237" lon="1.18323">
        <ele>604.81</ele>
        <time>2013-02-12T10:52:19Z</time>
      </trkpt>
      <trkpt lat="43.02369" lon="1.18326">
        <ele>604.81</ele>
        <time>2013-02-12T10:52:27Z</time>
      </trkpt>
      <trkpt lat="43.02366" lon="1.18337">
        <ele>604.33</ele>
        <time>2013-02-12T10:52:35Z</time>
      </trkpt>
      <trkpt lat="43.02364" lon="1.18343">
        <ele>604.33</ele>
        <time>2013-02-12T10:52:43Z</time>
      </trkpt>
      <trkpt lat="43.02362" lon="1.18351">
        <ele>601.44</ele>
        <time>2013-02-12T10:52:50Z</time>
      </trkpt>
      <trkpt lat="43.02361" lon="1.18352">
        <ele>607.69</ele>
        <time>2013-02-12T10:52:51Z</time>
      </trkpt>
      <trkpt lat="43.02361" lon="1.18353">
        <ele>604.81</ele>
        <time>2013-02-12T10:52:52Z</time>
      </trkpt>
      <trkpt lat="43.02356" lon="1.18366">
        <ele>604.81</ele>
        <time>2013-02-12T10:52:58Z</time>
      </trkpt>
      <trkpt lat="43.0235" lon="1.18374">
        <ele>605.77</ele>
        <time>2013-02-12T10:53:03Z</time>
      </trkpt>
      <trkpt lat="43.02346" lon="1.18381">
        <ele>605.77</ele>
        <time>2013-02-12T10:53:11Z</time>
      </trkpt>
      <trkpt lat="43.02344" lon="1.18386">
        <ele>605.77</ele>
        <time>2013-02-12T10:53:18Z</time>
      </trkpt>
      <trkpt lat="43.02341" lon="1.18393">
        <ele>604.81</ele>
        <time>2013-02-12T10:53:25Z</time>
      </trkpt>
      <trkpt lat="43.02338" lon="1.184">
        <ele>604.33</ele>
        <time>2013-02-12T10:53:32Z</time>
      </trkpt>
      <trkpt lat="43.02334" lon="1.18407">
        <ele>602.88</ele>
        <time>2013-02-12T10:53:39Z</time>
      </trkpt>
      <trkpt lat="43.02333" lon="1.18408">
        <ele>602.88</ele>
        <time>2013-02-12T10:53:40Z</time>
      </trkpt>
      <trkpt lat="43.02328" lon="1.18418">
        <ele>600.96</ele>
        <time>2013-02-12T10:53:48Z</time>
      </trkpt>
      <trkpt lat="43.02323" lon="1.18429">
        <ele>600.96</ele>
        <time>2013-02-12T10:53:55Z</time>
      </trkpt>
      <trkpt lat="43.02317" lon="1.18436">
        <ele>600</ele>
        <time>2013-02-12T10:54:02Z</time>
      </trkpt>
      <trkpt lat="43.02309" lon="1.18438">
        <ele>599.52</ele>
        <time>2013-02-12T10:54:10Z</time>
      </trkpt>
      <trkpt lat="43.02303" lon="1.18441">
        <ele>599.04</ele>
        <time>2013-02-12T10:54:16Z</time>
      </trkpt>
      <trkpt lat="43.02293" lon="1.18442">
        <ele>599.04</ele>
        <time>2013-02-12T10:54:26Z</time>
      </trkpt>
      <trkpt lat="43.02291" lon="1.18441">
        <ele>599.52</ele>
        <time>2013-02-12T10:54:28Z</time>
      </trkpt>
      <trkpt lat="43.02281" lon="1.18446">
        <ele>598.08</ele>
        <time>2013-02-12T10:54:37Z</time>
      </trkpt>
      <trkpt lat="43.0227" lon="1.18453">
        <ele>596.64</ele>
        <time>2013-02-12T10:54:44Z</time>
      </trkpt>
      <trkpt lat="43.02265" lon="1.18456">
        <ele>596.15</ele>
        <time>2013-02-12T10:54:48Z</time>
      </trkpt>
      <trkpt lat="43.02258" lon="1.18461">
        <ele>595.19</ele>
        <time>2013-02-12T10:54:53Z</time>
      </trkpt>
      <trkpt lat="43.02251" lon="1.18465">
        <ele>593.75</ele>
        <time>2013-02-12T10:55:00Z</time>
      </trkpt>
      <trkpt lat="43.02242" lon="1.18474">
        <ele>592.79</ele>
        <time>2013-02-12T10:55:08Z</time>
      </trkpt>
      <trkpt lat="43.02241" lon="1.18475">
        <ele>592.79</ele>
        <time>2013-02-12T10:55:09Z</time>
      </trkpt>
      <trkpt lat="43.02237" lon="1.18482">
        <ele>592.31</ele>
        <time>2013-02-12T10:55:16Z</time>
      </trkpt>
      <trkpt lat="43.02235" lon="1.18487">
        <ele>592.79</ele>
        <time>2013-02-12T10:55:19Z</time>
      </trkpt>
      <trkpt lat="43.0223" lon="1.18492">
        <ele>592.79</ele>
        <time>2013-02-12T10:55:27Z</time>
      </trkpt>
      <trkpt lat="43.0223" lon="1.18491">
        <ele>592.79</ele>
        <time>2013-02-12T10:55:36Z</time>
      </trkpt>
      <trkpt lat="43.0223" lon="1.18491">
        <ele>592.79</ele>
        <time>2013-02-12T10:55:45Z</time>
      </trkpt>
      <trkpt lat="43.02228" lon="1.18495">
        <ele>592.79</ele>
        <time>2013-02-12T10:55:48Z</time>
      </trkpt>
      <trkpt lat="43.02223" lon="1.18499">
        <ele>592.79</ele>
        <time>2013-02-12T10:55:54Z</time>
      </trkpt>
      <trkpt lat="43.02216" lon="1.18508">
        <ele>592.79</ele>
        <time>2013-02-12T10:56:03Z</time>
      </trkpt>
      <trkpt lat="43.0221" lon="1.18511">
        <ele>592.31</ele>
        <time>2013-02-12T10:56:11Z</time>
      </trkpt>
      <trkpt lat="43.02207" lon="1.18512">
        <ele>592.31</ele>
        <time>2013-02-12T10:56:18Z</time>
      </trkpt>
      <trkpt lat="43.02202" lon="1.18513">
        <ele>591.35</ele>
        <time>2013-02-12T10:56:27Z</time>
      </trkpt>
      <trkpt lat="43.02201" lon="1.18513">
        <ele>591.35</ele>
        <time>2013-02-12T10:56:29Z</time>
      </trkpt>
      <trkpt lat="43.02195" lon="1.18513">
        <ele>590.39</ele>
        <time>2013-02-12T10:56:35Z</time>
      </trkpt>
      <trkpt lat="43.02188" lon="1.18514">
        <ele>589.43</ele>
        <time>2013-02-12T10:56:42Z</time>
      </trkpt>
      <trkpt lat="43.02183" lon="1.18515">
        <ele>587.5</ele>
        <time>2013-02-12T10:56:50Z</time>
      </trkpt>
      <trkpt lat="43.02182" lon="1.18513">
        <ele>587.98</ele>
        <time>2013-02-12T10:56:57Z</time>
      </trkpt>
      <trkpt lat="43.02181" lon="1.18514">
        <ele>587.98</ele>
        <time>2013-02-12T10:57:07Z</time>
      </trkpt>
      <trkpt lat="43.0218" lon="1.18514">
        <ele>587.98</ele>
        <time>2013-02-12T10:57:20Z</time>
      </trkpt>
      <trkpt lat="43.0218" lon="1.18514">
        <ele>587.5</ele>
        <time>2013-02-12T10:57:26Z</time>
      </trkpt>
      <trkpt lat="43.0218" lon="1.18515">
        <ele>587.5</ele>
        <time>2013-02-12T10:57:30Z</time>
      </trkpt>
      <trkpt lat="43.02181" lon="1.18517">
        <ele>587.98</ele>
        <time>2013-02-12T10:57:37Z</time>
      </trkpt>
      <trkpt lat="43.02181" lon="1.18517">
        <ele>587.98</ele>
        <time>2013-02-12T10:57:54Z</time>
      </trkpt>
      <trkpt lat="43.0218" lon="1.18518">
        <ele>587.5</ele>
        <time>2013-02-12T10:58:07Z</time>
      </trkpt>
      <trkpt lat="43.02174" lon="1.1852">
        <ele>587.5</ele>
        <time>2013-02-12T10:58:15Z</time>
      </trkpt>
      <trkpt lat="43.02162" lon="1.18522">
        <ele>587.5</ele>
        <time>2013-02-12T10:58:26Z</time>
      </trkpt>
      <trkpt lat="43.02149" lon="1.18521">
        <ele>586.54</ele>
        <time>2013-02-12T10:58:35Z</time>
      </trkpt>
      <trkpt lat="43.0214" lon="1.18518">
        <ele>586.54</ele>
        <time>2013-02-12T10:58:42Z</time>
      </trkpt>
      <trkpt lat="43.02135" lon="1.18516">
        <ele>585.1</ele>
        <time>2013-02-12T10:58:49Z</time>
      </trkpt>
      <trkpt lat="43.0213" lon="1.18514">
        <ele>584.62</ele>
        <time>2013-02-12T10:58:57Z</time>
      </trkpt>
      <trkpt lat="43.02123" lon="1.18509">
        <ele>583.66</ele>
        <time>2013-02-12T10:59:05Z</time>
      </trkpt>
      <trkpt lat="43.02117" lon="1.18508">
        <ele>583.66</ele>
        <time>2013-02-12T10:59:11Z</time>
      </trkpt>
      <trkpt lat="43.02114" lon="1.18504">
        <ele>582.7</ele>
        <time>2013-02-12T10:59:19Z</time>
      </trkpt>
      <trkpt lat="43.02109" lon="1.18498">
        <ele>582.22</ele>
        <time>2013-02-12T10:59:25Z</time>
      </trkpt>
      <trkpt lat="43.02105" lon="1.18495">
        <ele>582.22</ele>
        <time>2013-02-12T10:59:31Z</time>
      </trkpt>
      <trkpt lat="43.02098" lon="1.18491">
        <ele>580.29</ele>
        <time>2013-02-12T10:59:40Z</time>
      </trkpt>
      <trkpt lat="43.02093" lon="1.1849">
        <ele>579.81</ele>
        <time>2013-02-12T10:59:46Z</time>
      </trkpt>
      <trkpt lat="43.02087" lon="1.18489">
        <ele>577.89</ele>
        <time>2013-02-12T10:59:53Z</time>
      </trkpt>
      <trkpt lat="43.02083" lon="1.18486">
        <ele>576.45</ele>
        <time>2013-02-12T11:00:00Z</time>
      </trkpt>
      <trkpt lat="43.02078" lon="1.18484">
        <ele>575.49</ele>
        <time>2013-02-12T11:00:06Z</time>
      </trkpt>
      <trkpt lat="43.02073" lon="1.18483">
        <ele>575.01</ele>
        <time>2013-02-12T11:00:13Z</time>
      </trkpt>
      <trkpt lat="43.02073" lon="1.18483">
        <ele>574.04</ele>
        <time>2013-02-12T11:00:14Z</time>
      </trkpt>
      <trkpt lat="43.0207" lon="1.18481">
        <ele>573.08</ele>
        <time>2013-02-12T11:00:16Z</time>
      </trkpt>
      <trkpt lat="43.0206" lon="1.18479">
        <ele>573.08</ele>
        <time>2013-02-12T11:00:25Z</time>
      </trkpt>
      <trkpt lat="43.02055" lon="1.18476">
        <ele>572.6</ele>
        <time>2013-02-12T11:00:32Z</time>
      </trkpt>
      <trkpt lat="43.02051" lon="1.18473">
        <ele>572.12</ele>
        <time>2013-02-12T11:00:38Z</time>
      </trkpt>
      <trkpt lat="43.02049" lon="1.18472">
        <ele>568.76</ele>
        <time>2013-02-12T11:00:44Z</time>
      </trkpt>
      <trkpt lat="43.02049" lon="1.18472">
        <ele>575.01</ele>
        <time>2013-02-12T11:00:45Z</time>
      </trkpt>
      <trkpt lat="43.02049" lon="1.18472">
        <ele>575.01</ele>
        <time>2013-02-12T11:00:46Z</time>
      </trkpt>
      <trkpt lat="43.02047" lon="1.18471">
        <ele>572.12</ele>
        <time>2013-02-12T11:00:48Z</time>
      </trkpt>
      <trkpt lat="43.02044" lon="1.18468">
        <ele>571.16</ele>
        <time>2013-02-12T11:00:52Z</time>
      </trkpt>
      <trkpt lat="43.02038" lon="1.18464">
        <ele>570.2</ele>
        <time>2013-02-12T11:00:58Z</time>
      </trkpt>
      <trkpt lat="43.02036" lon="1.18457">
        <ele>569.24</ele>
        <time>2013-02-12T11:01:04Z</time>
      </trkpt>
      <trkpt lat="43.02036" lon="1.18452">
        <ele>568.28</ele>
        <time>2013-02-12T11:01:11Z</time>
      </trkpt>
      <trkpt lat="43.02037" lon="1.18449">
        <ele>567.32</ele>
        <time>2013-02-12T11:01:19Z</time>
      </trkpt>
      <trkpt lat="43.02039" lon="1.18442">
        <ele>567.32</ele>
        <time>2013-02-12T11:01:25Z</time>
      </trkpt>
      <trkpt lat="43.02041" lon="1.18435">
        <ele>565.87</ele>
        <time>2013-02-12T11:01:31Z</time>
      </trkpt>
      <trkpt lat="43.02041" lon="1.1843">
        <ele>565.87</ele>
        <time>2013-02-12T11:01:34Z</time>
      </trkpt>
      <trkpt lat="43.0204" lon="1.1842">
        <ele>565.87</ele>
        <time>2013-02-12T11:01:42Z</time>
      </trkpt>
      <trkpt lat="43.02039" lon="1.18419">
        <ele>565.87</ele>
        <time>2013-02-12T11:01:49Z</time>
      </trkpt>
      <trkpt lat="43.02039" lon="1.18417">
        <ele>564.43</ele>
        <time>2013-02-12T11:01:57Z</time>
      </trkpt>
      <trkpt lat="43.02038" lon="1.18418">
        <ele>564.91</ele>
        <time>2013-02-12T11:02:02Z</time>
      </trkpt>
      <trkpt lat="43.02034" lon="1.18419">
        <ele>564.43</ele>
        <time>2013-02-12T11:02:09Z</time>
      </trkpt>
      <trkpt lat="43.02033" lon="1.1842">
        <ele>563.47</ele>
        <time>2013-02-12T11:02:12Z</time>
      </trkpt>
      <trkpt lat="43.02032" lon="1.1842">
        <ele>562.51</ele>
        <time>2013-02-12T11:02:13Z</time>
      </trkpt>
      <trkpt lat="43.0203" lon="1.18415">
        <ele>562.51</ele>
        <time>2013-02-12T11:02:21Z</time>
      </trkpt>
      <trkpt lat="43.0203" lon="1.18412">
        <ele>561.55</ele>
        <time>2013-02-12T11:02:26Z</time>
      </trkpt>
      <trkpt lat="43.02033" lon="1.18403">
        <ele>559.62</ele>
        <time>2013-02-12T11:02:34Z</time>
      </trkpt>
      <trkpt lat="43.02032" lon="1.18393">
        <ele>559.14</ele>
        <time>2013-02-12T11:02:42Z</time>
      </trkpt>
      <trkpt lat="43.02031" lon="1.18393">
        <ele>559.14</ele>
        <time>2013-02-12T11:02:51Z</time>
      </trkpt>
      <trkpt lat="43.02032" lon="1.18392">
        <ele>559.14</ele>
        <time>2013-02-12T11:02:54Z</time>
      </trkpt>
      <trkpt lat="43.02036" lon="1.18385">
        <ele>558.66</ele>
        <time>2013-02-12T11:03:02Z</time>
      </trkpt>
      <trkpt lat="43.02035" lon="1.18384">
        <ele>558.66</ele>
        <time>2013-02-12T11:03:14Z</time>
      </trkpt>
      <trkpt lat="43.02036" lon="1.18384">
        <ele>558.66</ele>
        <time>2013-02-12T11:03:22Z</time>
      </trkpt>
      <trkpt lat="43.02036" lon="1.18384">
        <ele>558.18</ele>
        <time>2013-02-12T11:03:33Z</time>
      </trkpt>
      <trkpt lat="43.02036" lon="1.18384">
        <ele>558.66</ele>
        <time>2013-02-12T11:03:41Z</time>
      </trkpt>
      <trkpt lat="43.02037" lon="1.18384">
        <ele>554.82</ele>
        <time>2013-02-12T11:03:46Z</time>
      </trkpt>
      <trkpt lat="43.02037" lon="1.18384">
        <ele>559.62</ele>
        <time>2013-02-12T11:03:47Z</time>
      </trkpt>
      <trkpt lat="43.02037" lon="1.18384">
        <ele>562.99</ele>
        <time>2013-02-12T11:03:48Z</time>
      </trkpt>
      <trkpt lat="43.02037" lon="1.18385">
        <ele>560.11</ele>
        <time>2013-02-12T11:03:49Z</time>
      </trkpt>
      <trkpt lat="43.02036" lon="1.18386">
        <ele>559.14</ele>
        <time>2013-02-12T11:03:58Z</time>
      </trkpt>
      <trkpt lat="43.02035" lon="1.18386">
        <ele>560.11</ele>
        <time>2013-02-12T11:04:17Z</time>
      </trkpt>
      <trkpt lat="43.02035" lon="1.18386">
        <ele>560.11</ele>
        <time>2013-02-12T11:04:23Z</time>
      </trkpt>
      <trkpt lat="43.02035" lon="1.18387">
        <ele>559.62</ele>
        <time>2013-02-12T11:04:36Z</time>
      </trkpt>
      <trkpt lat="43.02036" lon="1.18387">
        <ele>560.11</ele>
        <time>2013-02-12T11:04:53Z</time>
      </trkpt>
      <trkpt lat="43.02036" lon="1.18386">
        <ele>559.62</ele>
        <time>2013-02-12T11:05:03Z</time>
      </trkpt>
      <trkpt lat="43.02036" lon="1.18385">
        <ele>559.62</ele>
        <time>2013-02-12T11:05:14Z</time>
      </trkpt>
      <trkpt lat="43.02036" lon="1.18384">
        <ele>560.11</ele>
        <time>2013-02-12T11:05:28Z</time>
      </trkpt>
      <trkpt lat="43.02036" lon="1.18383">
        <ele>559.14</ele>
        <time>2013-02-12T11:05:41Z</time>
      </trkpt>
      <trkpt lat="43.02036" lon="1.18383">
        <ele>559.14</ele>
        <time>2013-02-12T11:05:50Z</time>
      </trkpt>
      <trkpt lat="43.02036" lon="1.18383">
        <ele>558.66</ele>
        <time>2013-02-12T11:05:57Z</time>
      </trkpt>
      <trkpt lat="43.02036" lon="1.18381">
        <ele>559.62</ele>
        <time>2013-02-12T11:06:04Z</time>
      </trkpt>
      <trkpt lat="43.0204" lon="1.18376">
        <ele>559.14</ele>
        <time>2013-02-12T11:06:11Z</time>
      </trkpt>
      <trkpt lat="43.02043" lon="1.18367">
        <ele>558.18</ele>
        <time>2013-02-12T11:06:18Z</time>
      </trkpt>
      <trkpt lat="43.02046" lon="1.18354">
        <ele>556.74</ele>
        <time>2013-02-12T11:06:27Z</time>
      </trkpt>
      <trkpt lat="43.02048" lon="1.18349">
        <ele>555.78</ele>
        <time>2013-02-12T11:06:32Z</time>
      </trkpt>
      <trkpt lat="43.02051" lon="1.1834">
        <ele>554.82</ele>
        <time>2013-02-12T11:06:40Z</time>
      </trkpt>
      <trkpt lat="43.02051" lon="1.18332">
        <ele>553.86</ele>
        <time>2013-02-12T11:06:45Z</time>
      </trkpt>
      <trkpt lat="43.02052" lon="1.18323">
        <ele>552.9</ele>
        <time>2013-02-12T11:06:51Z</time>
      </trkpt>
      <trkpt lat="43.02051" lon="1.18311">
        <ele>551.45</ele>
        <time>2013-02-12T11:07:00Z</time>
      </trkpt>
      <trkpt lat="43.02051" lon="1.18307">
        <ele>550.49</ele>
        <time>2013-02-12T11:07:04Z</time>
      </trkpt>
      <trkpt lat="43.0205" lon="1.18304">
        <ele>550.49</ele>
        <time>2013-02-12T11:07:06Z</time>
      </trkpt>
      <trkpt lat="43.02052" lon="1.18299">
        <ele>550.01</ele>
        <time>2013-02-12T11:07:10Z</time>
      </trkpt>
      <trkpt lat="43.02054" lon="1.1829">
        <ele>549.53</ele>
        <time>2013-02-12T11:07:17Z</time>
      </trkpt>
      <trkpt lat="43.02055" lon="1.18283">
        <ele>549.53</ele>
        <time>2013-02-12T11:07:21Z</time>
      </trkpt>
      <trkpt lat="43.0206" lon="1.18269">
        <ele>547.13</ele>
        <time>2013-02-12T11:07:29Z</time>
      </trkpt>
      <trkpt lat="43.02064" lon="1.18261">
        <ele>546.65</ele>
        <time>2013-02-12T11:07:37Z</time>
      </trkpt>
      <trkpt lat="43.02067" lon="1.18248">
        <ele>545.69</ele>
        <time>2013-02-12T11:07:45Z</time>
      </trkpt>
      <trkpt lat="43.02069" lon="1.18237">
        <ele>545.69</ele>
        <time>2013-02-12T11:07:53Z</time>
      </trkpt>
      <trkpt lat="43.0207" lon="1.18225">
        <ele>545.2</ele>
        <time>2013-02-12T11:08:02Z</time>
      </trkpt>
      <trkpt lat="43.02073" lon="1.18219">
        <ele>545.69</ele>
        <time>2013-02-12T11:08:09Z</time>
      </trkpt>
      <trkpt lat="43.02072" lon="1.18217">
        <ele>544.24</ele>
        <time>2013-02-12T11:08:18Z</time>
      </trkpt>
      <trkpt lat="43.02073" lon="1.18216">
        <ele>543.76</ele>
        <time>2013-02-12T11:08:23Z</time>
      </trkpt>
      <trkpt lat="43.02077" lon="1.18215">
        <ele>544.24</ele>
        <time>2013-02-12T11:08:28Z</time>
      </trkpt>
      <trkpt lat="43.02077" lon="1.18215">
        <ele>546.17</ele>
        <time>2013-02-12T11:08:32Z</time>
      </trkpt>
      <trkpt lat="43.02081" lon="1.18217">
        <ele>544.72</ele>
        <time>2013-02-12T11:08:40Z</time>
      </trkpt>
      <trkpt lat="43.02088" lon="1.18222">
        <ele>544.72</ele>
        <time>2013-02-12T11:08:48Z</time>
      </trkpt>
      <trkpt lat="43.02093" lon="1.18226">
        <ele>546.17</ele>
        <time>2013-02-12T11:08:55Z</time>
      </trkpt>
      <trkpt lat="43.02098" lon="1.18218">
        <ele>546.65</ele>
        <time>2013-02-12T11:09:02Z</time>
      </trkpt>
      <trkpt lat="43.021" lon="1.18216">
        <ele>546.17</ele>
        <time>2013-02-12T11:09:04Z</time>
      </trkpt>
      <trkpt lat="43.02103" lon="1.18207">
        <ele>546.17</ele>
        <time>2013-02-12T11:09:09Z</time>
      </trkpt>
      <trkpt lat="43.02105" lon="1.18203">
        <ele>547.61</ele>
        <time>2013-02-12T11:09:12Z</time>
      </trkpt>
      <trkpt lat="43.02106" lon="1.18199">
        <ele>546.65</ele>
        <time>2013-02-12T11:09:14Z</time>
      </trkpt>
      <trkpt lat="43.02107" lon="1.18196">
        <ele>547.13</ele>
        <time>2013-02-12T11:09:17Z</time>
      </trkpt>
      <trkpt lat="43.02112" lon="1.18189">
        <ele>547.61</ele>
        <time>2013-02-12T11:09:23Z</time>
      </trkpt>
      <trkpt lat="43.02114" lon="1.18177">
        <ele>548.09</ele>
        <time>2013-02-12T11:09:30Z</time>
      </trkpt>
      <trkpt lat="43.02116" lon="1.18169">
        <ele>547.61</ele>
        <time>2013-02-12T11:09:36Z</time>
      </trkpt>
      <trkpt lat="43.0212" lon="1.18157">
        <ele>548.09</ele>
        <time>2013-02-12T11:09:43Z</time>
      </trkpt>
      <trkpt lat="43.02122" lon="1.1815">
        <ele>548.09</ele>
        <time>2013-02-12T11:09:49Z</time>
      </trkpt>
      <trkpt lat="43.02123" lon="1.18141">
        <ele>548.09</ele>
        <time>2013-02-12T11:09:55Z</time>
      </trkpt>
      <trkpt lat="43.02123" lon="1.18139">
        <ele>547.61</ele>
        <time>2013-02-12T11:09:57Z</time>
      </trkpt>
      <trkpt lat="43.02125" lon="1.18132">
        <ele>547.13</ele>
        <time>2013-02-12T11:10:01Z</time>
      </trkpt>
      <trkpt lat="43.02129" lon="1.18119">
        <ele>547.13</ele>
        <time>2013-02-12T11:10:09Z</time>
      </trkpt>
      <trkpt lat="43.02133" lon="1.18106">
        <ele>547.13</ele>
        <time>2013-02-12T11:10:16Z</time>
      </trkpt>
      <trkpt lat="43.02134" lon="1.18102">
        <ele>547.61</ele>
        <time>2013-02-12T11:10:19Z</time>
      </trkpt>
      <trkpt lat="43.02139" lon="1.18086">
        <ele>546.65</ele>
        <time>2013-02-12T11:10:30Z</time>
      </trkpt>
      <trkpt lat="43.02141" lon="1.18074">
        <ele>547.61</ele>
        <time>2013-02-12T11:10:37Z</time>
      </trkpt>
      <trkpt lat="43.02144" lon="1.1806">
        <ele>547.13</ele>
        <time>2013-02-12T11:10:46Z</time>
      </trkpt>
      <trkpt lat="43.02145" lon="1.18059">
        <ele>548.09</ele>
        <time>2013-02-12T11:10:47Z</time>
      </trkpt>
      <trkpt lat="43.0215" lon="1.18056">
        <ele>547.61</ele>
        <time>2013-02-12T11:10:54Z</time>
      </trkpt>
      <trkpt lat="43.02157" lon="1.18059">
        <ele>549.05</ele>
        <time>2013-02-12T11:11:03Z</time>
      </trkpt>
      <trkpt lat="43.02165" lon="1.18053">
        <ele>550.49</ele>
        <time>2013-02-12T11:11:11Z</time>
      </trkpt>
      <trkpt lat="43.02168" lon="1.18051">
        <ele>550.97</ele>
        <time>2013-02-12T11:11:16Z</time>
      </trkpt>
      <trkpt lat="43.02175" lon="1.18045">
        <ele>551.45</ele>
        <time>2013-02-12T11:11:23Z</time>
      </trkpt>
      <trkpt lat="43.02183" lon="1.1804">
        <ele>551.93</ele>
        <time>2013-02-12T11:11:28Z</time>
      </trkpt>
      <trkpt lat="43.02192" lon="1.18034">
        <ele>552.41</ele>
        <time>2013-02-12T11:11:36Z</time>
      </trkpt>
      <trkpt lat="43.02193" lon="1.18031">
        <ele>552.41</ele>
        <time>2013-02-12T11:11:38Z</time>
      </trkpt>
      <trkpt lat="43.02196" lon="1.18027">
        <ele>553.38</ele>
        <time>2013-02-12T11:11:45Z</time>
      </trkpt>
      <trkpt lat="43.02198" lon="1.18023">
        <ele>552.9</ele>
        <time>2013-02-12T11:11:54Z</time>
      </trkpt>
      <trkpt lat="43.02202" lon="1.18018">
        <ele>552.41</ele>
        <time>2013-02-12T11:11:59Z</time>
      </trkpt>
      <trkpt lat="43.02204" lon="1.18009">
        <ele>553.38</ele>
        <time>2013-02-12T11:12:05Z</time>
      </trkpt>
      <trkpt lat="43.02213" lon="1.17996">
        <ele>553.86</ele>
        <time>2013-02-12T11:12:16Z</time>
      </trkpt>
      <trkpt lat="43.02215" lon="1.17995">
        <ele>554.34</ele>
        <time>2013-02-12T11:12:19Z</time>
      </trkpt>
      <trkpt lat="43.02224" lon="1.17985">
        <ele>554.34</ele>
        <time>2013-02-12T11:12:27Z</time>
      </trkpt>
      <trkpt lat="43.02228" lon="1.17976">
        <ele>554.82</ele>
        <time>2013-02-12T11:12:33Z</time>
      </trkpt>
      <trkpt lat="43.02233" lon="1.17968">
        <ele>555.3</ele>
        <time>2013-02-12T11:12:40Z</time>
      </trkpt>
      <trkpt lat="43.02238" lon="1.17958">
        <ele>556.26</ele>
        <time>2013-02-12T11:12:47Z</time>
      </trkpt>
      <trkpt lat="43.02241" lon="1.17948">
        <ele>557.22</ele>
        <time>2013-02-12T11:12:55Z</time>
      </trkpt>
      <trkpt lat="43.02243" lon="1.17944">
        <ele>557.22</ele>
        <time>2013-02-12T11:12:59Z</time>
      </trkpt>
      <trkpt lat="43.0225" lon="1.17936">
        <ele>558.18</ele>
        <time>2013-02-12T11:13:07Z</time>
      </trkpt>
      <trkpt lat="43.02258" lon="1.17927">
        <ele>557.7</ele>
        <time>2013-02-12T11:13:15Z</time>
      </trkpt>
      <trkpt lat="43.02258" lon="1.17926">
        <ele>558.66</ele>
        <time>2013-02-12T11:13:16Z</time>
      </trkpt>
      <trkpt lat="43.02262" lon="1.17915">
        <ele>559.14</ele>
        <time>2013-02-12T11:13:23Z</time>
      </trkpt>
      <trkpt lat="43.02264" lon="1.17914">
        <ele>558.66</ele>
        <time>2013-02-12T11:13:25Z</time>
      </trkpt>
      <trkpt lat="43.0227" lon="1.17906">
        <ele>560.11</ele>
        <time>2013-02-12T11:13:32Z</time>
      </trkpt>
      <trkpt lat="43.0228" lon="1.17896">
        <ele>561.55</ele>
        <time>2013-02-12T11:13:42Z</time>
      </trkpt>
      <trkpt lat="43.02288" lon="1.17888">
        <ele>561.55</ele>
        <time>2013-02-12T11:13:50Z</time>
      </trkpt>
      <trkpt lat="43.02289" lon="1.17885">
        <ele>562.03</ele>
        <time>2013-02-12T11:13:57Z</time>
      </trkpt>
      <trkpt lat="43.02292" lon="1.17881">
        <ele>561.55</ele>
        <time>2013-02-12T11:14:00Z</time>
      </trkpt>
      <trkpt lat="43.02298" lon="1.17875">
        <ele>561.55</ele>
        <time>2013-02-12T11:14:07Z</time>
      </trkpt>
      <trkpt lat="43.02305" lon="1.17864">
        <ele>561.07</ele>
        <time>2013-02-12T11:14:16Z</time>
      </trkpt>
      <trkpt lat="43.02307" lon="1.1786">
        <ele>560.59</ele>
        <time>2013-02-12T11:14:19Z</time>
      </trkpt>
      <trkpt lat="43.02312" lon="1.17846">
        <ele>560.59</ele>
        <time>2013-02-12T11:14:28Z</time>
      </trkpt>
      <trkpt lat="43.02313" lon="1.17843">
        <ele>560.11</ele>
        <time>2013-02-12T11:14:30Z</time>
      </trkpt>
      <trkpt lat="43.02316" lon="1.17829">
        <ele>560.11</ele>
        <time>2013-02-12T11:14:39Z</time>
      </trkpt>
      <trkpt lat="43.02316" lon="1.17826">
        <ele>560.11</ele>
        <time>2013-02-12T11:14:45Z</time>
      </trkpt>
      <trkpt lat="43.02317" lon="1.17821">
        <ele>559.62</ele>
        <time>2013-02-12T11:14:48Z</time>
      </trkpt>
      <trkpt lat="43.02314" lon="1.17805">
        <ele>558.18</ele>
        <time>2013-02-12T11:14:58Z</time>
      </trkpt>
      <trkpt lat="43.02314" lon="1.17804">
        <ele>558.18</ele>
        <time>2013-02-12T11:14:59Z</time>
      </trkpt>
      <trkpt lat="43.0231" lon="1.17799">
        <ele>557.7</ele>
        <time>2013-02-12T11:15:05Z</time>
      </trkpt>
      <trkpt lat="43.02307" lon="1.17799">
        <ele>557.22</ele>
        <time>2013-02-12T11:15:08Z</time>
      </trkpt>
      <trkpt lat="43.02304" lon="1.17801">
        <ele>557.22</ele>
        <time>2013-02-12T11:15:15Z</time>
      </trkpt>
      <trkpt lat="43.02302" lon="1.17801">
        <ele>557.7</ele>
        <time>2013-02-12T11:15:23Z</time>
      </trkpt>
      <trkpt lat="43.02296" lon="1.17798">
        <ele>556.74</ele>
        <time>2013-02-12T11:15:29Z</time>
      </trkpt>
      <trkpt lat="43.02275" lon="1.1778">
        <ele>554.34</ele>
        <time>2013-02-12T11:18:54Z</time>
      </trkpt>
      <trkpt lat="43.02267" lon="1.17776">
        <ele>554.82</ele>
        <time>2013-02-12T11:19:02Z</time>
      </trkpt>
      <trkpt lat="43.02262" lon="1.17774">
        <ele>554.34</ele>
        <time>2013-02-12T11:19:09Z</time>
      </trkpt>
      <trkpt lat="43.02262" lon="1.17773">
        <ele>553.86</ele>
        <time>2013-02-12T11:19:16Z</time>
      </trkpt>
      <trkpt lat="43.02262" lon="1.17773">
        <ele>553.86</ele>
        <time>2013-02-12T11:19:24Z</time>
      </trkpt>
      <trkpt lat="43.02261" lon="1.17773">
        <ele>555.3</ele>
        <time>2013-02-12T11:19:35Z</time>
      </trkpt>
      <trkpt lat="43.02262" lon="1.17771">
        <ele>555.3</ele>
        <time>2013-02-12T11:19:45Z</time>
      </trkpt>
      <trkpt lat="43.02261" lon="1.1777">
        <ele>555.3</ele>
        <time>2013-02-12T11:19:51Z</time>
      </trkpt>
      <trkpt lat="43.02259" lon="1.1777">
        <ele>555.3</ele>
        <time>2013-02-12T11:19:58Z</time>
      </trkpt>
      <trkpt lat="43.02258" lon="1.17771">
        <ele>554.82</ele>
        <time>2013-02-12T11:20:03Z</time>
      </trkpt>
      <trkpt lat="43.02257" lon="1.17772">
        <ele>553.38</ele>
        <time>2013-02-12T11:20:10Z</time>
      </trkpt>
      <trkpt lat="43.02256" lon="1.17773">
        <ele>553.86</ele>
        <time>2013-02-12T11:20:18Z</time>
      </trkpt>
      <trkpt lat="43.02253" lon="1.17774">
        <ele>552.9</ele>
        <time>2013-02-12T11:20:28Z</time>
      </trkpt>
      <trkpt lat="43.02245" lon="1.17776">
        <ele>553.86</ele>
        <time>2013-02-12T11:20:36Z</time>
      </trkpt>
      <trkpt lat="43.02241" lon="1.17775">
        <ele>553.38</ele>
        <time>2013-02-12T11:20:44Z</time>
      </trkpt>
      <trkpt lat="43.02238" lon="1.17776">
        <ele>553.38</ele>
        <time>2013-02-12T11:20:53Z</time>
      </trkpt>
      <trkpt lat="43.02236" lon="1.17777">
        <ele>554.34</ele>
        <time>2013-02-12T11:20:59Z</time>
      </trkpt>
      <trkpt lat="43.02232" lon="1.17781">
        <ele>555.3</ele>
        <time>2013-02-12T11:21:07Z</time>
      </trkpt>
      <trkpt lat="43.0223" lon="1.17783">
        <ele>556.26</ele>
        <time>2013-02-12T11:21:10Z</time>
      </trkpt>
      <trkpt lat="43.02223" lon="1.17794">
        <ele>556.74</ele>
        <time>2013-02-12T11:21:19Z</time>
      </trkpt>
      <trkpt lat="43.02208" lon="1.17813">
        <ele>564.91</ele>
        <time>2013-02-12T12:14:32Z</time>
      </trkpt>
      <trkpt lat="43.02209" lon="1.17812">
        <ele>565.39</ele>
        <time>2013-02-12T12:14:39Z</time>
      </trkpt>
      <trkpt lat="43.02207" lon="1.17811">
        <ele>565.39</ele>
        <time>2013-02-12T12:14:47Z</time>
      </trkpt>
      <trkpt lat="43.02203" lon="1.17807">
        <ele>566.83</ele>
        <time>2013-02-12T12:14:53Z</time>
      </trkpt>
      <trkpt lat="43.02197" lon="1.17802">
        <ele>566.83</ele>
        <time>2013-02-12T12:15:00Z</time>
      </trkpt>
      <trkpt lat="43.0219" lon="1.17802">
        <ele>568.28</ele>
        <time>2013-02-12T12:15:08Z</time>
      </trkpt>
      <trkpt lat="43.02187" lon="1.17805">
        <ele>569.24</ele>
        <time>2013-02-12T12:15:16Z</time>
      </trkpt>
      <trkpt lat="43.02187" lon="1.17805">
        <ele>569.24</ele>
        <time>2013-02-12T12:15:17Z</time>
      </trkpt>
      <trkpt lat="43.02181" lon="1.17804">
        <ele>569.72</ele>
        <time>2013-02-12T12:15:24Z</time>
      </trkpt>
      <trkpt lat="43.02177" lon="1.17803">
        <ele>570.68</ele>
        <time>2013-02-12T12:15:31Z</time>
      </trkpt>
      <trkpt lat="43.02172" lon="1.17802">
        <ele>571.16</ele>
        <time>2013-02-12T12:15:38Z</time>
      </trkpt>
      <trkpt lat="43.02168" lon="1.17801">
        <ele>572.12</ele>
        <time>2013-02-12T12:15:44Z</time>
      </trkpt>
      <trkpt lat="43.02165" lon="1.178">
        <ele>573.08</ele>
        <time>2013-02-12T12:15:51Z</time>
      </trkpt>
      <trkpt lat="43.02162" lon="1.17799">
        <ele>574.04</ele>
        <time>2013-02-12T12:15:58Z</time>
      </trkpt>
      <trkpt lat="43.02156" lon="1.178">
        <ele>575.01</ele>
        <time>2013-02-12T12:16:05Z</time>
      </trkpt>
      <trkpt lat="43.0215" lon="1.17799">
        <ele>575.49</ele>
        <time>2013-02-12T12:16:13Z</time>
      </trkpt>
      <trkpt lat="43.02143" lon="1.17799">
        <ele>577.89</ele>
        <time>2013-02-12T12:16:23Z</time>
      </trkpt>
      <trkpt lat="43.02139" lon="1.17799">
        <ele>577.89</ele>
        <time>2013-02-12T12:16:30Z</time>
      </trkpt>
      <trkpt lat="43.02137" lon="1.17798">
        <ele>577.41</ele>
        <time>2013-02-12T12:16:37Z</time>
      </trkpt>
      <trkpt lat="43.02134" lon="1.17798">
        <ele>577.41</ele>
        <time>2013-02-12T12:16:46Z</time>
      </trkpt>
      <trkpt lat="43.02128" lon="1.17798">
        <ele>578.37</ele>
        <time>2013-02-12T12:16:53Z</time>
      </trkpt>
      <trkpt lat="43.02122" lon="1.17797">
        <ele>579.33</ele>
        <time>2013-02-12T12:17:02Z</time>
      </trkpt>
      <trkpt lat="43.02118" lon="1.17797">
        <ele>580.77</ele>
        <time>2013-02-12T12:17:09Z</time>
      </trkpt>
      <trkpt lat="43.02112" lon="1.17791">
        <ele>583.18</ele>
        <time>2013-02-12T12:17:16Z</time>
      </trkpt>
      <trkpt lat="43.02109" lon="1.17786">
        <ele>584.14</ele>
        <time>2013-02-12T12:17:23Z</time>
      </trkpt>
      <trkpt lat="43.02103" lon="1.17782">
        <ele>585.1</ele>
        <time>2013-02-12T12:17:30Z</time>
      </trkpt>
      <trkpt lat="43.02098" lon="1.17776">
        <ele>586.54</ele>
        <time>2013-02-12T12:17:37Z</time>
      </trkpt>
      <trkpt lat="43.02094" lon="1.17772">
        <ele>587.98</ele>
        <time>2013-02-12T12:17:42Z</time>
      </trkpt>
      <trkpt lat="43.0209" lon="1.17769">
        <ele>588.95</ele>
        <time>2013-02-12T12:17:48Z</time>
      </trkpt>
      <trkpt lat="43.02086" lon="1.1777">
        <ele>588.46</ele>
        <time>2013-02-12T12:17:54Z</time>
      </trkpt>
      <trkpt lat="43.0208" lon="1.17773">
        <ele>587.98</ele>
        <time>2013-02-12T12:18:00Z</time>
      </trkpt>
      <trkpt lat="43.02078" lon="1.17775">
        <ele>588.46</ele>
        <time>2013-02-12T12:18:03Z</time>
      </trkpt>
      <trkpt lat="43.02075" lon="1.17784">
        <ele>586.54</ele>
        <time>2013-02-12T12:18:10Z</time>
      </trkpt>
      <trkpt lat="43.02068" lon="1.17789">
        <ele>585.58</ele>
        <time>2013-02-12T12:18:16Z</time>
      </trkpt>
      <trkpt lat="43.02059" lon="1.17794">
        <ele>585.1</ele>
        <time>2013-02-12T12:18:25Z</time>
      </trkpt>
      <trkpt lat="43.02054" lon="1.17794">
        <ele>584.62</ele>
        <time>2013-02-12T12:18:30Z</time>
      </trkpt>
      <trkpt lat="43.02047" lon="1.17795">
        <ele>584.62</ele>
        <time>2013-02-12T12:18:37Z</time>
      </trkpt>
      <trkpt lat="43.02042" lon="1.17793">
        <ele>584.62</ele>
        <time>2013-02-12T12:18:43Z</time>
      </trkpt>
      <trkpt lat="43.02035" lon="1.17789">
        <ele>585.1</ele>
        <time>2013-02-12T12:18:50Z</time>
      </trkpt>
      <trkpt lat="43.02031" lon="1.17781">
        <ele>584.62</ele>
        <time>2013-02-12T12:18:57Z</time>
      </trkpt>
      <trkpt lat="43.02026" lon="1.17773">
        <ele>584.14</ele>
        <time>2013-02-12T12:19:04Z</time>
      </trkpt>
      <trkpt lat="43.02023" lon="1.17766">
        <ele>584.14</ele>
        <time>2013-02-12T12:19:09Z</time>
      </trkpt>
      <trkpt lat="43.0202" lon="1.17752">
        <ele>583.18</ele>
        <time>2013-02-12T12:19:18Z</time>
      </trkpt>
      <trkpt lat="43.0202" lon="1.17741">
        <ele>581.73</ele>
        <time>2013-02-12T12:19:26Z</time>
      </trkpt>
      <trkpt lat="43.0202" lon="1.17739">
        <ele>581.73</ele>
        <time>2013-02-12T12:19:27Z</time>
      </trkpt>
      <trkpt lat="43.02019" lon="1.17733">
        <ele>582.7</ele>
        <time>2013-02-12T12:19:34Z</time>
      </trkpt>
      <trkpt lat="43.02018" lon="1.17725">
        <ele>583.18</ele>
        <time>2013-02-12T12:19:42Z</time>
      </trkpt>
      <trkpt lat="43.02018" lon="1.17724">
        <ele>582.7</ele>
        <time>2013-02-12T12:19:43Z</time>
      </trkpt>
      <trkpt lat="43.02015" lon="1.17713">
        <ele>583.18</ele>
        <time>2013-02-12T12:19:51Z</time>
      </trkpt>
      <trkpt lat="43.02009" lon="1.17702">
        <ele>584.62</ele>
        <time>2013-02-12T12:19:59Z</time>
      </trkpt>
      <trkpt lat="43.02002" lon="1.17696">
        <ele>584.14</ele>
        <time>2013-02-12T12:20:07Z</time>
      </trkpt>
      <trkpt lat="43.01994" lon="1.17689">
        <ele>584.14</ele>
        <time>2013-02-12T12:20:14Z</time>
      </trkpt>
      <trkpt lat="43.01992" lon="1.17681">
        <ele>582.7</ele>
        <time>2013-02-12T12:20:22Z</time>
      </trkpt>
      <trkpt lat="43.01991" lon="1.17673">
        <ele>582.22</ele>
        <time>2013-02-12T12:20:30Z</time>
      </trkpt>
      <trkpt lat="43.01988" lon="1.17667">
        <ele>581.73</ele>
        <time>2013-02-12T12:20:36Z</time>
      </trkpt>
      <trkpt lat="43.01983" lon="1.1766">
        <ele>580.77</ele>
        <time>2013-02-12T12:20:44Z</time>
      </trkpt>
      <trkpt lat="43.01982" lon="1.17659">
        <ele>580.29</ele>
        <time>2013-02-12T12:20:45Z</time>
      </trkpt>
      <trkpt lat="43.01974" lon="1.1765">
        <ele>579.81</ele>
        <time>2013-02-12T12:20:53Z</time>
      </trkpt>
      <trkpt lat="43.01971" lon="1.17646">
        <ele>577.89</ele>
        <time>2013-02-12T12:21:00Z</time>
      </trkpt>
      <trkpt lat="43.01966" lon="1.17643">
        <ele>576.45</ele>
        <time>2013-02-12T12:21:06Z</time>
      </trkpt>
      <trkpt lat="43.01958" lon="1.17644">
        <ele>574.53</ele>
        <time>2013-02-12T12:21:14Z</time>
      </trkpt>
      <trkpt lat="43.01952" lon="1.17646">
        <ele>572.6</ele>
        <time>2013-02-12T12:21:21Z</time>
      </trkpt>
      <trkpt lat="43.01945" lon="1.17651">
        <ele>571.16</ele>
        <time>2013-02-12T12:21:28Z</time>
      </trkpt>
      <trkpt lat="43.01937" lon="1.17657">
        <ele>569.72</ele>
        <time>2013-02-12T12:21:36Z</time>
      </trkpt>
      <trkpt lat="43.01937" lon="1.17658">
        <ele>569.24</ele>
        <time>2013-02-12T12:21:37Z</time>
      </trkpt>
      <trkpt lat="43.01931" lon="1.17661">
        <ele>567.8</ele>
        <time>2013-02-12T12:21:45Z</time>
      </trkpt>
      <trkpt lat="43.01927" lon="1.17661">
        <ele>565.87</ele>
        <time>2013-02-12T12:21:50Z</time>
      </trkpt>
      <trkpt lat="43.01918" lon="1.17664">
        <ele>564.91</ele>
        <time>2013-02-12T12:21:58Z</time>
      </trkpt>
      <trkpt lat="43.01912" lon="1.17666">
        <ele>562.51</ele>
        <time>2013-02-12T12:22:05Z</time>
      </trkpt>
      <trkpt lat="43.0191" lon="1.17667">
        <ele>562.03</ele>
        <time>2013-02-12T12:22:07Z</time>
      </trkpt>
      <trkpt lat="43.01902" lon="1.17669">
        <ele>560.11</ele>
        <time>2013-02-12T12:22:15Z</time>
      </trkpt>
      <trkpt lat="43.01896" lon="1.17669">
        <ele>557.7</ele>
        <time>2013-02-12T12:22:21Z</time>
      </trkpt>
      <trkpt lat="43.01889" lon="1.17669">
        <ele>556.74</ele>
        <time>2013-02-12T12:22:28Z</time>
      </trkpt>
      <trkpt lat="43.01888" lon="1.17669">
        <ele>556.74</ele>
        <time>2013-02-12T12:22:29Z</time>
      </trkpt>
      <trkpt lat="43.01878" lon="1.17669">
        <ele>554.34</ele>
        <time>2013-02-12T12:22:38Z</time>
      </trkpt>
      <trkpt lat="43.01869" lon="1.17672">
        <ele>552.9</ele>
        <time>2013-02-12T12:22:46Z</time>
      </trkpt>
      <trkpt lat="43.01862" lon="1.17674">
        <ele>551.93</ele>
        <time>2013-02-12T12:22:54Z</time>
      </trkpt>
      <trkpt lat="43.01854" lon="1.17675">
        <ele>550.01</ele>
        <time>2013-02-12T12:23:01Z</time>
      </trkpt>
      <trkpt lat="43.01848" lon="1.17675">
        <ele>548.57</ele>
        <time>2013-02-12T12:23:07Z</time>
      </trkpt>
      <trkpt lat="43.01842" lon="1.17673">
        <ele>546.65</ele>
        <time>2013-02-12T12:23:14Z</time>
      </trkpt>
      <trkpt lat="43.01841" lon="1.17673">
        <ele>547.13</ele>
        <time>2013-02-12T12:23:15Z</time>
      </trkpt>
      <trkpt lat="43.01835" lon="1.17672">
        <ele>545.69</ele>
        <time>2013-02-12T12:23:21Z</time>
      </trkpt>
      <trkpt lat="43.01827" lon="1.17667">
        <ele>544.24</ele>
        <time>2013-02-12T12:23:29Z</time>
      </trkpt>
      <trkpt lat="43.01817" lon="1.17668">
        <ele>541.84</ele>
        <time>2013-02-12T12:23:38Z</time>
      </trkpt>
      <trkpt lat="43.01807" lon="1.17672">
        <ele>539.92</ele>
        <time>2013-02-12T12:23:47Z</time>
      </trkpt>
      <trkpt lat="43.01798" lon="1.17675">
        <ele>537.99</ele>
        <time>2013-02-12T12:23:56Z</time>
      </trkpt>
      <trkpt lat="43.01795" lon="1.17678">
        <ele>538.48</ele>
        <time>2013-02-12T12:24:03Z</time>
      </trkpt>
      <trkpt lat="43.01791" lon="1.17683">
        <ele>537.51</ele>
        <time>2013-02-12T12:24:08Z</time>
      </trkpt>
      <trkpt lat="43.01785" lon="1.17691">
        <ele>536.55</ele>
        <time>2013-02-12T12:24:15Z</time>
      </trkpt>
      <trkpt lat="43.01785" lon="1.17693">
        <ele>536.55</ele>
        <time>2013-02-12T12:24:16Z</time>
      </trkpt>
      <trkpt lat="43.01779" lon="1.17697">
        <ele>535.59</ele>
        <time>2013-02-12T12:24:22Z</time>
      </trkpt>
      <trkpt lat="43.01777" lon="1.17697">
        <ele>535.59</ele>
        <time>2013-02-12T12:24:25Z</time>
      </trkpt>
      <trkpt lat="43.01776" lon="1.17698">
        <ele>534.63</ele>
        <time>2013-02-12T12:24:27Z</time>
      </trkpt>
      <trkpt lat="43.01771" lon="1.17704">
        <ele>534.15</ele>
        <time>2013-02-12T12:24:34Z</time>
      </trkpt>
      <trkpt lat="43.0177" lon="1.17704">
        <ele>534.15</ele>
        <time>2013-02-12T12:24:35Z</time>
      </trkpt>
      <trkpt lat="43.01764" lon="1.17708">
        <ele>533.19</ele>
        <time>2013-02-12T12:24:42Z</time>
      </trkpt>
      <trkpt lat="43.01759" lon="1.17709">
        <ele>532.23</ele>
        <time>2013-02-12T12:24:49Z</time>
      </trkpt>
      <trkpt lat="43.01754" lon="1.17709">
        <ele>531.27</ele>
        <time>2013-02-12T12:24:54Z</time>
      </trkpt>
      <trkpt lat="43.0175" lon="1.17708">
        <ele>530.3</ele>
        <time>2013-02-12T12:24:58Z</time>
      </trkpt>
      <trkpt lat="43.01741" lon="1.17706">
        <ele>528.86</ele>
        <time>2013-02-12T12:25:08Z</time>
      </trkpt>
      <trkpt lat="43.01734" lon="1.17702">
        <ele>527.9</ele>
        <time>2013-02-12T12:25:18Z</time>
      </trkpt>
      <trkpt lat="43.01733" lon="1.17701">
        <ele>526.46</ele>
        <time>2013-02-12T12:25:21Z</time>
      </trkpt>
      <trkpt lat="43.0173" lon="1.177">
        <ele>525.5</ele>
        <time>2013-02-12T12:25:28Z</time>
      </trkpt>
      <trkpt lat="43.01728" lon="1.17699">
        <ele>525.02</ele>
        <time>2013-02-12T12:25:35Z</time>
      </trkpt>
      <trkpt lat="43.01726" lon="1.17699">
        <ele>524.06</ele>
        <time>2013-02-12T12:25:41Z</time>
      </trkpt>
      <trkpt lat="43.01726" lon="1.17699">
        <ele>525.5</ele>
        <time>2013-02-12T12:25:53Z</time>
      </trkpt>
      <trkpt lat="43.01726" lon="1.17699">
        <ele>524.54</ele>
        <time>2013-02-12T12:26:02Z</time>
      </trkpt>
      <trkpt lat="43.01727" lon="1.177">
        <ele>523.58</ele>
        <time>2013-02-12T12:26:16Z</time>
      </trkpt>
      <trkpt lat="43.0172" lon="1.17701">
        <ele>523.58</ele>
        <time>2013-02-12T12:26:23Z</time>
      </trkpt>
      <trkpt lat="43.01719" lon="1.17701">
        <ele>524.06</ele>
        <time>2013-02-12T12:26:24Z</time>
      </trkpt>
      <trkpt lat="43.01711" lon="1.17702">
        <ele>522.13</ele>
        <time>2013-02-12T12:26:32Z</time>
      </trkpt>
      <trkpt lat="43.01708" lon="1.17702">
        <ele>521.17</ele>
        <time>2013-02-12T12:26:35Z</time>
      </trkpt>
      <trkpt lat="43.01706" lon="1.17705">
        <ele>520.21</ele>
        <time>2013-02-12T12:26:37Z</time>
      </trkpt>
      <trkpt lat="43.01701" lon="1.17718">
        <ele>519.73</ele>
        <time>2013-02-12T12:26:46Z</time>
      </trkpt>
      <trkpt lat="43.01696" lon="1.17729">
        <ele>519.25</ele>
        <time>2013-02-12T12:26:53Z</time>
      </trkpt>
      <trkpt lat="43.01688" lon="1.17737">
        <ele>517.33</ele>
        <time>2013-02-12T12:27:01Z</time>
      </trkpt>
      <trkpt lat="43.01687" lon="1.17738">
        <ele>517.33</ele>
        <time>2013-02-12T12:27:02Z</time>
      </trkpt>
      <trkpt lat="43.01684" lon="1.17745">
        <ele>516.37</ele>
        <time>2013-02-12T12:27:08Z</time>
      </trkpt>
      <trkpt lat="43.0168" lon="1.1775">
        <ele>514.92</ele>
        <time>2013-02-12T12:27:15Z</time>
      </trkpt>
      <trkpt lat="43.01675" lon="1.17756">
        <ele>513</ele>
        <time>2013-02-12T12:27:22Z</time>
      </trkpt>
      <trkpt lat="43.01669" lon="1.17762">
        <ele>511.08</ele>
        <time>2013-02-12T12:27:30Z</time>
      </trkpt>
      <trkpt lat="43.01666" lon="1.17766">
        <ele>510.12</ele>
        <time>2013-02-12T12:27:37Z</time>
      </trkpt>
      <trkpt lat="43.0166" lon="1.17768">
        <ele>508.19</ele>
        <time>2013-02-12T12:27:44Z</time>
      </trkpt>
      <trkpt lat="43.01658" lon="1.17771">
        <ele>506.75</ele>
        <time>2013-02-12T12:27:47Z</time>
      </trkpt>
      <trkpt lat="43.01654" lon="1.17779">
        <ele>503.87</ele>
        <time>2013-02-12T12:27:54Z</time>
      </trkpt>
      <trkpt lat="43.01652" lon="1.1778">
        <ele>503.87</ele>
        <time>2013-02-12T12:27:56Z</time>
      </trkpt>
      <trkpt lat="43.01647" lon="1.17786">
        <ele>502.43</ele>
        <time>2013-02-12T12:28:01Z</time>
      </trkpt>
      <trkpt lat="43.0164" lon="1.17793">
        <ele>500.5</ele>
        <time>2013-02-12T12:28:10Z</time>
      </trkpt>
      <trkpt lat="43.01634" lon="1.17797">
        <ele>498.1</ele>
        <time>2013-02-12T12:28:17Z</time>
      </trkpt>
      <trkpt lat="43.01631" lon="1.178">
        <ele>496.66</ele>
        <time>2013-02-12T12:28:21Z</time>
      </trkpt>
      <trkpt lat="43.01626" lon="1.17806">
        <ele>494.74</ele>
        <time>2013-02-12T12:28:28Z</time>
      </trkpt>
      <trkpt lat="43.01624" lon="1.1781">
        <ele>494.26</ele>
        <time>2013-02-12T12:28:35Z</time>
      </trkpt>
      <trkpt lat="43.01623" lon="1.1781">
        <ele>493.77</ele>
        <time>2013-02-12T12:28:36Z</time>
      </trkpt>
      <trkpt lat="43.01621" lon="1.17814">
        <ele>491.85</ele>
        <time>2013-02-12T12:28:41Z</time>
      </trkpt>
      <trkpt lat="43.01619" lon="1.17815">
        <ele>490.89</ele>
        <time>2013-02-12T12:28:50Z</time>
      </trkpt>
      <trkpt lat="43.01614" lon="1.1782">
        <ele>488.97</ele>
        <time>2013-02-12T12:28:55Z</time>
      </trkpt>
      <trkpt lat="43.01608" lon="1.17831">
        <ele>488.01</ele>
        <time>2013-02-12T12:29:03Z</time>
      </trkpt>
      <trkpt lat="43.01602" lon="1.1784">
        <ele>485.6</ele>
        <time>2013-02-12T12:29:11Z</time>
      </trkpt>
      <trkpt lat="43.01595" lon="1.17849">
        <ele>486.08</ele>
        <time>2013-02-12T12:29:20Z</time>
      </trkpt>
      <trkpt lat="43.0159" lon="1.17852">
        <ele>485.6</ele>
        <time>2013-02-12T12:29:28Z</time>
      </trkpt>
      <trkpt lat="43.01586" lon="1.17857">
        <ele>484.16</ele>
        <time>2013-02-12T12:29:36Z</time>
      </trkpt>
      <trkpt lat="43.01585" lon="1.17856">
        <ele>483.68</ele>
        <time>2013-02-12T12:29:37Z</time>
      </trkpt>
      <trkpt lat="43.01578" lon="1.17849">
        <ele>481.76</ele>
        <time>2013-02-12T12:29:46Z</time>
      </trkpt>
      <trkpt lat="43.01572" lon="1.17841">
        <ele>480.8</ele>
        <time>2013-02-12T12:29:54Z</time>
      </trkpt>
      <trkpt lat="43.01571" lon="1.1784">
        <ele>480.8</ele>
        <time>2013-02-12T12:29:56Z</time>
      </trkpt>
      <trkpt lat="43.01568" lon="1.17832">
        <ele>479.35</ele>
        <time>2013-02-12T12:30:04Z</time>
      </trkpt>
      <trkpt lat="43.01566" lon="1.17829">
        <ele>478.39</ele>
        <time>2013-02-12T12:30:12Z</time>
      </trkpt>
      <trkpt lat="43.01565" lon="1.17828">
        <ele>477.91</ele>
        <time>2013-02-12T12:30:19Z</time>
      </trkpt>
      <trkpt lat="43.01562" lon="1.17828">
        <ele>476.95</ele>
        <time>2013-02-12T12:30:24Z</time>
      </trkpt>
      <trkpt lat="43.01553" lon="1.17829">
        <ele>474.07</ele>
        <time>2013-02-12T12:30:30Z</time>
      </trkpt>
      <trkpt lat="43.01548" lon="1.17835">
        <ele>473.11</ele>
        <time>2013-02-12T12:30:38Z</time>
      </trkpt>
      <trkpt lat="43.01547" lon="1.17837">
        <ele>473.11</ele>
        <time>2013-02-12T12:30:44Z</time>
      </trkpt>
      <trkpt lat="43.01547" lon="1.17834">
        <ele>473.11</ele>
        <time>2013-02-12T12:30:53Z</time>
      </trkpt>
      <trkpt lat="43.01546" lon="1.17835">
        <ele>473.59</ele>
        <time>2013-02-12T12:31:05Z</time>
      </trkpt>
      <trkpt lat="43.01546" lon="1.17834">
        <ele>472.63</ele>
        <time>2013-02-12T12:31:19Z</time>
      </trkpt>
      <trkpt lat="43.01546" lon="1.17835">
        <ele>472.14</ele>
        <time>2013-02-12T12:31:23Z</time>
      </trkpt>
      <trkpt lat="43.01546" lon="1.17834">
        <ele>473.11</ele>
        <time>2013-02-12T12:31:38Z</time>
      </trkpt>
      <trkpt lat="43.01546" lon="1.17833">
        <ele>474.07</ele>
        <time>2013-02-12T12:31:44Z</time>
      </trkpt>
      <trkpt lat="43.01545" lon="1.17833">
        <ele>474.55</ele>
        <time>2013-02-12T12:31:55Z</time>
      </trkpt>
      <trkpt lat="43.01545" lon="1.17833">
        <ele>474.07</ele>
        <time>2013-02-12T12:31:58Z</time>
      </trkpt>
      <trkpt lat="43.01543" lon="1.17831">
        <ele>473.59</ele>
        <time>2013-02-12T12:32:02Z</time>
      </trkpt>
      <trkpt lat="43.01536" lon="1.17827">
        <ele>473.11</ele>
        <time>2013-02-12T12:32:10Z</time>
      </trkpt>
      <trkpt lat="43.01528" lon="1.17827">
        <ele>472.63</ele>
        <time>2013-02-12T12:32:19Z</time>
      </trkpt>
      <trkpt lat="43.01526" lon="1.17828">
        <ele>473.59</ele>
        <time>2013-02-12T12:32:26Z</time>
      </trkpt>
      <trkpt lat="43.01523" lon="1.17834">
        <ele>473.59</ele>
        <time>2013-02-12T12:32:32Z</time>
      </trkpt>
      <trkpt lat="43.01521" lon="1.17837">
        <ele>473.59</ele>
        <time>2013-02-12T12:32:40Z</time>
      </trkpt>
      <trkpt lat="43.01515" lon="1.17843">
        <ele>474.55</ele>
        <time>2013-02-12T12:32:47Z</time>
      </trkpt>
      <trkpt lat="43.01511" lon="1.1785">
        <ele>475.51</ele>
        <time>2013-02-12T12:32:54Z</time>
      </trkpt>
      <trkpt lat="43.0151" lon="1.17851">
        <ele>475.51</ele>
        <time>2013-02-12T12:32:56Z</time>
      </trkpt>
      <trkpt lat="43.01502" lon="1.17858">
        <ele>476.47</ele>
        <time>2013-02-12T12:33:02Z</time>
      </trkpt>
      <trkpt lat="43.01492" lon="1.1787">
        <ele>477.91</ele>
        <time>2013-02-12T12:33:12Z</time>
      </trkpt>
      <trkpt lat="43.0149" lon="1.17872">
        <ele>478.39</ele>
        <time>2013-02-12T12:33:14Z</time>
      </trkpt>
      <trkpt lat="43.01489" lon="1.17874">
        <ele>478.39</ele>
        <time>2013-02-12T12:33:16Z</time>
      </trkpt>
      <trkpt lat="43.01482" lon="1.17882">
        <ele>479.35</ele>
        <time>2013-02-12T12:33:24Z</time>
      </trkpt>
      <trkpt lat="43.01479" lon="1.17887">
        <ele>479.35</ele>
        <time>2013-02-12T12:33:28Z</time>
      </trkpt>
      <trkpt lat="43.01475" lon="1.17892">
        <ele>480.32</ele>
        <time>2013-02-12T12:33:33Z</time>
      </trkpt>
      <trkpt lat="43.01466" lon="1.17905">
        <ele>480.32</ele>
        <time>2013-02-12T12:33:45Z</time>
      </trkpt>
      <trkpt lat="43.01462" lon="1.17908">
        <ele>479.84</ele>
        <time>2013-02-12T12:33:49Z</time>
      </trkpt>
      <trkpt lat="43.01456" lon="1.17909">
        <ele>479.35</ele>
        <time>2013-02-12T12:33:57Z</time>
      </trkpt>
      <trkpt lat="43.01455" lon="1.17909">
        <ele>478.87</ele>
        <time>2013-02-12T12:33:58Z</time>
      </trkpt>
      <trkpt lat="43.01447" lon="1.1792">
        <ele>478.39</ele>
        <time>2013-02-12T12:34:07Z</time>
      </trkpt>
      <trkpt lat="43.01444" lon="1.17924">
        <ele>477.91</ele>
        <time>2013-02-12T12:34:11Z</time>
      </trkpt>
      <trkpt lat="43.01437" lon="1.17934">
        <ele>476.95</ele>
        <time>2013-02-12T12:34:19Z</time>
      </trkpt>
      <trkpt lat="43.01435" lon="1.17939">
        <ele>477.91</ele>
        <time>2013-02-12T12:34:22Z</time>
      </trkpt>
      <trkpt lat="43.0143" lon="1.1795">
        <ele>476.95</ele>
        <time>2013-02-12T12:34:31Z</time>
      </trkpt>
      <trkpt lat="43.01426" lon="1.1796">
        <ele>476.47</ele>
        <time>2013-02-12T12:34:41Z</time>
      </trkpt>
      <trkpt lat="43.01427" lon="1.17959">
        <ele>477.43</ele>
        <time>2013-02-12T12:34:51Z</time>
      </trkpt>
      <trkpt lat="43.01427" lon="1.17959">
        <ele>477.91</ele>
        <time>2013-02-12T12:35:02Z</time>
      </trkpt>
      <trkpt lat="43.01426" lon="1.17959">
        <ele>477.43</ele>
        <time>2013-02-12T12:35:10Z</time>
      </trkpt>
      <trkpt lat="43.01424" lon="1.17961">
        <ele>477.43</ele>
        <time>2013-02-12T12:35:12Z</time>
      </trkpt>
      <trkpt lat="43.01418" lon="1.17974">
        <ele>476.95</ele>
        <time>2013-02-12T12:35:20Z</time>
      </trkpt>
      <trkpt lat="43.01415" lon="1.17981">
        <ele>476.47</ele>
        <time>2013-02-12T12:35:25Z</time>
      </trkpt>
      <trkpt lat="43.0141" lon="1.17998">
        <ele>476.47</ele>
        <time>2013-02-12T12:35:35Z</time>
      </trkpt>
      <trkpt lat="43.01405" lon="1.18012">
        <ele>475.99</ele>
        <time>2013-02-12T12:35:44Z</time>
      </trkpt>
      <trkpt lat="43.01399" lon="1.18024">
        <ele>475.99</ele>
        <time>2013-02-12T12:35:53Z</time>
      </trkpt>
      <trkpt lat="43.01395" lon="1.18034">
        <ele>476.95</ele>
        <time>2013-02-12T12:35:59Z</time>
      </trkpt>
      <trkpt lat="43.0139" lon="1.18045">
        <ele>475.99</ele>
        <time>2013-02-12T12:36:07Z</time>
      </trkpt>
      <trkpt lat="43.01382" lon="1.18062">
        <ele>476.47</ele>
        <time>2013-02-12T12:36:18Z</time>
      </trkpt>
      <trkpt lat="43.01377" lon="1.18072">
        <ele>476.47</ele>
        <time>2013-02-12T12:36:25Z</time>
      </trkpt>
      <trkpt lat="43.01373" lon="1.18084">
        <ele>475.99</ele>
        <time>2013-02-12T12:36:33Z</time>
      </trkpt>
      <trkpt lat="43.01368" lon="1.18099">
        <ele>475.99</ele>
        <time>2013-02-12T12:36:41Z</time>
      </trkpt>
      <trkpt lat="43.01364" lon="1.18109">
        <ele>475.51</ele>
        <time>2013-02-12T12:36:48Z</time>
      </trkpt>
      <trkpt lat="43.01358" lon="1.18122">
        <ele>475.51</ele>
        <time>2013-02-12T12:36:57Z</time>
      </trkpt>
      <trkpt lat="43.0135" lon="1.18132">
        <ele>475.03</ele>
        <time>2013-02-12T12:37:07Z</time>
      </trkpt>
      <trkpt lat="43.01343" lon="1.18137">
        <ele>474.07</ele>
        <time>2013-02-12T12:37:15Z</time>
      </trkpt>
      <trkpt lat="43.01332" lon="1.18138">
        <ele>473.11</ele>
        <time>2013-02-12T12:37:23Z</time>
      </trkpt>
      <trkpt lat="43.01323" lon="1.18138">
        <ele>471.66</ele>
        <time>2013-02-12T12:37:29Z</time>
      </trkpt>
      <trkpt lat="43.01322" lon="1.18138">
        <ele>471.66</ele>
        <time>2013-02-12T12:37:30Z</time>
      </trkpt>
      <trkpt lat="43.0132" lon="1.18137">
        <ele>471.18</ele>
        <time>2013-02-12T12:37:32Z</time>
      </trkpt>
      <trkpt lat="43.01315" lon="1.18134">
        <ele>469.74</ele>
        <time>2013-02-12T12:37:38Z</time>
      </trkpt>
      <trkpt lat="43.01313" lon="1.18134">
        <ele>469.74</ele>
        <time>2013-02-12T12:37:40Z</time>
      </trkpt>
      <trkpt lat="43.01308" lon="1.18133">
        <ele>469.74</ele>
        <time>2013-02-12T12:37:44Z</time>
      </trkpt>
      <trkpt lat="43.013" lon="1.18135">
        <ele>469.74</ele>
        <time>2013-02-12T12:37:52Z</time>
      </trkpt>
      <trkpt lat="43.01287" lon="1.18139">
        <ele>469.74</ele>
        <time>2013-02-12T12:38:01Z</time>
      </trkpt>
      <trkpt lat="43.01276" lon="1.18145">
        <ele>469.74</ele>
        <time>2013-02-12T12:38:09Z</time>
      </trkpt>
      <trkpt lat="43.01267" lon="1.18152">
        <ele>470.7</ele>
        <time>2013-02-12T12:38:18Z</time>
      </trkpt>
      <trkpt lat="43.01257" lon="1.18151">
        <ele>469.74</ele>
        <time>2013-02-12T12:38:26Z</time>
      </trkpt>
      <trkpt lat="43.01253" lon="1.18144">
        <ele>468.78</ele>
        <time>2013-02-12T12:38:33Z</time>
      </trkpt>
      <trkpt lat="43.01246" lon="1.18126">
        <ele>466.86</ele>
        <time>2013-02-12T12:38:43Z</time>
      </trkpt>
      <trkpt lat="43.01242" lon="1.18122">
        <ele>467.82</ele>
        <time>2013-02-12T12:38:48Z</time>
      </trkpt>
      <trkpt lat="43.01239" lon="1.18121">
        <ele>467.82</ele>
        <time>2013-02-12T12:38:50Z</time>
      </trkpt>
      <trkpt lat="43.01228" lon="1.18113">
        <ele>466.86</ele>
        <time>2013-02-12T12:39:00Z</time>
      </trkpt>
      <trkpt lat="43.01217" lon="1.18106">
        <ele>466.38</ele>
        <time>2013-02-12T12:39:09Z</time>
      </trkpt>
      <trkpt lat="43.01205" lon="1.18098">
        <ele>465.9</ele>
        <time>2013-02-12T12:39:19Z</time>
      </trkpt>
      <trkpt lat="43.01196" lon="1.18092">
        <ele>463.49</ele>
        <time>2013-02-12T12:39:28Z</time>
      </trkpt>
      <trkpt lat="43.01184" lon="1.18086">
        <ele>462.53</ele>
        <time>2013-02-12T12:39:38Z</time>
      </trkpt>
      <trkpt lat="43.01174" lon="1.18081">
        <ele>461.09</ele>
        <time>2013-02-12T12:39:47Z</time>
      </trkpt>
      <trkpt lat="43.01167" lon="1.18074">
        <ele>461.09</ele>
        <time>2013-02-12T12:39:55Z</time>
      </trkpt>
      <trkpt lat="43.01167" lon="1.18073">
        <ele>460.61</ele>
        <time>2013-02-12T12:39:59Z</time>
      </trkpt>
      <trkpt lat="43.01161" lon="1.18068">
        <ele>461.57</ele>
        <time>2013-02-12T12:40:08Z</time>
      </trkpt>
      <trkpt lat="43.01159" lon="1.18066">
        <ele>462.05</ele>
        <time>2013-02-12T12:40:14Z</time>
      </trkpt>
      <trkpt lat="43.01155" lon="1.1806">
        <ele>463.01</ele>
        <time>2013-02-12T12:40:21Z</time>
      </trkpt>
      <trkpt lat="43.01152" lon="1.18058">
        <ele>464.45</ele>
        <time>2013-02-12T12:40:29Z</time>
      </trkpt>
      <trkpt lat="43.01152" lon="1.18057">
        <ele>464.45</ele>
        <time>2013-02-12T12:40:33Z</time>
      </trkpt>
      <trkpt lat="43.01148" lon="1.18054">
        <ele>464.93</ele>
        <time>2013-02-12T12:40:38Z</time>
      </trkpt>
      <trkpt lat="43.0114" lon="1.18049">
        <ele>464.93</ele>
        <time>2013-02-12T12:40:47Z</time>
      </trkpt>
      <trkpt lat="43.01134" lon="1.18044">
        <ele>466.38</ele>
        <time>2013-02-12T12:40:54Z</time>
      </trkpt>
      <trkpt lat="43.01128" lon="1.18038">
        <ele>468.3</ele>
        <time>2013-02-12T12:41:01Z</time>
      </trkpt>
      <trkpt lat="43.01123" lon="1.18033">
        <ele>468.3</ele>
        <time>2013-02-12T12:41:06Z</time>
      </trkpt>
      <trkpt lat="43.01115" lon="1.18025">
        <ele>468.78</ele>
        <time>2013-02-12T12:41:14Z</time>
      </trkpt>
      <trkpt lat="43.01109" lon="1.1802">
        <ele>469.26</ele>
        <time>2013-02-12T12:41:22Z</time>
      </trkpt>
      <trkpt lat="43.01107" lon="1.18021">
        <ele>469.26</ele>
        <time>2013-02-12T12:41:31Z</time>
      </trkpt>
      <trkpt lat="43.01094" lon="1.18015">
        <ele>469.26</ele>
        <time>2013-02-12T12:41:42Z</time>
      </trkpt>
      <trkpt lat="43.01089" lon="1.18014">
        <ele>468.78</ele>
        <time>2013-02-12T12:41:46Z</time>
      </trkpt>
      <trkpt lat="43.01079" lon="1.1801">
        <ele>469.74</ele>
        <time>2013-02-12T12:41:54Z</time>
      </trkpt>
      <trkpt lat="43.01069" lon="1.18001">
        <ele>469.74</ele>
        <time>2013-02-12T12:42:03Z</time>
      </trkpt>
      <trkpt lat="43.01058" lon="1.17994">
        <ele>470.22</ele>
        <time>2013-02-12T12:42:12Z</time>
      </trkpt>
      <trkpt lat="43.01052" lon="1.1799">
        <ele>470.7</ele>
        <time>2013-02-12T12:42:18Z</time>
      </trkpt>
      <trkpt lat="43.01043" lon="1.17983">
        <ele>471.18</ele>
        <time>2013-02-12T12:42:25Z</time>
      </trkpt>
      <trkpt lat="43.01034" lon="1.17975">
        <ele>472.14</ele>
        <time>2013-02-12T12:42:34Z</time>
      </trkpt>
      <trkpt lat="43.01025" lon="1.17967">
        <ele>472.63</ele>
        <time>2013-02-12T12:42:42Z</time>
      </trkpt>
      <trkpt lat="43.01017" lon="1.1796">
        <ele>473.11</ele>
        <time>2013-02-12T12:42:49Z</time>
      </trkpt>
      <trkpt lat="43.0101" lon="1.1795">
        <ele>473.59</ele>
        <time>2013-02-12T12:42:58Z</time>
      </trkpt>
      <trkpt lat="43.01007" lon="1.17946">
        <ele>473.59</ele>
        <time>2013-02-12T12:43:01Z</time>
      </trkpt>
      <trkpt lat="43.01001" lon="1.17932">
        <ele>473.11</ele>
        <time>2013-02-12T12:43:11Z</time>
      </trkpt>
      <trkpt lat="43.01" lon="1.17921">
        <ele>473.11</ele>
        <time>2013-02-12T12:43:19Z</time>
      </trkpt>
      <trkpt lat="43.00996" lon="1.17911">
        <ele>473.11</ele>
        <time>2013-02-12T12:43:26Z</time>
      </trkpt>
      <trkpt lat="43.00992" lon="1.17898">
        <ele>473.59</ele>
        <time>2013-02-12T12:43:36Z</time>
      </trkpt>
      <trkpt lat="43.00988" lon="1.17886">
        <ele>474.07</ele>
        <time>2013-02-12T12:43:43Z</time>
      </trkpt>
      <trkpt lat="43.00983" lon="1.17875">
        <ele>474.07</ele>
        <time>2013-02-12T12:43:50Z</time>
      </trkpt>
      <trkpt lat="43.00981" lon="1.17869">
        <ele>474.07</ele>
        <time>2013-02-12T12:43:54Z</time>
      </trkpt>
      <trkpt lat="43.00981" lon="1.17853">
        <ele>475.03</ele>
        <time>2013-02-12T12:44:03Z</time>
      </trkpt>
      <trkpt lat="43.00982" lon="1.1785">
        <ele>475.03</ele>
        <time>2013-02-12T12:44:04Z</time>
      </trkpt>
      <trkpt lat="43.00983" lon="1.17839">
        <ele>475.51</ele>
        <time>2013-02-12T12:44:11Z</time>
      </trkpt>
      <trkpt lat="43.00983" lon="1.17828">
        <ele>476.47</ele>
        <time>2013-02-12T12:44:18Z</time>
      </trkpt>
      <trkpt lat="43.00983" lon="1.17815">
        <ele>477.91</ele>
        <time>2013-02-12T12:44:26Z</time>
      </trkpt>
      <trkpt lat="43.00986" lon="1.17806">
        <ele>478.87</ele>
        <time>2013-02-12T12:44:33Z</time>
      </trkpt>
      <trkpt lat="43.00987" lon="1.17797">
        <ele>479.35</ele>
        <time>2013-02-12T12:44:39Z</time>
      </trkpt>
      <trkpt lat="43.00984" lon="1.17785">
        <ele>479.84</ele>
        <time>2013-02-12T12:44:47Z</time>
      </trkpt>
      <trkpt lat="43.00983" lon="1.17784">
        <ele>479.35</ele>
        <time>2013-02-12T12:44:48Z</time>
      </trkpt>
      <trkpt lat="43.00978" lon="1.17778">
        <ele>479.35</ele>
        <time>2013-02-12T12:44:54Z</time>
      </trkpt>
      <trkpt lat="43.0097" lon="1.17768">
        <ele>479.35</ele>
        <time>2013-02-12T12:45:03Z</time>
      </trkpt>
      <trkpt lat="43.00963" lon="1.17761">
        <ele>479.35</ele>
        <time>2013-02-12T12:45:11Z</time>
      </trkpt>
      <trkpt lat="43.00954" lon="1.1775">
        <ele>478.39</ele>
        <time>2013-02-12T12:45:21Z</time>
      </trkpt>
      <trkpt lat="43.00943" lon="1.17738">
        <ele>478.39</ele>
        <time>2013-02-12T12:45:32Z</time>
      </trkpt>
      <trkpt lat="43.00933" lon="1.17728">
        <ele>478.87</ele>
        <time>2013-02-12T12:45:42Z</time>
      </trkpt>
      <trkpt lat="43.00924" lon="1.17717">
        <ele>479.35</ele>
        <time>2013-02-12T12:45:52Z</time>
      </trkpt>
      <trkpt lat="43.0092" lon="1.1771">
        <ele>478.87</ele>
        <time>2013-02-12T12:45:57Z</time>
      </trkpt>
      <trkpt lat="43.00917" lon="1.17704">
        <ele>478.39</ele>
        <time>2013-02-12T12:46:01Z</time>
      </trkpt>
      <trkpt lat="43.00915" lon="1.177">
        <ele>477.91</ele>
        <time>2013-02-12T12:46:04Z</time>
      </trkpt>
      <trkpt lat="43.00911" lon="1.17685">
        <ele>478.39</ele>
        <time>2013-02-12T12:46:13Z</time>
      </trkpt>
      <trkpt lat="43.00907" lon="1.17669">
        <ele>477.43</ele>
        <time>2013-02-12T12:46:22Z</time>
      </trkpt>
      <trkpt lat="43.00904" lon="1.17658">
        <ele>477.43</ele>
        <time>2013-02-12T12:46:29Z</time>
      </trkpt>
      <trkpt lat="43.00904" lon="1.17651">
        <ele>476.47</ele>
        <time>2013-02-12T12:46:36Z</time>
      </trkpt>
      <trkpt lat="43.00902" lon="1.17643">
        <ele>476.47</ele>
        <time>2013-02-12T12:46:44Z</time>
      </trkpt>
      <trkpt lat="43.009" lon="1.17637">
        <ele>475.51</ele>
        <time>2013-02-12T12:46:49Z</time>
      </trkpt>
      <trkpt lat="43.00897" lon="1.17628">
        <ele>475.99</ele>
        <time>2013-02-12T12:46:55Z</time>
      </trkpt>
      <trkpt lat="43.00894" lon="1.1762">
        <ele>475.51</ele>
        <time>2013-02-12T12:47:01Z</time>
      </trkpt>
      <trkpt lat="43.00891" lon="1.17608">
        <ele>475.99</ele>
        <time>2013-02-12T12:47:09Z</time>
      </trkpt>
      <trkpt lat="43.00891" lon="1.17607">
        <ele>475.51</ele>
        <time>2013-02-12T12:47:10Z</time>
      </trkpt>
      <trkpt lat="43.0089" lon="1.17596">
        <ele>475.51</ele>
        <time>2013-02-12T12:47:18Z</time>
      </trkpt>
      <trkpt lat="43.00889" lon="1.17591">
        <ele>475.03</ele>
        <time>2013-02-12T12:47:25Z</time>
      </trkpt>
      <trkpt lat="43.00888" lon="1.17588">
        <ele>474.55</ele>
        <time>2013-02-12T12:47:27Z</time>
      </trkpt>
      <trkpt lat="43.00886" lon="1.17575">
        <ele>474.55</ele>
        <time>2013-02-12T12:47:34Z</time>
      </trkpt>
      <trkpt lat="43.00885" lon="1.17569">
        <ele>474.55</ele>
        <time>2013-02-12T12:47:38Z</time>
      </trkpt>
      <trkpt lat="43.00883" lon="1.17554">
        <ele>474.07</ele>
        <time>2013-02-12T12:47:46Z</time>
      </trkpt>
      <trkpt lat="43.00881" lon="1.17543">
        <ele>474.07</ele>
        <time>2013-02-12T12:47:53Z</time>
      </trkpt>
      <trkpt lat="43.00883" lon="1.17537">
        <ele>474.07</ele>
        <time>2013-02-12T12:47:59Z</time>
      </trkpt>
      <trkpt lat="43.00883" lon="1.17536">
        <ele>473.59</ele>
        <time>2013-02-12T12:48:01Z</time>
      </trkpt>
      <trkpt lat="43.00882" lon="1.17531">
        <ele>474.07</ele>
        <time>2013-02-12T12:48:04Z</time>
      </trkpt>
      <trkpt lat="43.00881" lon="1.17518">
        <ele>474.55</ele>
        <time>2013-02-12T12:48:12Z</time>
      </trkpt>
      <trkpt lat="43.00879" lon="1.17513">
        <ele>474.55</ele>
        <time>2013-02-12T12:48:19Z</time>
      </trkpt>
      <trkpt lat="43.00875" lon="1.17499">
        <ele>475.03</ele>
        <time>2013-02-12T12:48:28Z</time>
      </trkpt>
      <trkpt lat="43.0087" lon="1.17484">
        <ele>475.03</ele>
        <time>2013-02-12T12:48:34Z</time>
      </trkpt>
      <trkpt lat="43.00862" lon="1.17467">
        <ele>475.51</ele>
        <time>2013-02-12T12:48:44Z</time>
      </trkpt>
      <trkpt lat="43.00859" lon="1.17463">
        <ele>475.51</ele>
        <time>2013-02-12T12:48:51Z</time>
      </trkpt>
      <trkpt lat="43.00851" lon="1.17456">
        <ele>476.95</ele>
        <time>2013-02-12T12:48:59Z</time>
      </trkpt>
      <trkpt lat="43.00846" lon="1.17455">
        <ele>475.51</ele>
        <time>2013-02-12T12:49:07Z</time>
      </trkpt>
      <trkpt lat="43.00837" lon="1.17452">
        <ele>475.99</ele>
        <time>2013-02-12T12:49:16Z</time>
      </trkpt>
      <trkpt lat="43.00831" lon="1.17451">
        <ele>475.99</ele>
        <time>2013-02-12T12:49:24Z</time>
      </trkpt>
      <trkpt lat="43.00826" lon="1.17448">
        <ele>476.95</ele>
        <time>2013-02-12T12:49:29Z</time>
      </trkpt>
      <trkpt lat="43.00818" lon="1.17444">
        <ele>477.91</ele>
        <time>2013-02-12T12:49:37Z</time>
      </trkpt>
      <trkpt lat="43.00809" lon="1.17442">
        <ele>479.35</ele>
        <time>2013-02-12T12:49:46Z</time>
      </trkpt>
      <trkpt lat="43.00803" lon="1.1744">
        <ele>479.84</ele>
        <time>2013-02-12T12:49:54Z</time>
      </trkpt>
      <trkpt lat="43.00799" lon="1.17438">
        <ele>480.32</ele>
        <time>2013-02-12T12:50:00Z</time>
      </trkpt>
      <trkpt lat="43.00798" lon="1.17437">
        <ele>480.32</ele>
        <time>2013-02-12T12:50:07Z</time>
      </trkpt>
      <trkpt lat="43.00798" lon="1.17436">
        <ele>480.8</ele>
        <time>2013-02-12T12:50:15Z</time>
      </trkpt>
      <trkpt lat="43.00799" lon="1.17436">
        <ele>481.28</ele>
        <time>2013-02-12T12:50:24Z</time>
      </trkpt>
      <trkpt lat="43.00799" lon="1.17436">
        <ele>480.32</ele>
        <time>2013-02-12T12:50:33Z</time>
      </trkpt>
      <trkpt lat="43.00798" lon="1.17436">
        <ele>480.32</ele>
        <time>2013-02-12T12:50:44Z</time>
      </trkpt>
      <trkpt lat="43.00798" lon="1.17436">
        <ele>480.32</ele>
        <time>2013-02-12T12:50:56Z</time>
      </trkpt>
      <trkpt lat="43.00799" lon="1.17436">
        <ele>480.32</ele>
        <time>2013-02-12T12:51:15Z</time>
      </trkpt>
      <trkpt lat="43.008" lon="1.17436">
        <ele>480.8</ele>
        <time>2013-02-12T12:51:23Z</time>
      </trkpt>
      <trkpt lat="43.008" lon="1.17436">
        <ele>481.28</ele>
        <time>2013-02-12T12:51:31Z</time>
      </trkpt>
      <trkpt lat="43.00799" lon="1.17436">
        <ele>481.76</ele>
        <time>2013-02-12T12:51:50Z</time>
      </trkpt>
      <trkpt lat="43.008" lon="1.17436">
        <ele>480.8</ele>
        <time>2013-02-12T12:52:02Z</time>
      </trkpt>
      <trkpt lat="43.008" lon="1.17436">
        <ele>481.28</ele>
        <time>2013-02-12T12:52:14Z</time>
      </trkpt>
      <trkpt lat="43.008" lon="1.17436">
        <ele>481.28</ele>
        <time>2013-02-12T12:52:27Z</time>
      </trkpt>
      <trkpt lat="43.00799" lon="1.17435">
        <ele>481.28</ele>
        <time>2013-02-12T12:52:42Z</time>
      </trkpt>
      <trkpt lat="43.00799" lon="1.17435">
        <ele>481.28</ele>
        <time>2013-02-12T12:52:52Z</time>
      </trkpt>
      <trkpt lat="43.00801" lon="1.17434">
        <ele>481.28</ele>
        <time>2013-02-12T12:52:59Z</time>
      </trkpt>
      <trkpt lat="43.00804" lon="1.17429">
        <ele>481.76</ele>
        <time>2013-02-12T12:53:06Z</time>
      </trkpt>
      <trkpt lat="43.00809" lon="1.17422">
        <ele>484.16</ele>
        <time>2013-02-12T12:53:14Z</time>
      </trkpt>
      <trkpt lat="43.00812" lon="1.17415">
        <ele>484.64</ele>
        <time>2013-02-12T12:53:22Z</time>
      </trkpt>
      <trkpt lat="43.00815" lon="1.17408">
        <ele>485.12</ele>
        <time>2013-02-12T12:53:29Z</time>
      </trkpt>
      <trkpt lat="43.00817" lon="1.17401">
        <ele>486.08</ele>
        <time>2013-02-12T12:53:36Z</time>
      </trkpt>
      <trkpt lat="43.00818" lon="1.17396">
        <ele>486.56</ele>
        <time>2013-02-12T12:53:42Z</time>
      </trkpt>
      <trkpt lat="43.00819" lon="1.1739">
        <ele>488.01</ele>
        <time>2013-02-12T12:53:48Z</time>
      </trkpt>
      <trkpt lat="43.00819" lon="1.17386">
        <ele>488.01</ele>
        <time>2013-02-12T12:53:57Z</time>
      </trkpt>
      <trkpt lat="43.00819" lon="1.17382">
        <ele>488.97</ele>
        <time>2013-02-12T12:54:05Z</time>
      </trkpt>
      <trkpt lat="43.00819" lon="1.17379">
        <ele>488.97</ele>
        <time>2013-02-12T12:54:16Z</time>
      </trkpt>
      <trkpt lat="43.00819" lon="1.17378">
        <ele>489.45</ele>
        <time>2013-02-12T12:54:30Z</time>
      </trkpt>
      <trkpt lat="43.00819" lon="1.17377">
        <ele>488.49</ele>
        <time>2013-02-12T12:54:37Z</time>
      </trkpt>
      <trkpt lat="43.00819" lon="1.17377">
        <ele>488.01</ele>
        <time>2013-02-12T12:54:39Z</time>
      </trkpt>
      <trkpt lat="43.00819" lon="1.17371">
        <ele>488.97</ele>
        <time>2013-02-12T12:54:44Z</time>
      </trkpt>
      <trkpt lat="43.00819" lon="1.17361">
        <ele>488.97</ele>
        <time>2013-02-12T12:54:51Z</time>
      </trkpt>
      <trkpt lat="43.00821" lon="1.17352">
        <ele>489.45</ele>
        <time>2013-02-12T12:54:58Z</time>
      </trkpt>
      <trkpt lat="43.00822" lon="1.17341">
        <ele>490.41</ele>
        <time>2013-02-12T12:55:05Z</time>
      </trkpt>
      <trkpt lat="43.00824" lon="1.17336">
        <ele>490.41</ele>
        <time>2013-02-12T12:55:10Z</time>
      </trkpt>
      <trkpt lat="43.00824" lon="1.17332">
        <ele>490.41</ele>
        <time>2013-02-12T12:55:13Z</time>
      </trkpt>
      <trkpt lat="43.00827" lon="1.17325">
        <ele>491.85</ele>
        <time>2013-02-12T12:55:19Z</time>
      </trkpt>
      <trkpt lat="43.00828" lon="1.17323">
        <ele>492.33</ele>
        <time>2013-02-12T12:55:21Z</time>
      </trkpt>
      <trkpt lat="43.00833" lon="1.17317">
        <ele>493.77</ele>
        <time>2013-02-12T12:55:29Z</time>
      </trkpt>
      <trkpt lat="43.00838" lon="1.17313">
        <ele>494.26</ele>
        <time>2013-02-12T12:55:36Z</time>
      </trkpt>
      <trkpt lat="43.00842" lon="1.17305">
        <ele>495.7</ele>
        <time>2013-02-12T12:55:44Z</time>
      </trkpt>
      <trkpt lat="43.00845" lon="1.17298">
        <ele>496.66</ele>
        <time>2013-02-12T12:55:50Z</time>
      </trkpt>
      <trkpt lat="43.00849" lon="1.17293">
        <ele>496.18</ele>
        <time>2013-02-12T12:55:57Z</time>
      </trkpt>
      <trkpt lat="43.00851" lon="1.17285">
        <ele>495.22</ele>
        <time>2013-02-12T12:56:03Z</time>
      </trkpt>
      <trkpt lat="43.00854" lon="1.17274">
        <ele>495.7</ele>
        <time>2013-02-12T12:56:10Z</time>
      </trkpt>
      <trkpt lat="43.00858" lon="1.17265">
        <ele>497.14</ele>
        <time>2013-02-12T12:56:17Z</time>
      </trkpt>
      <trkpt lat="43.00863" lon="1.17261">
        <ele>497.62</ele>
        <time>2013-02-12T12:56:22Z</time>
      </trkpt>
      <trkpt lat="43.00867" lon="1.17258">
        <ele>498.58</ele>
        <time>2013-02-12T12:56:29Z</time>
      </trkpt>
      <trkpt lat="43.00873" lon="1.17252">
        <ele>499.06</ele>
        <time>2013-02-12T12:56:36Z</time>
      </trkpt>
      <trkpt lat="43.00876" lon="1.17246">
        <ele>499.06</ele>
        <time>2013-02-12T12:56:43Z</time>
      </trkpt>
      <trkpt lat="43.0088" lon="1.17236">
        <ele>498.1</ele>
        <time>2013-02-12T12:56:51Z</time>
      </trkpt>
      <trkpt lat="43.00884" lon="1.17228">
        <ele>500.02</ele>
        <time>2013-02-12T12:56:58Z</time>
      </trkpt>
      <trkpt lat="43.00888" lon="1.17224">
        <ele>500.5</ele>
        <time>2013-02-12T12:57:04Z</time>
      </trkpt>
      <trkpt lat="43.00894" lon="1.17221">
        <ele>501.46</ele>
        <time>2013-02-12T12:57:10Z</time>
      </trkpt>
      <trkpt lat="43.009" lon="1.17216">
        <ele>502.91</ele>
        <time>2013-02-12T12:57:19Z</time>
      </trkpt>
      <trkpt lat="43.00903" lon="1.17214">
        <ele>504.83</ele>
        <time>2013-02-12T12:57:25Z</time>
      </trkpt>
      <trkpt lat="43.00908" lon="1.1721">
        <ele>506.27</ele>
        <time>2013-02-12T12:57:34Z</time>
      </trkpt>
      <trkpt lat="43.00911" lon="1.17205">
        <ele>506.27</ele>
        <time>2013-02-12T12:57:39Z</time>
      </trkpt>
      <trkpt lat="43.00917" lon="1.17203">
        <ele>508.19</ele>
        <time>2013-02-12T12:57:45Z</time>
      </trkpt>
      <trkpt lat="43.0092" lon="1.17196">
        <ele>509.64</ele>
        <time>2013-02-12T12:57:52Z</time>
      </trkpt>
      <trkpt lat="43.00919" lon="1.17188">
        <ele>510.6</ele>
        <time>2013-02-12T12:57:59Z</time>
      </trkpt>
      <trkpt lat="43.00923" lon="1.17183">
        <ele>511.56</ele>
        <time>2013-02-12T12:58:06Z</time>
      </trkpt>
      <trkpt lat="43.00927" lon="1.17181">
        <ele>513</ele>
        <time>2013-02-12T12:58:14Z</time>
      </trkpt>
      <trkpt lat="43.00929" lon="1.1718">
        <ele>513.48</ele>
        <time>2013-02-12T12:58:19Z</time>
      </trkpt>
      <trkpt lat="43.00932" lon="1.17184">
        <ele>514.92</ele>
        <time>2013-02-12T12:58:25Z</time>
      </trkpt>
      <trkpt lat="43.00936" lon="1.17183">
        <ele>514.92</ele>
        <time>2013-02-12T12:58:31Z</time>
      </trkpt>
      <trkpt lat="43.00938" lon="1.1718">
        <ele>516.37</ele>
        <time>2013-02-12T12:58:36Z</time>
      </trkpt>
      <trkpt lat="43.00939" lon="1.17176">
        <ele>517.33</ele>
        <time>2013-02-12T12:58:42Z</time>
      </trkpt>
      <trkpt lat="43.00941" lon="1.1717">
        <ele>517.81</ele>
        <time>2013-02-12T12:58:49Z</time>
      </trkpt>
      <trkpt lat="43.00944" lon="1.17174">
        <ele>518.77</ele>
        <time>2013-02-12T12:58:55Z</time>
      </trkpt>
      <trkpt lat="43.00945" lon="1.17179">
        <ele>519.73</ele>
        <time>2013-02-12T12:59:01Z</time>
      </trkpt>
      <trkpt lat="43.00947" lon="1.17181">
        <ele>521.17</ele>
        <time>2013-02-12T12:59:05Z</time>
      </trkpt>
      <trkpt lat="43.00951" lon="1.17188">
        <ele>521.65</ele>
        <time>2013-02-12T12:59:12Z</time>
      </trkpt>
      <trkpt lat="43.00955" lon="1.17197">
        <ele>522.61</ele>
        <time>2013-02-12T12:59:21Z</time>
      </trkpt>
      <trkpt lat="43.00958" lon="1.17203">
        <ele>523.58</ele>
        <time>2013-02-12T12:59:28Z</time>
      </trkpt>
      <trkpt lat="43.00966" lon="1.17208">
        <ele>524.06</ele>
        <time>2013-02-12T12:59:36Z</time>
      </trkpt>
      <trkpt lat="43.00969" lon="1.17209">
        <ele>525.02</ele>
        <time>2013-02-12T12:59:41Z</time>
      </trkpt>
      <trkpt lat="43.00972" lon="1.17209">
        <ele>525.98</ele>
        <time>2013-02-12T12:59:47Z</time>
      </trkpt>
      <trkpt lat="43.00976" lon="1.1721">
        <ele>527.42</ele>
        <time>2013-02-12T12:59:55Z</time>
      </trkpt>
      <trkpt lat="43.0098" lon="1.17207">
        <ele>528.38</ele>
        <time>2013-02-12T13:00:02Z</time>
      </trkpt>
      <trkpt lat="43.00983" lon="1.17206">
        <ele>529.34</ele>
        <time>2013-02-12T13:00:09Z</time>
      </trkpt>
      <trkpt lat="43.00987" lon="1.17208">
        <ele>529.34</ele>
        <time>2013-02-12T13:00:15Z</time>
      </trkpt>
      <trkpt lat="43.0099" lon="1.17208">
        <ele>530.3</ele>
        <time>2013-02-12T13:00:21Z</time>
      </trkpt>
      <trkpt lat="43.00997" lon="1.1721">
        <ele>530.79</ele>
        <time>2013-02-12T13:00:29Z</time>
      </trkpt>
      <trkpt lat="43.01" lon="1.17211">
        <ele>531.75</ele>
        <time>2013-02-12T13:00:36Z</time>
      </trkpt>
      <trkpt lat="43.01004" lon="1.17212">
        <ele>531.75</ele>
        <time>2013-02-12T13:00:41Z</time>
      </trkpt>
      <trkpt lat="43.01015" lon="1.17211">
        <ele>532.23</ele>
        <time>2013-02-12T13:00:49Z</time>
      </trkpt>
      <trkpt lat="43.01021" lon="1.17207">
        <ele>533.19</ele>
        <time>2013-02-12T13:00:56Z</time>
      </trkpt>
      <trkpt lat="43.01027" lon="1.17203">
        <ele>534.15</ele>
        <time>2013-02-12T13:01:03Z</time>
      </trkpt>
      <trkpt lat="43.0103" lon="1.172">
        <ele>534.15</ele>
        <time>2013-02-12T13:01:09Z</time>
      </trkpt>
      <trkpt lat="43.01036" lon="1.17195">
        <ele>536.07</ele>
        <time>2013-02-12T13:01:16Z</time>
      </trkpt>
      <trkpt lat="43.0104" lon="1.17192">
        <ele>536.55</ele>
        <time>2013-02-12T13:01:23Z</time>
      </trkpt>
      <trkpt lat="43.01044" lon="1.1719">
        <ele>537.51</ele>
        <time>2013-02-12T13:01:30Z</time>
      </trkpt>
      <trkpt lat="43.01047" lon="1.17189">
        <ele>537.99</ele>
        <time>2013-02-12T13:01:37Z</time>
      </trkpt>
      <trkpt lat="43.01054" lon="1.17185">
        <ele>538.96</ele>
        <time>2013-02-12T13:01:44Z</time>
      </trkpt>
      <trkpt lat="43.01059" lon="1.17182">
        <ele>539.92</ele>
        <time>2013-02-12T13:01:50Z</time>
      </trkpt>
      <trkpt lat="43.01064" lon="1.17176">
        <ele>540.88</ele>
        <time>2013-02-12T13:01:57Z</time>
      </trkpt>
      <trkpt lat="43.01067" lon="1.17169">
        <ele>540.88</ele>
        <time>2013-02-12T13:02:03Z</time>
      </trkpt>
      <trkpt lat="43.0107" lon="1.17165">
        <ele>540.88</ele>
        <time>2013-02-12T13:02:09Z</time>
      </trkpt>
      <trkpt lat="43.01074" lon="1.17156">
        <ele>541.84</ele>
        <time>2013-02-12T13:02:17Z</time>
      </trkpt>
      <trkpt lat="43.01078" lon="1.17151">
        <ele>542.8</ele>
        <time>2013-02-12T13:02:23Z</time>
      </trkpt>
      <trkpt lat="43.01081" lon="1.17144">
        <ele>543.28</ele>
        <time>2013-02-12T13:02:29Z</time>
      </trkpt>
      <trkpt lat="43.01086" lon="1.17134">
        <ele>543.76</ele>
        <time>2013-02-12T13:02:38Z</time>
      </trkpt>
      <trkpt lat="43.01089" lon="1.1713">
        <ele>544.72</ele>
        <time>2013-02-12T13:02:44Z</time>
      </trkpt>
      <trkpt lat="43.01095" lon="1.17125">
        <ele>545.2</ele>
        <time>2013-02-12T13:02:52Z</time>
      </trkpt>
      <trkpt lat="43.01102" lon="1.17124">
        <ele>545.69</ele>
        <time>2013-02-12T13:02:59Z</time>
      </trkpt>
      <trkpt lat="43.01102" lon="1.17124">
        <ele>545.69</ele>
        <time>2013-02-12T13:03:00Z</time>
      </trkpt>
      <trkpt lat="43.01106" lon="1.17123">
        <ele>546.65</ele>
        <time>2013-02-12T13:03:07Z</time>
      </trkpt>
      <trkpt lat="43.0111" lon="1.17122">
        <ele>547.13</ele>
        <time>2013-02-12T13:03:11Z</time>
      </trkpt>
      <trkpt lat="43.01116" lon="1.1712">
        <ele>547.61</ele>
        <time>2013-02-12T13:03:17Z</time>
      </trkpt>
      <trkpt lat="43.01121" lon="1.17121">
        <ele>548.09</ele>
        <time>2013-02-12T13:03:23Z</time>
      </trkpt>
      <trkpt lat="43.01127" lon="1.17122">
        <ele>547.61</ele>
        <time>2013-02-12T13:03:30Z</time>
      </trkpt>
      <trkpt lat="43.01133" lon="1.17121">
        <ele>547.13</ele>
        <time>2013-02-12T13:03:38Z</time>
      </trkpt>
      <trkpt lat="43.01139" lon="1.1712">
        <ele>545.69</ele>
        <time>2013-02-12T13:03:46Z</time>
      </trkpt>
      <trkpt lat="43.01142" lon="1.17119">
        <ele>545.69</ele>
        <time>2013-02-12T13:03:52Z</time>
      </trkpt>
      <trkpt lat="43.01144" lon="1.17119">
        <ele>545.2</ele>
        <time>2013-02-12T13:03:59Z</time>
      </trkpt>
      <trkpt lat="43.01148" lon="1.17117">
        <ele>545.69</ele>
        <time>2013-02-12T13:04:07Z</time>
      </trkpt>
      <trkpt lat="43.01151" lon="1.17116">
        <ele>545.69</ele>
        <time>2013-02-12T13:04:14Z</time>
      </trkpt>
      <trkpt lat="43.01157" lon="1.17114">
        <ele>546.17</ele>
        <time>2013-02-12T13:04:20Z</time>
      </trkpt>
      <trkpt lat="43.01164" lon="1.17113">
        <ele>547.13</ele>
        <time>2013-02-12T13:04:27Z</time>
      </trkpt>
      <trkpt lat="43.01177" lon="1.17108">
        <ele>548.09</ele>
        <time>2013-02-12T13:04:34Z</time>
      </trkpt>
      <trkpt lat="43.0118" lon="1.17104">
        <ele>548.57</ele>
        <time>2013-02-12T13:04:37Z</time>
      </trkpt>
      <trkpt lat="43.01192" lon="1.17098">
        <ele>549.05</ele>
        <time>2013-02-12T13:04:45Z</time>
      </trkpt>
      <trkpt lat="43.01198" lon="1.17095">
        <ele>550.01</ele>
        <time>2013-02-12T13:04:49Z</time>
      </trkpt>
      <trkpt lat="43.01206" lon="1.17092">
        <ele>550.97</ele>
        <time>2013-02-12T13:04:56Z</time>
      </trkpt>
      <trkpt lat="43.01212" lon="1.17089">
        <ele>552.41</ele>
        <time>2013-02-12T13:05:04Z</time>
      </trkpt>
      <trkpt lat="43.01214" lon="1.17087">
        <ele>553.86</ele>
        <time>2013-02-12T13:05:11Z</time>
      </trkpt>
      <trkpt lat="43.01219" lon="1.17084">
        <ele>554.34</ele>
        <time>2013-02-12T13:05:18Z</time>
      </trkpt>
      <trkpt lat="43.01223" lon="1.17082">
        <ele>554.34</ele>
        <time>2013-02-12T13:05:23Z</time>
      </trkpt>
      <trkpt lat="43.01227" lon="1.1708">
        <ele>555.78</ele>
        <time>2013-02-12T13:05:31Z</time>
      </trkpt>
      <trkpt lat="43.01232" lon="1.17078">
        <ele>556.26</ele>
        <time>2013-02-12T13:05:39Z</time>
      </trkpt>
      <trkpt lat="43.01238" lon="1.17075">
        <ele>556.74</ele>
        <time>2013-02-12T13:05:45Z</time>
      </trkpt>
      <trkpt lat="43.01241" lon="1.17072">
        <ele>557.7</ele>
        <time>2013-02-12T13:05:51Z</time>
      </trkpt>
      <trkpt lat="43.01244" lon="1.17071">
        <ele>559.14</ele>
        <time>2013-02-12T13:05:57Z</time>
      </trkpt>
      <trkpt lat="43.01246" lon="1.17069">
        <ele>559.62</ele>
        <time>2013-02-12T13:06:05Z</time>
      </trkpt>
      <trkpt lat="43.01247" lon="1.17068">
        <ele>560.11</ele>
        <time>2013-02-12T13:06:11Z</time>
      </trkpt>
      <trkpt lat="43.01246" lon="1.17065">
        <ele>561.07</ele>
        <time>2013-02-12T13:06:18Z</time>
      </trkpt>
      <trkpt lat="43.01247" lon="1.17064">
        <ele>562.99</ele>
        <time>2013-02-12T13:06:25Z</time>
      </trkpt>
      <trkpt lat="43.01246" lon="1.17063">
        <ele>563.95</ele>
        <time>2013-02-12T13:06:32Z</time>
      </trkpt>
      <trkpt lat="43.01243" lon="1.1706">
        <ele>563.47</ele>
        <time>2013-02-12T13:06:38Z</time>
      </trkpt>
      <trkpt lat="43.0124" lon="1.17055">
        <ele>564.43</ele>
        <time>2013-02-12T13:06:46Z</time>
      </trkpt>
      <trkpt lat="43.01238" lon="1.1705">
        <ele>565.39</ele>
        <time>2013-02-12T13:06:53Z</time>
      </trkpt>
      <trkpt lat="43.01238" lon="1.17046">
        <ele>565.87</ele>
        <time>2013-02-12T13:07:01Z</time>
      </trkpt>
      <trkpt lat="43.01238" lon="1.17043">
        <ele>566.83</ele>
        <time>2013-02-12T13:07:09Z</time>
      </trkpt>
      <trkpt lat="43.01239" lon="1.17042">
        <ele>567.32</ele>
        <time>2013-02-12T13:07:15Z</time>
      </trkpt>
      <trkpt lat="43.0124" lon="1.17041">
        <ele>567.8</ele>
        <time>2013-02-12T13:07:21Z</time>
      </trkpt>
      <trkpt lat="43.01241" lon="1.1704">
        <ele>567.32</ele>
        <time>2013-02-12T13:07:28Z</time>
      </trkpt>
      <trkpt lat="43.01241" lon="1.17039">
        <ele>568.28</ele>
        <time>2013-02-12T13:07:35Z</time>
      </trkpt>
      <trkpt lat="43.01241" lon="1.17038">
        <ele>569.72</ele>
        <time>2013-02-12T13:07:43Z</time>
      </trkpt>
      <trkpt lat="43.01241" lon="1.17036">
        <ele>570.68</ele>
        <time>2013-02-12T13:07:51Z</time>
      </trkpt>
      <trkpt lat="43.01241" lon="1.17035">
        <ele>570.68</ele>
        <time>2013-02-12T13:07:58Z</time>
      </trkpt>
      <trkpt lat="43.01239" lon="1.17031">
        <ele>571.16</ele>
        <time>2013-02-12T13:08:11Z</time>
      </trkpt>
      <trkpt lat="43.01238" lon="1.1703">
        <ele>572.12</ele>
        <time>2013-02-12T13:08:19Z</time>
      </trkpt>
      <trkpt lat="43.01238" lon="1.17029">
        <ele>572.6</ele>
        <time>2013-02-12T13:08:26Z</time>
      </trkpt>
      <trkpt lat="43.01237" lon="1.17028">
        <ele>573.08</ele>
        <time>2013-02-12T13:08:34Z</time>
      </trkpt>
      <trkpt lat="43.01234" lon="1.17027">
        <ele>572.6</ele>
        <time>2013-02-12T13:08:44Z</time>
      </trkpt>
      <trkpt lat="43.01233" lon="1.17019">
        <ele>572.6</ele>
        <time>2013-02-12T13:08:52Z</time>
      </trkpt>
      <trkpt lat="43.0123" lon="1.17013">
        <ele>573.56</ele>
        <time>2013-02-12T13:08:59Z</time>
      </trkpt>
      <trkpt lat="43.01229" lon="1.17009">
        <ele>575.01</ele>
        <time>2013-02-12T13:09:07Z</time>
      </trkpt>
      <trkpt lat="43.01229" lon="1.17007">
        <ele>575.01</ele>
        <time>2013-02-12T13:09:13Z</time>
      </trkpt>
      <trkpt lat="43.01228" lon="1.17004">
        <ele>575.01</ele>
        <time>2013-02-12T13:09:21Z</time>
      </trkpt>
      <trkpt lat="43.01228" lon="1.17002">
        <ele>576.45</ele>
        <time>2013-02-12T13:09:29Z</time>
      </trkpt>
      <trkpt lat="43.01227" lon="1.17">
        <ele>577.41</ele>
        <time>2013-02-12T13:09:38Z</time>
      </trkpt>
      <trkpt lat="43.01227" lon="1.16998">
        <ele>578.85</ele>
        <time>2013-02-12T13:09:48Z</time>
      </trkpt>
      <trkpt lat="43.01228" lon="1.16998">
        <ele>579.33</ele>
        <time>2013-02-12T13:09:54Z</time>
      </trkpt>
      <trkpt lat="43.01229" lon="1.16994">
        <ele>581.25</ele>
        <time>2013-02-12T13:10:02Z</time>
      </trkpt>
      <trkpt lat="43.01229" lon="1.16991">
        <ele>581.25</ele>
        <time>2013-02-12T13:10:11Z</time>
      </trkpt>
      <trkpt lat="43.0123" lon="1.16987">
        <ele>582.22</ele>
        <time>2013-02-12T13:10:17Z</time>
      </trkpt>
      <trkpt lat="43.0123" lon="1.16985">
        <ele>583.18</ele>
        <time>2013-02-12T13:10:25Z</time>
      </trkpt>
      <trkpt lat="43.0123" lon="1.16982">
        <ele>584.14</ele>
        <time>2013-02-12T13:10:34Z</time>
      </trkpt>
      <trkpt lat="43.0123" lon="1.16981">
        <ele>584.14</ele>
        <time>2013-02-12T13:10:41Z</time>
      </trkpt>
      <trkpt lat="43.0123" lon="1.16978">
        <ele>585.58</ele>
        <time>2013-02-12T13:10:49Z</time>
      </trkpt>
      <trkpt lat="43.01229" lon="1.16976">
        <ele>585.58</ele>
        <time>2013-02-12T13:10:56Z</time>
      </trkpt>
      <trkpt lat="43.0123" lon="1.16976">
        <ele>585.58</ele>
        <time>2013-02-12T13:11:08Z</time>
      </trkpt>
      <trkpt lat="43.01231" lon="1.16975">
        <ele>586.06</ele>
        <time>2013-02-12T13:11:18Z</time>
      </trkpt>
      <trkpt lat="43.01232" lon="1.16972">
        <ele>585.1</ele>
        <time>2013-02-12T13:11:35Z</time>
      </trkpt>
      <trkpt lat="43.01232" lon="1.16971">
        <ele>585.1</ele>
        <time>2013-02-12T13:11:44Z</time>
      </trkpt>
      <trkpt lat="43.01232" lon="1.16971">
        <ele>585.58</ele>
        <time>2013-02-12T13:11:51Z</time>
      </trkpt>
      <trkpt lat="43.01232" lon="1.16973">
        <ele>585.1</ele>
        <time>2013-02-12T13:12:07Z</time>
      </trkpt>
      <trkpt lat="43.01231" lon="1.16973">
        <ele>585.1</ele>
        <time>2013-02-12T13:12:22Z</time>
      </trkpt>
      <trkpt lat="43.01231" lon="1.16973">
        <ele>585.58</ele>
        <time>2013-02-12T13:12:30Z</time>
      </trkpt>
      <trkpt lat="43.01232" lon="1.16973">
        <ele>587.02</ele>
        <time>2013-02-12T13:12:42Z</time>
      </trkpt>
      <trkpt lat="43.01232" lon="1.16973">
        <ele>587.5</ele>
        <time>2013-02-12T13:12:50Z</time>
      </trkpt>
      <trkpt lat="43.01232" lon="1.16972">
        <ele>587.5</ele>
        <time>2013-02-12T13:12:59Z</time>
      </trkpt>
      <trkpt lat="43.01232" lon="1.16971">
        <ele>588.95</ele>
        <time>2013-02-12T13:13:06Z</time>
      </trkpt>
      <trkpt lat="43.01231" lon="1.1697">
        <ele>589.43</ele>
        <time>2013-02-12T13:13:13Z</time>
      </trkpt>
      <trkpt lat="43.01231" lon="1.16967">
        <ele>590.39</ele>
        <time>2013-02-12T13:13:22Z</time>
      </trkpt>
      <trkpt lat="43.01232" lon="1.16965">
        <ele>590.87</ele>
        <time>2013-02-12T13:13:29Z</time>
      </trkpt>
      <trkpt lat="43.01231" lon="1.16961">
        <ele>591.35</ele>
        <time>2013-02-12T13:13:39Z</time>
      </trkpt>
      <trkpt lat="43.0123" lon="1.16957">
        <ele>590.87</ele>
        <time>2013-02-12T13:13:46Z</time>
      </trkpt>
      <trkpt lat="43.01229" lon="1.16952">
        <ele>589.91</ele>
        <time>2013-02-12T13:13:53Z</time>
      </trkpt>
      <trkpt lat="43.01226" lon="1.16942">
        <ele>589.43</ele>
        <time>2013-02-12T13:14:00Z</time>
      </trkpt>
      <trkpt lat="43.01224" lon="1.16936">
        <ele>589.43</ele>
        <time>2013-02-12T13:14:07Z</time>
      </trkpt>
      <trkpt lat="43.01221" lon="1.16929">
        <ele>590.87</ele>
        <time>2013-02-12T13:14:14Z</time>
      </trkpt>
      <trkpt lat="43.01218" lon="1.16924">
        <ele>591.35</ele>
        <time>2013-02-12T13:14:20Z</time>
      </trkpt>
      <trkpt lat="43.01214" lon="1.16913">
        <ele>592.79</ele>
        <time>2013-02-12T13:14:29Z</time>
      </trkpt>
      <trkpt lat="43.0121" lon="1.16908">
        <ele>592.79</ele>
        <time>2013-02-12T13:14:36Z</time>
      </trkpt>
      <trkpt lat="43.01209" lon="1.16907">
        <ele>594.23</ele>
        <time>2013-02-12T13:14:43Z</time>
      </trkpt>
      <trkpt lat="43.01203" lon="1.16907">
        <ele>594.71</ele>
        <time>2013-02-12T13:14:49Z</time>
      </trkpt>
      <trkpt lat="43.01202" lon="1.16906">
        <ele>594.71</ele>
        <time>2013-02-12T13:14:55Z</time>
      </trkpt>
      <trkpt lat="43.01199" lon="1.16902">
        <ele>595.67</ele>
        <time>2013-02-12T13:15:02Z</time>
      </trkpt>
      <trkpt lat="43.01197" lon="1.16896">
        <ele>596.15</ele>
        <time>2013-02-12T13:15:09Z</time>
      </trkpt>
      <trkpt lat="43.01195" lon="1.16895">
        <ele>596.64</ele>
        <time>2013-02-12T13:15:16Z</time>
      </trkpt>
      <trkpt lat="43.01194" lon="1.16895">
        <ele>597.12</ele>
        <time>2013-02-12T13:15:24Z</time>
      </trkpt>
      <trkpt lat="43.01192" lon="1.16891">
        <ele>598.08</ele>
        <time>2013-02-12T13:15:32Z</time>
      </trkpt>
      <trkpt lat="43.01187" lon="1.16882">
        <ele>599.52</ele>
        <time>2013-02-12T13:15:40Z</time>
      </trkpt>
      <trkpt lat="43.01185" lon="1.16879">
        <ele>600.48</ele>
        <time>2013-02-12T13:15:47Z</time>
      </trkpt>
      <trkpt lat="43.01185" lon="1.16876">
        <ele>601.44</ele>
        <time>2013-02-12T13:15:54Z</time>
      </trkpt>
      <trkpt lat="43.01182" lon="1.16874">
        <ele>601.44</ele>
        <time>2013-02-12T13:16:03Z</time>
      </trkpt>
      <trkpt lat="43.0118" lon="1.16872">
        <ele>602.4</ele>
        <time>2013-02-12T13:16:09Z</time>
      </trkpt>
      <trkpt lat="43.01175" lon="1.16869">
        <ele>603.85</ele>
        <time>2013-02-12T13:16:16Z</time>
      </trkpt>
      <trkpt lat="43.01173" lon="1.16868">
        <ele>604.33</ele>
        <time>2013-02-12T13:16:23Z</time>
      </trkpt>
      <trkpt lat="43.01172" lon="1.16866">
        <ele>605.29</ele>
        <time>2013-02-12T13:16:30Z</time>
      </trkpt>
      <trkpt lat="43.01169" lon="1.16863">
        <ele>606.25</ele>
        <time>2013-02-12T13:16:36Z</time>
      </trkpt>
      <trkpt lat="43.0117" lon="1.16859">
        <ele>607.21</ele>
        <time>2013-02-12T13:16:43Z</time>
      </trkpt>
      <trkpt lat="43.01171" lon="1.16855">
        <ele>608.17</ele>
        <time>2013-02-12T13:16:52Z</time>
      </trkpt>
      <trkpt lat="43.01172" lon="1.16855">
        <ele>609.13</ele>
        <time>2013-02-12T13:17:01Z</time>
      </trkpt>
      <trkpt lat="43.01173" lon="1.16853">
        <ele>610.09</ele>
        <time>2013-02-12T13:17:09Z</time>
      </trkpt>
      <trkpt lat="43.01174" lon="1.16851">
        <ele>610.09</ele>
        <time>2013-02-12T13:17:16Z</time>
      </trkpt>
      <trkpt lat="43.01174" lon="1.1685">
        <ele>610.09</ele>
        <time>2013-02-12T13:17:26Z</time>
      </trkpt>
      <trkpt lat="43.01174" lon="1.16848">
        <ele>608.65</ele>
        <time>2013-02-12T13:17:32Z</time>
      </trkpt>
      <trkpt lat="43.01174" lon="1.16848">
        <ele>610.09</ele>
        <time>2013-02-12T13:17:40Z</time>
      </trkpt>
      <trkpt lat="43.01175" lon="1.16849">
        <ele>611.06</ele>
        <time>2013-02-12T13:17:47Z</time>
      </trkpt>
      <trkpt lat="43.01176" lon="1.16849">
        <ele>610.57</ele>
        <time>2013-02-12T13:18:00Z</time>
      </trkpt>
      <trkpt lat="43.01175" lon="1.16848">
        <ele>609.13</ele>
        <time>2013-02-12T13:18:05Z</time>
      </trkpt>
      <trkpt lat="43.01175" lon="1.16848">
        <ele>609.61</ele>
        <time>2013-02-12T13:18:19Z</time>
      </trkpt>
      <trkpt lat="43.01175" lon="1.16848">
        <ele>609.13</ele>
        <time>2013-02-12T13:18:31Z</time>
      </trkpt>
      <trkpt lat="43.01175" lon="1.16848">
        <ele>610.09</ele>
        <time>2013-02-12T13:18:45Z</time>
      </trkpt>
      <trkpt lat="43.01175" lon="1.16848">
        <ele>610.57</ele>
        <time>2013-02-12T13:18:59Z</time>
      </trkpt>
      <trkpt lat="43.01174" lon="1.16847">
        <ele>610.57</ele>
        <time>2013-02-12T13:19:12Z</time>
      </trkpt>
      <trkpt lat="43.01173" lon="1.16847">
        <ele>610.57</ele>
        <time>2013-02-12T13:19:31Z</time>
      </trkpt>
      <trkpt lat="43.01173" lon="1.16848">
        <ele>610.57</ele>
        <time>2013-02-12T13:19:44Z</time>
      </trkpt>
      <trkpt lat="43.01174" lon="1.16848">
        <ele>610.57</ele>
        <time>2013-02-12T13:19:59Z</time>
      </trkpt>
      <trkpt lat="43.01174" lon="1.16849">
        <ele>610.09</ele>
        <time>2013-02-12T13:20:15Z</time>
      </trkpt>
      <trkpt lat="43.01174" lon="1.16849">
        <ele>611.06</ele>
        <time>2013-02-12T13:20:22Z</time>
      </trkpt>
      <trkpt lat="43.01175" lon="1.16848">
        <ele>611.06</ele>
        <time>2013-02-12T13:20:31Z</time>
      </trkpt>
      <trkpt lat="43.01178" lon="1.16845">
        <ele>612.02</ele>
        <time>2013-02-12T13:20:38Z</time>
      </trkpt>
      <trkpt lat="43.01183" lon="1.16845">
        <ele>613.94</ele>
        <time>2013-02-12T13:20:45Z</time>
      </trkpt>
      <trkpt lat="43.01186" lon="1.16843">
        <ele>614.42</ele>
        <time>2013-02-12T13:20:51Z</time>
      </trkpt>
      <trkpt lat="43.01189" lon="1.16841">
        <ele>615.86</ele>
        <time>2013-02-12T13:20:57Z</time>
      </trkpt>
      <trkpt lat="43.01192" lon="1.1684">
        <ele>616.34</ele>
        <time>2013-02-12T13:21:03Z</time>
      </trkpt>
      <trkpt lat="43.01196" lon="1.16841">
        <ele>617.78</ele>
        <time>2013-02-12T13:21:11Z</time>
      </trkpt>
      <trkpt lat="43.012" lon="1.1684">
        <ele>619.23</ele>
        <time>2013-02-12T13:21:18Z</time>
      </trkpt>
      <trkpt lat="43.01204" lon="1.16834">
        <ele>619.71</ele>
        <time>2013-02-12T13:21:26Z</time>
      </trkpt>
      <trkpt lat="43.01207" lon="1.16832">
        <ele>621.15</ele>
        <time>2013-02-12T13:21:33Z</time>
      </trkpt>
      <trkpt lat="43.01209" lon="1.16829">
        <ele>621.63</ele>
        <time>2013-02-12T13:21:40Z</time>
      </trkpt>
      <trkpt lat="43.01211" lon="1.16827">
        <ele>623.07</ele>
        <time>2013-02-12T13:21:46Z</time>
      </trkpt>
      <trkpt lat="43.01213" lon="1.16825">
        <ele>624.03</ele>
        <time>2013-02-12T13:21:55Z</time>
      </trkpt>
      <trkpt lat="43.01214" lon="1.16823">
        <ele>624.99</ele>
        <time>2013-02-12T13:22:01Z</time>
      </trkpt>
      <trkpt lat="43.01216" lon="1.16823">
        <ele>625.96</ele>
        <time>2013-02-12T13:22:08Z</time>
      </trkpt>
      <trkpt lat="43.01223" lon="1.1682">
        <ele>626.44</ele>
        <time>2013-02-12T13:22:16Z</time>
      </trkpt>
      <trkpt lat="43.01229" lon="1.16817">
        <ele>626.92</ele>
        <time>2013-02-12T13:22:24Z</time>
      </trkpt>
      <trkpt lat="43.01231" lon="1.16814">
        <ele>628.36</ele>
        <time>2013-02-12T13:22:30Z</time>
      </trkpt>
      <trkpt lat="43.01234" lon="1.16811">
        <ele>629.8</ele>
        <time>2013-02-12T13:22:36Z</time>
      </trkpt>
      <trkpt lat="43.01238" lon="1.16809">
        <ele>630.76</ele>
        <time>2013-02-12T13:22:42Z</time>
      </trkpt>
      <trkpt lat="43.01242" lon="1.16808">
        <ele>632.2</ele>
        <time>2013-02-12T13:22:48Z</time>
      </trkpt>
      <trkpt lat="43.01246" lon="1.16805">
        <ele>632.68</ele>
        <time>2013-02-12T13:22:55Z</time>
      </trkpt>
      <trkpt lat="43.0125" lon="1.16803">
        <ele>634.13</ele>
        <time>2013-02-12T13:23:03Z</time>
      </trkpt>
      <trkpt lat="43.01254" lon="1.16801">
        <ele>635.09</ele>
        <time>2013-02-12T13:23:11Z</time>
      </trkpt>
      <trkpt lat="43.01257" lon="1.16798">
        <ele>636.53</ele>
        <time>2013-02-12T13:23:17Z</time>
      </trkpt>
      <trkpt lat="43.01261" lon="1.16795">
        <ele>636.53</ele>
        <time>2013-02-12T13:23:24Z</time>
      </trkpt>
      <trkpt lat="43.01264" lon="1.16792">
        <ele>638.93</ele>
        <time>2013-02-12T13:23:30Z</time>
      </trkpt>
      <trkpt lat="43.01267" lon="1.16789">
        <ele>638.93</ele>
        <time>2013-02-12T13:23:36Z</time>
      </trkpt>
      <trkpt lat="43.01271" lon="1.16787">
        <ele>639.41</ele>
        <time>2013-02-12T13:23:42Z</time>
      </trkpt>
      <trkpt lat="43.01277" lon="1.16785">
        <ele>641.34</ele>
        <time>2013-02-12T13:23:49Z</time>
      </trkpt>
      <trkpt lat="43.0128" lon="1.16782">
        <ele>642.3</ele>
        <time>2013-02-12T13:23:55Z</time>
      </trkpt>
      <trkpt lat="43.01281" lon="1.1678">
        <ele>642.78</ele>
        <time>2013-02-12T13:23:57Z</time>
      </trkpt>
      <trkpt lat="43.01284" lon="1.16776">
        <ele>643.26</ele>
        <time>2013-02-12T13:24:04Z</time>
      </trkpt>
      <trkpt lat="43.01287" lon="1.16772">
        <ele>644.22</ele>
        <time>2013-02-12T13:24:10Z</time>
      </trkpt>
      <trkpt lat="43.01289" lon="1.16769">
        <ele>644.7</ele>
        <time>2013-02-12T13:24:16Z</time>
      </trkpt>
      <trkpt lat="43.01294" lon="1.16768">
        <ele>645.18</ele>
        <time>2013-02-12T13:24:22Z</time>
      </trkpt>
      <trkpt lat="43.01299" lon="1.16765">
        <ele>645.18</ele>
        <time>2013-02-12T13:24:28Z</time>
      </trkpt>
      <trkpt lat="43.01301" lon="1.16762">
        <ele>647.59</ele>
        <time>2013-02-12T13:24:34Z</time>
      </trkpt>
      <trkpt lat="43.01305" lon="1.16758">
        <ele>647.59</ele>
        <time>2013-02-12T13:24:40Z</time>
      </trkpt>
      <trkpt lat="43.01307" lon="1.16756">
        <ele>647.59</ele>
        <time>2013-02-12T13:24:43Z</time>
      </trkpt>
      <trkpt lat="43.01312" lon="1.16754">
        <ele>649.51</ele>
        <time>2013-02-12T13:24:49Z</time>
      </trkpt>
      <trkpt lat="43.01315" lon="1.1675">
        <ele>649.99</ele>
        <time>2013-02-12T13:24:56Z</time>
      </trkpt>
      <trkpt lat="43.01319" lon="1.16745">
        <ele>650.95</ele>
        <time>2013-02-12T13:25:03Z</time>
      </trkpt>
      <trkpt lat="43.01322" lon="1.16739">
        <ele>650.47</ele>
        <time>2013-02-12T13:25:10Z</time>
      </trkpt>
      <trkpt lat="43.01324" lon="1.1673">
        <ele>651.43</ele>
        <time>2013-02-12T13:25:17Z</time>
      </trkpt>
      <trkpt lat="43.01327" lon="1.16724">
        <ele>650.47</ele>
        <time>2013-02-12T13:25:24Z</time>
      </trkpt>
      <trkpt lat="43.01331" lon="1.16719">
        <ele>652.87</ele>
        <time>2013-02-12T13:25:30Z</time>
      </trkpt>
      <trkpt lat="43.01335" lon="1.16716">
        <ele>653.83</ele>
        <time>2013-02-12T13:25:37Z</time>
      </trkpt>
      <trkpt lat="43.01337" lon="1.16713">
        <ele>654.31</ele>
        <time>2013-02-12T13:25:41Z</time>
      </trkpt>
      <trkpt lat="43.0134" lon="1.16706">
        <ele>654.31</ele>
        <time>2013-02-12T13:25:47Z</time>
      </trkpt>
      <trkpt lat="43.01342" lon="1.167">
        <ele>655.76</ele>
        <time>2013-02-12T13:25:54Z</time>
      </trkpt>
      <trkpt lat="43.01342" lon="1.16699">
        <ele>655.76</ele>
        <time>2013-02-12T13:25:55Z</time>
      </trkpt>
      <trkpt lat="43.01342" lon="1.1669">
        <ele>656.24</ele>
        <time>2013-02-12T13:26:02Z</time>
      </trkpt>
      <trkpt lat="43.01343" lon="1.16689">
        <ele>656.72</ele>
        <time>2013-02-12T13:26:11Z</time>
      </trkpt>
      <trkpt lat="43.01343" lon="1.16687">
        <ele>654.8</ele>
        <time>2013-02-12T13:26:19Z</time>
      </trkpt>
      <trkpt lat="43.01343" lon="1.1668">
        <ele>655.76</ele>
        <time>2013-02-12T13:26:24Z</time>
      </trkpt>
      <trkpt lat="43.01342" lon="1.16678">
        <ele>656.72</ele>
        <time>2013-02-12T13:26:26Z</time>
      </trkpt>
      <trkpt lat="43.01342" lon="1.16672">
        <ele>657.2</ele>
        <time>2013-02-12T13:26:33Z</time>
      </trkpt>
      <trkpt lat="43.01342" lon="1.1667">
        <ele>656.24</ele>
        <time>2013-02-12T13:26:36Z</time>
      </trkpt>
      <trkpt lat="43.01342" lon="1.16667">
        <ele>656.24</ele>
        <time>2013-02-12T13:26:39Z</time>
      </trkpt>
      <trkpt lat="43.01344" lon="1.16659">
        <ele>657.68</ele>
        <time>2013-02-12T13:26:46Z</time>
      </trkpt>
      <trkpt lat="43.01345" lon="1.16654">
        <ele>657.68</ele>
        <time>2013-02-12T13:26:50Z</time>
      </trkpt>
      <trkpt lat="43.01344" lon="1.16647">
        <ele>658.64</ele>
        <time>2013-02-12T13:26:57Z</time>
      </trkpt>
      <trkpt lat="43.01342" lon="1.16641">
        <ele>658.64</ele>
        <time>2013-02-12T13:27:03Z</time>
      </trkpt>
      <trkpt lat="43.01342" lon="1.1664">
        <ele>659.6</ele>
        <time>2013-02-12T13:27:04Z</time>
      </trkpt>
      <trkpt lat="43.01338" lon="1.16632">
        <ele>660.56</ele>
        <time>2013-02-12T13:27:12Z</time>
      </trkpt>
      <trkpt lat="43.01337" lon="1.16627">
        <ele>661.52</ele>
        <time>2013-02-12T13:27:19Z</time>
      </trkpt>
      <trkpt lat="43.01336" lon="1.16624">
        <ele>662.01</ele>
        <time>2013-02-12T13:27:23Z</time>
      </trkpt>
      <trkpt lat="43.01334" lon="1.16619">
        <ele>663.45</ele>
        <time>2013-02-12T13:27:30Z</time>
      </trkpt>
      <trkpt lat="43.01336" lon="1.16616">
        <ele>664.89</ele>
        <time>2013-02-12T13:27:37Z</time>
      </trkpt>
      <trkpt lat="43.01343" lon="1.16614">
        <ele>666.81</ele>
        <time>2013-02-12T13:27:44Z</time>
      </trkpt>
      <trkpt lat="43.01347" lon="1.16611">
        <ele>667.77</ele>
        <time>2013-02-12T13:27:50Z</time>
      </trkpt>
      <trkpt lat="43.01354" lon="1.16609">
        <ele>669.7</ele>
        <time>2013-02-12T13:27:58Z</time>
      </trkpt>
      <trkpt lat="43.0136" lon="1.16609">
        <ele>670.18</ele>
        <time>2013-02-12T13:28:05Z</time>
      </trkpt>
      <trkpt lat="43.01363" lon="1.16605">
        <ele>669.7</ele>
        <time>2013-02-12T13:28:12Z</time>
      </trkpt>
      <trkpt lat="43.01364" lon="1.16603">
        <ele>672.58</ele>
        <time>2013-02-12T13:28:18Z</time>
      </trkpt>
      <trkpt lat="43.01365" lon="1.16603">
        <ele>672.1</ele>
        <time>2013-02-12T13:28:27Z</time>
      </trkpt>
      <trkpt lat="43.01364" lon="1.16603">
        <ele>669.7</ele>
        <time>2013-02-12T13:28:30Z</time>
      </trkpt>
      <trkpt lat="43.01364" lon="1.16603">
        <ele>670.66</ele>
        <time>2013-02-12T13:28:46Z</time>
      </trkpt>
      <trkpt lat="43.01364" lon="1.16603">
        <ele>671.14</ele>
        <time>2013-02-12T13:29:04Z</time>
      </trkpt>
      <trkpt lat="43.01364" lon="1.16603">
        <ele>669.7</ele>
        <time>2013-02-12T13:29:08Z</time>
      </trkpt>
      <trkpt lat="43.01364" lon="1.16603">
        <ele>670.18</ele>
        <time>2013-02-12T13:29:25Z</time>
      </trkpt>
      <trkpt lat="43.01364" lon="1.16603">
        <ele>671.14</ele>
        <time>2013-02-12T13:29:47Z</time>
      </trkpt>
      <trkpt lat="43.01365" lon="1.16603">
        <ele>669.7</ele>
        <time>2013-02-12T13:30:10Z</time>
      </trkpt>
      <trkpt lat="43.01364" lon="1.16603">
        <ele>671.14</ele>
        <time>2013-02-12T13:30:34Z</time>
      </trkpt>
      <trkpt lat="43.01365" lon="1.16603">
        <ele>672.1</ele>
        <time>2013-02-12T13:30:55Z</time>
      </trkpt>
      <trkpt lat="43.01364" lon="1.16603">
        <ele>670.18</ele>
        <time>2013-02-12T13:31:07Z</time>
      </trkpt>
      <trkpt lat="43.01364" lon="1.16603">
        <ele>670.18</ele>
        <time>2013-02-12T13:31:13Z</time>
      </trkpt>
      <trkpt lat="43.01364" lon="1.16603">
        <ele>671.14</ele>
        <time>2013-02-12T13:31:18Z</time>
      </trkpt>
      <trkpt lat="43.01363" lon="1.16602">
        <ele>671.62</ele>
        <time>2013-02-12T13:31:35Z</time>
      </trkpt>
      <trkpt lat="43.01363" lon="1.16602">
        <ele>671.14</ele>
        <time>2013-02-12T13:31:46Z</time>
      </trkpt>
      <trkpt lat="43.01363" lon="1.16602">
        <ele>670.18</ele>
        <time>2013-02-12T13:31:54Z</time>
      </trkpt>
      <trkpt lat="43.01363" lon="1.16602">
        <ele>670.66</ele>
        <time>2013-02-12T13:32:09Z</time>
      </trkpt>
      <trkpt lat="43.01364" lon="1.16602">
        <ele>668.73</ele>
        <time>2013-02-12T13:32:17Z</time>
      </trkpt>
      <trkpt lat="43.01364" lon="1.16602">
        <ele>672.58</ele>
        <time>2013-02-12T13:32:19Z</time>
      </trkpt>
      <trkpt lat="43.01364" lon="1.16602">
        <ele>672.58</ele>
        <time>2013-02-12T13:32:30Z</time>
      </trkpt>
      <trkpt lat="43.01364" lon="1.16602">
        <ele>671.62</ele>
        <time>2013-02-12T13:32:38Z</time>
      </trkpt>
      <trkpt lat="43.01364" lon="1.16602">
        <ele>671.14</ele>
        <time>2013-02-12T13:32:48Z</time>
      </trkpt>
      <trkpt lat="43.01364" lon="1.16602">
        <ele>669.7</ele>
        <time>2013-02-12T13:33:01Z</time>
      </trkpt>
      <trkpt lat="43.01364" lon="1.16602">
        <ele>670.18</ele>
        <time>2013-02-12T13:33:16Z</time>
      </trkpt>
      <trkpt lat="43.01365" lon="1.16602">
        <ele>670.18</ele>
        <time>2013-02-12T13:33:30Z</time>
      </trkpt>
      <trkpt lat="43.01365" lon="1.16601">
        <ele>671.62</ele>
        <time>2013-02-12T13:33:36Z</time>
      </trkpt>
      <trkpt lat="43.01365" lon="1.16601">
        <ele>671.62</ele>
        <time>2013-02-12T13:33:52Z</time>
      </trkpt>
      <trkpt lat="43.01365" lon="1.16601">
        <ele>670.66</ele>
        <time>2013-02-12T13:34:05Z</time>
      </trkpt>
      <trkpt lat="43.01366" lon="1.16601">
        <ele>670.66</ele>
        <time>2013-02-12T13:34:15Z</time>
      </trkpt>
      <trkpt lat="43.01367" lon="1.16599">
        <ele>669.7</ele>
        <time>2013-02-12T13:34:30Z</time>
      </trkpt>
      <trkpt lat="43.01364" lon="1.16593">
        <ele>669.7</ele>
        <time>2013-02-12T13:34:37Z</time>
      </trkpt>
      <trkpt lat="43.01359" lon="1.16588">
        <ele>668.25</ele>
        <time>2013-02-12T13:34:46Z</time>
      </trkpt>
      <trkpt lat="43.01355" lon="1.1658">
        <ele>666.33</ele>
        <time>2013-02-12T13:34:54Z</time>
      </trkpt>
      <trkpt lat="43.01354" lon="1.16577">
        <ele>664.41</ele>
        <time>2013-02-12T13:34:57Z</time>
      </trkpt>
      <trkpt lat="43.01348" lon="1.16566">
        <ele>662.49</ele>
        <time>2013-02-12T13:35:08Z</time>
      </trkpt>
      <trkpt lat="43.01344" lon="1.16558">
        <ele>659.6</ele>
        <time>2013-02-12T13:35:17Z</time>
      </trkpt>
      <trkpt lat="43.01342" lon="1.16554">
        <ele>658.16</ele>
        <time>2013-02-12T13:35:24Z</time>
      </trkpt>
      <trkpt lat="43.0134" lon="1.16549">
        <ele>657.68</ele>
        <time>2013-02-12T13:35:31Z</time>
      </trkpt>
      <trkpt lat="43.01338" lon="1.16545">
        <ele>655.28</ele>
        <time>2013-02-12T13:35:39Z</time>
      </trkpt>
      <trkpt lat="43.01338" lon="1.16545">
        <ele>655.76</ele>
        <time>2013-02-12T13:35:40Z</time>
      </trkpt>
      <trkpt lat="43.01337" lon="1.16546">
        <ele>655.76</ele>
        <time>2013-02-12T13:35:48Z</time>
      </trkpt>
      <trkpt lat="43.01337" lon="1.16546">
        <ele>655.28</ele>
        <time>2013-02-12T13:35:49Z</time>
      </trkpt>
      <trkpt lat="43.01336" lon="1.16541">
        <ele>654.8</ele>
        <time>2013-02-12T13:35:56Z</time>
      </trkpt>
      <trkpt lat="43.01332" lon="1.16534">
        <ele>653.35</ele>
        <time>2013-02-12T13:36:05Z</time>
      </trkpt>
      <trkpt lat="43.0133" lon="1.16531">
        <ele>652.87</ele>
        <time>2013-02-12T13:36:12Z</time>
      </trkpt>
      <trkpt lat="43.01327" lon="1.16528">
        <ele>649.51</ele>
        <time>2013-02-12T13:36:20Z</time>
      </trkpt>
      <trkpt lat="43.01326" lon="1.16527">
        <ele>648.55</ele>
        <time>2013-02-12T13:36:26Z</time>
      </trkpt>
      <trkpt lat="43.01324" lon="1.16525">
        <ele>647.59</ele>
        <time>2013-02-12T13:36:33Z</time>
      </trkpt>
      <trkpt lat="43.01321" lon="1.16524">
        <ele>647.1</ele>
        <time>2013-02-12T13:36:39Z</time>
      </trkpt>
      <trkpt lat="43.01318" lon="1.1652">
        <ele>645.18</ele>
        <time>2013-02-12T13:36:46Z</time>
      </trkpt>
      <trkpt lat="43.01315" lon="1.16518">
        <ele>643.26</ele>
        <time>2013-02-12T13:36:53Z</time>
      </trkpt>
      <trkpt lat="43.01311" lon="1.16514">
        <ele>642.3</ele>
        <time>2013-02-12T13:37:00Z</time>
      </trkpt>
      <trkpt lat="43.01307" lon="1.16514">
        <ele>639.41</ele>
        <time>2013-02-12T13:37:07Z</time>
      </trkpt>
      <trkpt lat="43.01305" lon="1.16514">
        <ele>639.41</ele>
        <time>2013-02-12T13:37:16Z</time>
      </trkpt>
      <trkpt lat="43.013" lon="1.16512">
        <ele>637.49</ele>
        <time>2013-02-12T13:37:23Z</time>
      </trkpt>
      <trkpt lat="43.01296" lon="1.16512">
        <ele>636.05</ele>
        <time>2013-02-12T13:37:30Z</time>
      </trkpt>
      <trkpt lat="43.01293" lon="1.16508">
        <ele>636.05</ele>
        <time>2013-02-12T13:37:38Z</time>
      </trkpt>
      <trkpt lat="43.01291" lon="1.16507">
        <ele>635.09</ele>
        <time>2013-02-12T13:37:45Z</time>
      </trkpt>
      <trkpt lat="43.01288" lon="1.16504">
        <ele>633.65</ele>
        <time>2013-02-12T13:37:54Z</time>
      </trkpt>
      <trkpt lat="43.01286" lon="1.16501">
        <ele>632.2</ele>
        <time>2013-02-12T13:38:02Z</time>
      </trkpt>
      <trkpt lat="43.01281" lon="1.165">
        <ele>630.28</ele>
        <time>2013-02-12T13:38:11Z</time>
      </trkpt>
      <trkpt lat="43.01279" lon="1.16502">
        <ele>629.32</ele>
        <time>2013-02-12T13:38:20Z</time>
      </trkpt>
      <trkpt lat="43.01277" lon="1.16503">
        <ele>628.84</ele>
        <time>2013-02-12T13:38:29Z</time>
      </trkpt>
      <trkpt lat="43.01273" lon="1.16505">
        <ele>628.36</ele>
        <time>2013-02-12T13:38:37Z</time>
      </trkpt>
      <trkpt lat="43.01268" lon="1.16509">
        <ele>627.88</ele>
        <time>2013-02-12T13:38:45Z</time>
      </trkpt>
      <trkpt lat="43.01265" lon="1.16509">
        <ele>627.88</ele>
        <time>2013-02-12T13:38:54Z</time>
      </trkpt>
      <trkpt lat="43.01261" lon="1.1651">
        <ele>626.44</ele>
        <time>2013-02-12T13:39:01Z</time>
      </trkpt>
      <trkpt lat="43.01258" lon="1.16511">
        <ele>625.47</ele>
        <time>2013-02-12T13:39:09Z</time>
      </trkpt>
      <trkpt lat="43.01257" lon="1.16511">
        <ele>624.51</ele>
        <time>2013-02-12T13:39:13Z</time>
      </trkpt>
      <trkpt lat="43.01254" lon="1.16513">
        <ele>624.03</ele>
        <time>2013-02-12T13:39:20Z</time>
      </trkpt>
      <trkpt lat="43.01252" lon="1.16514">
        <ele>622.59</ele>
        <time>2013-02-12T13:39:24Z</time>
      </trkpt>
      <trkpt lat="43.01248" lon="1.16515">
        <ele>621.63</ele>
        <time>2013-02-12T13:39:31Z</time>
      </trkpt>
      <trkpt lat="43.01243" lon="1.16516">
        <ele>619.23</ele>
        <time>2013-02-12T13:39:39Z</time>
      </trkpt>
      <trkpt lat="43.01237" lon="1.16516">
        <ele>617.3</ele>
        <time>2013-02-12T13:39:47Z</time>
      </trkpt>
      <trkpt lat="43.01233" lon="1.16519">
        <ele>617.3</ele>
        <time>2013-02-12T13:39:54Z</time>
      </trkpt>
      <trkpt lat="43.01229" lon="1.16521">
        <ele>615.86</ele>
        <time>2013-02-12T13:40:02Z</time>
      </trkpt>
      <trkpt lat="43.01221" lon="1.16527">
        <ele>613.94</ele>
        <time>2013-02-12T13:40:11Z</time>
      </trkpt>
      <trkpt lat="43.01215" lon="1.1653">
        <ele>612.02</ele>
        <time>2013-02-12T13:40:19Z</time>
      </trkpt>
      <trkpt lat="43.01208" lon="1.16532">
        <ele>610.09</ele>
        <time>2013-02-12T13:40:28Z</time>
      </trkpt>
      <trkpt lat="43.01205" lon="1.16533">
        <ele>610.57</ele>
        <time>2013-02-12T13:40:31Z</time>
      </trkpt>
      <trkpt lat="43.01197" lon="1.16539">
        <ele>608.17</ele>
        <time>2013-02-12T13:40:39Z</time>
      </trkpt>
      <trkpt lat="43.01194" lon="1.16544">
        <ele>607.21</ele>
        <time>2013-02-12T13:40:45Z</time>
      </trkpt>
      <trkpt lat="43.01191" lon="1.16545">
        <ele>606.25</ele>
        <time>2013-02-12T13:40:50Z</time>
      </trkpt>
      <trkpt lat="43.0119" lon="1.16547">
        <ele>604.81</ele>
        <time>2013-02-12T13:40:58Z</time>
      </trkpt>
      <trkpt lat="43.01187" lon="1.16549">
        <ele>602.4</ele>
        <time>2013-02-12T13:41:07Z</time>
      </trkpt>
      <trkpt lat="43.01185" lon="1.16548">
        <ele>600.96</ele>
        <time>2013-02-12T13:41:13Z</time>
      </trkpt>
      <trkpt lat="43.01183" lon="1.16547">
        <ele>600.48</ele>
        <time>2013-02-12T13:41:20Z</time>
      </trkpt>
      <trkpt lat="43.01181" lon="1.16546">
        <ele>598.56</ele>
        <time>2013-02-12T13:41:27Z</time>
      </trkpt>
      <trkpt lat="43.0118" lon="1.16545">
        <ele>598.56</ele>
        <time>2013-02-12T13:41:39Z</time>
      </trkpt>
      <trkpt lat="43.01179" lon="1.16539">
        <ele>596.64</ele>
        <time>2013-02-12T13:41:47Z</time>
      </trkpt>
      <trkpt lat="43.01176" lon="1.16534">
        <ele>596.15</ele>
        <time>2013-02-12T13:41:55Z</time>
      </trkpt>
      <trkpt lat="43.01172" lon="1.16534">
        <ele>593.75</ele>
        <time>2013-02-12T13:42:03Z</time>
      </trkpt>
      <trkpt lat="43.01172" lon="1.1653">
        <ele>593.75</ele>
        <time>2013-02-12T13:42:10Z</time>
      </trkpt>
      <trkpt lat="43.01171" lon="1.16533">
        <ele>591.83</ele>
        <time>2013-02-12T13:42:18Z</time>
      </trkpt>
      <trkpt lat="43.0117" lon="1.16534">
        <ele>591.35</ele>
        <time>2013-02-12T13:42:25Z</time>
      </trkpt>
      <trkpt lat="43.01165" lon="1.16537">
        <ele>589.91</ele>
        <time>2013-02-12T13:42:33Z</time>
      </trkpt>
      <trkpt lat="43.01161" lon="1.1654">
        <ele>587.5</ele>
        <time>2013-02-12T13:42:40Z</time>
      </trkpt>
      <trkpt lat="43.01155" lon="1.16546">
        <ele>586.54</ele>
        <time>2013-02-12T13:42:48Z</time>
      </trkpt>
      <trkpt lat="43.01152" lon="1.16549">
        <ele>583.66</ele>
        <time>2013-02-12T13:42:55Z</time>
      </trkpt>
      <trkpt lat="43.01149" lon="1.16551">
        <ele>582.22</ele>
        <time>2013-02-12T13:43:03Z</time>
      </trkpt>
      <trkpt lat="43.01148" lon="1.16551">
        <ele>581.73</ele>
        <time>2013-02-12T13:43:06Z</time>
      </trkpt>
      <trkpt lat="43.01145" lon="1.16554">
        <ele>580.77</ele>
        <time>2013-02-12T13:43:12Z</time>
      </trkpt>
      <trkpt lat="43.01142" lon="1.16557">
        <ele>579.33</ele>
        <time>2013-02-12T13:43:18Z</time>
      </trkpt>
      <trkpt lat="43.01136" lon="1.16563">
        <ele>578.37</ele>
        <time>2013-02-12T13:43:25Z</time>
      </trkpt>
      <trkpt lat="43.01129" lon="1.16567">
        <ele>577.41</ele>
        <time>2013-02-12T13:43:33Z</time>
      </trkpt>
      <trkpt lat="43.01127" lon="1.16567">
        <ele>576.45</ele>
        <time>2013-02-12T13:43:37Z</time>
      </trkpt>
      <trkpt lat="43.01125" lon="1.16568">
        <ele>575.97</ele>
        <time>2013-02-12T13:43:47Z</time>
      </trkpt>
      <trkpt lat="43.01124" lon="1.16568">
        <ele>576.45</ele>
        <time>2013-02-12T13:44:00Z</time>
      </trkpt>
      <trkpt lat="43.01125" lon="1.16569">
        <ele>575.97</ele>
        <time>2013-02-12T13:44:11Z</time>
      </trkpt>
      <trkpt lat="43.01124" lon="1.16569">
        <ele>575.49</ele>
        <time>2013-02-12T13:44:24Z</time>
      </trkpt>
      <trkpt lat="43.01124" lon="1.16569">
        <ele>575.01</ele>
        <time>2013-02-12T13:44:40Z</time>
      </trkpt>
      <trkpt lat="43.01124" lon="1.16569">
        <ele>576.45</ele>
        <time>2013-02-12T13:44:56Z</time>
      </trkpt>
      <trkpt lat="43.01123" lon="1.1657">
        <ele>575.97</ele>
        <time>2013-02-12T13:45:07Z</time>
      </trkpt>
      <trkpt lat="43.0112" lon="1.16572">
        <ele>575.01</ele>
        <time>2013-02-12T13:45:14Z</time>
      </trkpt>
      <trkpt lat="43.01115" lon="1.16575">
        <ele>573.08</ele>
        <time>2013-02-12T13:45:21Z</time>
      </trkpt>
      <trkpt lat="43.01113" lon="1.16575">
        <ele>572.6</ele>
        <time>2013-02-12T13:45:28Z</time>
      </trkpt>
      <trkpt lat="43.01111" lon="1.16576">
        <ele>572.12</ele>
        <time>2013-02-12T13:45:36Z</time>
      </trkpt>
      <trkpt lat="43.01108" lon="1.16576">
        <ele>571.64</ele>
        <time>2013-02-12T13:45:43Z</time>
      </trkpt>
      <trkpt lat="43.01106" lon="1.16577">
        <ele>569.24</ele>
        <time>2013-02-12T13:45:51Z</time>
      </trkpt>
      <trkpt lat="43.01103" lon="1.16578">
        <ele>569.24</ele>
        <time>2013-02-12T13:45:57Z</time>
      </trkpt>
      <trkpt lat="43.01099" lon="1.1658">
        <ele>568.28</ele>
        <time>2013-02-12T13:46:04Z</time>
      </trkpt>
      <trkpt lat="43.01095" lon="1.16586">
        <ele>566.35</ele>
        <time>2013-02-12T13:46:13Z</time>
      </trkpt>
      <trkpt lat="43.01092" lon="1.16589">
        <ele>565.87</ele>
        <time>2013-02-12T13:46:21Z</time>
      </trkpt>
      <trkpt lat="43.01089" lon="1.1659">
        <ele>563.95</ele>
        <time>2013-02-12T13:46:26Z</time>
      </trkpt>
      <trkpt lat="43.01084" lon="1.16589">
        <ele>562.51</ele>
        <time>2013-02-12T13:46:31Z</time>
      </trkpt>
      <trkpt lat="43.01081" lon="1.16581">
        <ele>561.55</ele>
        <time>2013-02-12T13:46:39Z</time>
      </trkpt>
      <trkpt lat="43.01081" lon="1.16578">
        <ele>561.07</ele>
        <time>2013-02-12T13:46:42Z</time>
      </trkpt>
      <trkpt lat="43.01077" lon="1.16578">
        <ele>559.62</ele>
        <time>2013-02-12T13:46:48Z</time>
      </trkpt>
      <trkpt lat="43.01073" lon="1.16581">
        <ele>558.18</ele>
        <time>2013-02-12T13:46:52Z</time>
      </trkpt>
      <trkpt lat="43.01069" lon="1.16584">
        <ele>556.74</ele>
        <time>2013-02-12T13:46:57Z</time>
      </trkpt>
      <trkpt lat="43.01068" lon="1.16586">
        <ele>556.26</ele>
        <time>2013-02-12T13:46:59Z</time>
      </trkpt>
      <trkpt lat="43.01064" lon="1.16588">
        <ele>555.78</ele>
        <time>2013-02-12T13:47:03Z</time>
      </trkpt>
      <trkpt lat="43.01058" lon="1.16593">
        <ele>553.38</ele>
        <time>2013-02-12T13:47:11Z</time>
      </trkpt>
      <trkpt lat="43.01056" lon="1.16599">
        <ele>552.9</ele>
        <time>2013-02-12T13:47:17Z</time>
      </trkpt>
      <trkpt lat="43.01055" lon="1.166">
        <ele>553.38</ele>
        <time>2013-02-12T13:47:26Z</time>
      </trkpt>
      <trkpt lat="43.01055" lon="1.16599">
        <ele>552.41</ele>
        <time>2013-02-12T13:47:40Z</time>
      </trkpt>
      <trkpt lat="43.01054" lon="1.16599">
        <ele>552.9</ele>
        <time>2013-02-12T13:47:51Z</time>
      </trkpt>
      <trkpt lat="43.01054" lon="1.16599">
        <ele>551.93</ele>
        <time>2013-02-12T13:48:00Z</time>
      </trkpt>
      <trkpt lat="43.01054" lon="1.16599">
        <ele>551.93</ele>
        <time>2013-02-12T13:48:15Z</time>
      </trkpt>
      <trkpt lat="43.01054" lon="1.16599">
        <ele>553.38</ele>
        <time>2013-02-12T13:48:23Z</time>
      </trkpt>
      <trkpt lat="43.01054" lon="1.16599">
        <ele>552.9</ele>
        <time>2013-02-12T13:48:34Z</time>
      </trkpt>
      <trkpt lat="43.01052" lon="1.16599">
        <ele>552.41</ele>
        <time>2013-02-12T13:48:38Z</time>
      </trkpt>
      <trkpt lat="43.01051" lon="1.16592">
        <ele>550.49</ele>
        <time>2013-02-12T13:48:42Z</time>
      </trkpt>
      <trkpt lat="43.01052" lon="1.16581">
        <ele>550.97</ele>
        <time>2013-02-12T13:48:50Z</time>
      </trkpt>
      <trkpt lat="43.01054" lon="1.16571">
        <ele>549.53</ele>
        <time>2013-02-12T13:48:57Z</time>
      </trkpt>
      <trkpt lat="43.01056" lon="1.16568">
        <ele>549.53</ele>
        <time>2013-02-12T13:48:59Z</time>
      </trkpt>
      <trkpt lat="43.01056" lon="1.16561">
        <ele>548.09</ele>
        <time>2013-02-12T13:49:05Z</time>
      </trkpt>
      <trkpt lat="43.01057" lon="1.16555">
        <ele>546.17</ele>
        <time>2013-02-12T13:49:10Z</time>
      </trkpt>
      <trkpt lat="43.01057" lon="1.1655">
        <ele>545.69</ele>
        <time>2013-02-12T13:49:14Z</time>
      </trkpt>
      <trkpt lat="43.01058" lon="1.16547">
        <ele>545.2</ele>
        <time>2013-02-12T13:49:16Z</time>
      </trkpt>
      <trkpt lat="43.0106" lon="1.16538">
        <ele>544.72</ele>
        <time>2013-02-12T13:49:22Z</time>
      </trkpt>
      <trkpt lat="43.0106" lon="1.16534">
        <ele>544.24</ele>
        <time>2013-02-12T13:49:25Z</time>
      </trkpt>
      <trkpt lat="43.01061" lon="1.16523">
        <ele>542.8</ele>
        <time>2013-02-12T13:49:32Z</time>
      </trkpt>
      <trkpt lat="43.01061" lon="1.16522">
        <ele>542.32</ele>
        <time>2013-02-12T13:49:33Z</time>
      </trkpt>
      <trkpt lat="43.01064" lon="1.16509">
        <ele>540.4</ele>
        <time>2013-02-12T13:49:41Z</time>
      </trkpt>
      <trkpt lat="43.01064" lon="1.16508">
        <ele>540.4</ele>
        <time>2013-02-12T13:49:42Z</time>
      </trkpt>
      <trkpt lat="43.01064" lon="1.16502">
        <ele>539.44</ele>
        <time>2013-02-12T13:49:46Z</time>
      </trkpt>
      <trkpt lat="43.01066" lon="1.16488">
        <ele>536.55</ele>
        <time>2013-02-12T13:49:54Z</time>
      </trkpt>
      <trkpt lat="43.01065" lon="1.16486">
        <ele>537.03</ele>
        <time>2013-02-12T13:49:55Z</time>
      </trkpt>
      <trkpt lat="43.01067" lon="1.16473">
        <ele>535.59</ele>
        <time>2013-02-12T13:50:03Z</time>
      </trkpt>
      <trkpt lat="43.01068" lon="1.16469">
        <ele>534.15</ele>
        <time>2013-02-12T13:50:06Z</time>
      </trkpt>
      <trkpt lat="43.01069" lon="1.16458">
        <ele>533.19</ele>
        <time>2013-02-12T13:50:13Z</time>
      </trkpt>
      <trkpt lat="43.01072" lon="1.16445">
        <ele>530.79</ele>
        <time>2013-02-12T13:50:22Z</time>
      </trkpt>
      <trkpt lat="43.01074" lon="1.16435">
        <ele>529.34</ele>
        <time>2013-02-12T13:50:28Z</time>
      </trkpt>
      <trkpt lat="43.01074" lon="1.16429">
        <ele>529.82</ele>
        <time>2013-02-12T13:50:32Z</time>
      </trkpt>
      <trkpt lat="43.01074" lon="1.16423">
        <ele>527.9</ele>
        <time>2013-02-12T13:50:35Z</time>
      </trkpt>
      <trkpt lat="43.01074" lon="1.16418">
        <ele>526.94</ele>
        <time>2013-02-12T13:50:38Z</time>
      </trkpt>
      <trkpt lat="43.01074" lon="1.16414">
        <ele>526.46</ele>
        <time>2013-02-12T13:50:40Z</time>
      </trkpt>
      <trkpt lat="43.01074" lon="1.16402">
        <ele>526.46</ele>
        <time>2013-02-12T13:50:47Z</time>
      </trkpt>
      <trkpt lat="43.01073" lon="1.1639">
        <ele>525.02</ele>
        <time>2013-02-12T13:50:54Z</time>
      </trkpt>
      <trkpt lat="43.01074" lon="1.16384">
        <ele>522.61</ele>
        <time>2013-02-12T13:50:58Z</time>
      </trkpt>
      <trkpt lat="43.01074" lon="1.16371">
        <ele>521.65</ele>
        <time>2013-02-12T13:51:06Z</time>
      </trkpt>
      <trkpt lat="43.01074" lon="1.16364">
        <ele>519.73</ele>
        <time>2013-02-12T13:51:10Z</time>
      </trkpt>
      <trkpt lat="43.01075" lon="1.16356">
        <ele>518.77</ele>
        <time>2013-02-12T13:51:15Z</time>
      </trkpt>
      <trkpt lat="43.01075" lon="1.16344">
        <ele>517.81</ele>
        <time>2013-02-12T13:51:21Z</time>
      </trkpt>
      <trkpt lat="43.01076" lon="1.1633">
        <ele>516.37</ele>
        <time>2013-02-12T13:51:29Z</time>
      </trkpt>
      <trkpt lat="43.01076" lon="1.16319">
        <ele>514.44</ele>
        <time>2013-02-12T13:51:36Z</time>
      </trkpt>
      <trkpt lat="43.01079" lon="1.16307">
        <ele>512.52</ele>
        <time>2013-02-12T13:51:45Z</time>
      </trkpt>
      <trkpt lat="43.01079" lon="1.16296">
        <ele>511.08</ele>
        <time>2013-02-12T13:51:52Z</time>
      </trkpt>
      <trkpt lat="43.01079" lon="1.1629">
        <ele>510.12</ele>
        <time>2013-02-12T13:51:55Z</time>
      </trkpt>
      <trkpt lat="43.01081" lon="1.16277">
        <ele>507.71</ele>
        <time>2013-02-12T13:52:04Z</time>
      </trkpt>
      <trkpt lat="43.01083" lon="1.1627">
        <ele>506.27</ele>
        <time>2013-02-12T13:52:09Z</time>
      </trkpt>
      <trkpt lat="43.01082" lon="1.16267">
        <ele>506.27</ele>
        <time>2013-02-12T13:52:12Z</time>
      </trkpt>
      <trkpt lat="43.01077" lon="1.16269">
        <ele>503.87</ele>
        <time>2013-02-12T13:52:19Z</time>
      </trkpt>
      <trkpt lat="43.01072" lon="1.16272">
        <ele>502.91</ele>
        <time>2013-02-12T13:52:25Z</time>
      </trkpt>
      <trkpt lat="43.01067" lon="1.16272">
        <ele>501.46</ele>
        <time>2013-02-12T13:52:31Z</time>
      </trkpt>
      <trkpt lat="43.01065" lon="1.16271">
        <ele>501.95</ele>
        <time>2013-02-12T13:52:33Z</time>
      </trkpt>
      <trkpt lat="43.01065" lon="1.16264">
        <ele>499.54</ele>
        <time>2013-02-12T13:52:41Z</time>
      </trkpt>
      <trkpt lat="43.01069" lon="1.16258">
        <ele>498.58</ele>
        <time>2013-02-12T13:52:48Z</time>
      </trkpt>
      <trkpt lat="43.01068" lon="1.16252">
        <ele>496.66</ele>
        <time>2013-02-12T13:52:54Z</time>
      </trkpt>
      <trkpt lat="43.01068" lon="1.16251">
        <ele>496.66</ele>
        <time>2013-02-12T13:52:55Z</time>
      </trkpt>
      <trkpt lat="43.01065" lon="1.16245">
        <ele>495.22</ele>
        <time>2013-02-12T13:53:01Z</time>
      </trkpt>
      <trkpt lat="43.01063" lon="1.16242">
        <ele>494.26</ele>
        <time>2013-02-12T13:53:04Z</time>
      </trkpt>
      <trkpt lat="43.01062" lon="1.16238">
        <ele>493.77</ele>
        <time>2013-02-12T13:53:07Z</time>
      </trkpt>
      <trkpt lat="43.01056" lon="1.1623">
        <ele>492.33</ele>
        <time>2013-02-12T13:53:15Z</time>
      </trkpt>
      <trkpt lat="43.01054" lon="1.16228">
        <ele>490.89</ele>
        <time>2013-02-12T13:53:19Z</time>
      </trkpt>
      <trkpt lat="43.01047" lon="1.16224">
        <ele>488.97</ele>
        <time>2013-02-12T13:53:27Z</time>
      </trkpt>
      <trkpt lat="43.01039" lon="1.16219">
        <ele>488.01</ele>
        <time>2013-02-12T13:53:35Z</time>
      </trkpt>
      <trkpt lat="43.01034" lon="1.16214">
        <ele>486.56</ele>
        <time>2013-02-12T13:53:42Z</time>
      </trkpt>
      <trkpt lat="43.01028" lon="1.16208">
        <ele>484.16</ele>
        <time>2013-02-12T13:53:48Z</time>
      </trkpt>
      <trkpt lat="43.01027" lon="1.16207">
        <ele>484.16</ele>
        <time>2013-02-12T13:53:49Z</time>
      </trkpt>
      <trkpt lat="43.01023" lon="1.16203">
        <ele>483.2</ele>
        <time>2013-02-12T13:53:57Z</time>
      </trkpt>
      <trkpt lat="43.01023" lon="1.16202">
        <ele>482.72</ele>
        <time>2013-02-12T13:53:59Z</time>
      </trkpt>
      <trkpt lat="43.01021" lon="1.16201">
        <ele>482.72</ele>
        <time>2013-02-12T13:54:01Z</time>
      </trkpt>
      <trkpt lat="43.01013" lon="1.16196">
        <ele>481.76</ele>
        <time>2013-02-12T13:54:09Z</time>
      </trkpt>
      <trkpt lat="43.01006" lon="1.1619">
        <ele>480.8</ele>
        <time>2013-02-12T13:54:17Z</time>
      </trkpt>
      <trkpt lat="43.00997" lon="1.1618">
        <ele>478.39</ele>
        <time>2013-02-12T13:54:27Z</time>
      </trkpt>
      <trkpt lat="43.00995" lon="1.16174">
        <ele>476.95</ele>
        <time>2013-02-12T13:54:33Z</time>
      </trkpt>
      <trkpt lat="43.00992" lon="1.16172">
        <ele>476.95</ele>
        <time>2013-02-12T13:54:39Z</time>
      </trkpt>
      <trkpt lat="43.0099" lon="1.16169">
        <ele>476.47</ele>
        <time>2013-02-12T13:54:41Z</time>
      </trkpt>
      <trkpt lat="43.00984" lon="1.16162">
        <ele>475.51</ele>
        <time>2013-02-12T13:54:47Z</time>
      </trkpt>
      <trkpt lat="43.00979" lon="1.16159">
        <ele>474.07</ele>
        <time>2013-02-12T13:54:53Z</time>
      </trkpt>
      <trkpt lat="43.00977" lon="1.16158">
        <ele>474.07</ele>
        <time>2013-02-12T13:54:55Z</time>
      </trkpt>
      <trkpt lat="43.00974" lon="1.16156">
        <ele>473.59</ele>
        <time>2013-02-12T13:54:58Z</time>
      </trkpt>
      <trkpt lat="43.00971" lon="1.16154">
        <ele>473.59</ele>
        <time>2013-02-12T13:55:02Z</time>
      </trkpt>
      <trkpt lat="43.00968" lon="1.16151">
        <ele>471.66</ele>
        <time>2013-02-12T13:55:05Z</time>
      </trkpt>
      <trkpt lat="43.00966" lon="1.1615">
        <ele>473.11</ele>
        <time>2013-02-12T13:55:07Z</time>
      </trkpt>
      <trkpt lat="43.00959" lon="1.16143">
        <ele>470.7</ele>
        <time>2013-02-12T13:55:16Z</time>
      </trkpt>
      <trkpt lat="43.00956" lon="1.16139">
        <ele>470.22</ele>
        <time>2013-02-12T13:55:19Z</time>
      </trkpt>
      <trkpt lat="43.00951" lon="1.16137">
        <ele>469.74</ele>
        <time>2013-02-12T13:55:25Z</time>
      </trkpt>
      <trkpt lat="43.00946" lon="1.16133">
        <ele>468.78</ele>
        <time>2013-02-12T13:55:29Z</time>
      </trkpt>
      <trkpt lat="43.00937" lon="1.16124">
        <ele>466.86</ele>
        <time>2013-02-12T13:55:38Z</time>
      </trkpt>
      <trkpt lat="43.00932" lon="1.16119">
        <ele>467.34</ele>
        <time>2013-02-12T13:55:44Z</time>
      </trkpt>
      <trkpt lat="43.00922" lon="1.16113">
        <ele>466.38</ele>
        <time>2013-02-12T13:55:54Z</time>
      </trkpt>
      <trkpt lat="43.00922" lon="1.16111">
        <ele>466.38</ele>
        <time>2013-02-12T13:56:03Z</time>
      </trkpt>
      <trkpt lat="43.00922" lon="1.16109">
        <ele>465.9</ele>
        <time>2013-02-12T13:56:20Z</time>
      </trkpt>
      <trkpt lat="43.00921" lon="1.16109">
        <ele>465.9</ele>
        <time>2013-02-12T13:56:29Z</time>
      </trkpt>
      <trkpt lat="43.00921" lon="1.16109">
        <ele>461.57</ele>
        <time>2013-02-12T13:56:31Z</time>
      </trkpt>
      <trkpt lat="43.00921" lon="1.16109">
        <ele>465.42</ele>
        <time>2013-02-12T13:56:32Z</time>
      </trkpt>
      <trkpt lat="43.00921" lon="1.16109">
        <ele>469.26</ele>
        <time>2013-02-12T13:56:42Z</time>
      </trkpt>
      <trkpt lat="43.00921" lon="1.16109">
        <ele>466.86</ele>
        <time>2013-02-12T13:56:43Z</time>
      </trkpt>
      <trkpt lat="43.00921" lon="1.16109">
        <ele>466.86</ele>
        <time>2013-02-12T13:56:54Z</time>
      </trkpt>
      <trkpt lat="43.00921" lon="1.16109">
        <ele>466.38</ele>
        <time>2013-02-12T13:57:11Z</time>
      </trkpt>
      <trkpt lat="43.00921" lon="1.16109">
        <ele>466.86</ele>
        <time>2013-02-12T13:57:26Z</time>
      </trkpt>
      <trkpt lat="43.00921" lon="1.16109">
        <ele>466.38</ele>
        <time>2013-02-12T13:57:35Z</time>
      </trkpt>
      <trkpt lat="43.00917" lon="1.16108">
        <ele>465.9</ele>
        <time>2013-02-12T13:57:43Z</time>
      </trkpt>
      <trkpt lat="43.00908" lon="1.16102">
        <ele>465.9</ele>
        <time>2013-02-12T13:57:53Z</time>
      </trkpt>
      <trkpt lat="43.00905" lon="1.161">
        <ele>464.45</ele>
        <time>2013-02-12T13:57:56Z</time>
      </trkpt>
      <trkpt lat="43.00897" lon="1.16095">
        <ele>463.97</ele>
        <time>2013-02-12T13:58:04Z</time>
      </trkpt>
      <trkpt lat="43.00888" lon="1.16088">
        <ele>463.49</ele>
        <time>2013-02-12T13:58:13Z</time>
      </trkpt>
      <trkpt lat="43.00884" lon="1.16087">
        <ele>463.01</ele>
        <time>2013-02-12T13:58:17Z</time>
      </trkpt>
      <trkpt lat="43.0088" lon="1.16084">
        <ele>463.01</ele>
        <time>2013-02-12T13:58:21Z</time>
      </trkpt>
      <trkpt lat="43.0087" lon="1.16079">
        <ele>462.53</ele>
        <time>2013-02-12T13:58:30Z</time>
      </trkpt>
      <trkpt lat="43.00861" lon="1.16074">
        <ele>462.05</ele>
        <time>2013-02-12T13:58:39Z</time>
      </trkpt>
      <trkpt lat="43.00853" lon="1.16069">
        <ele>461.09</ele>
        <time>2013-02-12T13:58:46Z</time>
      </trkpt>
      <trkpt lat="43.0085" lon="1.16066">
        <ele>460.61</ele>
        <time>2013-02-12T13:58:53Z</time>
      </trkpt>
      <trkpt lat="43.00845" lon="1.16062">
        <ele>460.13</ele>
        <time>2013-02-12T13:58:59Z</time>
      </trkpt>
      <trkpt lat="43.00834" lon="1.16053">
        <ele>458.69</ele>
        <time>2013-02-12T13:59:08Z</time>
      </trkpt>
      <trkpt lat="43.00826" lon="1.16048">
        <ele>457.72</ele>
        <time>2013-02-12T13:59:16Z</time>
      </trkpt>
      <trkpt lat="43.0082" lon="1.16044">
        <ele>456.28</ele>
        <time>2013-02-12T13:59:21Z</time>
      </trkpt>
      <trkpt lat="43.00811" lon="1.16037">
        <ele>454.84</ele>
        <time>2013-02-12T13:59:29Z</time>
      </trkpt>
      <trkpt lat="43.00809" lon="1.16035">
        <ele>454.84</ele>
        <time>2013-02-12T13:59:31Z</time>
      </trkpt>
      <trkpt lat="43.00805" lon="1.16031">
        <ele>454.36</ele>
        <time>2013-02-12T13:59:35Z</time>
      </trkpt>
      <trkpt lat="43.00802" lon="1.16029">
        <ele>453.88</ele>
        <time>2013-02-12T13:59:37Z</time>
      </trkpt>
      <trkpt lat="43.00795" lon="1.16024">
        <ele>453.4</ele>
        <time>2013-02-12T13:59:45Z</time>
      </trkpt>
      <trkpt lat="43.00792" lon="1.16022">
        <ele>451.96</ele>
        <time>2013-02-12T13:59:48Z</time>
      </trkpt>
      <trkpt lat="43.00788" lon="1.16016">
        <ele>450.52</ele>
        <time>2013-02-12T13:59:54Z</time>
      </trkpt>
      <trkpt lat="43.00787" lon="1.16017">
        <ele>450.52</ele>
        <time>2013-02-12T13:59:55Z</time>
      </trkpt>
      <trkpt lat="43.00781" lon="1.16012">
        <ele>450.52</ele>
        <time>2013-02-12T14:00:01Z</time>
      </trkpt>
      <trkpt lat="43.00773" lon="1.16006">
        <ele>449.07</ele>
        <time>2013-02-12T14:00:08Z</time>
      </trkpt>
      <trkpt lat="43.00765" lon="1.16001">
        <ele>446.67</ele>
        <time>2013-02-12T14:00:16Z</time>
      </trkpt>
      <trkpt lat="43.00759" lon="1.15996">
        <ele>444.75</ele>
        <time>2013-02-12T14:00:24Z</time>
      </trkpt>
      <trkpt lat="43.00751" lon="1.1599">
        <ele>443.79</ele>
        <time>2013-02-12T14:00:33Z</time>
      </trkpt>
      <trkpt lat="43.00744" lon="1.15985">
        <ele>442.34</ele>
        <time>2013-02-12T14:00:41Z</time>
      </trkpt>
      <trkpt lat="43.00743" lon="1.15985">
        <ele>442.34</ele>
        <time>2013-02-12T14:00:43Z</time>
      </trkpt>
      <trkpt lat="43.00739" lon="1.15992">
        <ele>440.9</ele>
        <time>2013-02-12T14:00:50Z</time>
      </trkpt>
      <trkpt lat="43.00734" lon="1.16005">
        <ele>439.94</ele>
        <time>2013-02-12T14:00:59Z</time>
      </trkpt>
      <trkpt lat="43.00728" lon="1.16015">
        <ele>440.42</ele>
        <time>2013-02-12T14:01:07Z</time>
      </trkpt>
      <trkpt lat="43.00726" lon="1.16024">
        <ele>439.94</ele>
        <time>2013-02-12T14:01:15Z</time>
      </trkpt>
      <trkpt lat="43.00722" lon="1.16033">
        <ele>439.94</ele>
        <time>2013-02-12T14:01:23Z</time>
      </trkpt>
      <trkpt lat="43.00719" lon="1.16041">
        <ele>440.42</ele>
        <time>2013-02-12T14:01:29Z</time>
      </trkpt>
      <trkpt lat="43.00718" lon="1.16049">
        <ele>441.38</ele>
        <time>2013-02-12T14:01:37Z</time>
      </trkpt>
      <trkpt lat="43.00718" lon="1.16054">
        <ele>440.9</ele>
        <time>2013-02-12T14:01:43Z</time>
      </trkpt>
      <trkpt lat="43.00718" lon="1.16062">
        <ele>441.38</ele>
        <time>2013-02-12T14:01:49Z</time>
      </trkpt>
      <trkpt lat="43.00718" lon="1.16065">
        <ele>439.94</ele>
        <time>2013-02-12T14:01:51Z</time>
      </trkpt>
      <trkpt lat="43.00717" lon="1.16076">
        <ele>441.86</ele>
        <time>2013-02-12T14:01:58Z</time>
      </trkpt>
      <trkpt lat="43.00717" lon="1.1608">
        <ele>442.82</ele>
        <time>2013-02-12T14:02:00Z</time>
      </trkpt>
      <trkpt lat="43.00716" lon="1.16089">
        <ele>442.34</ele>
        <time>2013-02-12T14:02:04Z</time>
      </trkpt>
      <trkpt lat="43.00717" lon="1.16094">
        <ele>442.82</ele>
        <time>2013-02-12T14:02:10Z</time>
      </trkpt>
      <trkpt lat="43.00718" lon="1.16101">
        <ele>442.82</ele>
        <time>2013-02-12T14:02:17Z</time>
      </trkpt>
      <trkpt lat="43.0072" lon="1.16107">
        <ele>443.79</ele>
        <time>2013-02-12T14:02:24Z</time>
      </trkpt>
      <trkpt lat="43.00723" lon="1.16111">
        <ele>443.31</ele>
        <time>2013-02-12T14:02:32Z</time>
      </trkpt>
      <trkpt lat="43.00717" lon="1.16126">
        <ele>442.82</ele>
        <time>2013-02-12T14:02:39Z</time>
      </trkpt>
      <trkpt lat="43.00708" lon="1.16146">
        <ele>442.82</ele>
        <time>2013-02-12T14:02:45Z</time>
      </trkpt>
      <trkpt lat="43.00706" lon="1.16151">
        <ele>442.82</ele>
        <time>2013-02-12T14:02:47Z</time>
      </trkpt>
      <trkpt lat="43.00699" lon="1.16167">
        <ele>442.34</ele>
        <time>2013-02-12T14:02:55Z</time>
      </trkpt>
      <trkpt lat="43.00694" lon="1.16179">
        <ele>441.38</ele>
        <time>2013-02-12T14:03:02Z</time>
      </trkpt>
      <trkpt lat="43.00689" lon="1.1619">
        <ele>440.9</ele>
        <time>2013-02-12T14:03:09Z</time>
      </trkpt>
      <trkpt lat="43.00688" lon="1.16193">
        <ele>440.42</ele>
        <time>2013-02-12T14:03:14Z</time>
      </trkpt>
      <trkpt lat="43.00684" lon="1.16205">
        <ele>440.42</ele>
        <time>2013-02-12T14:03:20Z</time>
      </trkpt>
      <trkpt lat="43.00682" lon="1.1621">
        <ele>439.94</ele>
        <time>2013-02-12T14:03:23Z</time>
      </trkpt>
      <trkpt lat="43.00675" lon="1.16222">
        <ele>439.94</ele>
        <time>2013-02-12T14:03:31Z</time>
      </trkpt>
      <trkpt lat="43.00667" lon="1.16232">
        <ele>438.98</ele>
        <time>2013-02-12T14:03:38Z</time>
      </trkpt>
      <trkpt lat="43.00665" lon="1.16235">
        <ele>438.98</ele>
        <time>2013-02-12T14:03:41Z</time>
      </trkpt>
      <trkpt lat="43.00657" lon="1.16246">
        <ele>438.02</ele>
        <time>2013-02-12T14:03:50Z</time>
      </trkpt>
      <trkpt lat="43.0065" lon="1.16258">
        <ele>437.54</ele>
        <time>2013-02-12T14:03:57Z</time>
      </trkpt>
      <trkpt lat="43.00646" lon="1.16269">
        <ele>437.06</ele>
        <time>2013-02-12T14:04:04Z</time>
      </trkpt>
      <trkpt lat="43.00642" lon="1.16277">
        <ele>436.58</ele>
        <time>2013-02-12T14:04:10Z</time>
      </trkpt>
      <trkpt lat="43.00639" lon="1.16284">
        <ele>435.13</ele>
        <time>2013-02-12T14:04:16Z</time>
      </trkpt>
      <trkpt lat="43.00632" lon="1.16293">
        <ele>435.13</ele>
        <time>2013-02-12T14:04:23Z</time>
      </trkpt>
      <trkpt lat="43.00628" lon="1.16299">
        <ele>435.13</ele>
        <time>2013-02-12T14:04:30Z</time>
      </trkpt>
      <trkpt lat="43.00622" lon="1.16305">
        <ele>434.65</ele>
        <time>2013-02-12T14:04:37Z</time>
      </trkpt>
      <trkpt lat="43.00616" lon="1.16313">
        <ele>434.17</ele>
        <time>2013-02-12T14:04:44Z</time>
      </trkpt>
      <trkpt lat="43.00606" lon="1.16324">
        <ele>433.69</ele>
        <time>2013-02-12T14:04:52Z</time>
      </trkpt>
      <trkpt lat="43.00602" lon="1.16329">
        <ele>433.21</ele>
        <time>2013-02-12T14:04:55Z</time>
      </trkpt>
      <trkpt lat="43.00592" lon="1.1634">
        <ele>432.73</ele>
        <time>2013-02-12T14:05:04Z</time>
      </trkpt>
      <trkpt lat="43.00584" lon="1.16348">
        <ele>431.77</ele>
        <time>2013-02-12T14:05:11Z</time>
      </trkpt>
      <trkpt lat="43.00583" lon="1.16349">
        <ele>431.77</ele>
        <time>2013-02-12T14:05:12Z</time>
      </trkpt>
      <trkpt lat="43.00574" lon="1.16358">
        <ele>432.25</ele>
        <time>2013-02-12T14:05:21Z</time>
      </trkpt>
      <trkpt lat="43.0057" lon="1.16362">
        <ele>431.29</ele>
        <time>2013-02-12T14:05:25Z</time>
      </trkpt>
      <trkpt lat="43.00562" lon="1.16371">
        <ele>431.29</ele>
        <time>2013-02-12T14:05:31Z</time>
      </trkpt>
      <trkpt lat="43.00558" lon="1.16377">
        <ele>431.29</ele>
        <time>2013-02-12T14:05:38Z</time>
      </trkpt>
      <trkpt lat="43.00556" lon="1.1638">
        <ele>430.81</ele>
        <time>2013-02-12T14:05:42Z</time>
      </trkpt>
      <trkpt lat="43.00551" lon="1.16385">
        <ele>431.29</ele>
        <time>2013-02-12T14:05:48Z</time>
      </trkpt>
      <trkpt lat="43.00546" lon="1.1639">
        <ele>431.29</ele>
        <time>2013-02-12T14:05:52Z</time>
      </trkpt>
      <trkpt lat="43.00538" lon="1.16402">
        <ele>431.29</ele>
        <time>2013-02-12T14:05:59Z</time>
      </trkpt>
      <trkpt lat="43.00533" lon="1.16409">
        <ele>431.29</ele>
        <time>2013-02-12T14:06:05Z</time>
      </trkpt>
      <trkpt lat="43.0053" lon="1.16415">
        <ele>431.29</ele>
        <time>2013-02-12T14:06:10Z</time>
      </trkpt>
      <trkpt lat="43.00527" lon="1.16416">
        <ele>430.33</ele>
        <time>2013-02-12T14:06:18Z</time>
      </trkpt>
      <trkpt lat="43.0052" lon="1.16421">
        <ele>430.33</ele>
        <time>2013-02-12T14:06:25Z</time>
      </trkpt>
      <trkpt lat="43.00516" lon="1.16424">
        <ele>429.85</ele>
        <time>2013-02-12T14:06:28Z</time>
      </trkpt>
      <trkpt lat="43.00507" lon="1.16429">
        <ele>430.33</ele>
        <time>2013-02-12T14:06:33Z</time>
      </trkpt>
      <trkpt lat="43.005" lon="1.1643">
        <ele>430.81</ele>
        <time>2013-02-12T14:06:38Z</time>
      </trkpt>
      <trkpt lat="43.00498" lon="1.1643">
        <ele>429.85</ele>
        <time>2013-02-12T14:06:40Z</time>
      </trkpt>
      <trkpt lat="43.00488" lon="1.16429">
        <ele>430.33</ele>
        <time>2013-02-12T14:06:47Z</time>
      </trkpt>
      <trkpt lat="43.00485" lon="1.16428">
        <ele>430.33</ele>
        <time>2013-02-12T14:06:49Z</time>
      </trkpt>
      <trkpt lat="43.00475" lon="1.16424">
        <ele>428.4</ele>
        <time>2013-02-12T14:06:57Z</time>
      </trkpt>
      <trkpt lat="43.00474" lon="1.16423">
        <ele>427.92</ele>
        <time>2013-02-12T14:06:58Z</time>
      </trkpt>
      <trkpt lat="43.0047" lon="1.16419">
        <ele>428.4</ele>
        <time>2013-02-12T14:07:04Z</time>
      </trkpt>
      <trkpt lat="43.00461" lon="1.16411">
        <ele>427.92</ele>
        <time>2013-02-12T14:07:13Z</time>
      </trkpt>
      <trkpt lat="43.00457" lon="1.16407">
        <ele>426.96</ele>
        <time>2013-02-12T14:07:18Z</time>
      </trkpt>
      <trkpt lat="43.00454" lon="1.16405">
        <ele>426.48</ele>
        <time>2013-02-12T14:07:21Z</time>
      </trkpt>
      <trkpt lat="43.0045" lon="1.16402">
        <ele>426</ele>
        <time>2013-02-12T14:07:26Z</time>
      </trkpt>
      <trkpt lat="43.00443" lon="1.16392">
        <ele>424.56</ele>
        <time>2013-02-12T14:07:34Z</time>
      </trkpt>
      <trkpt lat="43.00437" lon="1.16384">
        <ele>423.6</ele>
        <time>2013-02-12T14:07:41Z</time>
      </trkpt>
      <trkpt lat="43.0043" lon="1.16371">
        <ele>423.12</ele>
        <time>2013-02-12T14:07:49Z</time>
      </trkpt>
      <trkpt lat="43.00421" lon="1.16362">
        <ele>420.71</ele>
        <time>2013-02-12T14:07:58Z</time>
      </trkpt>
      <trkpt lat="43.00413" lon="1.16359">
        <ele>420.71</ele>
        <time>2013-02-12T14:08:05Z</time>
      </trkpt>
      <trkpt lat="43.0041" lon="1.16359">
        <ele>420.23</ele>
        <time>2013-02-12T14:08:09Z</time>
      </trkpt>
      <trkpt lat="43.00401" lon="1.1636">
        <ele>417.83</ele>
        <time>2013-02-12T14:08:17Z</time>
      </trkpt>
      <trkpt lat="43.00392" lon="1.16362">
        <ele>417.83</ele>
        <time>2013-02-12T14:08:26Z</time>
      </trkpt>
      <trkpt lat="43.00387" lon="1.16364">
        <ele>417.83</ele>
        <time>2013-02-12T14:08:31Z</time>
      </trkpt>
      <trkpt lat="43.00382" lon="1.16366">
        <ele>417.83</ele>
        <time>2013-02-12T14:08:39Z</time>
      </trkpt>
      <trkpt lat="43.00378" lon="1.16367">
        <ele>417.83</ele>
        <time>2013-02-12T14:08:45Z</time>
      </trkpt>
      <trkpt lat="43.00368" lon="1.16369">
        <ele>416.87</ele>
        <time>2013-02-12T14:08:53Z</time>
      </trkpt>
      <trkpt lat="43.00364" lon="1.16369">
        <ele>416.39</ele>
        <time>2013-02-12T14:08:58Z</time>
      </trkpt>
      <trkpt lat="43.00361" lon="1.16371">
        <ele>413.98</ele>
        <time>2013-02-12T14:09:01Z</time>
      </trkpt>
      <trkpt lat="43.00355" lon="1.16376">
        <ele>415.43</ele>
        <time>2013-02-12T14:09:05Z</time>
      </trkpt>
      <trkpt lat="43.00346" lon="1.1638">
        <ele>413.98</ele>
        <time>2013-02-12T14:09:13Z</time>
      </trkpt>
      <trkpt lat="43.00337" lon="1.16382">
        <ele>413.5</ele>
        <time>2013-02-12T14:09:21Z</time>
      </trkpt>
      <trkpt lat="43.00326" lon="1.16382">
        <ele>413.5</ele>
        <time>2013-02-12T14:09:30Z</time>
      </trkpt>
      <trkpt lat="43.00316" lon="1.16382">
        <ele>413.02</ele>
        <time>2013-02-12T14:09:38Z</time>
      </trkpt>
      <trkpt lat="43.00307" lon="1.16383">
        <ele>412.54</ele>
        <time>2013-02-12T14:09:47Z</time>
      </trkpt>
      <trkpt lat="43.00303" lon="1.16385">
        <ele>412.54</ele>
        <time>2013-02-12T14:09:53Z</time>
      </trkpt>
      <trkpt lat="43.00302" lon="1.16384">
        <ele>413.5</ele>
        <time>2013-02-12T14:10:01Z</time>
      </trkpt>
      <trkpt lat="43.00302" lon="1.16385">
        <ele>413.02</ele>
        <time>2013-02-12T14:10:14Z</time>
      </trkpt>
      <trkpt lat="43.003" lon="1.16387">
        <ele>413.02</ele>
        <time>2013-02-12T14:10:21Z</time>
      </trkpt>
      <trkpt lat="43.00297" lon="1.16389">
        <ele>412.54</ele>
        <time>2013-02-12T14:10:27Z</time>
      </trkpt>
      <trkpt lat="43.00297" lon="1.16389">
        <ele>413.02</ele>
        <time>2013-02-12T14:10:36Z</time>
      </trkpt>
      <trkpt lat="43.00295" lon="1.1639">
        <ele>413.02</ele>
        <time>2013-02-12T14:10:45Z</time>
      </trkpt>
      <trkpt lat="43.00293" lon="1.16391">
        <ele>413.02</ele>
        <time>2013-02-12T14:10:51Z</time>
      </trkpt>
      <trkpt lat="43.0029" lon="1.16392">
        <ele>413.02</ele>
        <time>2013-02-12T14:10:55Z</time>
      </trkpt>
      <trkpt lat="43.00289" lon="1.16396">
        <ele>412.54</ele>
        <time>2013-02-12T14:11:02Z</time>
      </trkpt>
      <trkpt lat="43.00289" lon="1.16396">
        <ele>412.54</ele>
        <time>2013-02-12T14:11:06Z</time>
      </trkpt>
      <trkpt lat="43.00292" lon="1.16394">
        <ele>412.54</ele>
        <time>2013-02-12T14:11:10Z</time>
      </trkpt>
      <trkpt lat="43.00301" lon="1.16385">
        <ele>411.1</ele>
        <time>2013-02-12T14:11:20Z</time>
      </trkpt>
      <trkpt lat="43.00306" lon="1.16377">
        <ele>413.02</ele>
        <time>2013-02-12T14:11:27Z</time>
      </trkpt>
      <trkpt lat="43.00302" lon="1.16361">
        <ele>413.02</ele>
        <time>2013-02-12T14:11:37Z</time>
      </trkpt>
      <trkpt lat="43.00296" lon="1.16351">
        <ele>413.02</ele>
        <time>2013-02-12T14:11:45Z</time>
      </trkpt>
      <trkpt lat="43.00293" lon="1.16347">
        <ele>413.5</ele>
        <time>2013-02-12T14:11:48Z</time>
      </trkpt>
      <trkpt lat="43.00289" lon="1.16339">
        <ele>413.5</ele>
        <time>2013-02-12T14:11:55Z</time>
      </trkpt>
      <trkpt lat="43.00286" lon="1.16336">
        <ele>413.98</ele>
        <time>2013-02-12T14:11:59Z</time>
      </trkpt>
      <trkpt lat="43.00282" lon="1.1633">
        <ele>413.98</ele>
        <time>2013-02-12T14:12:04Z</time>
      </trkpt>
      <trkpt lat="43.00275" lon="1.16319">
        <ele>414.95</ele>
        <time>2013-02-12T14:12:13Z</time>
      </trkpt>
      <trkpt lat="43.00274" lon="1.16316">
        <ele>414.95</ele>
        <time>2013-02-12T14:12:16Z</time>
      </trkpt>
      <trkpt lat="43.0027" lon="1.1631">
        <ele>415.43</ele>
        <time>2013-02-12T14:12:22Z</time>
      </trkpt>
      <trkpt lat="43.00266" lon="1.16305">
        <ele>415.91</ele>
        <time>2013-02-12T14:12:29Z</time>
      </trkpt>
      <trkpt lat="43.00262" lon="1.16297">
        <ele>416.39</ele>
        <time>2013-02-12T14:12:36Z</time>
      </trkpt>
      <trkpt lat="43.00261" lon="1.16295">
        <ele>416.39</ele>
        <time>2013-02-12T14:12:38Z</time>
      </trkpt>
      <trkpt lat="43.00259" lon="1.16285">
        <ele>417.35</ele>
        <time>2013-02-12T14:12:46Z</time>
      </trkpt>
      <trkpt lat="43.00258" lon="1.1628">
        <ele>417.83</ele>
        <time>2013-02-12T14:12:50Z</time>
      </trkpt>
      <trkpt lat="43.00256" lon="1.16268">
        <ele>418.31</ele>
        <time>2013-02-12T14:12:58Z</time>
      </trkpt>
      <trkpt lat="43.00255" lon="1.16265">
        <ele>418.31</ele>
        <time>2013-02-12T14:13:00Z</time>
      </trkpt>
      <trkpt lat="43.00254" lon="1.16261">
        <ele>418.79</ele>
        <time>2013-02-12T14:13:03Z</time>
      </trkpt>
      <trkpt lat="43.00253" lon="1.16253">
        <ele>419.27</ele>
        <time>2013-02-12T14:13:08Z</time>
      </trkpt>
      <trkpt lat="43.00253" lon="1.16249">
        <ele>420.23</ele>
        <time>2013-02-12T14:13:11Z</time>
      </trkpt>
      <trkpt lat="43.00251" lon="1.1624">
        <ele>419.75</ele>
        <time>2013-02-12T14:13:17Z</time>
      </trkpt>
      <trkpt lat="43.00249" lon="1.16227">
        <ele>420.23</ele>
        <time>2013-02-12T14:13:25Z</time>
      </trkpt>
      <trkpt lat="43.00247" lon="1.16216">
        <ele>420.23</ele>
        <time>2013-02-12T14:13:32Z</time>
      </trkpt>
      <trkpt lat="43.00247" lon="1.16213">
        <ele>420.71</ele>
        <time>2013-02-12T14:13:34Z</time>
      </trkpt>
      <trkpt lat="43.00245" lon="1.16202">
        <ele>422.64</ele>
        <time>2013-02-12T14:13:43Z</time>
      </trkpt>
      <trkpt lat="43.00243" lon="1.16191">
        <ele>422.16</ele>
        <time>2013-02-12T14:13:51Z</time>
      </trkpt>
      <trkpt lat="43.00242" lon="1.16182">
        <ele>421.68</ele>
        <time>2013-02-12T14:13:57Z</time>
      </trkpt>
      <trkpt lat="43.00242" lon="1.1618">
        <ele>422.16</ele>
        <time>2013-02-12T14:13:59Z</time>
      </trkpt>
      <trkpt lat="43.00239" lon="1.16167">
        <ele>423.12</ele>
        <time>2013-02-12T14:14:07Z</time>
      </trkpt>
      <trkpt lat="43.00238" lon="1.16164">
        <ele>422.64</ele>
        <time>2013-02-12T14:14:09Z</time>
      </trkpt>
      <trkpt lat="43.00237" lon="1.16157">
        <ele>423.6</ele>
        <time>2013-02-12T14:14:14Z</time>
      </trkpt>
      <trkpt lat="43.00236" lon="1.16152">
        <ele>424.56</ele>
        <time>2013-02-12T14:14:17Z</time>
      </trkpt>
      <trkpt lat="43.00234" lon="1.16141">
        <ele>425.04</ele>
        <time>2013-02-12T14:14:25Z</time>
      </trkpt>
      <trkpt lat="43.00233" lon="1.16133">
        <ele>425.52</ele>
        <time>2013-02-12T14:14:32Z</time>
      </trkpt>
      <trkpt lat="43.00232" lon="1.16126">
        <ele>426</ele>
        <time>2013-02-12T14:14:39Z</time>
      </trkpt>
      <trkpt lat="43.00231" lon="1.16125">
        <ele>426.48</ele>
        <time>2013-02-12T14:14:40Z</time>
      </trkpt>
      <trkpt lat="43.0023" lon="1.16117">
        <ele>428.4</ele>
        <time>2013-02-12T14:14:47Z</time>
      </trkpt>
      <trkpt lat="43.0023" lon="1.16114">
        <ele>427.44</ele>
        <time>2013-02-12T14:14:49Z</time>
      </trkpt>
      <trkpt lat="43.00229" lon="1.1611">
        <ele>428.4</ele>
        <time>2013-02-12T14:14:52Z</time>
      </trkpt>
      <trkpt lat="43.0023" lon="1.16102">
        <ele>429.37</ele>
        <time>2013-02-12T14:15:01Z</time>
      </trkpt>
      <trkpt lat="43.0023" lon="1.16097">
        <ele>429.37</ele>
        <time>2013-02-12T14:15:06Z</time>
      </trkpt>
      <trkpt lat="43.00228" lon="1.16086">
        <ele>429.37</ele>
        <time>2013-02-12T14:15:14Z</time>
      </trkpt>
      <trkpt lat="43.00225" lon="1.16077">
        <ele>431.29</ele>
        <time>2013-02-12T14:15:23Z</time>
      </trkpt>
      <trkpt lat="43.00222" lon="1.16067">
        <ele>432.25</ele>
        <time>2013-02-12T14:15:31Z</time>
      </trkpt>
      <trkpt lat="43.00215" lon="1.16062">
        <ele>432.25</ele>
        <time>2013-02-12T14:15:39Z</time>
      </trkpt>
      <trkpt lat="43.00208" lon="1.16066">
        <ele>434.17</ele>
        <time>2013-02-12T14:15:47Z</time>
      </trkpt>
      <trkpt lat="43.00205" lon="1.16068">
        <ele>434.65</ele>
        <time>2013-02-12T14:15:50Z</time>
      </trkpt>
      <trkpt lat="43.00196" lon="1.16071">
        <ele>436.1</ele>
        <time>2013-02-12T14:15:57Z</time>
      </trkpt>
      <trkpt lat="43.00193" lon="1.16073">
        <ele>436.1</ele>
        <time>2013-02-12T14:16:01Z</time>
      </trkpt>
      <trkpt lat="43.00189" lon="1.16072">
        <ele>437.06</ele>
        <time>2013-02-12T14:16:06Z</time>
      </trkpt>
      <trkpt lat="43.00185" lon="1.16066">
        <ele>437.54</ele>
        <time>2013-02-12T14:16:13Z</time>
      </trkpt>
      <trkpt lat="43.00184" lon="1.16064">
        <ele>438.02</ele>
        <time>2013-02-12T14:16:15Z</time>
      </trkpt>
      <trkpt lat="43.00182" lon="1.16059">
        <ele>436.58</ele>
        <time>2013-02-12T14:16:19Z</time>
      </trkpt>
      <trkpt lat="43.00181" lon="1.16049">
        <ele>437.54</ele>
        <time>2013-02-12T14:16:25Z</time>
      </trkpt>
      <trkpt lat="43.00179" lon="1.1604">
        <ele>438.5</ele>
        <time>2013-02-12T14:16:31Z</time>
      </trkpt>
      <trkpt lat="43.00179" lon="1.16038">
        <ele>438.02</ele>
        <time>2013-02-12T14:16:32Z</time>
      </trkpt>
      <trkpt lat="43.00178" lon="1.16026">
        <ele>438.98</ele>
        <time>2013-02-12T14:16:41Z</time>
      </trkpt>
      <trkpt lat="43.00177" lon="1.16019">
        <ele>439.94</ele>
        <time>2013-02-12T14:16:46Z</time>
      </trkpt>
      <trkpt lat="43.00177" lon="1.16012">
        <ele>440.42</ele>
        <time>2013-02-12T14:16:52Z</time>
      </trkpt>
      <trkpt lat="43.00176" lon="1.16005">
        <ele>440.9</ele>
        <time>2013-02-12T14:16:56Z</time>
      </trkpt>
      <trkpt lat="43.00174" lon="1.15997">
        <ele>441.38</ele>
        <time>2013-02-12T14:17:03Z</time>
      </trkpt>
      <trkpt lat="43.00172" lon="1.15983">
        <ele>442.82</ele>
        <time>2013-02-12T14:17:11Z</time>
      </trkpt>
      <trkpt lat="43.00172" lon="1.15973">
        <ele>443.31</ele>
        <time>2013-02-12T14:17:18Z</time>
      </trkpt>
      <trkpt lat="43.00169" lon="1.15965">
        <ele>444.27</ele>
        <time>2013-02-12T14:17:23Z</time>
      </trkpt>
      <trkpt lat="43.00168" lon="1.15959">
        <ele>443.79</ele>
        <time>2013-02-12T14:17:28Z</time>
      </trkpt>
      <trkpt lat="43.00167" lon="1.15945">
        <ele>445.23</ele>
        <time>2013-02-12T14:17:37Z</time>
      </trkpt>
      <trkpt lat="43.00166" lon="1.15942">
        <ele>445.23</ele>
        <time>2013-02-12T14:17:40Z</time>
      </trkpt>
      <trkpt lat="43.0016" lon="1.1594">
        <ele>445.71</ele>
        <time>2013-02-12T14:17:46Z</time>
      </trkpt>
      <trkpt lat="43.00155" lon="1.15942">
        <ele>446.67</ele>
        <time>2013-02-12T14:17:51Z</time>
      </trkpt>
      <trkpt lat="43.00148" lon="1.15945">
        <ele>446.67</ele>
        <time>2013-02-12T14:17:58Z</time>
      </trkpt>
      <trkpt lat="43.00141" lon="1.15951">
        <ele>446.67</ele>
        <time>2013-02-12T14:18:05Z</time>
      </trkpt>
      <trkpt lat="43.00137" lon="1.15952">
        <ele>447.63</ele>
        <time>2013-02-12T14:18:08Z</time>
      </trkpt>
      <trkpt lat="43.00133" lon="1.15952">
        <ele>447.63</ele>
        <time>2013-02-12T14:18:12Z</time>
      </trkpt>
      <trkpt lat="43.00125" lon="1.15951">
        <ele>448.59</ele>
        <time>2013-02-12T14:18:21Z</time>
      </trkpt>
      <trkpt lat="43.00124" lon="1.15955">
        <ele>448.11</ele>
        <time>2013-02-12T14:18:27Z</time>
      </trkpt>
      <trkpt lat="43.00124" lon="1.15956">
        <ele>448.11</ele>
        <time>2013-02-12T14:18:28Z</time>
      </trkpt>
      <trkpt lat="43.00124" lon="1.15967">
        <ele>446.19</ele>
        <time>2013-02-12T14:18:36Z</time>
      </trkpt>
      <trkpt lat="43.00123" lon="1.15974">
        <ele>446.19</ele>
        <time>2013-02-12T14:18:40Z</time>
      </trkpt>
      <trkpt lat="43.00125" lon="1.15986">
        <ele>447.15</ele>
        <time>2013-02-12T14:18:50Z</time>
      </trkpt>
      <trkpt lat="43.00126" lon="1.15988">
        <ele>447.15</ele>
        <time>2013-02-12T14:19:01Z</time>
      </trkpt>
      <trkpt lat="43.00126" lon="1.15988">
        <ele>446.19</ele>
        <time>2013-02-12T14:19:04Z</time>
      </trkpt>
      <trkpt lat="43.00125" lon="1.15986">
        <ele>447.15</ele>
        <time>2013-02-12T14:19:06Z</time>
      </trkpt>
      <trkpt lat="43.00126" lon="1.15976">
        <ele>446.67</ele>
        <time>2013-02-12T14:19:15Z</time>
      </trkpt>
      <trkpt lat="43.00129" lon="1.15975">
        <ele>447.63</ele>
        <time>2013-02-12T14:19:22Z</time>
      </trkpt>
      <trkpt lat="43.00129" lon="1.15975">
        <ele>448.11</ele>
        <time>2013-02-12T14:19:33Z</time>
      </trkpt>
      <trkpt lat="43.00128" lon="1.15972">
        <ele>447.15</ele>
        <time>2013-02-12T14:19:38Z</time>
      </trkpt>
      <trkpt lat="43.00124" lon="1.15969">
        <ele>446.67</ele>
        <time>2013-02-12T14:19:42Z</time>
      </trkpt>
      <trkpt lat="43.00123" lon="1.15965">
        <ele>447.15</ele>
        <time>2013-02-12T14:19:45Z</time>
      </trkpt>
      <trkpt lat="43.00125" lon="1.15949">
        <ele>448.11</ele>
        <time>2013-02-12T14:19:55Z</time>
      </trkpt>
      <trkpt lat="43.00124" lon="1.1595">
        <ele>447.63</ele>
        <time>2013-02-12T14:19:58Z</time>
      </trkpt>
      <trkpt lat="43.00116" lon="1.15949">
        <ele>449.55</ele>
        <time>2013-02-12T14:20:05Z</time>
      </trkpt>
      <trkpt lat="43.00107" lon="1.1595">
        <ele>449.55</ele>
        <time>2013-02-12T14:20:13Z</time>
      </trkpt>
      <trkpt lat="43.00102" lon="1.15942">
        <ele>450.03</ele>
        <time>2013-02-12T14:20:21Z</time>
      </trkpt>
      <trkpt lat="43.00101" lon="1.1594">
        <ele>449.55</ele>
        <time>2013-02-12T14:20:23Z</time>
      </trkpt>
      <trkpt lat="43.00101" lon="1.15927">
        <ele>449.07</ele>
        <time>2013-02-12T14:20:32Z</time>
      </trkpt>
      <trkpt lat="43.001" lon="1.15922">
        <ele>450.52</ele>
        <time>2013-02-12T14:20:39Z</time>
      </trkpt>
      <trkpt lat="43.001" lon="1.15921">
        <ele>451.48</ele>
        <time>2013-02-12T14:20:47Z</time>
      </trkpt>
      <trkpt lat="43.00101" lon="1.15921">
        <ele>451.48</ele>
        <time>2013-02-12T14:20:50Z</time>
      </trkpt>
      <trkpt lat="43.001" lon="1.15922">
        <ele>450.52</ele>
        <time>2013-02-12T14:20:57Z</time>
      </trkpt>
      <trkpt lat="43.001" lon="1.15923">
        <ele>450.03</ele>
        <time>2013-02-12T14:21:03Z</time>
      </trkpt>
      <trkpt lat="43.00101" lon="1.15924">
        <ele>448.59</ele>
        <time>2013-02-12T14:21:18Z</time>
      </trkpt>
      <trkpt lat="43.00101" lon="1.15924">
        <ele>449.55</ele>
        <time>2013-02-12T14:21:32Z</time>
      </trkpt>
      <trkpt lat="43.001" lon="1.15924">
        <ele>449.07</ele>
        <time>2013-02-12T14:21:44Z</time>
      </trkpt>
      <trkpt lat="43.00101" lon="1.15924">
        <ele>449.07</ele>
        <time>2013-02-12T14:21:57Z</time>
      </trkpt>
      <trkpt lat="43.00101" lon="1.15924">
        <ele>449.55</ele>
        <time>2013-02-12T14:22:11Z</time>
      </trkpt>
      <trkpt lat="43.00102" lon="1.15924">
        <ele>449.55</ele>
        <time>2013-02-12T14:22:21Z</time>
      </trkpt>
      <trkpt lat="43.00103" lon="1.15924">
        <ele>450.03</ele>
        <time>2013-02-12T14:22:34Z</time>
      </trkpt>
      <trkpt lat="43.00102" lon="1.15924">
        <ele>449.55</ele>
        <time>2013-02-12T14:22:47Z</time>
      </trkpt>
      <trkpt lat="43.00102" lon="1.15924">
        <ele>450.03</ele>
        <time>2013-02-12T14:23:04Z</time>
      </trkpt>
      <trkpt lat="43.00103" lon="1.15925">
        <ele>448.59</ele>
        <time>2013-02-12T14:23:15Z</time>
      </trkpt>
      <trkpt lat="43.00105" lon="1.15925">
        <ele>449.55</ele>
        <time>2013-02-12T14:23:33Z</time>
      </trkpt>
      <trkpt lat="43.00105" lon="1.15925">
        <ele>449.07</ele>
        <time>2013-02-12T14:23:49Z</time>
      </trkpt>
      <trkpt lat="43.00104" lon="1.15926">
        <ele>450.03</ele>
        <time>2013-02-12T14:24:02Z</time>
      </trkpt>
      <trkpt lat="43.00104" lon="1.15926">
        <ele>451</ele>
        <time>2013-02-12T14:24:12Z</time>
      </trkpt>
      <trkpt lat="43.00104" lon="1.15926">
        <ele>449.07</ele>
        <time>2013-02-12T14:24:28Z</time>
      </trkpt>
      <trkpt lat="43.00104" lon="1.15926">
        <ele>449.55</ele>
        <time>2013-02-12T14:24:45Z</time>
      </trkpt>
      <trkpt lat="43.00104" lon="1.15925">
        <ele>449.07</ele>
        <time>2013-02-12T14:25:00Z</time>
      </trkpt>
      <trkpt lat="43.00104" lon="1.15925">
        <ele>449.07</ele>
        <time>2013-02-12T14:25:15Z</time>
      </trkpt>
      <trkpt lat="43.00104" lon="1.15925">
        <ele>449.55</ele>
        <time>2013-02-12T14:25:30Z</time>
      </trkpt>
      <trkpt lat="43.00104" lon="1.15924">
        <ele>449.07</ele>
        <time>2013-02-12T14:25:46Z</time>
      </trkpt>
      <trkpt lat="43.00103" lon="1.15924">
        <ele>448.59</ele>
        <time>2013-02-12T14:25:58Z</time>
      </trkpt>
      <trkpt lat="43.00103" lon="1.15924">
        <ele>449.07</ele>
        <time>2013-02-12T14:26:12Z</time>
      </trkpt>
      <trkpt lat="43.00103" lon="1.15924">
        <ele>449.07</ele>
        <time>2013-02-12T14:26:24Z</time>
      </trkpt>
      <trkpt lat="43.00103" lon="1.15923">
        <ele>449.07</ele>
        <time>2013-02-12T14:26:26Z</time>
      </trkpt>
      <trkpt lat="43.00103" lon="1.15923">
        <ele>449.07</ele>
        <time>2013-02-12T14:26:34Z</time>
      </trkpt>
    </trkseg>
  </trk>
</gpx>